<?xml version="1.0" encoding="UTF-8" standalone="no" ?>
<gpx xmlns="http://www.topografix.com/GPX/1/1" xmlns:xsi="http://www.w3.org/2001/XMLSchema-instance" xsi:schemaLocation="http://www.topografix.com/GPX/1/1 http://www.topografix.com/GPX/1/1/gpx.xsd" version="1.1" creator="VisuGPX - https://www.visugpx.com">
  <metadata>
    <name>Castelnau 07 03 2024</name>
    <desc><![CDATA[trace assez technique déconseiller aux débutants]]></desc>
  </metadata>
  <trk>
    <name><![CDATA[Castelnau 07 03 2024]]></name>
    <extensions>
      <line xmlns="http://www.topografix.com/GPX/gpx_style/0/2">
        <color>0000FF</color>
        <width>4</width>
          <extensions>
            <sens>1</sens>
          </extensions>
      </line>
    </extensions>
    <trkseg>
      <trkpt lat="43.43437" lon="3.4405">
        <ele>42.5</ele>
        <time>2024-03-07T12:21:05.006Z</time>
      </trkpt>
      <trkpt lat="43.43441" lon="3.44039">
        <ele>42.8</ele>
        <time>2024-03-07T12:37:13.999Z</time>
      </trkpt>
      <trkpt lat="43.43442" lon="3.44025">
        <ele>43</ele>
        <time>2024-03-07T12:37:22.997Z</time>
      </trkpt>
      <trkpt lat="43.43435" lon="3.44016">
        <ele>43.2</ele>
        <time>2024-03-07T12:37:30.991Z</time>
      </trkpt>
      <trkpt lat="43.43424" lon="3.44011">
        <ele>42.7</ele>
        <time>2024-03-07T12:37:46.999Z</time>
      </trkpt>
      <trkpt lat="43.43411" lon="3.44008">
        <ele>41.8</ele>
        <time>2024-03-07T12:37:50.014Z</time>
      </trkpt>
      <trkpt lat="43.43402" lon="3.44005">
        <ele>40.8</ele>
        <time>2024-03-07T12:37:51.985Z</time>
      </trkpt>
      <trkpt lat="43.43392" lon="3.44002">
        <ele>39.5</ele>
        <time>2024-03-07T12:37:54.003Z</time>
      </trkpt>
      <trkpt lat="43.4338" lon="3.43999">
        <ele>38.8</ele>
        <time>2024-03-07T12:37:57.009Z</time>
      </trkpt>
      <trkpt lat="43.43369" lon="3.43996">
        <ele>38.8</ele>
        <time>2024-03-07T12:38:00.006Z</time>
      </trkpt>
      <trkpt lat="43.43359" lon="3.43994">
        <ele>39</ele>
        <time>2024-03-07T12:38:03.011Z</time>
      </trkpt>
      <trkpt lat="43.43348" lon="3.4399">
        <ele>39.5</ele>
        <time>2024-03-07T12:38:07.009Z</time>
      </trkpt>
      <trkpt lat="43.43338" lon="3.43986">
        <ele>39.7</ele>
        <time>2024-03-07T12:38:11.002Z</time>
      </trkpt>
      <trkpt lat="43.43329" lon="3.43982">
        <ele>39.5</ele>
        <time>2024-03-07T12:38:13.998Z</time>
      </trkpt>
      <trkpt lat="43.43321" lon="3.43974">
        <ele>39.1</ele>
        <time>2024-03-07T12:38:16.993Z</time>
      </trkpt>
      <trkpt lat="43.43313" lon="3.43966">
        <ele>38.5</ele>
        <time>2024-03-07T12:38:20.002Z</time>
      </trkpt>
      <trkpt lat="43.43305" lon="3.43956">
        <ele>38.1</ele>
        <time>2024-03-07T12:38:23.008Z</time>
      </trkpt>
      <trkpt lat="43.43296" lon="3.43945">
        <ele>37.6</ele>
        <time>2024-03-07T12:38:26.014Z</time>
      </trkpt>
      <trkpt lat="43.43287" lon="3.43934">
        <ele>36.2</ele>
        <time>2024-03-07T12:38:29.015Z</time>
      </trkpt>
      <trkpt lat="43.43278" lon="3.43922">
        <ele>34.2</ele>
        <time>2024-03-07T12:38:32.003Z</time>
      </trkpt>
      <trkpt lat="43.4327" lon="3.43912">
        <ele>33.7</ele>
        <time>2024-03-07T12:38:34.997Z</time>
      </trkpt>
      <trkpt lat="43.43262" lon="3.43903">
        <ele>33.2</ele>
        <time>2024-03-07T12:38:40.003Z</time>
      </trkpt>
      <trkpt lat="43.43253" lon="3.43893">
        <ele>32.3</ele>
        <time>2024-03-07T12:38:44.006Z</time>
      </trkpt>
      <trkpt lat="43.43244" lon="3.43883">
        <ele>31.7</ele>
        <time>2024-03-07T12:38:47.009Z</time>
      </trkpt>
      <trkpt lat="43.43236" lon="3.43875">
        <ele>31.2</ele>
        <time>2024-03-07T12:38:49.004Z</time>
      </trkpt>
      <trkpt lat="43.43229" lon="3.43867">
        <ele>30.6</ele>
        <time>2024-03-07T12:38:51.011Z</time>
      </trkpt>
      <trkpt lat="43.43218" lon="3.43859">
        <ele>29.8</ele>
        <time>2024-03-07T12:38:53.995Z</time>
      </trkpt>
      <trkpt lat="43.43206" lon="3.43852">
        <ele>29</ele>
        <time>2024-03-07T12:38:57.001Z</time>
      </trkpt>
      <trkpt lat="43.43197" lon="3.43845">
        <ele>28</ele>
        <time>2024-03-07T12:38:59.007Z</time>
      </trkpt>
      <trkpt lat="43.43188" lon="3.43838">
        <ele>26.6</ele>
        <time>2024-03-07T12:39:01.003Z</time>
      </trkpt>
      <trkpt lat="43.43178" lon="3.4383">
        <ele>25.3</ele>
        <time>2024-03-07T12:39:03.009Z</time>
      </trkpt>
      <trkpt lat="43.43168" lon="3.4382">
        <ele>24.2</ele>
        <time>2024-03-07T12:39:05.006Z</time>
      </trkpt>
      <trkpt lat="43.43158" lon="3.43808">
        <ele>23.1</ele>
        <time>2024-03-07T12:39:06.994Z</time>
      </trkpt>
      <trkpt lat="43.43148" lon="3.43798">
        <ele>22.6</ele>
        <time>2024-03-07T12:39:09.001Z</time>
      </trkpt>
      <trkpt lat="43.43135" lon="3.43793">
        <ele>22</ele>
        <time>2024-03-07T12:39:10.992Z</time>
      </trkpt>
      <trkpt lat="43.43122" lon="3.43789">
        <ele>21.2</ele>
        <time>2024-03-07T12:39:12.992Z</time>
      </trkpt>
      <trkpt lat="43.4311" lon="3.43785">
        <ele>20.5</ele>
        <time>2024-03-07T12:39:14.997Z</time>
      </trkpt>
      <trkpt lat="43.43099" lon="3.43783">
        <ele>20.5</ele>
        <time>2024-03-07T12:39:16.999Z</time>
      </trkpt>
      <trkpt lat="43.43087" lon="3.4378">
        <ele>20.8</ele>
        <time>2024-03-07T12:39:20.003Z</time>
      </trkpt>
      <trkpt lat="43.43077" lon="3.4378">
        <ele>20.1</ele>
        <time>2024-03-07T12:39:22.002Z</time>
      </trkpt>
      <trkpt lat="43.43064" lon="3.43781">
        <ele>18.8</ele>
        <time>2024-03-07T12:39:23.994Z</time>
      </trkpt>
      <trkpt lat="43.43049" lon="3.43782">
        <ele>18</ele>
        <time>2024-03-07T12:39:26.005Z</time>
      </trkpt>
      <trkpt lat="43.43035" lon="3.43784">
        <ele>17.8</ele>
        <time>2024-03-07T12:39:28.003Z</time>
      </trkpt>
      <trkpt lat="43.43021" lon="3.43787">
        <ele>17.5</ele>
        <time>2024-03-07T12:39:30.003Z</time>
      </trkpt>
      <trkpt lat="43.43008" lon="3.43794">
        <ele>17.1</ele>
        <time>2024-03-07T12:39:31.997Z</time>
      </trkpt>
      <trkpt lat="43.42996" lon="3.43801">
        <ele>16.9</ele>
        <time>2024-03-07T12:39:34.000Z</time>
      </trkpt>
      <trkpt lat="43.42985" lon="3.43808">
        <ele>16.5</ele>
        <time>2024-03-07T12:39:36.007Z</time>
      </trkpt>
      <trkpt lat="43.42975" lon="3.43814">
        <ele>16.4</ele>
        <time>2024-03-07T12:39:38.007Z</time>
      </trkpt>
      <trkpt lat="43.42963" lon="3.43821">
        <ele>16.5</ele>
        <time>2024-03-07T12:39:40.994Z</time>
      </trkpt>
      <trkpt lat="43.42951" lon="3.43828">
        <ele>16.3</ele>
        <time>2024-03-07T12:39:44.010Z</time>
      </trkpt>
      <trkpt lat="43.42943" lon="3.43833">
        <ele>16</ele>
        <time>2024-03-07T12:39:45.998Z</time>
      </trkpt>
      <trkpt lat="43.42934" lon="3.43839">
        <ele>16</ele>
        <time>2024-03-07T12:39:48.011Z</time>
      </trkpt>
      <trkpt lat="43.42926" lon="3.43845">
        <ele>16</ele>
        <time>2024-03-07T12:39:49.999Z</time>
      </trkpt>
      <trkpt lat="43.42917" lon="3.43851">
        <ele>16</ele>
        <time>2024-03-07T12:39:51.998Z</time>
      </trkpt>
      <trkpt lat="43.42909" lon="3.43857">
        <ele>15.8</ele>
        <time>2024-03-07T12:39:53.995Z</time>
      </trkpt>
      <trkpt lat="43.42897" lon="3.43865">
        <ele>15.4</ele>
        <time>2024-03-07T12:39:57.010Z</time>
      </trkpt>
      <trkpt lat="43.42889" lon="3.4387">
        <ele>15.3</ele>
        <time>2024-03-07T12:39:58.998Z</time>
      </trkpt>
      <trkpt lat="43.42876" lon="3.43875">
        <ele>15.5</ele>
        <time>2024-03-07T12:40:02.007Z</time>
      </trkpt>
      <trkpt lat="43.42867" lon="3.43876">
        <ele>15.5</ele>
        <time>2024-03-07T12:40:04.000Z</time>
      </trkpt>
      <trkpt lat="43.42854" lon="3.43875">
        <ele>15.4</ele>
        <time>2024-03-07T12:40:06.985Z</time>
      </trkpt>
      <trkpt lat="43.42842" lon="3.43878">
        <ele>15</ele>
        <time>2024-03-07T12:40:10.004Z</time>
      </trkpt>
      <trkpt lat="43.42831" lon="3.43884">
        <ele>14.5</ele>
        <time>2024-03-07T12:40:12.988Z</time>
      </trkpt>
      <trkpt lat="43.42819" lon="3.43889">
        <ele>14.5</ele>
        <time>2024-03-07T12:40:16.006Z</time>
      </trkpt>
      <trkpt lat="43.42808" lon="3.43893">
        <ele>14.9</ele>
        <time>2024-03-07T12:40:18.994Z</time>
      </trkpt>
      <trkpt lat="43.42796" lon="3.43896">
        <ele>15.3</ele>
        <time>2024-03-07T12:40:22.010Z</time>
      </trkpt>
      <trkpt lat="43.42783" lon="3.43899">
        <ele>15.5</ele>
        <time>2024-03-07T12:40:25.014Z</time>
      </trkpt>
      <trkpt lat="43.42771" lon="3.43902">
        <ele>15.4</ele>
        <time>2024-03-07T12:40:27.999Z</time>
      </trkpt>
      <trkpt lat="43.4276" lon="3.43903">
        <ele>15.2</ele>
        <time>2024-03-07T12:40:31.003Z</time>
      </trkpt>
      <trkpt lat="43.42749" lon="3.43906">
        <ele>14.8</ele>
        <time>2024-03-07T12:40:33.999Z</time>
      </trkpt>
      <trkpt lat="43.42738" lon="3.43915">
        <ele>14.5</ele>
        <time>2024-03-07T12:40:37.001Z</time>
      </trkpt>
      <trkpt lat="43.42733" lon="3.43913">
        <ele>14.6</ele>
      </trkpt>
      <trkpt lat="43.42726" lon="3.43909">
        <ele>14.7</ele>
      </trkpt>
      <trkpt lat="43.42712" lon="3.43902">
        <ele>14.5</ele>
        <time>2024-03-07T12:42:15.999Z</time>
      </trkpt>
      <trkpt lat="43.42701" lon="3.43896">
        <ele>14.3</ele>
        <time>2024-03-07T12:42:18.989Z</time>
      </trkpt>
      <trkpt lat="43.42692" lon="3.43892">
        <ele>14.1</ele>
        <time>2024-03-07T12:42:20.987Z</time>
      </trkpt>
      <trkpt lat="43.4268" lon="3.43886">
        <ele>14.1</ele>
        <time>2024-03-07T12:42:24.002Z</time>
      </trkpt>
      <trkpt lat="43.42668" lon="3.43881">
        <ele>14.3</ele>
        <time>2024-03-07T12:42:27.005Z</time>
      </trkpt>
      <trkpt lat="43.4266" lon="3.43876">
        <ele>14.2</ele>
        <time>2024-03-07T12:42:29.003Z</time>
      </trkpt>
      <trkpt lat="43.42647" lon="3.43871">
        <ele>13.7</ele>
        <time>2024-03-07T12:42:32.010Z</time>
      </trkpt>
      <trkpt lat="43.42634" lon="3.43865">
        <ele>13.3</ele>
        <time>2024-03-07T12:42:35.003Z</time>
      </trkpt>
      <trkpt lat="43.42625" lon="3.43864">
        <ele>13.6</ele>
        <time>2024-03-07T12:42:37.007Z</time>
      </trkpt>
      <trkpt lat="43.42616" lon="3.43861">
        <ele>13.8</ele>
        <time>2024-03-07T12:42:38.997Z</time>
      </trkpt>
      <trkpt lat="43.42602" lon="3.43857">
        <ele>14</ele>
        <time>2024-03-07T12:42:42.000Z</time>
      </trkpt>
      <trkpt lat="43.42589" lon="3.43852">
        <ele>14</ele>
        <time>2024-03-07T12:42:45.007Z</time>
      </trkpt>
      <trkpt lat="43.42581" lon="3.43849">
        <ele>14</ele>
        <time>2024-03-07T12:42:46.993Z</time>
      </trkpt>
      <trkpt lat="43.42572" lon="3.43845">
        <ele>14</ele>
        <time>2024-03-07T12:42:49.002Z</time>
      </trkpt>
      <trkpt lat="43.42559" lon="3.43838">
        <ele>14</ele>
        <time>2024-03-07T12:42:51.993Z</time>
      </trkpt>
      <trkpt lat="43.42551" lon="3.43834">
        <ele>14</ele>
        <time>2024-03-07T12:42:53.999Z</time>
      </trkpt>
      <trkpt lat="43.42539" lon="3.43826">
        <ele>13.8</ele>
        <time>2024-03-07T12:42:57.011Z</time>
      </trkpt>
      <trkpt lat="43.42529" lon="3.43816">
        <ele>13.4</ele>
        <time>2024-03-07T12:42:59.982Z</time>
      </trkpt>
      <trkpt lat="43.4252" lon="3.43808">
        <ele>13.3</ele>
        <time>2024-03-07T12:43:03.003Z</time>
      </trkpt>
      <trkpt lat="43.4251" lon="3.43802">
        <ele>13.7</ele>
        <time>2024-03-07T12:43:05.998Z</time>
      </trkpt>
      <trkpt lat="43.42498" lon="3.43796">
        <ele>14</ele>
        <time>2024-03-07T12:43:09.004Z</time>
      </trkpt>
      <trkpt lat="43.42486" lon="3.4379">
        <ele>13.8</ele>
        <time>2024-03-07T12:43:12.006Z</time>
      </trkpt>
      <trkpt lat="43.42473" lon="3.43784">
        <ele>13.8</ele>
        <time>2024-03-07T12:43:15.001Z</time>
      </trkpt>
      <trkpt lat="43.42465" lon="3.43779">
        <ele>13.7</ele>
        <time>2024-03-07T12:43:16.999Z</time>
      </trkpt>
      <trkpt lat="43.42456" lon="3.43775">
        <ele>13.4</ele>
        <time>2024-03-07T12:43:19.001Z</time>
      </trkpt>
      <trkpt lat="43.42447" lon="3.43771">
        <ele>13.1</ele>
        <time>2024-03-07T12:43:21.000Z</time>
      </trkpt>
      <trkpt lat="43.42435" lon="3.43765">
        <ele>13</ele>
        <time>2024-03-07T12:43:23.990Z</time>
      </trkpt>
      <trkpt lat="43.42424" lon="3.43759">
        <ele>13</ele>
        <time>2024-03-07T12:43:27.010Z</time>
      </trkpt>
      <trkpt lat="43.42413" lon="3.43754">
        <ele>13</ele>
        <time>2024-03-07T12:43:29.991Z</time>
      </trkpt>
      <trkpt lat="43.42403" lon="3.43744">
        <ele>12.9</ele>
        <time>2024-03-07T12:43:32.999Z</time>
      </trkpt>
      <trkpt lat="43.42395" lon="3.43734">
        <ele>12.6</ele>
        <time>2024-03-07T12:43:35.999Z</time>
      </trkpt>
      <trkpt lat="43.42386" lon="3.43724">
        <ele>12.2</ele>
        <time>2024-03-07T12:43:39.001Z</time>
      </trkpt>
      <trkpt lat="43.42376" lon="3.43711">
        <ele>12.7</ele>
        <time>2024-03-07T12:43:42.017Z</time>
      </trkpt>
      <trkpt lat="43.42369" lon="3.43703">
        <ele>12.9</ele>
        <time>2024-03-07T12:43:43.999Z</time>
      </trkpt>
      <trkpt lat="43.42362" lon="3.43694">
        <ele>13</ele>
        <time>2024-03-07T12:43:45.996Z</time>
      </trkpt>
      <trkpt lat="43.42353" lon="3.43684">
        <ele>13</ele>
        <time>2024-03-07T12:43:48.009Z</time>
      </trkpt>
      <trkpt lat="43.42344" lon="3.43674">
        <ele>13</ele>
        <time>2024-03-07T12:43:49.983Z</time>
      </trkpt>
      <trkpt lat="43.42335" lon="3.43665">
        <ele>12.9</ele>
        <time>2024-03-07T12:43:52.008Z</time>
      </trkpt>
      <trkpt lat="43.42327" lon="3.43656">
        <ele>12.7</ele>
        <time>2024-03-07T12:43:53.997Z</time>
      </trkpt>
      <trkpt lat="43.42323" lon="3.43645">
        <ele>12.5</ele>
        <time>2024-03-07T12:43:56.001Z</time>
      </trkpt>
      <trkpt lat="43.42318" lon="3.43633">
        <ele>12.5</ele>
        <time>2024-03-07T12:43:57.989Z</time>
      </trkpt>
      <trkpt lat="43.42308" lon="3.43621">
        <ele>12.4</ele>
        <time>2024-03-07T12:44:00.988Z</time>
      </trkpt>
      <trkpt lat="43.42299" lon="3.43614">
        <ele>12.3</ele>
        <time>2024-03-07T12:44:02.983Z</time>
      </trkpt>
      <trkpt lat="43.4229" lon="3.43605">
        <ele>12.6</ele>
        <time>2024-03-07T12:44:05.001Z</time>
      </trkpt>
      <trkpt lat="43.4228" lon="3.43596">
        <ele>12.9</ele>
        <time>2024-03-07T12:44:07.010Z</time>
      </trkpt>
      <trkpt lat="43.42272" lon="3.43587">
        <ele>13.2</ele>
        <time>2024-03-07T12:44:08.994Z</time>
      </trkpt>
      <trkpt lat="43.42263" lon="3.4358">
        <ele>13.4</ele>
        <time>2024-03-07T12:44:10.992Z</time>
      </trkpt>
      <trkpt lat="43.42253" lon="3.43575">
        <ele>13.6</ele>
        <time>2024-03-07T12:44:13.004Z</time>
      </trkpt>
      <trkpt lat="43.42242" lon="3.43571">
        <ele>14.5</ele>
        <time>2024-03-07T12:44:14.999Z</time>
      </trkpt>
      <trkpt lat="43.42231" lon="3.43567">
        <ele>15.3</ele>
        <time>2024-03-07T12:44:16.991Z</time>
      </trkpt>
      <trkpt lat="43.42221" lon="3.43562">
        <ele>15.9</ele>
        <time>2024-03-07T12:44:18.996Z</time>
      </trkpt>
      <trkpt lat="43.42213" lon="3.43555">
        <ele>16.6</ele>
        <time>2024-03-07T12:44:20.996Z</time>
      </trkpt>
      <trkpt lat="43.42205" lon="3.43545">
        <ele>18</ele>
        <time>2024-03-07T12:44:23.982Z</time>
      </trkpt>
      <trkpt lat="43.42197" lon="3.43539">
        <ele>19.5</ele>
        <time>2024-03-07T12:44:27.005Z</time>
      </trkpt>
      <trkpt lat="43.42186" lon="3.43534">
        <ele>20.8</ele>
        <time>2024-03-07T12:44:30.997Z</time>
      </trkpt>
      <trkpt lat="43.42176" lon="3.43534">
        <ele>21.8</ele>
        <time>2024-03-07T12:44:33.999Z</time>
      </trkpt>
      <trkpt lat="43.42173" lon="3.43534">
        <ele>22.1</ele>
      </trkpt>
      <trkpt lat="43.42171" lon="3.43531">
        <ele>22.4</ele>
      </trkpt>
      <trkpt lat="43.42172" lon="3.43523">
        <ele>22.9</ele>
        <time>2024-03-07T12:44:38.000Z</time>
      </trkpt>
      <trkpt lat="43.42179" lon="3.43511">
        <ele>22.9</ele>
        <time>2024-03-07T12:44:41.008Z</time>
      </trkpt>
      <trkpt lat="43.42185" lon="3.435">
        <ele>22.7</ele>
        <time>2024-03-07T12:44:43.005Z</time>
      </trkpt>
      <trkpt lat="43.4219" lon="3.43485">
        <ele>22.6</ele>
        <time>2024-03-07T12:44:45.993Z</time>
      </trkpt>
      <trkpt lat="43.42195" lon="3.43467">
        <ele>22.1</ele>
        <time>2024-03-07T12:44:48.992Z</time>
      </trkpt>
      <trkpt lat="43.42196" lon="3.43454">
        <ele>22.4</ele>
        <time>2024-03-07T12:44:50.980Z</time>
      </trkpt>
      <trkpt lat="43.42198" lon="3.43441">
        <ele>22.8</ele>
        <time>2024-03-07T12:44:52.986Z</time>
      </trkpt>
      <trkpt lat="43.42198" lon="3.43425">
        <ele>24.4</ele>
        <time>2024-03-07T12:44:55.988Z</time>
      </trkpt>
      <trkpt lat="43.422" lon="3.43412">
        <ele>25.1</ele>
        <time>2024-03-07T12:45:01.004Z</time>
      </trkpt>
      <trkpt lat="43.42195" lon="3.43401">
        <ele>27</ele>
        <time>2024-03-07T12:45:04.991Z</time>
      </trkpt>
      <trkpt lat="43.42188" lon="3.4339">
        <ele>29.6</ele>
        <time>2024-03-07T12:45:08.986Z</time>
      </trkpt>
      <trkpt lat="43.42181" lon="3.43382">
        <ele>30.3</ele>
        <time>2024-03-07T12:45:11.984Z</time>
      </trkpt>
      <trkpt lat="43.42171" lon="3.43376">
        <ele>31.3</ele>
        <time>2024-03-07T12:45:15.992Z</time>
      </trkpt>
      <trkpt lat="43.42162" lon="3.43373">
        <ele>32.6</ele>
        <time>2024-03-07T12:45:20.989Z</time>
      </trkpt>
      <trkpt lat="43.42152" lon="3.43371">
        <ele>34.5</ele>
        <time>2024-03-07T12:45:25.001Z</time>
      </trkpt>
      <trkpt lat="43.42141" lon="3.43367">
        <ele>36.3</ele>
        <time>2024-03-07T12:45:28.987Z</time>
      </trkpt>
      <trkpt lat="43.42132" lon="3.43363">
        <ele>38.2</ele>
        <time>2024-03-07T12:45:34.981Z</time>
      </trkpt>
      <trkpt lat="43.42133" lon="3.43344">
        <ele>38.3</ele>
        <time>2024-03-07T12:46:19.002Z</time>
      </trkpt>
      <trkpt lat="43.42134" lon="3.43332">
        <ele>38.5</ele>
        <time>2024-03-07T12:46:22.006Z</time>
      </trkpt>
      <trkpt lat="43.42136" lon="3.43319">
        <ele>39.2</ele>
        <time>2024-03-07T12:46:25.987Z</time>
      </trkpt>
      <trkpt lat="43.42142" lon="3.43309">
        <ele>38.4</ele>
        <time>2024-03-07T12:46:28.987Z</time>
      </trkpt>
      <trkpt lat="43.42148" lon="3.43298">
        <ele>36.9</ele>
        <time>2024-03-07T12:46:32.008Z</time>
      </trkpt>
      <trkpt lat="43.42147" lon="3.43283">
        <ele>38.2</ele>
        <time>2024-03-07T12:46:36.999Z</time>
      </trkpt>
      <trkpt lat="43.42143" lon="3.4327">
        <ele>39</ele>
        <time>2024-03-07T12:46:39.997Z</time>
      </trkpt>
      <trkpt lat="43.42142" lon="3.43254">
        <ele>38.7</ele>
        <time>2024-03-07T12:46:42.995Z</time>
      </trkpt>
      <trkpt lat="43.42138" lon="3.43241">
        <ele>38.5</ele>
        <time>2024-03-07T12:46:46.986Z</time>
      </trkpt>
      <trkpt lat="43.42134" lon="3.43227">
        <ele>38.2</ele>
        <time>2024-03-07T12:46:51.006Z</time>
      </trkpt>
      <trkpt lat="43.42129" lon="3.43214">
        <ele>37.8</ele>
        <time>2024-03-07T12:46:53.990Z</time>
      </trkpt>
      <trkpt lat="43.42121" lon="3.43204">
        <ele>38.4</ele>
        <time>2024-03-07T12:46:57.000Z</time>
      </trkpt>
      <trkpt lat="43.42111" lon="3.43199">
        <ele>40.3</ele>
        <time>2024-03-07T12:47:01.011Z</time>
      </trkpt>
      <trkpt lat="43.42101" lon="3.43194">
        <ele>40.7</ele>
        <time>2024-03-07T12:47:05.012Z</time>
      </trkpt>
      <trkpt lat="43.42091" lon="3.43195">
        <ele>41.5</ele>
        <time>2024-03-07T12:47:08.978Z</time>
      </trkpt>
      <trkpt lat="43.42083" lon="3.4319">
        <ele>41.5</ele>
        <time>2024-03-07T12:47:12.998Z</time>
      </trkpt>
      <trkpt lat="43.42073" lon="3.43179">
        <ele>40.5</ele>
        <time>2024-03-07T12:47:15.997Z</time>
      </trkpt>
      <trkpt lat="43.42064" lon="3.43176">
        <ele>40.2</ele>
        <time>2024-03-07T12:47:18.993Z</time>
      </trkpt>
      <trkpt lat="43.42052" lon="3.43177">
        <ele>40.2</ele>
        <time>2024-03-07T12:47:23.000Z</time>
      </trkpt>
      <trkpt lat="43.42043" lon="3.43179">
        <ele>39.9</ele>
        <time>2024-03-07T12:47:25.993Z</time>
      </trkpt>
      <trkpt lat="43.42038" lon="3.4319">
        <ele>41.1</ele>
        <time>2024-03-07T12:47:31.005Z</time>
      </trkpt>
      <trkpt lat="43.42045" lon="3.43201">
        <ele>42.8</ele>
        <time>2024-03-07T12:47:35.995Z</time>
      </trkpt>
      <trkpt lat="43.42051" lon="3.43212">
        <ele>44</ele>
        <time>2024-03-07T12:47:40.001Z</time>
      </trkpt>
      <trkpt lat="43.42056" lon="3.43223">
        <ele>45.1</ele>
        <time>2024-03-07T12:47:45.006Z</time>
      </trkpt>
      <trkpt lat="43.42065" lon="3.43254">
        <ele>46.9</ele>
        <time>2024-03-07T12:48:24.995Z</time>
      </trkpt>
      <trkpt lat="43.42068" lon="3.43267">
        <ele>47.5</ele>
        <time>2024-03-07T12:48:27.982Z</time>
      </trkpt>
      <trkpt lat="43.42071" lon="3.4328">
        <ele>47.9</ele>
        <time>2024-03-07T12:48:30.996Z</time>
      </trkpt>
      <trkpt lat="43.42074" lon="3.43295">
        <ele>47.9</ele>
        <time>2024-03-07T12:48:34.004Z</time>
      </trkpt>
      <trkpt lat="43.42076" lon="3.4331">
        <ele>48</ele>
        <time>2024-03-07T12:48:37.008Z</time>
      </trkpt>
      <trkpt lat="43.42076" lon="3.43326">
        <ele>48.5</ele>
        <time>2024-03-07T12:48:40.006Z</time>
      </trkpt>
      <trkpt lat="43.42077" lon="3.43342">
        <ele>48.7</ele>
        <time>2024-03-07T12:48:43.004Z</time>
      </trkpt>
      <trkpt lat="43.42077" lon="3.43359">
        <ele>48.7</ele>
        <time>2024-03-07T12:48:46.007Z</time>
      </trkpt>
      <trkpt lat="43.42076" lon="3.43374">
        <ele>48.9</ele>
        <time>2024-03-07T12:48:49.019Z</time>
      </trkpt>
      <trkpt lat="43.42076" lon="3.43389">
        <ele>49.1</ele>
        <time>2024-03-07T12:48:52.005Z</time>
      </trkpt>
      <trkpt lat="43.42074" lon="3.43407">
        <ele>49.1</ele>
        <time>2024-03-07T12:48:55.004Z</time>
      </trkpt>
      <trkpt lat="43.42073" lon="3.43424">
        <ele>49.1</ele>
        <time>2024-03-07T12:48:58.003Z</time>
      </trkpt>
      <trkpt lat="43.42074" lon="3.43441">
        <ele>49</ele>
        <time>2024-03-07T12:49:00.983Z</time>
      </trkpt>
      <trkpt lat="43.42075" lon="3.43456">
        <ele>48.1</ele>
        <time>2024-03-07T12:49:03.989Z</time>
      </trkpt>
      <trkpt lat="43.42071" lon="3.43471">
        <ele>47.4</ele>
        <time>2024-03-07T12:49:07.000Z</time>
      </trkpt>
      <trkpt lat="43.42068" lon="3.43486">
        <ele>46.2</ele>
        <time>2024-03-07T12:49:09.994Z</time>
      </trkpt>
      <trkpt lat="43.42063" lon="3.435">
        <ele>45.2</ele>
        <time>2024-03-07T12:49:12.995Z</time>
      </trkpt>
      <trkpt lat="43.42057" lon="3.43515">
        <ele>43.7</ele>
        <time>2024-03-07T12:49:15.986Z</time>
      </trkpt>
      <trkpt lat="43.42053" lon="3.43529">
        <ele>42.1</ele>
        <time>2024-03-07T12:49:18.007Z</time>
      </trkpt>
      <trkpt lat="43.42047" lon="3.43541">
        <ele>40.9</ele>
        <time>2024-03-07T12:49:19.987Z</time>
      </trkpt>
      <trkpt lat="43.4204" lon="3.43555">
        <ele>39.3</ele>
        <time>2024-03-07T12:49:21.999Z</time>
      </trkpt>
      <trkpt lat="43.42031" lon="3.43572">
        <ele>38.8</ele>
        <time>2024-03-07T12:49:23.984Z</time>
      </trkpt>
      <trkpt lat="43.42027" lon="3.43583">
        <ele>38.2</ele>
        <time>2024-03-07T12:49:26.003Z</time>
      </trkpt>
      <trkpt lat="43.42028" lon="3.43601">
        <ele>35.4</ele>
        <time>2024-03-07T12:49:28.981Z</time>
      </trkpt>
      <trkpt lat="43.42028" lon="3.43607">
        <ele>34.6</ele>
      </trkpt>
      <trkpt lat="43.42028" lon="3.43617">
        <ele>34</ele>
      </trkpt>
      <trkpt lat="43.42027" lon="3.43625">
        <ele>34</ele>
      </trkpt>
      <trkpt lat="43.42027" lon="3.4364">
        <ele>34.1</ele>
        <time>2024-03-07T12:49:53.000Z</time>
      </trkpt>
      <trkpt lat="43.42026" lon="3.43652">
        <ele>34.6</ele>
        <time>2024-03-07T12:49:56.003Z</time>
      </trkpt>
      <trkpt lat="43.42024" lon="3.43665">
        <ele>35.1</ele>
        <time>2024-03-07T12:49:58.995Z</time>
      </trkpt>
      <trkpt lat="43.42022" lon="3.43678">
        <ele>36.6</ele>
        <time>2024-03-07T12:50:03.007Z</time>
      </trkpt>
      <trkpt lat="43.42023" lon="3.43692">
        <ele>38.3</ele>
        <time>2024-03-07T12:50:08.995Z</time>
      </trkpt>
      <trkpt lat="43.42024" lon="3.43706">
        <ele>40.3</ele>
        <time>2024-03-07T12:50:13.002Z</time>
      </trkpt>
      <trkpt lat="43.42027" lon="3.43719">
        <ele>42.4</ele>
        <time>2024-03-07T12:50:17.004Z</time>
      </trkpt>
      <trkpt lat="43.42034" lon="3.43726">
        <ele>43.4</ele>
        <time>2024-03-07T12:50:20.997Z</time>
      </trkpt>
      <trkpt lat="43.42042" lon="3.43736">
        <ele>44.5</ele>
        <time>2024-03-07T12:50:26.002Z</time>
      </trkpt>
      <trkpt lat="43.42047" lon="3.43747">
        <ele>45.7</ele>
        <time>2024-03-07T12:50:31.007Z</time>
      </trkpt>
      <trkpt lat="43.42053" lon="3.43758">
        <ele>47.1</ele>
        <time>2024-03-07T12:50:37.000Z</time>
      </trkpt>
      <trkpt lat="43.42057" lon="3.43771">
        <ele>49</ele>
        <time>2024-03-07T12:50:42.990Z</time>
      </trkpt>
      <trkpt lat="43.42061" lon="3.43784">
        <ele>50.5</ele>
        <time>2024-03-07T12:50:48.991Z</time>
      </trkpt>
      <trkpt lat="43.42064" lon="3.43797">
        <ele>51.8</ele>
        <time>2024-03-07T12:50:54.988Z</time>
      </trkpt>
      <trkpt lat="43.42064" lon="3.43809">
        <ele>52.9</ele>
        <time>2024-03-07T12:51:00.997Z</time>
      </trkpt>
      <trkpt lat="43.42065" lon="3.43822">
        <ele>53.6</ele>
        <time>2024-03-07T12:51:05.993Z</time>
      </trkpt>
      <trkpt lat="43.42066" lon="3.43836">
        <ele>54.3</ele>
        <time>2024-03-07T12:51:11.010Z</time>
      </trkpt>
      <trkpt lat="43.42066" lon="3.43848">
        <ele>54.4</ele>
        <time>2024-03-07T12:51:15.008Z</time>
      </trkpt>
      <trkpt lat="43.42066" lon="3.43862">
        <ele>54.4</ele>
        <time>2024-03-07T12:51:19.002Z</time>
      </trkpt>
      <trkpt lat="43.42064" lon="3.43876">
        <ele>53.8</ele>
        <time>2024-03-07T12:51:21.999Z</time>
      </trkpt>
      <trkpt lat="43.42061" lon="3.43892">
        <ele>53.3</ele>
        <time>2024-03-07T12:51:25.013Z</time>
      </trkpt>
      <trkpt lat="43.42056" lon="3.43908">
        <ele>52.8</ele>
        <time>2024-03-07T12:51:28.011Z</time>
      </trkpt>
      <trkpt lat="43.42053" lon="3.43923">
        <ele>51.3</ele>
        <time>2024-03-07T12:51:30.996Z</time>
      </trkpt>
      <trkpt lat="43.42047" lon="3.43935">
        <ele>50.9</ele>
        <time>2024-03-07T12:51:35.005Z</time>
      </trkpt>
      <trkpt lat="43.42036" lon="3.43954">
        <ele>53.2</ele>
        <time>2024-03-07T12:52:16.004Z</time>
      </trkpt>
      <trkpt lat="43.42031" lon="3.43966">
        <ele>54.9</ele>
        <time>2024-03-07T12:52:18.992Z</time>
      </trkpt>
      <trkpt lat="43.42025" lon="3.43976">
        <ele>56.3</ele>
        <time>2024-03-07T12:52:22.005Z</time>
      </trkpt>
      <trkpt lat="43.42023" lon="3.43992">
        <ele>56.1</ele>
        <time>2024-03-07T12:52:24.997Z</time>
      </trkpt>
      <trkpt lat="43.42023" lon="3.44009">
        <ele>55.6</ele>
        <time>2024-03-07T12:52:27.983Z</time>
      </trkpt>
      <trkpt lat="43.42023" lon="3.44025">
        <ele>55.1</ele>
        <time>2024-03-07T12:52:31.002Z</time>
      </trkpt>
      <trkpt lat="43.42022" lon="3.44039">
        <ele>55.7</ele>
        <time>2024-03-07T12:52:33.997Z</time>
      </trkpt>
      <trkpt lat="43.42022" lon="3.44054">
        <ele>56.2</ele>
        <time>2024-03-07T12:52:37.000Z</time>
      </trkpt>
      <trkpt lat="43.42022" lon="3.44068">
        <ele>57.9</ele>
        <time>2024-03-07T12:52:39.994Z</time>
      </trkpt>
      <trkpt lat="43.42019" lon="3.44081">
        <ele>60</ele>
        <time>2024-03-07T12:52:43.993Z</time>
      </trkpt>
      <trkpt lat="43.42018" lon="3.44094">
        <ele>61.7</ele>
        <time>2024-03-07T12:52:57.998Z</time>
      </trkpt>
      <trkpt lat="43.42023" lon="3.44106">
        <ele>62.7</ele>
        <time>2024-03-07T12:53:02.000Z</time>
      </trkpt>
      <trkpt lat="43.42028" lon="3.44117">
        <ele>63.4</ele>
        <time>2024-03-07T12:53:05.003Z</time>
      </trkpt>
      <trkpt lat="43.42031" lon="3.44131">
        <ele>64.3</ele>
        <time>2024-03-07T12:53:08.001Z</time>
      </trkpt>
      <trkpt lat="43.42035" lon="3.44145">
        <ele>64.7</ele>
        <time>2024-03-07T12:53:11.006Z</time>
      </trkpt>
      <trkpt lat="43.42037" lon="3.44157">
        <ele>64.5</ele>
        <time>2024-03-07T12:53:13.007Z</time>
      </trkpt>
      <trkpt lat="43.4204" lon="3.4417">
        <ele>64</ele>
        <time>2024-03-07T12:53:15.000Z</time>
      </trkpt>
      <trkpt lat="43.42039" lon="3.44188">
        <ele>63.6</ele>
        <time>2024-03-07T12:53:17.989Z</time>
      </trkpt>
      <trkpt lat="43.42037" lon="3.44201">
        <ele>63.1</ele>
        <time>2024-03-07T12:53:20.995Z</time>
      </trkpt>
      <trkpt lat="43.42035" lon="3.44217">
        <ele>62.1</ele>
        <time>2024-03-07T12:53:24.999Z</time>
      </trkpt>
      <trkpt lat="43.42036" lon="3.44234">
        <ele>60.1</ele>
        <time>2024-03-07T12:53:28.006Z</time>
      </trkpt>
      <trkpt lat="43.42037" lon="3.44247">
        <ele>58.4</ele>
        <time>2024-03-07T12:53:30.999Z</time>
      </trkpt>
      <trkpt lat="43.42043" lon="3.4426">
        <ele>55.6</ele>
        <time>2024-03-07T12:53:34.000Z</time>
      </trkpt>
      <trkpt lat="43.42043" lon="3.44276">
        <ele>53.9</ele>
        <time>2024-03-07T12:53:38.992Z</time>
      </trkpt>
      <trkpt lat="43.42042" lon="3.44289">
        <ele>52.1</ele>
        <time>2024-03-07T12:53:41.991Z</time>
      </trkpt>
      <trkpt lat="43.42048" lon="3.443">
        <ele>48.8</ele>
        <time>2024-03-07T12:53:46.008Z</time>
      </trkpt>
      <trkpt lat="43.42045" lon="3.44315">
        <ele>47.5</ele>
        <time>2024-03-07T12:53:50.995Z</time>
      </trkpt>
      <trkpt lat="43.42042" lon="3.44327">
        <ele>46.7</ele>
        <time>2024-03-07T12:53:53.994Z</time>
      </trkpt>
      <trkpt lat="43.42042" lon="3.4434">
        <ele>44.9</ele>
        <time>2024-03-07T12:53:57.005Z</time>
      </trkpt>
      <trkpt lat="43.42039" lon="3.44354">
        <ele>43.2</ele>
        <time>2024-03-07T12:54:02.016Z</time>
      </trkpt>
      <trkpt lat="43.42035" lon="3.44368">
        <ele>41.3</ele>
        <time>2024-03-07T12:54:07.975Z</time>
      </trkpt>
      <trkpt lat="43.42028" lon="3.44379">
        <ele>40.1</ele>
        <time>2024-03-07T12:54:11.988Z</time>
      </trkpt>
      <trkpt lat="43.42024" lon="3.44391">
        <ele>38.2</ele>
        <time>2024-03-07T12:54:18.990Z</time>
      </trkpt>
      <trkpt lat="43.42023" lon="3.44406">
        <ele>35.5</ele>
        <time>2024-03-07T12:54:23.997Z</time>
      </trkpt>
      <trkpt lat="43.42013" lon="3.4441">
        <ele>35.9</ele>
        <time>2024-03-07T12:54:29.012Z</time>
      </trkpt>
      <trkpt lat="43.41994" lon="3.4442">
        <ele>37.2</ele>
        <time>2024-03-07T12:55:35.995Z</time>
      </trkpt>
      <trkpt lat="43.41984" lon="3.44427">
        <ele>38.6</ele>
        <time>2024-03-07T12:55:39.990Z</time>
      </trkpt>
      <trkpt lat="43.41973" lon="3.44433">
        <ele>39.2</ele>
        <time>2024-03-07T12:55:43.982Z</time>
      </trkpt>
      <trkpt lat="43.41962" lon="3.44439">
        <ele>39.2</ele>
        <time>2024-03-07T12:55:48.004Z</time>
      </trkpt>
      <trkpt lat="43.41952" lon="3.44444">
        <ele>38.8</ele>
        <time>2024-03-07T12:55:52.006Z</time>
      </trkpt>
      <trkpt lat="43.41941" lon="3.44449">
        <ele>40.6</ele>
        <time>2024-03-07T12:55:55.991Z</time>
      </trkpt>
      <trkpt lat="43.41931" lon="3.44455">
        <ele>42.7</ele>
        <time>2024-03-07T12:56:00.004Z</time>
      </trkpt>
      <trkpt lat="43.41922" lon="3.44461">
        <ele>43.6</ele>
        <time>2024-03-07T12:56:03.993Z</time>
      </trkpt>
      <trkpt lat="43.41914" lon="3.44468">
        <ele>43.7</ele>
        <time>2024-03-07T12:56:08.003Z</time>
      </trkpt>
      <trkpt lat="43.41906" lon="3.44474">
        <ele>44.7</ele>
        <time>2024-03-07T12:56:11.999Z</time>
      </trkpt>
      <trkpt lat="43.41896" lon="3.44483">
        <ele>46</ele>
        <time>2024-03-07T12:56:16.002Z</time>
      </trkpt>
      <trkpt lat="43.41887" lon="3.44491">
        <ele>45.9</ele>
        <time>2024-03-07T12:56:20.004Z</time>
      </trkpt>
      <trkpt lat="43.41879" lon="3.44498">
        <ele>46.6</ele>
        <time>2024-03-07T12:56:24.002Z</time>
      </trkpt>
      <trkpt lat="43.41871" lon="3.44504">
        <ele>47.7</ele>
        <time>2024-03-07T12:56:28.006Z</time>
      </trkpt>
      <trkpt lat="43.41863" lon="3.44511">
        <ele>48.8</ele>
        <time>2024-03-07T12:56:33.000Z</time>
      </trkpt>
      <trkpt lat="43.41856" lon="3.44502">
        <ele>49.5</ele>
        <time>2024-03-07T12:56:39.995Z</time>
      </trkpt>
      <trkpt lat="43.4186" lon="3.4449">
        <ele>50.2</ele>
        <time>2024-03-07T12:56:45.003Z</time>
      </trkpt>
      <trkpt lat="43.41857" lon="3.44476">
        <ele>51.8</ele>
        <time>2024-03-07T12:56:50.003Z</time>
      </trkpt>
      <trkpt lat="43.41851" lon="3.44464">
        <ele>53.1</ele>
        <time>2024-03-07T12:56:54.988Z</time>
      </trkpt>
      <trkpt lat="43.41849" lon="3.4445">
        <ele>54.5</ele>
        <time>2024-03-07T12:57:00.007Z</time>
      </trkpt>
      <trkpt lat="43.41848" lon="3.44436">
        <ele>55.9</ele>
        <time>2024-03-07T12:57:04.997Z</time>
      </trkpt>
      <trkpt lat="43.4185" lon="3.44422">
        <ele>57.4</ele>
        <time>2024-03-07T12:57:10.004Z</time>
      </trkpt>
      <trkpt lat="43.41854" lon="3.44411">
        <ele>58.7</ele>
        <time>2024-03-07T12:57:13.982Z</time>
      </trkpt>
      <trkpt lat="43.41857" lon="3.44397">
        <ele>60.2</ele>
        <time>2024-03-07T12:57:19.004Z</time>
      </trkpt>
      <trkpt lat="43.41864" lon="3.44385">
        <ele>61.2</ele>
        <time>2024-03-07T12:57:23.984Z</time>
      </trkpt>
      <trkpt lat="43.41872" lon="3.44379">
        <ele>61.4</ele>
        <time>2024-03-07T12:57:28.995Z</time>
      </trkpt>
      <trkpt lat="43.41881" lon="3.4437">
        <ele>62.1</ele>
        <time>2024-03-07T12:57:34.002Z</time>
      </trkpt>
      <trkpt lat="43.41889" lon="3.44362">
        <ele>62.9</ele>
        <time>2024-03-07T12:57:38.984Z</time>
      </trkpt>
      <trkpt lat="43.41898" lon="3.44354">
        <ele>62.9</ele>
        <time>2024-03-07T12:57:43.994Z</time>
      </trkpt>
      <trkpt lat="43.41905" lon="3.44345">
        <ele>63.3</ele>
        <time>2024-03-07T12:57:47.999Z</time>
      </trkpt>
      <trkpt lat="43.41911" lon="3.44336">
        <ele>63.9</ele>
        <time>2024-03-07T12:57:51.989Z</time>
      </trkpt>
      <trkpt lat="43.41915" lon="3.44324">
        <ele>64.7</ele>
        <time>2024-03-07T12:57:56.004Z</time>
      </trkpt>
      <trkpt lat="43.41918" lon="3.44312">
        <ele>65.5</ele>
        <time>2024-03-07T12:57:59.984Z</time>
      </trkpt>
      <trkpt lat="43.41919" lon="3.44299">
        <ele>66.2</ele>
        <time>2024-03-07T12:58:03.992Z</time>
      </trkpt>
      <trkpt lat="43.41923" lon="3.44287">
        <ele>66.4</ele>
        <time>2024-03-07T12:58:08.002Z</time>
      </trkpt>
      <trkpt lat="43.41927" lon="3.44274">
        <ele>66.7</ele>
        <time>2024-03-07T12:58:12.003Z</time>
      </trkpt>
      <trkpt lat="43.41929" lon="3.4426">
        <ele>66.8</ele>
        <time>2024-03-07T12:58:15.999Z</time>
      </trkpt>
      <trkpt lat="43.41929" lon="3.44246">
        <ele>67</ele>
        <time>2024-03-07T12:58:20.002Z</time>
      </trkpt>
      <trkpt lat="43.41929" lon="3.44232">
        <ele>67</ele>
        <time>2024-03-07T12:58:23.973Z</time>
      </trkpt>
      <trkpt lat="43.41928" lon="3.44217">
        <ele>66.9</ele>
        <time>2024-03-07T12:58:28.001Z</time>
      </trkpt>
      <trkpt lat="43.41928" lon="3.44203">
        <ele>66.6</ele>
        <time>2024-03-07T12:58:32.007Z</time>
      </trkpt>
      <trkpt lat="43.41929" lon="3.44189">
        <ele>66.4</ele>
        <time>2024-03-07T12:58:35.997Z</time>
      </trkpt>
      <trkpt lat="43.41927" lon="3.44176">
        <ele>66.1</ele>
        <time>2024-03-07T12:58:38.992Z</time>
      </trkpt>
      <trkpt lat="43.41925" lon="3.4416">
        <ele>65.8</ele>
        <time>2024-03-07T12:58:41.996Z</time>
      </trkpt>
      <trkpt lat="43.41923" lon="3.44145">
        <ele>65.4</ele>
        <time>2024-03-07T12:58:44.999Z</time>
      </trkpt>
      <trkpt lat="43.41923" lon="3.44129">
        <ele>65.1</ele>
        <time>2024-03-07T12:58:48.003Z</time>
      </trkpt>
      <trkpt lat="43.41924" lon="3.44113">
        <ele>65</ele>
        <time>2024-03-07T12:58:50.994Z</time>
      </trkpt>
      <trkpt lat="43.41926" lon="3.44096">
        <ele>64.5</ele>
        <time>2024-03-07T12:58:54.001Z</time>
      </trkpt>
      <trkpt lat="43.41925" lon="3.44077">
        <ele>63.8</ele>
        <time>2024-03-07T12:58:56.982Z</time>
      </trkpt>
      <trkpt lat="43.41924" lon="3.44064">
        <ele>63.3</ele>
        <time>2024-03-07T12:58:59.002Z</time>
      </trkpt>
      <trkpt lat="43.41922" lon="3.44051">
        <ele>62.8</ele>
        <time>2024-03-07T12:59:00.993Z</time>
      </trkpt>
      <trkpt lat="43.4192" lon="3.44039">
        <ele>62.4</ele>
        <time>2024-03-07T12:59:02.996Z</time>
      </trkpt>
      <trkpt lat="43.41918" lon="3.44025">
        <ele>61.8</ele>
        <time>2024-03-07T12:59:05.009Z</time>
      </trkpt>
      <trkpt lat="43.41918" lon="3.44008">
        <ele>60.6</ele>
        <time>2024-03-07T12:59:07.989Z</time>
      </trkpt>
      <trkpt lat="43.41918" lon="3.43993">
        <ele>59.8</ele>
        <time>2024-03-07T12:59:11.006Z</time>
      </trkpt>
      <trkpt lat="43.41914" lon="3.43979">
        <ele>59.2</ele>
        <time>2024-03-07T12:59:14.995Z</time>
      </trkpt>
      <trkpt lat="43.41911" lon="3.43966">
        <ele>58.4</ele>
        <time>2024-03-07T12:59:19.000Z</time>
      </trkpt>
      <trkpt lat="43.41908" lon="3.43951">
        <ele>56.9</ele>
        <time>2024-03-07T12:59:22.005Z</time>
      </trkpt>
      <trkpt lat="43.41905" lon="3.43938">
        <ele>55.9</ele>
        <time>2024-03-07T12:59:23.999Z</time>
      </trkpt>
      <trkpt lat="43.41901" lon="3.43925">
        <ele>55.3</ele>
        <time>2024-03-07T12:59:26.002Z</time>
      </trkpt>
      <trkpt lat="43.41898" lon="3.43913">
        <ele>55.1</ele>
        <time>2024-03-07T12:59:28.003Z</time>
      </trkpt>
      <trkpt lat="43.41889" lon="3.43899">
        <ele>56.6</ele>
        <time>2024-03-07T12:59:31.001Z</time>
      </trkpt>
      <trkpt lat="43.41884" lon="3.43888">
        <ele>57.3</ele>
        <time>2024-03-07T12:59:34.000Z</time>
      </trkpt>
      <trkpt lat="43.41884" lon="3.43872">
        <ele>57.2</ele>
        <time>2024-03-07T12:59:37.001Z</time>
      </trkpt>
      <trkpt lat="43.41886" lon="3.43855">
        <ele>57.3</ele>
        <time>2024-03-07T12:59:39.988Z</time>
      </trkpt>
      <trkpt lat="43.41889" lon="3.43839">
        <ele>57.8</ele>
        <time>2024-03-07T12:59:43.001Z</time>
      </trkpt>
      <trkpt lat="43.41893" lon="3.43821">
        <ele>57.2</ele>
        <time>2024-03-07T12:59:46.007Z</time>
      </trkpt>
      <trkpt lat="43.41896" lon="3.43809">
        <ele>56.8</ele>
        <time>2024-03-07T12:59:48.003Z</time>
      </trkpt>
      <trkpt lat="43.41898" lon="3.43796">
        <ele>56.3</ele>
        <time>2024-03-07T12:59:50.005Z</time>
      </trkpt>
      <trkpt lat="43.419" lon="3.43781">
        <ele>55.7</ele>
        <time>2024-03-07T12:59:52.004Z</time>
      </trkpt>
      <trkpt lat="43.41901" lon="3.43766">
        <ele>54.9</ele>
        <time>2024-03-07T12:59:53.996Z</time>
      </trkpt>
      <trkpt lat="43.419" lon="3.43749">
        <ele>53.8</ele>
        <time>2024-03-07T12:59:55.992Z</time>
      </trkpt>
      <trkpt lat="43.41893" lon="3.43733">
        <ele>51.5</ele>
        <time>2024-03-07T12:59:57.980Z</time>
      </trkpt>
      <trkpt lat="43.41882" lon="3.4372">
        <ele>49.7</ele>
        <time>2024-03-07T13:00:00.010Z</time>
      </trkpt>
      <trkpt lat="43.41869" lon="3.43716">
        <ele>49.3</ele>
        <time>2024-03-07T13:00:02.004Z</time>
      </trkpt>
      <trkpt lat="43.41857" lon="3.43717">
        <ele>49.5</ele>
        <time>2024-03-07T13:00:03.980Z</time>
      </trkpt>
      <trkpt lat="43.41846" lon="3.43719">
        <ele>49.8</ele>
        <time>2024-03-07T13:00:05.989Z</time>
      </trkpt>
      <trkpt lat="43.41835" lon="3.43716">
        <ele>50</ele>
        <time>2024-03-07T13:00:08.005Z</time>
      </trkpt>
      <trkpt lat="43.41823" lon="3.43712">
        <ele>50.1</ele>
        <time>2024-03-07T13:00:09.984Z</time>
      </trkpt>
      <trkpt lat="43.4181" lon="3.43714">
        <ele>50.2</ele>
        <time>2024-03-07T13:00:12.003Z</time>
      </trkpt>
      <trkpt lat="43.41798" lon="3.43716">
        <ele>50.2</ele>
        <time>2024-03-07T13:00:13.989Z</time>
      </trkpt>
      <trkpt lat="43.41784" lon="3.43719">
        <ele>50.1</ele>
        <time>2024-03-07T13:00:16.008Z</time>
      </trkpt>
      <trkpt lat="43.41771" lon="3.43721">
        <ele>49.3</ele>
        <time>2024-03-07T13:00:17.994Z</time>
      </trkpt>
      <trkpt lat="43.41757" lon="3.43722">
        <ele>47.7</ele>
        <time>2024-03-07T13:00:20.003Z</time>
      </trkpt>
      <trkpt lat="43.41743" lon="3.43721">
        <ele>46.6</ele>
        <time>2024-03-07T13:00:21.993Z</time>
      </trkpt>
      <trkpt lat="43.4173" lon="3.4372">
        <ele>46</ele>
        <time>2024-03-07T13:00:24.001Z</time>
      </trkpt>
      <trkpt lat="43.41715" lon="3.43718">
        <ele>45</ele>
        <time>2024-03-07T13:00:26.003Z</time>
      </trkpt>
      <trkpt lat="43.41701" lon="3.43714">
        <ele>43.7</ele>
        <time>2024-03-07T13:00:28.006Z</time>
      </trkpt>
      <trkpt lat="43.41687" lon="3.43709">
        <ele>42.8</ele>
        <time>2024-03-07T13:00:30.007Z</time>
      </trkpt>
      <trkpt lat="43.41672" lon="3.43707">
        <ele>42.1</ele>
        <time>2024-03-07T13:00:32.005Z</time>
      </trkpt>
      <trkpt lat="43.41657" lon="3.43705">
        <ele>41.4</ele>
        <time>2024-03-07T13:00:33.998Z</time>
      </trkpt>
      <trkpt lat="43.41642" lon="3.43701">
        <ele>40.6</ele>
        <time>2024-03-07T13:00:36.007Z</time>
      </trkpt>
      <trkpt lat="43.41626" lon="3.43695">
        <ele>39.1</ele>
        <time>2024-03-07T13:00:38.003Z</time>
      </trkpt>
      <trkpt lat="43.41611" lon="3.43689">
        <ele>37.8</ele>
        <time>2024-03-07T13:00:40.006Z</time>
      </trkpt>
      <trkpt lat="43.41602" lon="3.43676">
        <ele>36.7</ele>
        <time>2024-03-07T13:00:42.006Z</time>
      </trkpt>
      <trkpt lat="43.41598" lon="3.43657">
        <ele>35.2</ele>
        <time>2024-03-07T13:00:44.006Z</time>
      </trkpt>
      <trkpt lat="43.41593" lon="3.43638">
        <ele>32.7</ele>
        <time>2024-03-07T13:00:46.007Z</time>
      </trkpt>
      <trkpt lat="43.41584" lon="3.43626">
        <ele>31.6</ele>
        <time>2024-03-07T13:00:47.998Z</time>
      </trkpt>
      <trkpt lat="43.4157" lon="3.43628">
        <ele>29.1</ele>
        <time>2024-03-07T13:00:49.986Z</time>
      </trkpt>
      <trkpt lat="43.41557" lon="3.43639">
        <ele>27.2</ele>
        <time>2024-03-07T13:00:51.990Z</time>
      </trkpt>
      <trkpt lat="43.41549" lon="3.43653">
        <ele>26.1</ele>
        <time>2024-03-07T13:00:53.985Z</time>
      </trkpt>
      <trkpt lat="43.41547" lon="3.43669">
        <ele>25.7</ele>
        <time>2024-03-07T13:00:56.000Z</time>
      </trkpt>
      <trkpt lat="43.41548" lon="3.43681">
        <ele>25.9</ele>
        <time>2024-03-07T13:00:58.002Z</time>
      </trkpt>
      <trkpt lat="43.4155" lon="3.43695">
        <ele>26.1</ele>
        <time>2024-03-07T13:01:01.013Z</time>
      </trkpt>
      <trkpt lat="43.4155" lon="3.43711">
        <ele>28.5</ele>
        <time>2024-03-07T13:01:04.001Z</time>
      </trkpt>
      <trkpt lat="43.41549" lon="3.43725">
        <ele>30.1</ele>
        <time>2024-03-07T13:01:06.996Z</time>
      </trkpt>
      <trkpt lat="43.41547" lon="3.4374">
        <ele>29.8</ele>
        <time>2024-03-07T13:01:11.002Z</time>
      </trkpt>
      <trkpt lat="43.41545" lon="3.43752">
        <ele>29.6</ele>
        <time>2024-03-07T13:01:14.004Z</time>
      </trkpt>
      <trkpt lat="43.41545" lon="3.4377">
        <ele>30.2</ele>
        <time>2024-03-07T13:01:17.005Z</time>
      </trkpt>
      <trkpt lat="43.41547" lon="3.43787">
        <ele>30.9</ele>
        <time>2024-03-07T13:01:20.002Z</time>
      </trkpt>
      <trkpt lat="43.41547" lon="3.43805">
        <ele>31.1</ele>
        <time>2024-03-07T13:01:22.990Z</time>
      </trkpt>
      <trkpt lat="43.41546" lon="3.43818">
        <ele>31.4</ele>
        <time>2024-03-07T13:01:25.002Z</time>
      </trkpt>
      <trkpt lat="43.41544" lon="3.43831">
        <ele>31.4</ele>
        <time>2024-03-07T13:01:27.008Z</time>
      </trkpt>
      <trkpt lat="43.41545" lon="3.4385">
        <ele>31.3</ele>
        <time>2024-03-07T13:01:30.005Z</time>
      </trkpt>
      <trkpt lat="43.41548" lon="3.43866">
        <ele>31.7</ele>
        <time>2024-03-07T13:01:31.988Z</time>
      </trkpt>
      <trkpt lat="43.41552" lon="3.4388">
        <ele>32.4</ele>
        <time>2024-03-07T13:01:33.977Z</time>
      </trkpt>
      <trkpt lat="43.41558" lon="3.43892">
        <ele>33</ele>
        <time>2024-03-07T13:01:35.996Z</time>
      </trkpt>
      <trkpt lat="43.41568" lon="3.43899">
        <ele>33.8</ele>
        <time>2024-03-07T13:01:37.985Z</time>
      </trkpt>
      <trkpt lat="43.41578" lon="3.43901">
        <ele>34.9</ele>
        <time>2024-03-07T13:01:40.003Z</time>
      </trkpt>
      <trkpt lat="43.41588" lon="3.43898">
        <ele>36.2</ele>
        <time>2024-03-07T13:01:41.993Z</time>
      </trkpt>
      <trkpt lat="43.41598" lon="3.43895">
        <ele>37.4</ele>
        <time>2024-03-07T13:01:44.003Z</time>
      </trkpt>
      <trkpt lat="43.41608" lon="3.43903">
        <ele>38.2</ele>
        <time>2024-03-07T13:01:47.005Z</time>
      </trkpt>
      <trkpt lat="43.41611" lon="3.43919">
        <ele>38.2</ele>
        <time>2024-03-07T13:01:49.997Z</time>
      </trkpt>
      <trkpt lat="43.41608" lon="3.43936">
        <ele>39</ele>
        <time>2024-03-07T13:01:53.004Z</time>
      </trkpt>
      <trkpt lat="43.41605" lon="3.43954">
        <ele>39.9</ele>
        <time>2024-03-07T13:01:56.005Z</time>
      </trkpt>
      <trkpt lat="43.41603" lon="3.4397">
        <ele>40.9</ele>
        <time>2024-03-07T13:01:59.008Z</time>
      </trkpt>
      <trkpt lat="43.41601" lon="3.43986">
        <ele>41.2</ele>
        <time>2024-03-07T13:02:02.004Z</time>
      </trkpt>
      <trkpt lat="43.41598" lon="3.44002">
        <ele>41.2</ele>
        <time>2024-03-07T13:02:05.005Z</time>
      </trkpt>
      <trkpt lat="43.41597" lon="3.44018">
        <ele>41.9</ele>
        <time>2024-03-07T13:02:08.010Z</time>
      </trkpt>
      <trkpt lat="43.41601" lon="3.44037">
        <ele>43</ele>
        <time>2024-03-07T13:02:11.001Z</time>
      </trkpt>
      <trkpt lat="43.41604" lon="3.44049">
        <ele>43.4</ele>
        <time>2024-03-07T13:02:12.987Z</time>
      </trkpt>
      <trkpt lat="43.41609" lon="3.44064">
        <ele>43.5</ele>
        <time>2024-03-07T13:02:16.004Z</time>
      </trkpt>
      <trkpt lat="43.41613" lon="3.4408">
        <ele>43.3</ele>
        <time>2024-03-07T13:02:18.999Z</time>
      </trkpt>
      <trkpt lat="43.41617" lon="3.44092">
        <ele>43.4</ele>
        <time>2024-03-07T13:02:21.005Z</time>
      </trkpt>
      <trkpt lat="43.41622" lon="3.44104">
        <ele>43.7</ele>
        <time>2024-03-07T13:02:22.992Z</time>
      </trkpt>
      <trkpt lat="43.41628" lon="3.44116">
        <ele>44.1</ele>
        <time>2024-03-07T13:02:25.008Z</time>
      </trkpt>
      <trkpt lat="43.41632" lon="3.4413">
        <ele>43.8</ele>
        <time>2024-03-07T13:02:27.014Z</time>
      </trkpt>
      <trkpt lat="43.41636" lon="3.44143">
        <ele>43.4</ele>
        <time>2024-03-07T13:02:29.002Z</time>
      </trkpt>
      <trkpt lat="43.4164" lon="3.44156">
        <ele>42.9</ele>
        <time>2024-03-07T13:02:31.007Z</time>
      </trkpt>
      <trkpt lat="43.41643" lon="3.44169">
        <ele>42.7</ele>
        <time>2024-03-07T13:02:32.993Z</time>
      </trkpt>
      <trkpt lat="43.41647" lon="3.44182">
        <ele>43.5</ele>
        <time>2024-03-07T13:02:35.013Z</time>
      </trkpt>
      <trkpt lat="43.41649" lon="3.44194">
        <ele>43.8</ele>
        <time>2024-03-07T13:02:37.001Z</time>
      </trkpt>
      <trkpt lat="43.41653" lon="3.44211">
        <ele>44.8</ele>
        <time>2024-03-07T13:02:39.999Z</time>
      </trkpt>
      <trkpt lat="43.41654" lon="3.44223">
        <ele>45.2</ele>
        <time>2024-03-07T13:02:41.998Z</time>
      </trkpt>
      <trkpt lat="43.41649" lon="3.44239">
        <ele>45.6</ele>
        <time>2024-03-07T13:02:44.991Z</time>
      </trkpt>
      <trkpt lat="43.41642" lon="3.44247">
        <ele>45.8</ele>
        <time>2024-03-07T13:02:47.001Z</time>
      </trkpt>
      <trkpt lat="43.41636" lon="3.44257">
        <ele>46.4</ele>
        <time>2024-03-07T13:02:48.997Z</time>
      </trkpt>
      <trkpt lat="43.41631" lon="3.4427">
        <ele>47</ele>
        <time>2024-03-07T13:02:50.986Z</time>
      </trkpt>
      <trkpt lat="43.41629" lon="3.44287">
        <ele>47.5</ele>
        <time>2024-03-07T13:02:54.013Z</time>
      </trkpt>
      <trkpt lat="43.41629" lon="3.44304">
        <ele>47.9</ele>
        <time>2024-03-07T13:02:56.984Z</time>
      </trkpt>
      <trkpt lat="43.41632" lon="3.44317">
        <ele>48.4</ele>
        <time>2024-03-07T13:02:58.998Z</time>
      </trkpt>
      <trkpt lat="43.41634" lon="3.4433">
        <ele>48.6</ele>
        <time>2024-03-07T13:03:00.994Z</time>
      </trkpt>
      <trkpt lat="43.41638" lon="3.44347">
        <ele>48.9</ele>
        <time>2024-03-07T13:03:04.005Z</time>
      </trkpt>
      <trkpt lat="43.41642" lon="3.44362">
        <ele>49.2</ele>
        <time>2024-03-07T13:03:07.006Z</time>
      </trkpt>
      <trkpt lat="43.41646" lon="3.44379">
        <ele>49.5</ele>
        <time>2024-03-07T13:03:10.005Z</time>
      </trkpt>
      <trkpt lat="43.41649" lon="3.44393">
        <ele>49.7</ele>
        <time>2024-03-07T13:03:13.004Z</time>
      </trkpt>
      <trkpt lat="43.41651" lon="3.44409">
        <ele>49.8</ele>
        <time>2024-03-07T13:03:17.007Z</time>
      </trkpt>
      <trkpt lat="43.41653" lon="3.44425">
        <ele>50.3</ele>
        <time>2024-03-07T13:03:21.006Z</time>
      </trkpt>
      <trkpt lat="43.41652" lon="3.44441">
        <ele>50.8</ele>
        <time>2024-03-07T13:03:25.001Z</time>
      </trkpt>
      <trkpt lat="43.41649" lon="3.44453">
        <ele>51</ele>
        <time>2024-03-07T13:03:28.000Z</time>
      </trkpt>
      <trkpt lat="43.41647" lon="3.44466">
        <ele>51.4</ele>
        <time>2024-03-07T13:03:31.001Z</time>
      </trkpt>
      <trkpt lat="43.41649" lon="3.44482">
        <ele>51.7</ele>
        <time>2024-03-07T13:03:35.006Z</time>
      </trkpt>
      <trkpt lat="43.41651" lon="3.44496">
        <ele>51.9</ele>
        <time>2024-03-07T13:03:39.000Z</time>
      </trkpt>
      <trkpt lat="43.41652" lon="3.44512">
        <ele>51.7</ele>
        <time>2024-03-07T13:03:43.004Z</time>
      </trkpt>
      <trkpt lat="43.41653" lon="3.44526">
        <ele>51.6</ele>
        <time>2024-03-07T13:03:47.004Z</time>
      </trkpt>
      <trkpt lat="43.41653" lon="3.44542">
        <ele>51.5</ele>
        <time>2024-03-07T13:03:51.002Z</time>
      </trkpt>
      <trkpt lat="43.41654" lon="3.44557">
        <ele>51.7</ele>
        <time>2024-03-07T13:03:55.005Z</time>
      </trkpt>
      <trkpt lat="43.41655" lon="3.44571">
        <ele>52.3</ele>
        <time>2024-03-07T13:03:59.006Z</time>
      </trkpt>
      <trkpt lat="43.41654" lon="3.44585">
        <ele>52.7</ele>
        <time>2024-03-07T13:04:03.004Z</time>
      </trkpt>
      <trkpt lat="43.41653" lon="3.44598">
        <ele>53.1</ele>
        <time>2024-03-07T13:04:07.005Z</time>
      </trkpt>
      <trkpt lat="43.41652" lon="3.44612">
        <ele>53.4</ele>
        <time>2024-03-07T13:04:10.987Z</time>
      </trkpt>
      <trkpt lat="43.41653" lon="3.44626">
        <ele>54.1</ele>
        <time>2024-03-07T13:04:15.007Z</time>
      </trkpt>
      <trkpt lat="43.41655" lon="3.44639">
        <ele>54.7</ele>
        <time>2024-03-07T13:04:19.009Z</time>
      </trkpt>
      <trkpt lat="43.41659" lon="3.44652">
        <ele>55.3</ele>
        <time>2024-03-07T13:04:23.004Z</time>
      </trkpt>
      <trkpt lat="43.41665" lon="3.44665">
        <ele>55.9</ele>
        <time>2024-03-07T13:04:27.002Z</time>
      </trkpt>
      <trkpt lat="43.41669" lon="3.44678">
        <ele>56.5</ele>
        <time>2024-03-07T13:04:31.012Z</time>
      </trkpt>
      <trkpt lat="43.41671" lon="3.44693">
        <ele>57.1</ele>
        <time>2024-03-07T13:04:35.005Z</time>
      </trkpt>
      <trkpt lat="43.41674" lon="3.44705">
        <ele>57.6</ele>
        <time>2024-03-07T13:04:39.009Z</time>
      </trkpt>
      <trkpt lat="43.41679" lon="3.44717">
        <ele>58.3</ele>
        <time>2024-03-07T13:04:43.005Z</time>
      </trkpt>
      <trkpt lat="43.41684" lon="3.44729">
        <ele>58.8</ele>
        <time>2024-03-07T13:04:46.997Z</time>
      </trkpt>
      <trkpt lat="43.41687" lon="3.44741">
        <ele>59.2</ele>
        <time>2024-03-07T13:04:50.998Z</time>
      </trkpt>
      <trkpt lat="43.41689" lon="3.44755">
        <ele>59.6</ele>
        <time>2024-03-07T13:04:56.000Z</time>
      </trkpt>
      <trkpt lat="43.41691" lon="3.4477">
        <ele>59.8</ele>
        <time>2024-03-07T13:05:00.996Z</time>
      </trkpt>
      <trkpt lat="43.41692" lon="3.44784">
        <ele>59.8</ele>
        <time>2024-03-07T13:05:05.007Z</time>
      </trkpt>
      <trkpt lat="43.41693" lon="3.448">
        <ele>59.9</ele>
        <time>2024-03-07T13:05:09.004Z</time>
      </trkpt>
      <trkpt lat="43.41692" lon="3.44813">
        <ele>60.2</ele>
        <time>2024-03-07T13:05:11.991Z</time>
      </trkpt>
      <trkpt lat="43.41691" lon="3.44826">
        <ele>60.5</ele>
        <time>2024-03-07T13:05:15.009Z</time>
      </trkpt>
      <trkpt lat="43.41689" lon="3.44838">
        <ele>60.6</ele>
        <time>2024-03-07T13:05:18.007Z</time>
      </trkpt>
      <trkpt lat="43.41686" lon="3.4485">
        <ele>60.4</ele>
        <time>2024-03-07T13:05:21.000Z</time>
      </trkpt>
      <trkpt lat="43.41682" lon="3.44864">
        <ele>60</ele>
        <time>2024-03-07T13:05:24.009Z</time>
      </trkpt>
      <trkpt lat="43.41678" lon="3.44878">
        <ele>59.6</ele>
        <time>2024-03-07T13:05:26.999Z</time>
      </trkpt>
      <trkpt lat="43.41677" lon="3.44895">
        <ele>59.4</ele>
        <time>2024-03-07T13:05:30.005Z</time>
      </trkpt>
      <trkpt lat="43.41676" lon="3.44913">
        <ele>59.3</ele>
        <time>2024-03-07T13:05:33.000Z</time>
      </trkpt>
      <trkpt lat="43.41677" lon="3.4493">
        <ele>59.4</ele>
        <time>2024-03-07T13:05:36.001Z</time>
      </trkpt>
      <trkpt lat="43.41677" lon="3.44946">
        <ele>59.3</ele>
        <time>2024-03-07T13:05:38.982Z</time>
      </trkpt>
      <trkpt lat="43.41678" lon="3.44964">
        <ele>59</ele>
        <time>2024-03-07T13:05:42.000Z</time>
      </trkpt>
      <trkpt lat="43.41679" lon="3.44982">
        <ele>58.7</ele>
        <time>2024-03-07T13:05:45.000Z</time>
      </trkpt>
      <trkpt lat="43.4168" lon="3.45">
        <ele>58.4</ele>
        <time>2024-03-07T13:05:47.996Z</time>
      </trkpt>
      <trkpt lat="43.41678" lon="3.45016">
        <ele>57.6</ele>
        <time>2024-03-07T13:05:50.993Z</time>
      </trkpt>
      <trkpt lat="43.41672" lon="3.45031">
        <ele>56.5</ele>
        <time>2024-03-07T13:05:53.994Z</time>
      </trkpt>
      <trkpt lat="43.41668" lon="3.45048">
        <ele>55.5</ele>
        <time>2024-03-07T13:05:56.997Z</time>
      </trkpt>
      <trkpt lat="43.41667" lon="3.45066">
        <ele>55</ele>
        <time>2024-03-07T13:06:00.006Z</time>
      </trkpt>
      <trkpt lat="43.41667" lon="3.45083">
        <ele>55</ele>
        <time>2024-03-07T13:06:03.000Z</time>
      </trkpt>
      <trkpt lat="43.41666" lon="3.451">
        <ele>54.4</ele>
        <time>2024-03-07T13:06:06.002Z</time>
      </trkpt>
      <trkpt lat="43.41665" lon="3.45117">
        <ele>53.9</ele>
        <time>2024-03-07T13:06:09.008Z</time>
      </trkpt>
      <trkpt lat="43.41664" lon="3.45134">
        <ele>53.8</ele>
        <time>2024-03-07T13:06:11.999Z</time>
      </trkpt>
      <trkpt lat="43.41663" lon="3.45152">
        <ele>53.3</ele>
        <time>2024-03-07T13:06:15.010Z</time>
      </trkpt>
      <trkpt lat="43.41663" lon="3.45169">
        <ele>52.9</ele>
        <time>2024-03-07T13:06:18.007Z</time>
      </trkpt>
      <trkpt lat="43.41662" lon="3.45187">
        <ele>53.3</ele>
        <time>2024-03-07T13:06:20.993Z</time>
      </trkpt>
      <trkpt lat="43.41662" lon="3.452">
        <ele>53.5</ele>
        <time>2024-03-07T13:06:22.997Z</time>
      </trkpt>
      <trkpt lat="43.41662" lon="3.45214">
        <ele>53.5</ele>
        <time>2024-03-07T13:06:25.007Z</time>
      </trkpt>
      <trkpt lat="43.41662" lon="3.45227">
        <ele>53.5</ele>
        <time>2024-03-07T13:06:27.005Z</time>
      </trkpt>
      <trkpt lat="43.41662" lon="3.45244">
        <ele>53.5</ele>
        <time>2024-03-07T13:06:30.007Z</time>
      </trkpt>
      <trkpt lat="43.41663" lon="3.4526">
        <ele>53.6</ele>
        <time>2024-03-07T13:06:33.007Z</time>
      </trkpt>
      <trkpt lat="43.41661" lon="3.45278">
        <ele>53.4</ele>
        <time>2024-03-07T13:06:36.002Z</time>
      </trkpt>
      <trkpt lat="43.41659" lon="3.45292">
        <ele>53.2</ele>
        <time>2024-03-07T13:06:38.004Z</time>
      </trkpt>
      <trkpt lat="43.41657" lon="3.45305">
        <ele>53</ele>
        <time>2024-03-07T13:06:39.999Z</time>
      </trkpt>
      <trkpt lat="43.41656" lon="3.45318">
        <ele>52.8</ele>
        <time>2024-03-07T13:06:42.008Z</time>
      </trkpt>
      <trkpt lat="43.41651" lon="3.45334">
        <ele>52.3</ele>
        <time>2024-03-07T13:06:44.996Z</time>
      </trkpt>
      <trkpt lat="43.41646" lon="3.45345">
        <ele>51.9</ele>
        <time>2024-03-07T13:06:47.003Z</time>
      </trkpt>
      <trkpt lat="43.4164" lon="3.45362">
        <ele>51.2</ele>
        <time>2024-03-07T13:06:50.007Z</time>
      </trkpt>
      <trkpt lat="43.41637" lon="3.45374">
        <ele>50.8</ele>
        <time>2024-03-07T13:06:52.003Z</time>
      </trkpt>
      <trkpt lat="43.41634" lon="3.45386">
        <ele>50.5</ele>
        <time>2024-03-07T13:06:53.998Z</time>
      </trkpt>
      <trkpt lat="43.41632" lon="3.45404">
        <ele>50.7</ele>
        <time>2024-03-07T13:06:57.007Z</time>
      </trkpt>
      <trkpt lat="43.4163" lon="3.45421">
        <ele>50.7</ele>
        <time>2024-03-07T13:07:00.003Z</time>
      </trkpt>
      <trkpt lat="43.41629" lon="3.4544">
        <ele>50.6</ele>
        <time>2024-03-07T13:07:03.004Z</time>
      </trkpt>
      <trkpt lat="43.41627" lon="3.45452">
        <ele>50.3</ele>
        <time>2024-03-07T13:07:05.006Z</time>
      </trkpt>
      <trkpt lat="43.41625" lon="3.45465">
        <ele>50</ele>
        <time>2024-03-07T13:07:07.007Z</time>
      </trkpt>
      <trkpt lat="43.41621" lon="3.45477">
        <ele>49.4</ele>
        <time>2024-03-07T13:07:09.006Z</time>
      </trkpt>
      <trkpt lat="43.41618" lon="3.45489">
        <ele>49</ele>
        <time>2024-03-07T13:07:10.999Z</time>
      </trkpt>
      <trkpt lat="43.41614" lon="3.45501">
        <ele>48.4</ele>
        <time>2024-03-07T13:07:13.004Z</time>
      </trkpt>
      <trkpt lat="43.4161" lon="3.45514">
        <ele>47.9</ele>
        <time>2024-03-07T13:07:15.008Z</time>
      </trkpt>
      <trkpt lat="43.41606" lon="3.45526">
        <ele>47.3</ele>
        <time>2024-03-07T13:07:17.005Z</time>
      </trkpt>
      <trkpt lat="43.416" lon="3.4554">
        <ele>45.5</ele>
        <time>2024-03-07T13:07:20.006Z</time>
      </trkpt>
      <trkpt lat="43.41595" lon="3.4555">
        <ele>44.1</ele>
        <time>2024-03-07T13:07:22.001Z</time>
      </trkpt>
      <trkpt lat="43.41588" lon="3.45562">
        <ele>42.4</ele>
        <time>2024-03-07T13:07:24.000Z</time>
      </trkpt>
      <trkpt lat="43.41581" lon="3.45576">
        <ele>41.3</ele>
        <time>2024-03-07T13:07:25.995Z</time>
      </trkpt>
      <trkpt lat="43.41575" lon="3.45593">
        <ele>40.3</ele>
        <time>2024-03-07T13:07:28.010Z</time>
      </trkpt>
      <trkpt lat="43.41567" lon="3.4561">
        <ele>39.1</ele>
        <time>2024-03-07T13:07:29.998Z</time>
      </trkpt>
      <trkpt lat="43.41562" lon="3.45626">
        <ele>38.5</ele>
        <time>2024-03-07T13:07:32.000Z</time>
      </trkpt>
      <trkpt lat="43.41565" lon="3.45639">
        <ele>38</ele>
        <time>2024-03-07T13:07:36.006Z</time>
      </trkpt>
      <trkpt lat="43.41573" lon="3.45632">
        <ele>38.2</ele>
        <time>2024-03-07T13:07:41.998Z</time>
      </trkpt>
      <trkpt lat="43.4158" lon="3.45621">
        <ele>38.6</ele>
        <time>2024-03-07T13:07:45.006Z</time>
      </trkpt>
      <trkpt lat="43.41587" lon="3.45611">
        <ele>39.1</ele>
        <time>2024-03-07T13:07:48.001Z</time>
      </trkpt>
      <trkpt lat="43.41595" lon="3.45603">
        <ele>40.1</ele>
        <time>2024-03-07T13:07:50.990Z</time>
      </trkpt>
      <trkpt lat="43.41605" lon="3.45595">
        <ele>41.4</ele>
        <time>2024-03-07T13:07:53.997Z</time>
      </trkpt>
      <trkpt lat="43.41613" lon="3.45586">
        <ele>42.8</ele>
        <time>2024-03-07T13:07:56.996Z</time>
      </trkpt>
      <trkpt lat="43.41618" lon="3.45574">
        <ele>44.3</ele>
        <time>2024-03-07T13:08:01.003Z</time>
      </trkpt>
      <trkpt lat="43.41626" lon="3.45566">
        <ele>45.7</ele>
        <time>2024-03-07T13:08:03.984Z</time>
      </trkpt>
      <trkpt lat="43.41633" lon="3.45554">
        <ele>47.7</ele>
        <time>2024-03-07T13:08:07.000Z</time>
      </trkpt>
      <trkpt lat="43.41642" lon="3.45545">
        <ele>48.9</ele>
        <time>2024-03-07T13:08:10.006Z</time>
      </trkpt>
      <trkpt lat="43.41651" lon="3.45536">
        <ele>50.3</ele>
        <time>2024-03-07T13:08:13.001Z</time>
      </trkpt>
      <trkpt lat="43.41662" lon="3.4553">
        <ele>52.1</ele>
        <time>2024-03-07T13:08:17.012Z</time>
      </trkpt>
      <trkpt lat="43.4167" lon="3.45519">
        <ele>54</ele>
        <time>2024-03-07T13:08:19.988Z</time>
      </trkpt>
      <trkpt lat="43.41676" lon="3.45504">
        <ele>55.9</ele>
        <time>2024-03-07T13:08:23.991Z</time>
      </trkpt>
      <trkpt lat="43.41683" lon="3.45491">
        <ele>57.1</ele>
        <time>2024-03-07T13:08:27.012Z</time>
      </trkpt>
      <trkpt lat="43.41687" lon="3.45479">
        <ele>58</ele>
        <time>2024-03-07T13:08:30.011Z</time>
      </trkpt>
      <trkpt lat="43.41689" lon="3.45466">
        <ele>58.7</ele>
        <time>2024-03-07T13:08:32.984Z</time>
      </trkpt>
      <trkpt lat="43.41694" lon="3.45453">
        <ele>59.6</ele>
        <time>2024-03-07T13:08:36.001Z</time>
      </trkpt>
      <trkpt lat="43.41697" lon="3.45441">
        <ele>60.1</ele>
        <time>2024-03-07T13:08:39.007Z</time>
      </trkpt>
      <trkpt lat="43.41699" lon="3.45426">
        <ele>60.3</ele>
        <time>2024-03-07T13:08:41.995Z</time>
      </trkpt>
      <trkpt lat="43.41701" lon="3.45407">
        <ele>60.6</ele>
        <time>2024-03-07T13:08:44.992Z</time>
      </trkpt>
      <trkpt lat="43.41702" lon="3.45393">
        <ele>60.8</ele>
        <time>2024-03-07T13:08:47.013Z</time>
      </trkpt>
      <trkpt lat="43.41704" lon="3.45377">
        <ele>61</ele>
        <time>2024-03-07T13:08:50.000Z</time>
      </trkpt>
      <trkpt lat="43.41706" lon="3.45361">
        <ele>61.2</ele>
        <time>2024-03-07T13:08:53.998Z</time>
      </trkpt>
      <trkpt lat="43.41705" lon="3.45349">
        <ele>60.7</ele>
        <time>2024-03-07T13:08:58.994Z</time>
      </trkpt>
      <trkpt lat="43.41704" lon="3.45337">
        <ele>60.1</ele>
      </trkpt>
      <trkpt lat="43.41703" lon="3.45324">
        <ele>59.8</ele>
        <time>2024-03-07T13:10:01.004Z</time>
      </trkpt>
      <trkpt lat="43.41703" lon="3.45309">
        <ele>59.7</ele>
        <time>2024-03-07T13:10:04.006Z</time>
      </trkpt>
      <trkpt lat="43.41706" lon="3.45294">
        <ele>59.8</ele>
        <time>2024-03-07T13:10:07.007Z</time>
      </trkpt>
      <trkpt lat="43.41707" lon="3.45278">
        <ele>59.9</ele>
        <time>2024-03-07T13:10:10.002Z</time>
      </trkpt>
      <trkpt lat="43.41707" lon="3.4526">
        <ele>59.6</ele>
        <time>2024-03-07T13:10:12.999Z</time>
      </trkpt>
      <trkpt lat="43.41707" lon="3.45244">
        <ele>59.3</ele>
        <time>2024-03-07T13:10:16.009Z</time>
      </trkpt>
      <trkpt lat="43.41707" lon="3.45225">
        <ele>59</ele>
        <time>2024-03-07T13:10:18.993Z</time>
      </trkpt>
      <trkpt lat="43.41708" lon="3.45207">
        <ele>58.7</ele>
        <time>2024-03-07T13:10:22.001Z</time>
      </trkpt>
      <trkpt lat="43.41707" lon="3.45189">
        <ele>58.3</ele>
        <time>2024-03-07T13:10:24.997Z</time>
      </trkpt>
      <trkpt lat="43.41706" lon="3.45172">
        <ele>57.6</ele>
        <time>2024-03-07T13:10:28.006Z</time>
      </trkpt>
      <trkpt lat="43.41714" lon="3.45165">
        <ele>57.7</ele>
        <time>2024-03-07T13:10:32.006Z</time>
      </trkpt>
      <trkpt lat="43.41726" lon="3.45163">
        <ele>57.9</ele>
        <time>2024-03-07T13:10:36.003Z</time>
      </trkpt>
      <trkpt lat="43.41736" lon="3.45162">
        <ele>57.5</ele>
        <time>2024-03-07T13:10:40.005Z</time>
      </trkpt>
      <trkpt lat="43.41748" lon="3.45167">
        <ele>57.1</ele>
        <time>2024-03-07T13:10:43.987Z</time>
      </trkpt>
      <trkpt lat="43.41756" lon="3.45162">
        <ele>56.1</ele>
        <time>2024-03-07T13:10:46.988Z</time>
      </trkpt>
      <trkpt lat="43.41757" lon="3.45148">
        <ele>56</ele>
        <time>2024-03-07T13:10:50.003Z</time>
      </trkpt>
      <trkpt lat="43.4176" lon="3.45133">
        <ele>55.8</ele>
        <time>2024-03-07T13:10:52.991Z</time>
      </trkpt>
      <trkpt lat="43.4176" lon="3.45116">
        <ele>56.7</ele>
        <time>2024-03-07T13:10:55.989Z</time>
      </trkpt>
      <trkpt lat="43.41755" lon="3.45103">
        <ele>58</ele>
        <time>2024-03-07T13:10:59.004Z</time>
      </trkpt>
      <trkpt lat="43.41754" lon="3.45085">
        <ele>59.3</ele>
        <time>2024-03-07T13:11:01.988Z</time>
      </trkpt>
      <trkpt lat="43.41755" lon="3.45066">
        <ele>60</ele>
        <time>2024-03-07T13:11:04.988Z</time>
      </trkpt>
      <trkpt lat="43.41756" lon="3.4505">
        <ele>60.4</ele>
        <time>2024-03-07T13:11:08.002Z</time>
      </trkpt>
      <trkpt lat="43.41756" lon="3.45033">
        <ele>60.4</ele>
        <time>2024-03-07T13:11:11.002Z</time>
      </trkpt>
      <trkpt lat="43.41754" lon="3.4502">
        <ele>60.3</ele>
        <time>2024-03-07T13:11:14.003Z</time>
      </trkpt>
      <trkpt lat="43.41752" lon="3.45007">
        <ele>60</ele>
        <time>2024-03-07T13:11:16.001Z</time>
      </trkpt>
      <trkpt lat="43.41749" lon="3.44994">
        <ele>59.6</ele>
        <time>2024-03-07T13:11:17.999Z</time>
      </trkpt>
      <trkpt lat="43.4175" lon="3.44978">
        <ele>58.4</ele>
        <time>2024-03-07T13:11:21.011Z</time>
      </trkpt>
      <trkpt lat="43.41754" lon="3.44968">
        <ele>57.2</ele>
        <time>2024-03-07T13:11:23.002Z</time>
      </trkpt>
      <trkpt lat="43.41755" lon="3.44951">
        <ele>55.8</ele>
        <time>2024-03-07T13:11:25.988Z</time>
      </trkpt>
      <trkpt lat="43.41754" lon="3.44938">
        <ele>55.7</ele>
        <time>2024-03-07T13:11:27.996Z</time>
      </trkpt>
      <trkpt lat="43.41755" lon="3.44921">
        <ele>56.3</ele>
        <time>2024-03-07T13:11:30.987Z</time>
      </trkpt>
      <trkpt lat="43.4175" lon="3.44905">
        <ele>57.8</ele>
        <time>2024-03-07T13:11:34.998Z</time>
      </trkpt>
      <trkpt lat="43.41746" lon="3.44893">
        <ele>59</ele>
        <time>2024-03-07T13:11:37.999Z</time>
      </trkpt>
      <trkpt lat="43.41746" lon="3.44878">
        <ele>60</ele>
        <time>2024-03-07T13:11:40.995Z</time>
      </trkpt>
      <trkpt lat="43.41746" lon="3.44864">
        <ele>60.8</ele>
        <time>2024-03-07T13:11:43.982Z</time>
      </trkpt>
      <trkpt lat="43.41749" lon="3.44849">
        <ele>61</ele>
        <time>2024-03-07T13:11:47.004Z</time>
      </trkpt>
      <trkpt lat="43.41752" lon="3.44833">
        <ele>60.9</ele>
        <time>2024-03-07T13:11:50.004Z</time>
      </trkpt>
      <trkpt lat="43.41758" lon="3.44823">
        <ele>60.8</ele>
        <time>2024-03-07T13:11:52.986Z</time>
      </trkpt>
      <trkpt lat="43.4176" lon="3.44809">
        <ele>61.2</ele>
        <time>2024-03-07T13:11:55.981Z</time>
      </trkpt>
      <trkpt lat="43.41762" lon="3.44796">
        <ele>61.1</ele>
        <time>2024-03-07T13:11:58.987Z</time>
      </trkpt>
      <trkpt lat="43.4176" lon="3.4478">
        <ele>61.3</ele>
        <time>2024-03-07T13:12:01.999Z</time>
      </trkpt>
      <trkpt lat="43.41757" lon="3.44765">
        <ele>61.5</ele>
        <time>2024-03-07T13:12:04.993Z</time>
      </trkpt>
      <trkpt lat="43.41755" lon="3.4475">
        <ele>61.6</ele>
        <time>2024-03-07T13:12:07.997Z</time>
      </trkpt>
      <trkpt lat="43.41753" lon="3.44736">
        <ele>61.3</ele>
        <time>2024-03-07T13:12:11.006Z</time>
      </trkpt>
      <trkpt lat="43.41751" lon="3.44719">
        <ele>60.8</ele>
        <time>2024-03-07T13:12:14.000Z</time>
      </trkpt>
      <trkpt lat="43.41748" lon="3.44703">
        <ele>60.2</ele>
        <time>2024-03-07T13:12:16.995Z</time>
      </trkpt>
      <trkpt lat="43.41747" lon="3.44688">
        <ele>59.5</ele>
        <time>2024-03-07T13:12:20.002Z</time>
      </trkpt>
      <trkpt lat="43.41739" lon="3.44677">
        <ele>58.6</ele>
        <time>2024-03-07T13:12:22.999Z</time>
      </trkpt>
      <trkpt lat="43.4173" lon="3.44673">
        <ele>58.3</ele>
        <time>2024-03-07T13:12:25.992Z</time>
      </trkpt>
      <trkpt lat="43.41733" lon="3.4466">
        <ele>57.7</ele>
        <time>2024-03-07T13:12:28.987Z</time>
      </trkpt>
      <trkpt lat="43.41734" lon="3.44642">
        <ele>56.7</ele>
        <time>2024-03-07T13:12:31.994Z</time>
      </trkpt>
      <trkpt lat="43.41732" lon="3.44629">
        <ele>56.3</ele>
        <time>2024-03-07T13:12:33.992Z</time>
      </trkpt>
      <trkpt lat="43.41729" lon="3.44616">
        <ele>55.9</ele>
        <time>2024-03-07T13:12:35.991Z</time>
      </trkpt>
      <trkpt lat="43.41726" lon="3.44603">
        <ele>55.9</ele>
        <time>2024-03-07T13:12:37.998Z</time>
      </trkpt>
      <trkpt lat="43.41725" lon="3.4459">
        <ele>55.9</ele>
        <time>2024-03-07T13:12:40.008Z</time>
      </trkpt>
      <trkpt lat="43.41729" lon="3.44574">
        <ele>55.8</ele>
        <time>2024-03-07T13:12:43.005Z</time>
      </trkpt>
      <trkpt lat="43.41736" lon="3.44572">
        <ele>55.5</ele>
      </trkpt>
      <trkpt lat="43.41749" lon="3.44569">
        <ele>55</ele>
      </trkpt>
      <trkpt lat="43.41755" lon="3.44567">
        <ele>54.6</ele>
        <time>2024-03-07T13:13:20.001Z</time>
      </trkpt>
      <trkpt lat="43.41763" lon="3.4458">
        <ele>54.1</ele>
        <time>2024-03-07T13:13:23.000Z</time>
      </trkpt>
      <trkpt lat="43.41769" lon="3.4459">
        <ele>53.8</ele>
        <time>2024-03-07T13:13:25.002Z</time>
      </trkpt>
      <trkpt lat="43.41774" lon="3.44599">
        <ele>53.8</ele>
        <time>2024-03-07T13:13:27.005Z</time>
      </trkpt>
      <trkpt lat="43.4178" lon="3.44609">
        <ele>53.7</ele>
        <time>2024-03-07T13:13:29.011Z</time>
      </trkpt>
      <trkpt lat="43.41787" lon="3.44618">
        <ele>53.4</ele>
        <time>2024-03-07T13:13:31.007Z</time>
      </trkpt>
      <trkpt lat="43.41796" lon="3.4463">
        <ele>52.9</ele>
        <time>2024-03-07T13:13:33.998Z</time>
      </trkpt>
      <trkpt lat="43.41805" lon="3.44641">
        <ele>52.3</ele>
        <time>2024-03-07T13:13:37.000Z</time>
      </trkpt>
      <trkpt lat="43.41814" lon="3.44654">
        <ele>52.8</ele>
        <time>2024-03-07T13:13:40.003Z</time>
      </trkpt>
      <trkpt lat="43.41823" lon="3.44668">
        <ele>52.5</ele>
        <time>2024-03-07T13:13:43.003Z</time>
      </trkpt>
      <trkpt lat="43.41829" lon="3.4468">
        <ele>51.6</ele>
        <time>2024-03-07T13:13:45.000Z</time>
      </trkpt>
      <trkpt lat="43.41833" lon="3.44695">
        <ele>51</ele>
        <time>2024-03-07T13:13:47.004Z</time>
      </trkpt>
      <trkpt lat="43.41838" lon="3.4471">
        <ele>50.9</ele>
        <time>2024-03-07T13:13:49.009Z</time>
      </trkpt>
      <trkpt lat="43.41841" lon="3.44725">
        <ele>50.8</ele>
        <time>2024-03-07T13:13:50.991Z</time>
      </trkpt>
      <trkpt lat="43.41843" lon="3.4474">
        <ele>50.8</ele>
        <time>2024-03-07T13:13:53.994Z</time>
      </trkpt>
      <trkpt lat="43.4184" lon="3.44757">
        <ele>50.4</ele>
        <time>2024-03-07T13:13:56.998Z</time>
      </trkpt>
      <trkpt lat="43.41838" lon="3.44769">
        <ele>50</ele>
        <time>2024-03-07T13:13:58.996Z</time>
      </trkpt>
      <trkpt lat="43.41838" lon="3.44788">
        <ele>48.9</ele>
        <time>2024-03-07T13:14:01.999Z</time>
      </trkpt>
      <trkpt lat="43.41837" lon="3.44803">
        <ele>47.8</ele>
        <time>2024-03-07T13:14:04.007Z</time>
      </trkpt>
      <trkpt lat="43.41834" lon="3.44816">
        <ele>47.2</ele>
        <time>2024-03-07T13:14:06.002Z</time>
      </trkpt>
      <trkpt lat="43.41832" lon="3.4483">
        <ele>46.6</ele>
        <time>2024-03-07T13:14:08.014Z</time>
      </trkpt>
      <trkpt lat="43.41829" lon="3.44844">
        <ele>46.7</ele>
        <time>2024-03-07T13:14:10.013Z</time>
      </trkpt>
      <trkpt lat="43.41826" lon="3.44858">
        <ele>47</ele>
        <time>2024-03-07T13:14:12.004Z</time>
      </trkpt>
      <trkpt lat="43.41822" lon="3.44873">
        <ele>47.5</ele>
        <time>2024-03-07T13:14:13.997Z</time>
      </trkpt>
      <trkpt lat="43.41819" lon="3.44887">
        <ele>47.7</ele>
        <time>2024-03-07T13:14:16.004Z</time>
      </trkpt>
      <trkpt lat="43.41816" lon="3.449">
        <ele>47.5</ele>
        <time>2024-03-07T13:14:18.003Z</time>
      </trkpt>
      <trkpt lat="43.41813" lon="3.44915">
        <ele>47</ele>
        <time>2024-03-07T13:14:20.008Z</time>
      </trkpt>
      <trkpt lat="43.41812" lon="3.4493">
        <ele>46.7</ele>
        <time>2024-03-07T13:14:22.002Z</time>
      </trkpt>
      <trkpt lat="43.41812" lon="3.44945">
        <ele>46.3</ele>
        <time>2024-03-07T13:14:23.995Z</time>
      </trkpt>
      <trkpt lat="43.41813" lon="3.44961">
        <ele>47.1</ele>
        <time>2024-03-07T13:14:26.010Z</time>
      </trkpt>
      <trkpt lat="43.41814" lon="3.44977">
        <ele>47.8</ele>
        <time>2024-03-07T13:14:27.999Z</time>
      </trkpt>
      <trkpt lat="43.41819" lon="3.44991">
        <ele>47.6</ele>
        <time>2024-03-07T13:14:30.001Z</time>
      </trkpt>
      <trkpt lat="43.41818" lon="3.45004">
        <ele>48.5</ele>
        <time>2024-03-07T13:14:31.999Z</time>
      </trkpt>
      <trkpt lat="43.4182" lon="3.4502">
        <ele>48.6</ele>
        <time>2024-03-07T13:14:33.996Z</time>
      </trkpt>
      <trkpt lat="43.41822" lon="3.45035">
        <ele>48.4</ele>
        <time>2024-03-07T13:14:35.980Z</time>
      </trkpt>
      <trkpt lat="43.41825" lon="3.4505">
        <ele>47.8</ele>
        <time>2024-03-07T13:14:38.004Z</time>
      </trkpt>
      <trkpt lat="43.41828" lon="3.45065">
        <ele>47.1</ele>
        <time>2024-03-07T13:14:40.005Z</time>
      </trkpt>
      <trkpt lat="43.41832" lon="3.45079">
        <ele>46.2</ele>
        <time>2024-03-07T13:14:42.002Z</time>
      </trkpt>
      <trkpt lat="43.41837" lon="3.45094">
        <ele>46.1</ele>
        <time>2024-03-07T13:14:43.996Z</time>
      </trkpt>
      <trkpt lat="43.41839" lon="3.45111">
        <ele>46.6</ele>
        <time>2024-03-07T13:14:45.996Z</time>
      </trkpt>
      <trkpt lat="43.41841" lon="3.45125">
        <ele>46.8</ele>
        <time>2024-03-07T13:14:47.985Z</time>
      </trkpt>
      <trkpt lat="43.41843" lon="3.45143">
        <ele>47.1</ele>
        <time>2024-03-07T13:14:50.989Z</time>
      </trkpt>
      <trkpt lat="43.4184" lon="3.45156">
        <ele>47.9</ele>
        <time>2024-03-07T13:14:54.005Z</time>
      </trkpt>
      <trkpt lat="43.41838" lon="3.45169">
        <ele>48.6</ele>
        <time>2024-03-07T13:14:58.002Z</time>
      </trkpt>
      <trkpt lat="43.4184" lon="3.45185">
        <ele>49.4</ele>
        <time>2024-03-07T13:15:02.005Z</time>
      </trkpt>
      <trkpt lat="43.41841" lon="3.45198">
        <ele>50.2</ele>
        <time>2024-03-07T13:15:06.004Z</time>
      </trkpt>
      <trkpt lat="43.41839" lon="3.45212">
        <ele>51.4</ele>
        <time>2024-03-07T13:15:09.986Z</time>
      </trkpt>
      <trkpt lat="43.41845" lon="3.45221">
        <ele>51.2</ele>
        <time>2024-03-07T13:15:14.002Z</time>
      </trkpt>
      <trkpt lat="43.41848" lon="3.45236">
        <ele>51.9</ele>
        <time>2024-03-07T13:15:18.002Z</time>
      </trkpt>
      <trkpt lat="43.41846" lon="3.4525">
        <ele>53.2</ele>
        <time>2024-03-07T13:15:22.003Z</time>
      </trkpt>
      <trkpt lat="43.41846" lon="3.45265">
        <ele>53.8</ele>
        <time>2024-03-07T13:15:25.995Z</time>
      </trkpt>
      <trkpt lat="43.41845" lon="3.45279">
        <ele>54.4</ele>
        <time>2024-03-07T13:15:30.001Z</time>
      </trkpt>
      <trkpt lat="43.41845" lon="3.45293">
        <ele>53.9</ele>
        <time>2024-03-07T13:15:33.007Z</time>
      </trkpt>
      <trkpt lat="43.41848" lon="3.45305">
        <ele>52.9</ele>
        <time>2024-03-07T13:15:35.995Z</time>
      </trkpt>
      <trkpt lat="43.41852" lon="3.45318">
        <ele>50.9</ele>
        <time>2024-03-07T13:15:39.000Z</time>
      </trkpt>
      <trkpt lat="43.41847" lon="3.45333">
        <ele>51.1</ele>
        <time>2024-03-07T13:15:41.994Z</time>
      </trkpt>
      <trkpt lat="43.41844" lon="3.45351">
        <ele>50.3</ele>
        <time>2024-03-07T13:15:45.002Z</time>
      </trkpt>
      <trkpt lat="43.4184" lon="3.45363">
        <ele>50.1</ele>
        <time>2024-03-07T13:15:48.003Z</time>
      </trkpt>
      <trkpt lat="43.41841" lon="3.45376">
        <ele>48.6</ele>
        <time>2024-03-07T13:15:51.005Z</time>
      </trkpt>
      <trkpt lat="43.41836" lon="3.4539">
        <ele>48.3</ele>
        <time>2024-03-07T13:15:53.985Z</time>
      </trkpt>
      <trkpt lat="43.41833" lon="3.45408">
        <ele>47</ele>
        <time>2024-03-07T13:15:57.012Z</time>
      </trkpt>
      <trkpt lat="43.41831" lon="3.45424">
        <ele>45.9</ele>
        <time>2024-03-07T13:15:59.995Z</time>
      </trkpt>
      <trkpt lat="43.41828" lon="3.45437">
        <ele>45.4</ele>
        <time>2024-03-07T13:16:02.007Z</time>
      </trkpt>
      <trkpt lat="43.41825" lon="3.4545">
        <ele>44.7</ele>
        <time>2024-03-07T13:16:04.015Z</time>
      </trkpt>
      <trkpt lat="43.41822" lon="3.45463">
        <ele>43.9</ele>
        <time>2024-03-07T13:16:06.009Z</time>
      </trkpt>
      <trkpt lat="43.41818" lon="3.45481">
        <ele>43</ele>
        <time>2024-03-07T13:16:08.999Z</time>
      </trkpt>
      <trkpt lat="43.41817" lon="3.45499">
        <ele>41.4</ele>
        <time>2024-03-07T13:16:12.005Z</time>
      </trkpt>
      <trkpt lat="43.41813" lon="3.45512">
        <ele>41.1</ele>
        <time>2024-03-07T13:16:13.998Z</time>
      </trkpt>
      <trkpt lat="43.41808" lon="3.45524">
        <ele>40.9</ele>
        <time>2024-03-07T13:16:16.005Z</time>
      </trkpt>
      <trkpt lat="43.4181" lon="3.45532">
        <ele>40</ele>
      </trkpt>
      <trkpt lat="43.41813" lon="3.45545">
        <ele>38.6</ele>
      </trkpt>
      <trkpt lat="43.41816" lon="3.45556">
        <ele>37.5</ele>
        <time>2024-03-07T13:16:36.010Z</time>
      </trkpt>
      <trkpt lat="43.41823" lon="3.45574">
        <ele>34.9</ele>
        <time>2024-03-07T13:16:38.994Z</time>
      </trkpt>
      <trkpt lat="43.41831" lon="3.45589">
        <ele>33</ele>
        <time>2024-03-07T13:16:40.987Z</time>
      </trkpt>
      <trkpt lat="43.41838" lon="3.45604">
        <ele>32.2</ele>
        <time>2024-03-07T13:16:43.011Z</time>
      </trkpt>
      <trkpt lat="43.41842" lon="3.45621">
        <ele>32.1</ele>
        <time>2024-03-07T13:16:44.995Z</time>
      </trkpt>
      <trkpt lat="43.41846" lon="3.45637">
        <ele>32.1</ele>
        <time>2024-03-07T13:16:47.001Z</time>
      </trkpt>
      <trkpt lat="43.41851" lon="3.45648">
        <ele>32.1</ele>
        <time>2024-03-07T13:16:49.023Z</time>
      </trkpt>
      <trkpt lat="43.41865" lon="3.45659">
        <ele>32.5</ele>
        <time>2024-03-07T13:17:12.004Z</time>
      </trkpt>
      <trkpt lat="43.41873" lon="3.45666">
        <ele>33.4</ele>
        <time>2024-03-07T13:17:16.985Z</time>
      </trkpt>
      <trkpt lat="43.41882" lon="3.45673">
        <ele>34.1</ele>
        <time>2024-03-07T13:17:22.009Z</time>
      </trkpt>
      <trkpt lat="43.41891" lon="3.45675">
        <ele>34.7</ele>
        <time>2024-03-07T13:17:26.019Z</time>
      </trkpt>
      <trkpt lat="43.41895" lon="3.45688">
        <ele>36.1</ele>
        <time>2024-03-07T13:17:31.008Z</time>
      </trkpt>
      <trkpt lat="43.41893" lon="3.45702">
        <ele>37</ele>
        <time>2024-03-07T13:17:35.004Z</time>
      </trkpt>
      <trkpt lat="43.41893" lon="3.45716">
        <ele>38</ele>
        <time>2024-03-07T13:17:39.012Z</time>
      </trkpt>
      <trkpt lat="43.41896" lon="3.45728">
        <ele>39</ele>
        <time>2024-03-07T13:17:43.000Z</time>
      </trkpt>
      <trkpt lat="43.41897" lon="3.45743">
        <ele>39.6</ele>
        <time>2024-03-07T13:17:47.010Z</time>
      </trkpt>
      <trkpt lat="43.41898" lon="3.45759">
        <ele>40.1</ele>
        <time>2024-03-07T13:17:51.002Z</time>
      </trkpt>
      <trkpt lat="43.41898" lon="3.45774">
        <ele>40.3</ele>
        <time>2024-03-07T13:17:53.991Z</time>
      </trkpt>
      <trkpt lat="43.41899" lon="3.45787">
        <ele>40.5</ele>
        <time>2024-03-07T13:17:56.999Z</time>
      </trkpt>
      <trkpt lat="43.419" lon="3.45801">
        <ele>40.6</ele>
        <time>2024-03-07T13:17:59.996Z</time>
      </trkpt>
      <trkpt lat="43.41901" lon="3.45815">
        <ele>40.6</ele>
        <time>2024-03-07T13:18:03.008Z</time>
      </trkpt>
      <trkpt lat="43.41902" lon="3.45829">
        <ele>40.5</ele>
        <time>2024-03-07T13:18:06.004Z</time>
      </trkpt>
      <trkpt lat="43.41904" lon="3.45843">
        <ele>40.8</ele>
        <time>2024-03-07T13:18:09.001Z</time>
      </trkpt>
      <trkpt lat="43.41907" lon="3.45857">
        <ele>41.5</ele>
        <time>2024-03-07T13:18:12.991Z</time>
      </trkpt>
      <trkpt lat="43.41907" lon="3.45873">
        <ele>41.8</ele>
        <time>2024-03-07T13:18:17.009Z</time>
      </trkpt>
      <trkpt lat="43.4191" lon="3.45889">
        <ele>42.3</ele>
        <time>2024-03-07T13:18:21.013Z</time>
      </trkpt>
      <trkpt lat="43.41915" lon="3.45904">
        <ele>42.8</ele>
        <time>2024-03-07T13:18:25.005Z</time>
      </trkpt>
      <trkpt lat="43.41917" lon="3.45916">
        <ele>43</ele>
        <time>2024-03-07T13:18:27.991Z</time>
      </trkpt>
      <trkpt lat="43.41916" lon="3.45929">
        <ele>42.9</ele>
        <time>2024-03-07T13:18:30.993Z</time>
      </trkpt>
      <trkpt lat="43.41914" lon="3.45942">
        <ele>42.6</ele>
        <time>2024-03-07T13:18:33.981Z</time>
      </trkpt>
      <trkpt lat="43.41912" lon="3.45958">
        <ele>42.3</ele>
        <time>2024-03-07T13:18:37.007Z</time>
      </trkpt>
      <trkpt lat="43.41911" lon="3.45977">
        <ele>42.2</ele>
        <time>2024-03-07T13:18:40.000Z</time>
      </trkpt>
      <trkpt lat="43.41913" lon="3.4599">
        <ele>42.5</ele>
        <time>2024-03-07T13:18:41.998Z</time>
      </trkpt>
      <trkpt lat="43.41912" lon="3.46002">
        <ele>42.4</ele>
        <time>2024-03-07T13:18:43.999Z</time>
      </trkpt>
      <trkpt lat="43.41912" lon="3.46018">
        <ele>43</ele>
        <time>2024-03-07T13:18:46.999Z</time>
      </trkpt>
      <trkpt lat="43.41914" lon="3.46033">
        <ele>43.8</ele>
        <time>2024-03-07T13:18:50.005Z</time>
      </trkpt>
      <trkpt lat="43.41918" lon="3.46046">
        <ele>44.9</ele>
        <time>2024-03-07T13:18:53.007Z</time>
      </trkpt>
      <trkpt lat="43.41921" lon="3.4606">
        <ele>45.9</ele>
        <time>2024-03-07T13:18:56.992Z</time>
      </trkpt>
      <trkpt lat="43.41922" lon="3.46075">
        <ele>46.4</ele>
        <time>2024-03-07T13:19:01.012Z</time>
      </trkpt>
      <trkpt lat="43.41919" lon="3.46089">
        <ele>45.8</ele>
        <time>2024-03-07T13:19:04.001Z</time>
      </trkpt>
      <trkpt lat="43.41915" lon="3.46103">
        <ele>44.4</ele>
        <time>2024-03-07T13:19:06.987Z</time>
      </trkpt>
      <trkpt lat="43.41907" lon="3.46113">
        <ele>43.4</ele>
        <time>2024-03-07T13:19:09.996Z</time>
      </trkpt>
      <trkpt lat="43.41897" lon="3.4612">
        <ele>42.9</ele>
        <time>2024-03-07T13:19:12.001Z</time>
      </trkpt>
      <trkpt lat="43.41888" lon="3.46129">
        <ele>42.6</ele>
        <time>2024-03-07T13:19:13.990Z</time>
      </trkpt>
      <trkpt lat="43.41882" lon="3.46142">
        <ele>42.3</ele>
        <time>2024-03-07T13:19:16.004Z</time>
      </trkpt>
      <trkpt lat="43.41883" lon="3.4616">
        <ele>43</ele>
        <time>2024-03-07T13:19:19.013Z</time>
      </trkpt>
      <trkpt lat="43.41885" lon="3.46176">
        <ele>43.5</ele>
        <time>2024-03-07T13:19:22.000Z</time>
      </trkpt>
      <trkpt lat="43.41885" lon="3.46192">
        <ele>43.6</ele>
        <time>2024-03-07T13:19:24.998Z</time>
      </trkpt>
      <trkpt lat="43.41884" lon="3.4621">
        <ele>43.7</ele>
        <time>2024-03-07T13:19:27.998Z</time>
      </trkpt>
      <trkpt lat="43.41883" lon="3.46227">
        <ele>43.8</ele>
        <time>2024-03-07T13:19:31.008Z</time>
      </trkpt>
      <trkpt lat="43.41883" lon="3.46244">
        <ele>43.8</ele>
        <time>2024-03-07T13:19:33.988Z</time>
      </trkpt>
      <trkpt lat="43.41884" lon="3.46257">
        <ele>43.9</ele>
        <time>2024-03-07T13:19:36.006Z</time>
      </trkpt>
      <trkpt lat="43.41885" lon="3.46269">
        <ele>44</ele>
        <time>2024-03-07T13:19:37.999Z</time>
      </trkpt>
      <trkpt lat="43.41887" lon="3.46283">
        <ele>44.2</ele>
        <time>2024-03-07T13:19:40.012Z</time>
      </trkpt>
      <trkpt lat="43.41889" lon="3.46296">
        <ele>44.7</ele>
        <time>2024-03-07T13:19:41.999Z</time>
      </trkpt>
      <trkpt lat="43.41892" lon="3.46314">
        <ele>45.1</ele>
        <time>2024-03-07T13:19:45.007Z</time>
      </trkpt>
      <trkpt lat="43.41893" lon="3.46327">
        <ele>45.3</ele>
        <time>2024-03-07T13:19:47.008Z</time>
      </trkpt>
      <trkpt lat="43.41891" lon="3.46341">
        <ele>45.2</ele>
        <time>2024-03-07T13:19:48.993Z</time>
      </trkpt>
      <trkpt lat="43.41889" lon="3.46354">
        <ele>45</ele>
        <time>2024-03-07T13:19:50.990Z</time>
      </trkpt>
      <trkpt lat="43.41886" lon="3.46366">
        <ele>45.2</ele>
        <time>2024-03-07T13:19:52.985Z</time>
      </trkpt>
      <trkpt lat="43.41881" lon="3.46382">
        <ele>46</ele>
        <time>2024-03-07T13:19:56.003Z</time>
      </trkpt>
      <trkpt lat="43.41877" lon="3.46399">
        <ele>46.6</ele>
        <time>2024-03-07T13:19:58.993Z</time>
      </trkpt>
      <trkpt lat="43.41873" lon="3.46414">
        <ele>47</ele>
        <time>2024-03-07T13:20:02.005Z</time>
      </trkpt>
      <trkpt lat="43.41869" lon="3.46429">
        <ele>47.3</ele>
        <time>2024-03-07T13:20:05.011Z</time>
      </trkpt>
      <trkpt lat="43.41865" lon="3.46444">
        <ele>47.3</ele>
        <time>2024-03-07T13:20:07.996Z</time>
      </trkpt>
      <trkpt lat="43.41861" lon="3.46458">
        <ele>47.5</ele>
        <time>2024-03-07T13:20:11.002Z</time>
      </trkpt>
      <trkpt lat="43.41859" lon="3.46472">
        <ele>47.9</ele>
        <time>2024-03-07T13:20:14.001Z</time>
      </trkpt>
      <trkpt lat="43.41859" lon="3.46484">
        <ele>48.3</ele>
        <time>2024-03-07T13:20:17.001Z</time>
      </trkpt>
      <trkpt lat="43.41859" lon="3.465">
        <ele>48.9</ele>
        <time>2024-03-07T13:20:21.011Z</time>
      </trkpt>
      <trkpt lat="43.4186" lon="3.46515">
        <ele>49.5</ele>
        <time>2024-03-07T13:20:25.009Z</time>
      </trkpt>
      <trkpt lat="43.41861" lon="3.4653">
        <ele>50.1</ele>
        <time>2024-03-07T13:20:29.997Z</time>
      </trkpt>
      <trkpt lat="43.4186" lon="3.46547">
        <ele>50.6</ele>
        <time>2024-03-07T13:20:33.992Z</time>
      </trkpt>
      <trkpt lat="43.41857" lon="3.46563">
        <ele>51</ele>
        <time>2024-03-07T13:20:37.006Z</time>
      </trkpt>
      <trkpt lat="43.41855" lon="3.4658">
        <ele>51.4</ele>
        <time>2024-03-07T13:20:40.013Z</time>
      </trkpt>
      <trkpt lat="43.41853" lon="3.46594">
        <ele>51.5</ele>
        <time>2024-03-07T13:20:43.009Z</time>
      </trkpt>
      <trkpt lat="43.41852" lon="3.46609">
        <ele>51.6</ele>
        <time>2024-03-07T13:20:46.012Z</time>
      </trkpt>
      <trkpt lat="43.41851" lon="3.46624">
        <ele>51.9</ele>
        <time>2024-03-07T13:20:49.002Z</time>
      </trkpt>
      <trkpt lat="43.41847" lon="3.46639">
        <ele>52</ele>
        <time>2024-03-07T13:20:52.007Z</time>
      </trkpt>
      <trkpt lat="43.41844" lon="3.46654">
        <ele>52.3</ele>
        <time>2024-03-07T13:20:55.000Z</time>
      </trkpt>
      <trkpt lat="43.41839" lon="3.46667">
        <ele>52.4</ele>
        <time>2024-03-07T13:20:58.009Z</time>
      </trkpt>
      <trkpt lat="43.41835" lon="3.46681">
        <ele>52.2</ele>
        <time>2024-03-07T13:21:01.002Z</time>
      </trkpt>
      <trkpt lat="43.41834" lon="3.46694">
        <ele>52.1</ele>
        <time>2024-03-07T13:21:04.999Z</time>
      </trkpt>
      <trkpt lat="43.41831" lon="3.46708">
        <ele>52</ele>
        <time>2024-03-07T13:21:09.005Z</time>
      </trkpt>
      <trkpt lat="43.41827" lon="3.46723">
        <ele>52</ele>
        <time>2024-03-07T13:21:12.993Z</time>
      </trkpt>
      <trkpt lat="43.41822" lon="3.46738">
        <ele>52.3</ele>
        <time>2024-03-07T13:21:17.001Z</time>
      </trkpt>
      <trkpt lat="43.41819" lon="3.46752">
        <ele>52.5</ele>
        <time>2024-03-07T13:21:20.006Z</time>
      </trkpt>
      <trkpt lat="43.41816" lon="3.46766">
        <ele>52.6</ele>
        <time>2024-03-07T13:21:23.003Z</time>
      </trkpt>
      <trkpt lat="43.41813" lon="3.46781">
        <ele>52.7</ele>
        <time>2024-03-07T13:21:26.005Z</time>
      </trkpt>
      <trkpt lat="43.4181" lon="3.46796">
        <ele>53</ele>
        <time>2024-03-07T13:21:28.996Z</time>
      </trkpt>
      <trkpt lat="43.41806" lon="3.46813">
        <ele>53.3</ele>
        <time>2024-03-07T13:21:32.011Z</time>
      </trkpt>
      <trkpt lat="43.41801" lon="3.4683">
        <ele>53.9</ele>
        <time>2024-03-07T13:21:35.005Z</time>
      </trkpt>
      <trkpt lat="43.41796" lon="3.46847">
        <ele>54.3</ele>
        <time>2024-03-07T13:21:37.989Z</time>
      </trkpt>
      <trkpt lat="43.41792" lon="3.46863">
        <ele>54.5</ele>
        <time>2024-03-07T13:21:41.006Z</time>
      </trkpt>
      <trkpt lat="43.4179" lon="3.46877">
        <ele>54.7</ele>
        <time>2024-03-07T13:21:44.008Z</time>
      </trkpt>
      <trkpt lat="43.41787" lon="3.46892">
        <ele>54.8</ele>
        <time>2024-03-07T13:21:47.005Z</time>
      </trkpt>
      <trkpt lat="43.41785" lon="3.46905">
        <ele>55.1</ele>
        <time>2024-03-07T13:21:50.001Z</time>
      </trkpt>
      <trkpt lat="43.41782" lon="3.46919">
        <ele>55.4</ele>
        <time>2024-03-07T13:21:53.010Z</time>
      </trkpt>
      <trkpt lat="43.41781" lon="3.46932">
        <ele>55.8</ele>
        <time>2024-03-07T13:21:55.999Z</time>
      </trkpt>
      <trkpt lat="43.4178" lon="3.46945">
        <ele>56.2</ele>
        <time>2024-03-07T13:21:59.010Z</time>
      </trkpt>
      <trkpt lat="43.41779" lon="3.46959">
        <ele>56.6</ele>
        <time>2024-03-07T13:22:03.013Z</time>
      </trkpt>
      <trkpt lat="43.41777" lon="3.46972">
        <ele>57</ele>
        <time>2024-03-07T13:22:06.007Z</time>
      </trkpt>
      <trkpt lat="43.41775" lon="3.46986">
        <ele>57.3</ele>
        <time>2024-03-07T13:22:09.007Z</time>
      </trkpt>
      <trkpt lat="43.41774" lon="3.46999">
        <ele>57.7</ele>
        <time>2024-03-07T13:22:12.001Z</time>
      </trkpt>
      <trkpt lat="43.41773" lon="3.47012">
        <ele>58.1</ele>
        <time>2024-03-07T13:22:15.005Z</time>
      </trkpt>
      <trkpt lat="43.41771" lon="3.47025">
        <ele>58.4</ele>
        <time>2024-03-07T13:22:18.009Z</time>
      </trkpt>
      <trkpt lat="43.41771" lon="3.4704">
        <ele>59</ele>
        <time>2024-03-07T13:22:22.013Z</time>
      </trkpt>
      <trkpt lat="43.4177" lon="3.47054">
        <ele>59.4</ele>
        <time>2024-03-07T13:22:25.008Z</time>
      </trkpt>
      <trkpt lat="43.4177" lon="3.47067">
        <ele>59.9</ele>
        <time>2024-03-07T13:22:28.009Z</time>
      </trkpt>
      <trkpt lat="43.41771" lon="3.47079">
        <ele>60.4</ele>
        <time>2024-03-07T13:22:31.009Z</time>
      </trkpt>
      <trkpt lat="43.41772" lon="3.47092">
        <ele>60.9</ele>
        <time>2024-03-07T13:22:34.001Z</time>
      </trkpt>
      <trkpt lat="43.41769" lon="3.47104">
        <ele>61.1</ele>
        <time>2024-03-07T13:22:37.002Z</time>
      </trkpt>
      <trkpt lat="43.41765" lon="3.47115">
        <ele>61.2</ele>
        <time>2024-03-07T13:22:40.003Z</time>
      </trkpt>
      <trkpt lat="43.4176" lon="3.47127">
        <ele>61.3</ele>
        <time>2024-03-07T13:22:43.003Z</time>
      </trkpt>
      <trkpt lat="43.41756" lon="3.47138">
        <ele>61.4</ele>
        <time>2024-03-07T13:22:46.002Z</time>
      </trkpt>
      <trkpt lat="43.41753" lon="3.47152">
        <ele>62.2</ele>
        <time>2024-03-07T13:22:50.002Z</time>
      </trkpt>
      <trkpt lat="43.41752" lon="3.47165">
        <ele>63</ele>
        <time>2024-03-07T13:22:52.989Z</time>
      </trkpt>
      <trkpt lat="43.41751" lon="3.47181">
        <ele>63.6</ele>
        <time>2024-03-07T13:22:56.991Z</time>
      </trkpt>
      <trkpt lat="43.41748" lon="3.47196">
        <ele>64</ele>
        <time>2024-03-07T13:23:01.002Z</time>
      </trkpt>
      <trkpt lat="43.4174" lon="3.47205">
        <ele>64.4</ele>
        <time>2024-03-07T13:23:03.986Z</time>
      </trkpt>
      <trkpt lat="43.41729" lon="3.47209">
        <ele>64.3</ele>
        <time>2024-03-07T13:23:07.008Z</time>
      </trkpt>
      <trkpt lat="43.41718" lon="3.4721">
        <ele>64</ele>
        <time>2024-03-07T13:23:10.001Z</time>
      </trkpt>
      <trkpt lat="43.41704" lon="3.47212">
        <ele>63.6</ele>
        <time>2024-03-07T13:23:13.013Z</time>
      </trkpt>
      <trkpt lat="43.41695" lon="3.47214">
        <ele>63.4</ele>
        <time>2024-03-07T13:23:15.003Z</time>
      </trkpt>
      <trkpt lat="43.41686" lon="3.47216">
        <ele>63.5</ele>
        <time>2024-03-07T13:23:16.998Z</time>
      </trkpt>
      <trkpt lat="43.41674" lon="3.47218">
        <ele>63.6</ele>
        <time>2024-03-07T13:23:20.010Z</time>
      </trkpt>
      <trkpt lat="43.41661" lon="3.47221">
        <ele>63.7</ele>
        <time>2024-03-07T13:23:22.993Z</time>
      </trkpt>
      <trkpt lat="43.41648" lon="3.47223">
        <ele>63.4</ele>
        <time>2024-03-07T13:23:25.999Z</time>
      </trkpt>
      <trkpt lat="43.41635" lon="3.47223">
        <ele>63.2</ele>
        <time>2024-03-07T13:23:28.991Z</time>
      </trkpt>
      <trkpt lat="43.41627" lon="3.47218">
        <ele>63.1</ele>
        <time>2024-03-07T13:23:31.006Z</time>
      </trkpt>
      <trkpt lat="43.41618" lon="3.47213">
        <ele>63.1</ele>
        <time>2024-03-07T13:23:33.003Z</time>
      </trkpt>
      <trkpt lat="43.41606" lon="3.47206">
        <ele>62.9</ele>
        <time>2024-03-07T13:23:35.994Z</time>
      </trkpt>
      <trkpt lat="43.41598" lon="3.47201">
        <ele>62.8</ele>
        <time>2024-03-07T13:23:37.987Z</time>
      </trkpt>
      <trkpt lat="43.41589" lon="3.47197">
        <ele>62.9</ele>
        <time>2024-03-07T13:23:40.008Z</time>
      </trkpt>
      <trkpt lat="43.4158" lon="3.47207">
        <ele>63.8</ele>
        <time>2024-03-07T13:23:43.011Z</time>
      </trkpt>
      <trkpt lat="43.41576" lon="3.47223">
        <ele>64.6</ele>
        <time>2024-03-07T13:23:45.987Z</time>
      </trkpt>
      <trkpt lat="43.41571" lon="3.47238">
        <ele>65.5</ele>
        <time>2024-03-07T13:23:48.999Z</time>
      </trkpt>
      <trkpt lat="43.41567" lon="3.47252">
        <ele>66.2</ele>
        <time>2024-03-07T13:23:53.011Z</time>
      </trkpt>
      <trkpt lat="43.41564" lon="3.47264">
        <ele>66.5</ele>
        <time>2024-03-07T13:23:56.006Z</time>
      </trkpt>
      <trkpt lat="43.4156" lon="3.47277">
        <ele>66.8</ele>
        <time>2024-03-07T13:24:00.009Z</time>
      </trkpt>
      <trkpt lat="43.41551" lon="3.47273">
        <ele>67.2</ele>
        <time>2024-03-07T13:24:05.003Z</time>
      </trkpt>
      <trkpt lat="43.41552" lon="3.47259">
        <ele>67.1</ele>
        <time>2024-03-07T13:24:08.985Z</time>
      </trkpt>
      <trkpt lat="43.41555" lon="3.47246">
        <ele>66.9</ele>
        <time>2024-03-07T13:24:12.993Z</time>
      </trkpt>
      <trkpt lat="43.4156" lon="3.47234">
        <ele>66.1</ele>
        <time>2024-03-07T13:24:15.991Z</time>
      </trkpt>
      <trkpt lat="43.41564" lon="3.47222">
        <ele>65.4</ele>
        <time>2024-03-07T13:24:18.992Z</time>
      </trkpt>
      <trkpt lat="43.41569" lon="3.47209">
        <ele>64.8</ele>
        <time>2024-03-07T13:24:21.978Z</time>
      </trkpt>
      <trkpt lat="43.41574" lon="3.47194">
        <ele>64</ele>
        <time>2024-03-07T13:24:24.985Z</time>
      </trkpt>
      <trkpt lat="43.41579" lon="3.47177">
        <ele>63.5</ele>
        <time>2024-03-07T13:24:28.008Z</time>
      </trkpt>
      <trkpt lat="43.41582" lon="3.47164">
        <ele>63.2</ele>
        <time>2024-03-07T13:24:30.006Z</time>
      </trkpt>
      <trkpt lat="43.41585" lon="3.47152">
        <ele>63.3</ele>
        <time>2024-03-07T13:24:32.002Z</time>
      </trkpt>
      <trkpt lat="43.41589" lon="3.4714">
        <ele>63.2</ele>
        <time>2024-03-07T13:24:34.003Z</time>
      </trkpt>
      <trkpt lat="43.41592" lon="3.47128">
        <ele>62.9</ele>
        <time>2024-03-07T13:24:35.998Z</time>
      </trkpt>
      <trkpt lat="43.41595" lon="3.47115">
        <ele>62.7</ele>
        <time>2024-03-07T13:24:37.982Z</time>
      </trkpt>
      <trkpt lat="43.41596" lon="3.47103">
        <ele>62.8</ele>
        <time>2024-03-07T13:24:40.019Z</time>
      </trkpt>
      <trkpt lat="43.41604" lon="3.47089">
        <ele>62.4</ele>
        <time>2024-03-07T13:24:42.998Z</time>
      </trkpt>
      <trkpt lat="43.41608" lon="3.47077">
        <ele>62.7</ele>
        <time>2024-03-07T13:24:45.006Z</time>
      </trkpt>
      <trkpt lat="43.41614" lon="3.47063">
        <ele>63.1</ele>
        <time>2024-03-07T13:24:48.014Z</time>
      </trkpt>
      <trkpt lat="43.41617" lon="3.47048">
        <ele>63.4</ele>
        <time>2024-03-07T13:24:51.007Z</time>
      </trkpt>
      <trkpt lat="43.41625" lon="3.47036">
        <ele>62.7</ele>
        <time>2024-03-07T13:24:53.991Z</time>
      </trkpt>
      <trkpt lat="43.41632" lon="3.47022">
        <ele>62.5</ele>
        <time>2024-03-07T13:24:57.003Z</time>
      </trkpt>
      <trkpt lat="43.4164" lon="3.47009">
        <ele>62.9</ele>
        <time>2024-03-07T13:25:00.009Z</time>
      </trkpt>
      <trkpt lat="43.41645" lon="3.46997">
        <ele>63.1</ele>
        <time>2024-03-07T13:25:03.002Z</time>
      </trkpt>
      <trkpt lat="43.41649" lon="3.46985">
        <ele>63.3</ele>
        <time>2024-03-07T13:25:06.007Z</time>
      </trkpt>
      <trkpt lat="43.41655" lon="3.46969">
        <ele>63.4</ele>
        <time>2024-03-07T13:25:09.996Z</time>
      </trkpt>
      <trkpt lat="43.41663" lon="3.46957">
        <ele>63.6</ele>
        <time>2024-03-07T13:25:12.999Z</time>
      </trkpt>
      <trkpt lat="43.41667" lon="3.46939">
        <ele>65.1</ele>
        <time>2024-03-07T13:25:16.010Z</time>
      </trkpt>
      <trkpt lat="43.41672" lon="3.46929">
        <ele>64.3</ele>
        <time>2024-03-07T13:25:19.004Z</time>
      </trkpt>
      <trkpt lat="43.41674" lon="3.46912">
        <ele>64.4</ele>
        <time>2024-03-07T13:25:22.013Z</time>
      </trkpt>
      <trkpt lat="43.41678" lon="3.46896">
        <ele>64.2</ele>
        <time>2024-03-07T13:25:25.011Z</time>
      </trkpt>
      <trkpt lat="43.41679" lon="3.46882">
        <ele>64.6</ele>
        <time>2024-03-07T13:25:28.000Z</time>
      </trkpt>
      <trkpt lat="43.41686" lon="3.46871">
        <ele>63.7</ele>
        <time>2024-03-07T13:25:30.994Z</time>
      </trkpt>
      <trkpt lat="43.41692" lon="3.46858">
        <ele>63.7</ele>
        <time>2024-03-07T13:25:33.994Z</time>
      </trkpt>
      <trkpt lat="43.41697" lon="3.46844">
        <ele>64.3</ele>
        <time>2024-03-07T13:25:38.002Z</time>
      </trkpt>
      <trkpt lat="43.41701" lon="3.46831">
        <ele>64.4</ele>
        <time>2024-03-07T13:25:41.000Z</time>
      </trkpt>
      <trkpt lat="43.41706" lon="3.46815">
        <ele>63.7</ele>
        <time>2024-03-07T13:25:44.004Z</time>
      </trkpt>
      <trkpt lat="43.41711" lon="3.46801">
        <ele>63.2</ele>
        <time>2024-03-07T13:25:47.009Z</time>
      </trkpt>
      <trkpt lat="43.41716" lon="3.46788">
        <ele>63.5</ele>
        <time>2024-03-07T13:25:50.009Z</time>
      </trkpt>
      <trkpt lat="43.41718" lon="3.46776">
        <ele>64.6</ele>
        <time>2024-03-07T13:25:52.009Z</time>
      </trkpt>
      <trkpt lat="43.41722" lon="3.46762">
        <ele>65.2</ele>
        <time>2024-03-07T13:25:53.999Z</time>
      </trkpt>
      <trkpt lat="43.41726" lon="3.46749">
        <ele>65.1</ele>
        <time>2024-03-07T13:25:56.008Z</time>
      </trkpt>
      <trkpt lat="43.41726" lon="3.46732">
        <ele>65.7</ele>
        <time>2024-03-07T13:25:59.004Z</time>
      </trkpt>
      <trkpt lat="43.41733" lon="3.46717">
        <ele>64.5</ele>
        <time>2024-03-07T13:26:02.001Z</time>
      </trkpt>
      <trkpt lat="43.41738" lon="3.46702">
        <ele>64.2</ele>
        <time>2024-03-07T13:26:03.983Z</time>
      </trkpt>
      <trkpt lat="43.4174" lon="3.46689">
        <ele>64.5</ele>
        <time>2024-03-07T13:26:05.986Z</time>
      </trkpt>
      <trkpt lat="43.41745" lon="3.46677">
        <ele>64.2</ele>
        <time>2024-03-07T13:26:08.015Z</time>
      </trkpt>
      <trkpt lat="43.41747" lon="3.4666">
        <ele>64.8</ele>
        <time>2024-03-07T13:26:11.000Z</time>
      </trkpt>
      <trkpt lat="43.41749" lon="3.46644">
        <ele>65</ele>
        <time>2024-03-07T13:26:14.003Z</time>
      </trkpt>
      <trkpt lat="43.4175" lon="3.46628">
        <ele>65</ele>
        <time>2024-03-07T13:26:17.024Z</time>
      </trkpt>
      <trkpt lat="43.41754" lon="3.46616">
        <ele>63.6</ele>
        <time>2024-03-07T13:26:22.006Z</time>
      </trkpt>
      <trkpt lat="43.41755" lon="3.466">
        <ele>63.5</ele>
        <time>2024-03-07T13:26:25.999Z</time>
      </trkpt>
      <trkpt lat="43.41757" lon="3.46583">
        <ele>63.2</ele>
        <time>2024-03-07T13:26:28.989Z</time>
      </trkpt>
      <trkpt lat="43.41758" lon="3.46568">
        <ele>63.1</ele>
        <time>2024-03-07T13:26:32.002Z</time>
      </trkpt>
      <trkpt lat="43.41763" lon="3.46556">
        <ele>61.8</ele>
        <time>2024-03-07T13:26:37.006Z</time>
      </trkpt>
      <trkpt lat="43.41766" lon="3.46544">
        <ele>61.1</ele>
        <time>2024-03-07T13:26:40.984Z</time>
      </trkpt>
      <trkpt lat="43.41768" lon="3.4653">
        <ele>61</ele>
        <time>2024-03-07T13:26:45.006Z</time>
      </trkpt>
      <trkpt lat="43.41766" lon="3.46516">
        <ele>61.2</ele>
        <time>2024-03-07T13:26:48.001Z</time>
      </trkpt>
      <trkpt lat="43.41767" lon="3.46503">
        <ele>60.6</ele>
        <time>2024-03-07T13:26:51.000Z</time>
      </trkpt>
      <trkpt lat="43.41764" lon="3.46479">
        <ele>58.7</ele>
        <time>2024-03-07T13:27:05.009Z</time>
      </trkpt>
      <trkpt lat="43.4176" lon="3.46466">
        <ele>58</ele>
        <time>2024-03-07T13:27:12.006Z</time>
      </trkpt>
      <trkpt lat="43.41759" lon="3.46453">
        <ele>56.9</ele>
        <time>2024-03-07T13:27:15.998Z</time>
      </trkpt>
      <trkpt lat="43.41748" lon="3.46448">
        <ele>57.7</ele>
        <time>2024-03-07T13:27:24.002Z</time>
      </trkpt>
      <trkpt lat="43.41738" lon="3.46441">
        <ele>58.8</ele>
        <time>2024-03-07T13:27:28.002Z</time>
      </trkpt>
      <trkpt lat="43.41741" lon="3.46427">
        <ele>58.7</ele>
        <time>2024-03-07T13:27:30.997Z</time>
      </trkpt>
      <trkpt lat="43.41745" lon="3.46417">
        <ele>58.1</ele>
        <time>2024-03-07T13:27:33.005Z</time>
      </trkpt>
      <trkpt lat="43.41751" lon="3.46405">
        <ele>58.1</ele>
        <time>2024-03-07T13:27:36.004Z</time>
      </trkpt>
      <trkpt lat="43.41753" lon="3.46392">
        <ele>59.2</ele>
        <time>2024-03-07T13:27:38.985Z</time>
      </trkpt>
      <trkpt lat="43.41759" lon="3.46379">
        <ele>59.9</ele>
        <time>2024-03-07T13:27:41.996Z</time>
      </trkpt>
      <trkpt lat="43.41764" lon="3.46366">
        <ele>60.4</ele>
        <time>2024-03-07T13:27:46.000Z</time>
      </trkpt>
      <trkpt lat="43.41769" lon="3.46355">
        <ele>60.3</ele>
        <time>2024-03-07T13:27:48.997Z</time>
      </trkpt>
      <trkpt lat="43.41774" lon="3.46341">
        <ele>60.2</ele>
        <time>2024-03-07T13:27:51.987Z</time>
      </trkpt>
      <trkpt lat="43.41779" lon="3.46327">
        <ele>59.9</ele>
        <time>2024-03-07T13:27:55.009Z</time>
      </trkpt>
      <trkpt lat="43.4178" lon="3.46315">
        <ele>60.1</ele>
        <time>2024-03-07T13:27:57.993Z</time>
      </trkpt>
      <trkpt lat="43.41778" lon="3.46303">
        <ele>61</ele>
        <time>2024-03-07T13:28:01.006Z</time>
      </trkpt>
      <trkpt lat="43.4178" lon="3.46289">
        <ele>61</ele>
        <time>2024-03-07T13:28:03.983Z</time>
      </trkpt>
      <trkpt lat="43.41781" lon="3.46276">
        <ele>61.1</ele>
        <time>2024-03-07T13:28:06.997Z</time>
      </trkpt>
      <trkpt lat="43.41782" lon="3.46262">
        <ele>60.5</ele>
        <time>2024-03-07T13:28:10.013Z</time>
      </trkpt>
      <trkpt lat="43.41783" lon="3.46249">
        <ele>59.8</ele>
        <time>2024-03-07T13:28:12.992Z</time>
      </trkpt>
      <trkpt lat="43.41782" lon="3.46236">
        <ele>58.7</ele>
        <time>2024-03-07T13:28:15.983Z</time>
      </trkpt>
      <trkpt lat="43.41779" lon="3.46221">
        <ele>57.6</ele>
        <time>2024-03-07T13:28:18.997Z</time>
      </trkpt>
      <trkpt lat="43.41774" lon="3.46206">
        <ele>56.2</ele>
        <time>2024-03-07T13:28:21.988Z</time>
      </trkpt>
      <trkpt lat="43.41767" lon="3.46194">
        <ele>55.5</ele>
        <time>2024-03-07T13:28:26.013Z</time>
      </trkpt>
      <trkpt lat="43.41763" lon="3.4618">
        <ele>54.6</ele>
        <time>2024-03-07T13:28:29.003Z</time>
      </trkpt>
      <trkpt lat="43.41771" lon="3.46171">
        <ele>52</ele>
        <time>2024-03-07T13:28:33.998Z</time>
      </trkpt>
      <trkpt lat="43.41776" lon="3.46157">
        <ele>50.8</ele>
        <time>2024-03-07T13:28:39.004Z</time>
      </trkpt>
      <trkpt lat="43.4178" lon="3.46148">
        <ele>50.2</ele>
      </trkpt>
      <trkpt lat="43.41784" lon="3.46138">
        <ele>49.6</ele>
      </trkpt>
      <trkpt lat="43.41788" lon="3.4613">
        <ele>49.1</ele>
      </trkpt>
      <trkpt lat="43.41791" lon="3.46123">
        <ele>48.5</ele>
        <time>2024-03-07T13:29:02.000Z</time>
      </trkpt>
      <trkpt lat="43.41787" lon="3.46107">
        <ele>50.2</ele>
        <time>2024-03-07T13:29:04.997Z</time>
      </trkpt>
      <trkpt lat="43.41781" lon="3.46092">
        <ele>52.6</ele>
        <time>2024-03-07T13:29:08.006Z</time>
      </trkpt>
      <trkpt lat="43.41783" lon="3.4608">
        <ele>52.4</ele>
        <time>2024-03-07T13:29:10.003Z</time>
      </trkpt>
      <trkpt lat="43.41785" lon="3.46063">
        <ele>52.4</ele>
        <time>2024-03-07T13:29:11.986Z</time>
      </trkpt>
      <trkpt lat="43.41787" lon="3.46045">
        <ele>52.1</ele>
        <time>2024-03-07T13:29:13.983Z</time>
      </trkpt>
      <trkpt lat="43.41787" lon="3.46026">
        <ele>52.4</ele>
        <time>2024-03-07T13:29:15.996Z</time>
      </trkpt>
      <trkpt lat="43.4179" lon="3.46008">
        <ele>51.8</ele>
        <time>2024-03-07T13:29:18.001Z</time>
      </trkpt>
      <trkpt lat="43.41791" lon="3.45993">
        <ele>51.9</ele>
        <time>2024-03-07T13:29:20.001Z</time>
      </trkpt>
      <trkpt lat="43.41792" lon="3.45978">
        <ele>52.2</ele>
        <time>2024-03-07T13:29:22.002Z</time>
      </trkpt>
      <trkpt lat="43.41793" lon="3.45965">
        <ele>52.2</ele>
        <time>2024-03-07T13:29:23.997Z</time>
      </trkpt>
      <trkpt lat="43.41794" lon="3.45953">
        <ele>51.9</ele>
        <time>2024-03-07T13:29:26.002Z</time>
      </trkpt>
      <trkpt lat="43.41796" lon="3.45939">
        <ele>51.2</ele>
        <time>2024-03-07T13:29:27.990Z</time>
      </trkpt>
      <trkpt lat="43.41798" lon="3.45925">
        <ele>50.2</ele>
        <time>2024-03-07T13:29:30.008Z</time>
      </trkpt>
      <trkpt lat="43.41797" lon="3.45911">
        <ele>49.4</ele>
        <time>2024-03-07T13:29:32.993Z</time>
      </trkpt>
      <trkpt lat="43.41792" lon="3.45898">
        <ele>48.7</ele>
        <time>2024-03-07T13:29:36.002Z</time>
      </trkpt>
      <trkpt lat="43.41791" lon="3.45884">
        <ele>47.1</ele>
        <time>2024-03-07T13:29:42.003Z</time>
      </trkpt>
      <trkpt lat="43.41793" lon="3.45871">
        <ele>45.3</ele>
        <time>2024-03-07T13:29:45.010Z</time>
      </trkpt>
      <trkpt lat="43.41795" lon="3.45856">
        <ele>43.9</ele>
        <time>2024-03-07T13:29:47.993Z</time>
      </trkpt>
      <trkpt lat="43.41799" lon="3.4584">
        <ele>43</ele>
        <time>2024-03-07T13:29:51.012Z</time>
      </trkpt>
      <trkpt lat="43.41796" lon="3.45823">
        <ele>43.6</ele>
        <time>2024-03-07T13:29:53.989Z</time>
      </trkpt>
      <trkpt lat="43.41795" lon="3.4581">
        <ele>43.8</ele>
        <time>2024-03-07T13:29:57.010Z</time>
      </trkpt>
      <trkpt lat="43.41796" lon="3.45795">
        <ele>43.1</ele>
        <time>2024-03-07T13:29:59.999Z</time>
      </trkpt>
      <trkpt lat="43.41797" lon="3.45779">
        <ele>42.1</ele>
        <time>2024-03-07T13:30:03.003Z</time>
      </trkpt>
      <trkpt lat="43.41795" lon="3.45763">
        <ele>42.1</ele>
        <time>2024-03-07T13:30:05.988Z</time>
      </trkpt>
      <trkpt lat="43.41795" lon="3.45746">
        <ele>41</ele>
        <time>2024-03-07T13:30:09.012Z</time>
      </trkpt>
      <trkpt lat="43.41795" lon="3.45732">
        <ele>39.4</ele>
        <time>2024-03-07T13:30:11.990Z</time>
      </trkpt>
      <trkpt lat="43.41793" lon="3.45718">
        <ele>38.1</ele>
        <time>2024-03-07T13:30:18.003Z</time>
      </trkpt>
      <trkpt lat="43.41783" lon="3.45712">
        <ele>39.2</ele>
        <time>2024-03-07T13:30:21.994Z</time>
      </trkpt>
      <trkpt lat="43.41778" lon="3.45705">
        <ele>38.9</ele>
      </trkpt>
      <trkpt lat="43.41773" lon="3.45699">
        <ele>38.9</ele>
      </trkpt>
      <trkpt lat="43.4177" lon="3.45694">
        <ele>39</ele>
      </trkpt>
      <trkpt lat="43.41766" lon="3.45689">
        <ele>39.2</ele>
        <time>2024-03-07T13:30:43.010Z</time>
      </trkpt>
      <trkpt lat="43.41759" lon="3.45676">
        <ele>38.6</ele>
        <time>2024-03-07T13:30:47.011Z</time>
      </trkpt>
      <trkpt lat="43.41749" lon="3.4567">
        <ele>38.9</ele>
        <time>2024-03-07T13:30:52.008Z</time>
      </trkpt>
      <trkpt lat="43.41739" lon="3.45665">
        <ele>40.1</ele>
        <time>2024-03-07T13:30:56.006Z</time>
      </trkpt>
      <trkpt lat="43.41732" lon="3.45657">
        <ele>39.9</ele>
        <time>2024-03-07T13:31:00.009Z</time>
      </trkpt>
      <trkpt lat="43.41723" lon="3.45649">
        <ele>39.5</ele>
        <time>2024-03-07T13:31:05.001Z</time>
      </trkpt>
      <trkpt lat="43.41715" lon="3.45642">
        <ele>38.8</ele>
        <time>2024-03-07T13:31:08.005Z</time>
      </trkpt>
      <trkpt lat="43.41706" lon="3.45635">
        <ele>38.8</ele>
        <time>2024-03-07T13:31:11.015Z</time>
      </trkpt>
      <trkpt lat="43.41696" lon="3.45633">
        <ele>39.8</ele>
        <time>2024-03-07T13:31:15.006Z</time>
      </trkpt>
      <trkpt lat="43.41686" lon="3.45629">
        <ele>39.1</ele>
        <time>2024-03-07T13:31:18.000Z</time>
      </trkpt>
      <trkpt lat="43.41676" lon="3.45628">
        <ele>38.9</ele>
        <time>2024-03-07T13:31:21.005Z</time>
      </trkpt>
      <trkpt lat="43.41666" lon="3.45629">
        <ele>38.9</ele>
        <time>2024-03-07T13:31:23.996Z</time>
      </trkpt>
      <trkpt lat="43.41655" lon="3.45633">
        <ele>38.8</ele>
        <time>2024-03-07T13:31:27.011Z</time>
      </trkpt>
      <trkpt lat="43.41644" lon="3.4564">
        <ele>38.6</ele>
        <time>2024-03-07T13:31:30.002Z</time>
      </trkpt>
      <trkpt lat="43.41633" lon="3.45646">
        <ele>39</ele>
        <time>2024-03-07T13:31:33.990Z</time>
      </trkpt>
      <trkpt lat="43.41621" lon="3.4565">
        <ele>38.8</ele>
        <time>2024-03-07T13:31:37.007Z</time>
      </trkpt>
      <trkpt lat="43.41608" lon="3.45656">
        <ele>38.8</ele>
        <time>2024-03-07T13:31:39.985Z</time>
      </trkpt>
      <trkpt lat="43.41597" lon="3.45663">
        <ele>38.8</ele>
        <time>2024-03-07T13:31:43.014Z</time>
      </trkpt>
      <trkpt lat="43.4159" lon="3.45675">
        <ele>38.6</ele>
        <time>2024-03-07T13:31:46.005Z</time>
      </trkpt>
      <trkpt lat="43.41582" lon="3.45684">
        <ele>38</ele>
        <time>2024-03-07T13:31:49.004Z</time>
      </trkpt>
      <trkpt lat="43.41578" lon="3.45698">
        <ele>38</ele>
        <time>2024-03-07T13:31:51.994Z</time>
      </trkpt>
      <trkpt lat="43.41577" lon="3.45715">
        <ele>38.9</ele>
        <time>2024-03-07T13:31:56.012Z</time>
      </trkpt>
      <trkpt lat="43.41575" lon="3.4573">
        <ele>39.6</ele>
        <time>2024-03-07T13:31:58.991Z</time>
      </trkpt>
      <trkpt lat="43.41574" lon="3.45744">
        <ele>40.3</ele>
        <time>2024-03-07T13:32:02.002Z</time>
      </trkpt>
      <trkpt lat="43.41572" lon="3.45758">
        <ele>40.5</ele>
        <time>2024-03-07T13:32:05.017Z</time>
      </trkpt>
      <trkpt lat="43.41568" lon="3.45771">
        <ele>40.1</ele>
        <time>2024-03-07T13:32:07.991Z</time>
      </trkpt>
      <trkpt lat="43.41563" lon="3.45783">
        <ele>39.5</ele>
        <time>2024-03-07T13:32:10.998Z</time>
      </trkpt>
      <trkpt lat="43.4156" lon="3.45797">
        <ele>39.4</ele>
        <time>2024-03-07T13:32:14.000Z</time>
      </trkpt>
      <trkpt lat="43.41556" lon="3.45811">
        <ele>39.1</ele>
        <time>2024-03-07T13:32:16.994Z</time>
      </trkpt>
      <trkpt lat="43.41556" lon="3.45828">
        <ele>39.1</ele>
        <time>2024-03-07T13:32:19.993Z</time>
      </trkpt>
      <trkpt lat="43.41554" lon="3.45843">
        <ele>39.7</ele>
        <time>2024-03-07T13:32:22.989Z</time>
      </trkpt>
      <trkpt lat="43.41551" lon="3.45858">
        <ele>40.6</ele>
        <time>2024-03-07T13:32:26.002Z</time>
      </trkpt>
      <trkpt lat="43.4155" lon="3.45872">
        <ele>41.1</ele>
        <time>2024-03-07T13:32:28.987Z</time>
      </trkpt>
      <trkpt lat="43.4155" lon="3.45886">
        <ele>41.5</ele>
        <time>2024-03-07T13:32:32.005Z</time>
      </trkpt>
      <trkpt lat="43.41548" lon="3.459">
        <ele>41.9</ele>
        <time>2024-03-07T13:32:34.996Z</time>
      </trkpt>
      <trkpt lat="43.41548" lon="3.45915">
        <ele>42.4</ele>
        <time>2024-03-07T13:32:38.016Z</time>
      </trkpt>
      <trkpt lat="43.41546" lon="3.45928">
        <ele>42.6</ele>
        <time>2024-03-07T13:32:41.005Z</time>
      </trkpt>
      <trkpt lat="43.41543" lon="3.45941">
        <ele>42.6</ele>
        <time>2024-03-07T13:32:43.987Z</time>
      </trkpt>
      <trkpt lat="43.41539" lon="3.45956">
        <ele>42.4</ele>
        <time>2024-03-07T13:32:47.010Z</time>
      </trkpt>
      <trkpt lat="43.41535" lon="3.45973">
        <ele>42.1</ele>
        <time>2024-03-07T13:32:50.001Z</time>
      </trkpt>
      <trkpt lat="43.41531" lon="3.45987">
        <ele>42</ele>
        <time>2024-03-07T13:32:53.013Z</time>
      </trkpt>
      <trkpt lat="43.41527" lon="3.45999">
        <ele>41.9</ele>
        <time>2024-03-07T13:32:56.005Z</time>
      </trkpt>
      <trkpt lat="43.41525" lon="3.46013">
        <ele>41.9</ele>
        <time>2024-03-07T13:32:59.005Z</time>
      </trkpt>
      <trkpt lat="43.4152" lon="3.46024">
        <ele>41.7</ele>
        <time>2024-03-07T13:33:02.012Z</time>
      </trkpt>
      <trkpt lat="43.41511" lon="3.4603">
        <ele>41.5</ele>
        <time>2024-03-07T13:33:04.995Z</time>
      </trkpt>
      <trkpt lat="43.415" lon="3.46031">
        <ele>41.1</ele>
        <time>2024-03-07T13:33:07.991Z</time>
      </trkpt>
      <trkpt lat="43.41492" lon="3.46038">
        <ele>41</ele>
        <time>2024-03-07T13:33:11.008Z</time>
      </trkpt>
      <trkpt lat="43.41487" lon="3.46052">
        <ele>41</ele>
        <time>2024-03-07T13:33:13.987Z</time>
      </trkpt>
      <trkpt lat="43.41483" lon="3.46064">
        <ele>41.1</ele>
        <time>2024-03-07T13:33:16.012Z</time>
      </trkpt>
      <trkpt lat="43.4148" lon="3.46077">
        <ele>41.3</ele>
        <time>2024-03-07T13:33:18.009Z</time>
      </trkpt>
      <trkpt lat="43.41476" lon="3.46089">
        <ele>41.3</ele>
        <time>2024-03-07T13:33:20.002Z</time>
      </trkpt>
      <trkpt lat="43.41472" lon="3.46106">
        <ele>41</ele>
        <time>2024-03-07T13:33:23.008Z</time>
      </trkpt>
      <trkpt lat="43.41468" lon="3.46122">
        <ele>41.2</ele>
        <time>2024-03-07T13:33:26.001Z</time>
      </trkpt>
      <trkpt lat="43.41465" lon="3.46134">
        <ele>41.6</ele>
        <time>2024-03-07T13:33:28.011Z</time>
      </trkpt>
      <trkpt lat="43.41461" lon="3.46147">
        <ele>41.9</ele>
        <time>2024-03-07T13:33:29.989Z</time>
      </trkpt>
      <trkpt lat="43.41458" lon="3.46159">
        <ele>42.2</ele>
        <time>2024-03-07T13:33:31.993Z</time>
      </trkpt>
      <trkpt lat="43.41453" lon="3.46175">
        <ele>42</ele>
        <time>2024-03-07T13:33:35.008Z</time>
      </trkpt>
      <trkpt lat="43.41448" lon="3.46186">
        <ele>41.5</ele>
        <time>2024-03-07T13:33:37.008Z</time>
      </trkpt>
      <trkpt lat="43.41443" lon="3.46195">
        <ele>41</ele>
        <time>2024-03-07T13:33:38.998Z</time>
      </trkpt>
      <trkpt lat="43.41436" lon="3.46204">
        <ele>41.2</ele>
        <time>2024-03-07T13:33:41.006Z</time>
      </trkpt>
      <trkpt lat="43.41424" lon="3.4621">
        <ele>41.1</ele>
        <time>2024-03-07T13:33:43.997Z</time>
      </trkpt>
      <trkpt lat="43.41414" lon="3.46208">
        <ele>41</ele>
        <time>2024-03-07T13:33:46.006Z</time>
      </trkpt>
      <trkpt lat="43.41404" lon="3.46204">
        <ele>41</ele>
        <time>2024-03-07T13:33:47.983Z</time>
      </trkpt>
      <trkpt lat="43.41395" lon="3.462">
        <ele>41</ele>
        <time>2024-03-07T13:33:50.006Z</time>
      </trkpt>
      <trkpt lat="43.41383" lon="3.46196">
        <ele>41</ele>
        <time>2024-03-07T13:33:53.009Z</time>
      </trkpt>
      <trkpt lat="43.41374" lon="3.46192">
        <ele>40.9</ele>
        <time>2024-03-07T13:33:55.016Z</time>
      </trkpt>
      <trkpt lat="43.41363" lon="3.46187">
        <ele>40.7</ele>
        <time>2024-03-07T13:33:58.003Z</time>
      </trkpt>
      <trkpt lat="43.4135" lon="3.46184">
        <ele>40.8</ele>
        <time>2024-03-07T13:34:01.006Z</time>
      </trkpt>
      <trkpt lat="43.41341" lon="3.46182">
        <ele>40.9</ele>
        <time>2024-03-07T13:34:03.008Z</time>
      </trkpt>
      <trkpt lat="43.41328" lon="3.4618">
        <ele>41.2</ele>
        <time>2024-03-07T13:34:05.999Z</time>
      </trkpt>
      <trkpt lat="43.41316" lon="3.46177">
        <ele>41.6</ele>
        <time>2024-03-07T13:34:08.992Z</time>
      </trkpt>
      <trkpt lat="43.41303" lon="3.46174">
        <ele>42.1</ele>
        <time>2024-03-07T13:34:12.012Z</time>
      </trkpt>
      <trkpt lat="43.41292" lon="3.46172">
        <ele>42.5</ele>
        <time>2024-03-07T13:34:14.995Z</time>
      </trkpt>
      <trkpt lat="43.41284" lon="3.46162">
        <ele>43</ele>
        <time>2024-03-07T13:34:17.985Z</time>
      </trkpt>
      <trkpt lat="43.41285" lon="3.46146">
        <ele>43.8</ele>
        <time>2024-03-07T13:34:20.989Z</time>
      </trkpt>
      <trkpt lat="43.4129" lon="3.46131">
        <ele>44</ele>
        <time>2024-03-07T13:34:25.004Z</time>
      </trkpt>
      <trkpt lat="43.41293" lon="3.46116">
        <ele>44.1</ele>
        <time>2024-03-07T13:34:28.001Z</time>
      </trkpt>
      <trkpt lat="43.41298" lon="3.461">
        <ele>43.7</ele>
        <time>2024-03-07T13:34:31.016Z</time>
      </trkpt>
      <trkpt lat="43.41302" lon="3.46086">
        <ele>43.4</ele>
        <time>2024-03-07T13:34:34.001Z</time>
      </trkpt>
      <trkpt lat="43.41306" lon="3.46068">
        <ele>44.1</ele>
        <time>2024-03-07T13:34:37.006Z</time>
      </trkpt>
      <trkpt lat="43.4131" lon="3.46055">
        <ele>44.5</ele>
        <time>2024-03-07T13:34:39.007Z</time>
      </trkpt>
      <trkpt lat="43.41313" lon="3.46043">
        <ele>44.6</ele>
        <time>2024-03-07T13:34:41.009Z</time>
      </trkpt>
      <trkpt lat="43.41315" lon="3.46028">
        <ele>45</ele>
        <time>2024-03-07T13:34:44.007Z</time>
      </trkpt>
      <trkpt lat="43.4132" lon="3.46014">
        <ele>44.4</ele>
        <time>2024-03-07T13:34:47.005Z</time>
      </trkpt>
      <trkpt lat="43.41325" lon="3.45996">
        <ele>44</ele>
        <time>2024-03-07T13:34:50.009Z</time>
      </trkpt>
      <trkpt lat="43.41329" lon="3.45984">
        <ele>44</ele>
        <time>2024-03-07T13:34:51.999Z</time>
      </trkpt>
      <trkpt lat="43.41332" lon="3.45972">
        <ele>44.1</ele>
        <time>2024-03-07T13:34:53.999Z</time>
      </trkpt>
      <trkpt lat="43.41332" lon="3.45957">
        <ele>44.1</ele>
        <time>2024-03-07T13:34:56.999Z</time>
      </trkpt>
      <trkpt lat="43.41329" lon="3.45941">
        <ele>44.1</ele>
        <time>2024-03-07T13:35:00.014Z</time>
      </trkpt>
      <trkpt lat="43.41326" lon="3.45923">
        <ele>43.7</ele>
        <time>2024-03-07T13:35:03.006Z</time>
      </trkpt>
      <trkpt lat="43.41325" lon="3.45911">
        <ele>43.5</ele>
        <time>2024-03-07T13:35:04.997Z</time>
      </trkpt>
      <trkpt lat="43.41325" lon="3.45896">
        <ele>43.4</ele>
        <time>2024-03-07T13:35:08.010Z</time>
      </trkpt>
      <trkpt lat="43.41325" lon="3.4588">
        <ele>43.2</ele>
        <time>2024-03-07T13:35:11.995Z</time>
      </trkpt>
      <trkpt lat="43.41325" lon="3.45867">
        <ele>43.1</ele>
        <time>2024-03-07T13:35:16.008Z</time>
      </trkpt>
      <trkpt lat="43.41326" lon="3.45851">
        <ele>43</ele>
        <time>2024-03-07T13:35:22.009Z</time>
      </trkpt>
      <trkpt lat="43.41325" lon="3.45837">
        <ele>43</ele>
        <time>2024-03-07T13:35:25.987Z</time>
      </trkpt>
      <trkpt lat="43.41317" lon="3.45828">
        <ele>43.4</ele>
        <time>2024-03-07T13:35:30.002Z</time>
      </trkpt>
      <trkpt lat="43.41305" lon="3.45831">
        <ele>43.2</ele>
        <time>2024-03-07T13:35:33.006Z</time>
      </trkpt>
      <trkpt lat="43.41294" lon="3.45834">
        <ele>43</ele>
        <time>2024-03-07T13:35:36.006Z</time>
      </trkpt>
      <trkpt lat="43.41282" lon="3.45837">
        <ele>43</ele>
        <time>2024-03-07T13:35:39.006Z</time>
      </trkpt>
      <trkpt lat="43.41272" lon="3.4584">
        <ele>43.3</ele>
        <time>2024-03-07T13:35:40.982Z</time>
      </trkpt>
      <trkpt lat="43.41262" lon="3.45844">
        <ele>43.7</ele>
        <time>2024-03-07T13:35:43.008Z</time>
      </trkpt>
      <trkpt lat="43.41254" lon="3.45847">
        <ele>43.9</ele>
        <time>2024-03-07T13:35:44.998Z</time>
      </trkpt>
      <trkpt lat="43.41241" lon="3.45852">
        <ele>43.3</ele>
        <time>2024-03-07T13:35:48.006Z</time>
      </trkpt>
      <trkpt lat="43.41232" lon="3.45856">
        <ele>42.7</ele>
        <time>2024-03-07T13:35:49.998Z</time>
      </trkpt>
      <trkpt lat="43.41223" lon="3.45859">
        <ele>42.2</ele>
        <time>2024-03-07T13:35:52.001Z</time>
      </trkpt>
      <trkpt lat="43.41214" lon="3.45863">
        <ele>42.3</ele>
        <time>2024-03-07T13:35:53.992Z</time>
      </trkpt>
      <trkpt lat="43.41204" lon="3.45866">
        <ele>42.4</ele>
        <time>2024-03-07T13:35:56.012Z</time>
      </trkpt>
      <trkpt lat="43.41195" lon="3.4587">
        <ele>42.4</ele>
        <time>2024-03-07T13:35:58.008Z</time>
      </trkpt>
      <trkpt lat="43.41185" lon="3.45874">
        <ele>41.7</ele>
        <time>2024-03-07T13:35:59.993Z</time>
      </trkpt>
      <trkpt lat="43.41175" lon="3.45876">
        <ele>41.2</ele>
        <time>2024-03-07T13:36:01.986Z</time>
      </trkpt>
      <trkpt lat="43.41164" lon="3.45879">
        <ele>40.5</ele>
        <time>2024-03-07T13:36:03.995Z</time>
      </trkpt>
      <trkpt lat="43.41153" lon="3.45881">
        <ele>39.6</ele>
        <time>2024-03-07T13:36:06.016Z</time>
      </trkpt>
      <trkpt lat="43.41142" lon="3.45884">
        <ele>38.6</ele>
        <time>2024-03-07T13:36:07.991Z</time>
      </trkpt>
      <trkpt lat="43.4113" lon="3.45886">
        <ele>37.9</ele>
        <time>2024-03-07T13:36:10.006Z</time>
      </trkpt>
      <trkpt lat="43.41118" lon="3.45888">
        <ele>37.3</ele>
        <time>2024-03-07T13:36:12.006Z</time>
      </trkpt>
      <trkpt lat="43.41107" lon="3.45889">
        <ele>36.6</ele>
        <time>2024-03-07T13:36:14.997Z</time>
      </trkpt>
      <trkpt lat="43.41096" lon="3.45891">
        <ele>35.4</ele>
        <time>2024-03-07T13:36:18.023Z</time>
      </trkpt>
      <trkpt lat="43.41092" lon="3.45904">
        <ele>35.3</ele>
        <time>2024-03-07T13:36:20.998Z</time>
      </trkpt>
      <trkpt lat="43.41091" lon="3.4592">
        <ele>35.4</ele>
        <time>2024-03-07T13:36:24.003Z</time>
      </trkpt>
      <trkpt lat="43.41089" lon="3.45938">
        <ele>34.6</ele>
        <time>2024-03-07T13:36:26.985Z</time>
      </trkpt>
      <trkpt lat="43.41088" lon="3.45952">
        <ele>34.3</ele>
        <time>2024-03-07T13:36:28.999Z</time>
      </trkpt>
      <trkpt lat="43.41087" lon="3.45965">
        <ele>34.2</ele>
        <time>2024-03-07T13:36:31.000Z</time>
      </trkpt>
      <trkpt lat="43.41086" lon="3.45979">
        <ele>34.1</ele>
        <time>2024-03-07T13:36:33.005Z</time>
      </trkpt>
      <trkpt lat="43.41086" lon="3.45994">
        <ele>34</ele>
        <time>2024-03-07T13:36:35.010Z</time>
      </trkpt>
      <trkpt lat="43.41084" lon="3.46008">
        <ele>33.7</ele>
        <time>2024-03-07T13:36:36.989Z</time>
      </trkpt>
      <trkpt lat="43.41083" lon="3.46021">
        <ele>33.2</ele>
        <time>2024-03-07T13:36:39.007Z</time>
      </trkpt>
      <trkpt lat="43.41081" lon="3.46035">
        <ele>32.7</ele>
        <time>2024-03-07T13:36:41.006Z</time>
      </trkpt>
      <trkpt lat="43.41079" lon="3.46049">
        <ele>32.1</ele>
        <time>2024-03-07T13:36:43.009Z</time>
      </trkpt>
      <trkpt lat="43.41078" lon="3.46063">
        <ele>31.8</ele>
        <time>2024-03-07T13:36:44.993Z</time>
      </trkpt>
      <trkpt lat="43.41076" lon="3.46077">
        <ele>31.5</ele>
        <time>2024-03-07T13:36:47.001Z</time>
      </trkpt>
      <trkpt lat="43.41074" lon="3.46092">
        <ele>31.2</ele>
        <time>2024-03-07T13:36:49.011Z</time>
      </trkpt>
      <trkpt lat="43.41072" lon="3.46106">
        <ele>30.9</ele>
        <time>2024-03-07T13:36:51.013Z</time>
      </trkpt>
      <trkpt lat="43.4107" lon="3.4612">
        <ele>30.7</ele>
        <time>2024-03-07T13:36:53.008Z</time>
      </trkpt>
      <trkpt lat="43.41068" lon="3.46134">
        <ele>30.7</ele>
        <time>2024-03-07T13:36:55.007Z</time>
      </trkpt>
      <trkpt lat="43.41066" lon="3.46148">
        <ele>30.5</ele>
        <time>2024-03-07T13:36:57.016Z</time>
      </trkpt>
      <trkpt lat="43.41064" lon="3.46162">
        <ele>30.2</ele>
        <time>2024-03-07T13:36:59.031Z</time>
      </trkpt>
      <trkpt lat="43.41062" lon="3.46176">
        <ele>30.2</ele>
        <time>2024-03-07T13:37:00.997Z</time>
      </trkpt>
      <trkpt lat="43.41059" lon="3.46189">
        <ele>30.2</ele>
        <time>2024-03-07T13:37:02.990Z</time>
      </trkpt>
      <trkpt lat="43.41058" lon="3.46203">
        <ele>30.6</ele>
        <time>2024-03-07T13:37:05.013Z</time>
      </trkpt>
      <trkpt lat="43.41056" lon="3.46217">
        <ele>30.9</ele>
        <time>2024-03-07T13:37:07.013Z</time>
      </trkpt>
      <trkpt lat="43.41054" lon="3.46231">
        <ele>30.9</ele>
        <time>2024-03-07T13:37:09.002Z</time>
      </trkpt>
      <trkpt lat="43.41052" lon="3.46245">
        <ele>30.7</ele>
        <time>2024-03-07T13:37:11.006Z</time>
      </trkpt>
      <trkpt lat="43.4105" lon="3.4626">
        <ele>31</ele>
        <time>2024-03-07T13:37:12.999Z</time>
      </trkpt>
      <trkpt lat="43.41049" lon="3.46274">
        <ele>31.4</ele>
        <time>2024-03-07T13:37:14.997Z</time>
      </trkpt>
      <trkpt lat="43.41047" lon="3.46287">
        <ele>31.6</ele>
        <time>2024-03-07T13:37:17.003Z</time>
      </trkpt>
      <trkpt lat="43.41045" lon="3.46301">
        <ele>31.8</ele>
        <time>2024-03-07T13:37:19.006Z</time>
      </trkpt>
      <trkpt lat="43.41043" lon="3.46314">
        <ele>31.9</ele>
        <time>2024-03-07T13:37:21.004Z</time>
      </trkpt>
      <trkpt lat="43.41043" lon="3.46332">
        <ele>32.5</ele>
        <time>2024-03-07T13:37:23.992Z</time>
      </trkpt>
      <trkpt lat="43.41045" lon="3.46349">
        <ele>32.6</ele>
        <time>2024-03-07T13:37:27.007Z</time>
      </trkpt>
      <trkpt lat="43.41043" lon="3.46362">
        <ele>32.6</ele>
        <time>2024-03-07T13:37:29.007Z</time>
      </trkpt>
      <trkpt lat="43.4104" lon="3.4638">
        <ele>32.7</ele>
        <time>2024-03-07T13:37:31.998Z</time>
      </trkpt>
      <trkpt lat="43.41039" lon="3.46392">
        <ele>32.7</ele>
        <time>2024-03-07T13:37:33.996Z</time>
      </trkpt>
      <trkpt lat="43.41037" lon="3.46405">
        <ele>32.1</ele>
        <time>2024-03-07T13:37:36.015Z</time>
      </trkpt>
      <trkpt lat="43.41034" lon="3.46417">
        <ele>31.4</ele>
        <time>2024-03-07T13:37:37.985Z</time>
      </trkpt>
      <trkpt lat="43.41031" lon="3.46435">
        <ele>30.6</ele>
        <time>2024-03-07T13:37:41.004Z</time>
      </trkpt>
      <trkpt lat="43.41029" lon="3.46453">
        <ele>30.1</ele>
        <time>2024-03-07T13:37:44.009Z</time>
      </trkpt>
      <trkpt lat="43.41026" lon="3.46465">
        <ele>29.9</ele>
        <time>2024-03-07T13:37:46.008Z</time>
      </trkpt>
      <trkpt lat="43.41024" lon="3.46484">
        <ele>29.8</ele>
        <time>2024-03-07T13:37:49.011Z</time>
      </trkpt>
      <trkpt lat="43.41023" lon="3.46498">
        <ele>29.7</ele>
        <time>2024-03-07T13:37:51.001Z</time>
      </trkpt>
      <trkpt lat="43.41021" lon="3.46512">
        <ele>29.4</ele>
        <time>2024-03-07T13:37:53.008Z</time>
      </trkpt>
      <trkpt lat="43.41019" lon="3.46525">
        <ele>29.1</ele>
        <time>2024-03-07T13:37:55.014Z</time>
      </trkpt>
      <trkpt lat="43.41016" lon="3.46537">
        <ele>29.1</ele>
        <time>2024-03-07T13:37:57.000Z</time>
      </trkpt>
      <trkpt lat="43.41013" lon="3.46551">
        <ele>29.2</ele>
        <time>2024-03-07T13:37:59.010Z</time>
      </trkpt>
      <trkpt lat="43.41009" lon="3.46564">
        <ele>29.2</ele>
        <time>2024-03-07T13:38:01.010Z</time>
      </trkpt>
      <trkpt lat="43.41006" lon="3.46576">
        <ele>29.2</ele>
        <time>2024-03-07T13:38:03.007Z</time>
      </trkpt>
      <trkpt lat="43.41002" lon="3.46593">
        <ele>29.2</ele>
        <time>2024-03-07T13:38:06.004Z</time>
      </trkpt>
      <trkpt lat="43.40999" lon="3.46606">
        <ele>29</ele>
        <time>2024-03-07T13:38:08.007Z</time>
      </trkpt>
      <trkpt lat="43.40995" lon="3.46619">
        <ele>29</ele>
        <time>2024-03-07T13:38:10.002Z</time>
      </trkpt>
      <trkpt lat="43.40992" lon="3.46633">
        <ele>29</ele>
        <time>2024-03-07T13:38:12.004Z</time>
      </trkpt>
      <trkpt lat="43.40989" lon="3.46647">
        <ele>28.8</ele>
        <time>2024-03-07T13:38:14.007Z</time>
      </trkpt>
      <trkpt lat="43.40987" lon="3.46661">
        <ele>28.6</ele>
        <time>2024-03-07T13:38:16.007Z</time>
      </trkpt>
      <trkpt lat="43.40985" lon="3.46675">
        <ele>28.4</ele>
        <time>2024-03-07T13:38:18.002Z</time>
      </trkpt>
      <trkpt lat="43.40983" lon="3.46688">
        <ele>28.2</ele>
        <time>2024-03-07T13:38:20.002Z</time>
      </trkpt>
      <trkpt lat="43.40981" lon="3.46704">
        <ele>27.9</ele>
        <time>2024-03-07T13:38:23.003Z</time>
      </trkpt>
      <trkpt lat="43.40975" lon="3.4672">
        <ele>27.3</ele>
        <time>2024-03-07T13:38:26.008Z</time>
      </trkpt>
      <trkpt lat="43.40972" lon="3.46733">
        <ele>27.4</ele>
        <time>2024-03-07T13:38:27.991Z</time>
      </trkpt>
      <trkpt lat="43.4097" lon="3.46746">
        <ele>27.7</ele>
        <time>2024-03-07T13:38:30.000Z</time>
      </trkpt>
      <trkpt lat="43.40965" lon="3.4676">
        <ele>27.5</ele>
        <time>2024-03-07T13:38:33.008Z</time>
      </trkpt>
      <trkpt lat="43.40956" lon="3.46764">
        <ele>26.8</ele>
        <time>2024-03-07T13:38:42.996Z</time>
      </trkpt>
      <trkpt lat="43.40943" lon="3.46759">
        <ele>26</ele>
        <time>2024-03-07T13:38:46.009Z</time>
      </trkpt>
      <trkpt lat="43.40934" lon="3.46755">
        <ele>26</ele>
        <time>2024-03-07T13:38:48.012Z</time>
      </trkpt>
      <trkpt lat="43.40925" lon="3.46751">
        <ele>26</ele>
        <time>2024-03-07T13:38:50.013Z</time>
      </trkpt>
      <trkpt lat="43.40913" lon="3.46746">
        <ele>26.3</ele>
        <time>2024-03-07T13:38:53.015Z</time>
      </trkpt>
      <trkpt lat="43.40903" lon="3.46749">
        <ele>27.9</ele>
        <time>2024-03-07T13:38:56.989Z</time>
      </trkpt>
      <trkpt lat="43.40904" lon="3.46764">
        <ele>27.8</ele>
        <time>2024-03-07T13:38:59.975Z</time>
      </trkpt>
      <trkpt lat="43.40907" lon="3.46782">
        <ele>27.4</ele>
        <time>2024-03-07T13:39:02.991Z</time>
      </trkpt>
      <trkpt lat="43.40909" lon="3.468">
        <ele>27.1</ele>
        <time>2024-03-07T13:39:06.009Z</time>
      </trkpt>
      <trkpt lat="43.4091" lon="3.46813">
        <ele>27.1</ele>
        <time>2024-03-07T13:39:08.005Z</time>
      </trkpt>
      <trkpt lat="43.40912" lon="3.46829">
        <ele>27.2</ele>
        <time>2024-03-07T13:39:11.000Z</time>
      </trkpt>
      <trkpt lat="43.40914" lon="3.46842">
        <ele>27.5</ele>
        <time>2024-03-07T13:39:13.002Z</time>
      </trkpt>
      <trkpt lat="43.40916" lon="3.46856">
        <ele>27.9</ele>
        <time>2024-03-07T13:39:15.001Z</time>
      </trkpt>
      <trkpt lat="43.40917" lon="3.46868">
        <ele>28.2</ele>
        <time>2024-03-07T13:39:16.998Z</time>
      </trkpt>
      <trkpt lat="43.40919" lon="3.46881">
        <ele>28.6</ele>
        <time>2024-03-07T13:39:19.001Z</time>
      </trkpt>
      <trkpt lat="43.40921" lon="3.46893">
        <ele>29</ele>
        <time>2024-03-07T13:39:21.012Z</time>
      </trkpt>
      <trkpt lat="43.40922" lon="3.46905">
        <ele>29.3</ele>
        <time>2024-03-07T13:39:23.009Z</time>
      </trkpt>
      <trkpt lat="43.40925" lon="3.46923">
        <ele>29.5</ele>
        <time>2024-03-07T13:39:26.013Z</time>
      </trkpt>
      <trkpt lat="43.40926" lon="3.4694">
        <ele>29.6</ele>
        <time>2024-03-07T13:39:28.999Z</time>
      </trkpt>
      <trkpt lat="43.40928" lon="3.46955">
        <ele>29.7</ele>
        <time>2024-03-07T13:39:32.011Z</time>
      </trkpt>
      <trkpt lat="43.40929" lon="3.46968">
        <ele>29.9</ele>
        <time>2024-03-07T13:39:34.995Z</time>
      </trkpt>
      <trkpt lat="43.40931" lon="3.46983">
        <ele>30.4</ele>
        <time>2024-03-07T13:39:39.002Z</time>
      </trkpt>
      <trkpt lat="43.40932" lon="3.46997">
        <ele>30.9</ele>
        <time>2024-03-07T13:39:44.000Z</time>
      </trkpt>
      <trkpt lat="43.40932" lon="3.47011">
        <ele>31.2</ele>
        <time>2024-03-07T13:39:47.016Z</time>
      </trkpt>
      <trkpt lat="43.40933" lon="3.47025">
        <ele>31.5</ele>
        <time>2024-03-07T13:39:50.003Z</time>
      </trkpt>
      <trkpt lat="43.40933" lon="3.47041">
        <ele>32.1</ele>
        <time>2024-03-07T13:39:53.006Z</time>
      </trkpt>
      <trkpt lat="43.40933" lon="3.47055">
        <ele>32.6</ele>
        <time>2024-03-07T13:39:56.005Z</time>
      </trkpt>
      <trkpt lat="43.40933" lon="3.47069">
        <ele>32.9</ele>
        <time>2024-03-07T13:39:59.014Z</time>
      </trkpt>
      <trkpt lat="43.40933" lon="3.47084">
        <ele>33.2</ele>
        <time>2024-03-07T13:40:01.998Z</time>
      </trkpt>
      <trkpt lat="43.40933" lon="3.47098">
        <ele>33.4</ele>
        <time>2024-03-07T13:40:04.998Z</time>
      </trkpt>
      <trkpt lat="43.40933" lon="3.47111">
        <ele>33.6</ele>
        <time>2024-03-07T13:40:08.013Z</time>
      </trkpt>
      <trkpt lat="43.40933" lon="3.47125">
        <ele>33.6</ele>
        <time>2024-03-07T13:40:11.001Z</time>
      </trkpt>
      <trkpt lat="43.40934" lon="3.47137">
        <ele>33.6</ele>
        <time>2024-03-07T13:40:13.996Z</time>
      </trkpt>
      <trkpt lat="43.40934" lon="3.47152">
        <ele>34</ele>
        <time>2024-03-07T13:40:16.982Z</time>
      </trkpt>
      <trkpt lat="43.40935" lon="3.47167">
        <ele>34.4</ele>
        <time>2024-03-07T13:40:19.987Z</time>
      </trkpt>
      <trkpt lat="43.40937" lon="3.47181">
        <ele>34.8</ele>
        <time>2024-03-07T13:40:22.990Z</time>
      </trkpt>
      <trkpt lat="43.40938" lon="3.47195">
        <ele>35.2</ele>
        <time>2024-03-07T13:40:25.991Z</time>
      </trkpt>
      <trkpt lat="43.4094" lon="3.47211">
        <ele>35.3</ele>
        <time>2024-03-07T13:40:29.001Z</time>
      </trkpt>
      <trkpt lat="43.40941" lon="3.47226">
        <ele>35.4</ele>
        <time>2024-03-07T13:40:31.995Z</time>
      </trkpt>
      <trkpt lat="43.40942" lon="3.47241">
        <ele>35.8</ele>
        <time>2024-03-07T13:40:34.991Z</time>
      </trkpt>
      <trkpt lat="43.40942" lon="3.47255">
        <ele>36.3</ele>
        <time>2024-03-07T13:40:38.001Z</time>
      </trkpt>
      <trkpt lat="43.40943" lon="3.47268">
        <ele>36.7</ele>
        <time>2024-03-07T13:40:40.994Z</time>
      </trkpt>
      <trkpt lat="43.40944" lon="3.47282">
        <ele>37.2</ele>
        <time>2024-03-07T13:40:44.005Z</time>
      </trkpt>
      <trkpt lat="43.40944" lon="3.47296">
        <ele>37.7</ele>
        <time>2024-03-07T13:40:47.009Z</time>
      </trkpt>
      <trkpt lat="43.40943" lon="3.4731">
        <ele>38.2</ele>
        <time>2024-03-07T13:40:49.996Z</time>
      </trkpt>
      <trkpt lat="43.40942" lon="3.47324">
        <ele>38.7</ele>
        <time>2024-03-07T13:40:53.003Z</time>
      </trkpt>
      <trkpt lat="43.40941" lon="3.47337">
        <ele>39.2</ele>
        <time>2024-03-07T13:40:55.996Z</time>
      </trkpt>
      <trkpt lat="43.40939" lon="3.4735">
        <ele>40</ele>
        <time>2024-03-07T13:40:59.009Z</time>
      </trkpt>
      <trkpt lat="43.40937" lon="3.47366">
        <ele>40.7</ele>
        <time>2024-03-07T13:41:02.001Z</time>
      </trkpt>
      <trkpt lat="43.40937" lon="3.47382">
        <ele>41.4</ele>
        <time>2024-03-07T13:41:04.993Z</time>
      </trkpt>
      <trkpt lat="43.40938" lon="3.47397">
        <ele>42.1</ele>
        <time>2024-03-07T13:41:08.013Z</time>
      </trkpt>
      <trkpt lat="43.40939" lon="3.47413">
        <ele>42.7</ele>
        <time>2024-03-07T13:41:12.010Z</time>
      </trkpt>
      <trkpt lat="43.4094" lon="3.47429">
        <ele>42.8</ele>
        <time>2024-03-07T13:41:16.005Z</time>
      </trkpt>
      <trkpt lat="43.4094" lon="3.47442">
        <ele>42.8</ele>
        <time>2024-03-07T13:41:20.016Z</time>
      </trkpt>
      <trkpt lat="43.4094" lon="3.47454">
        <ele>43.2</ele>
        <time>2024-03-07T13:41:23.016Z</time>
      </trkpt>
      <trkpt lat="43.40941" lon="3.47471">
        <ele>43.8</ele>
        <time>2024-03-07T13:41:27.009Z</time>
      </trkpt>
      <trkpt lat="43.40941" lon="3.47485">
        <ele>44.3</ele>
        <time>2024-03-07T13:41:30.012Z</time>
      </trkpt>
      <trkpt lat="43.40941" lon="3.47498">
        <ele>44.8</ele>
        <time>2024-03-07T13:41:33.007Z</time>
      </trkpt>
      <trkpt lat="43.40941" lon="3.47511">
        <ele>45.3</ele>
        <time>2024-03-07T13:41:36.007Z</time>
      </trkpt>
      <trkpt lat="43.40942" lon="3.47525">
        <ele>45.8</ele>
        <time>2024-03-07T13:41:39.013Z</time>
      </trkpt>
      <trkpt lat="43.40942" lon="3.47539">
        <ele>46.4</ele>
        <time>2024-03-07T13:41:41.996Z</time>
      </trkpt>
      <trkpt lat="43.40942" lon="3.47553">
        <ele>46.9</ele>
        <time>2024-03-07T13:41:45.011Z</time>
      </trkpt>
      <trkpt lat="43.40942" lon="3.47569">
        <ele>47.4</ele>
        <time>2024-03-07T13:41:47.989Z</time>
      </trkpt>
      <trkpt lat="43.40943" lon="3.47583">
        <ele>47.9</ele>
        <time>2024-03-07T13:41:51.005Z</time>
      </trkpt>
      <trkpt lat="43.40946" lon="3.47596">
        <ele>48.5</ele>
        <time>2024-03-07T13:41:55.000Z</time>
      </trkpt>
      <trkpt lat="43.40955" lon="3.47602">
        <ele>49.1</ele>
        <time>2024-03-07T13:41:58.011Z</time>
      </trkpt>
      <trkpt lat="43.40965" lon="3.476">
        <ele>49.3</ele>
        <time>2024-03-07T13:42:01.006Z</time>
      </trkpt>
      <trkpt lat="43.40976" lon="3.47598">
        <ele>49.7</ele>
        <time>2024-03-07T13:42:03.996Z</time>
      </trkpt>
      <trkpt lat="43.40986" lon="3.47597">
        <ele>50</ele>
        <time>2024-03-07T13:42:07.007Z</time>
      </trkpt>
      <trkpt lat="43.40996" lon="3.47597">
        <ele>50.3</ele>
        <time>2024-03-07T13:42:10.003Z</time>
      </trkpt>
      <trkpt lat="43.41005" lon="3.47597">
        <ele>50.7</ele>
        <time>2024-03-07T13:42:13.016Z</time>
      </trkpt>
      <trkpt lat="43.41015" lon="3.47597">
        <ele>51</ele>
        <time>2024-03-07T13:42:16.011Z</time>
      </trkpt>
      <trkpt lat="43.41024" lon="3.47597">
        <ele>51.4</ele>
        <time>2024-03-07T13:42:19.011Z</time>
      </trkpt>
      <trkpt lat="43.41034" lon="3.47596">
        <ele>51.6</ele>
        <time>2024-03-07T13:42:22.011Z</time>
      </trkpt>
      <trkpt lat="43.41044" lon="3.47595">
        <ele>51.7</ele>
        <time>2024-03-07T13:42:25.011Z</time>
      </trkpt>
      <trkpt lat="43.41054" lon="3.47591">
        <ele>51.5</ele>
        <time>2024-03-07T13:42:28.010Z</time>
      </trkpt>
      <trkpt lat="43.41064" lon="3.47587">
        <ele>51.8</ele>
        <time>2024-03-07T13:42:31.012Z</time>
      </trkpt>
      <trkpt lat="43.41075" lon="3.47581">
        <ele>52.3</ele>
        <time>2024-03-07T13:42:34.005Z</time>
      </trkpt>
      <trkpt lat="43.41086" lon="3.47578">
        <ele>52.7</ele>
        <time>2024-03-07T13:42:36.998Z</time>
      </trkpt>
      <trkpt lat="43.41097" lon="3.47574">
        <ele>53</ele>
        <time>2024-03-07T13:42:40.016Z</time>
      </trkpt>
      <trkpt lat="43.41109" lon="3.4757">
        <ele>53.4</ele>
        <time>2024-03-07T13:42:43.015Z</time>
      </trkpt>
      <trkpt lat="43.4112" lon="3.47566">
        <ele>53.7</ele>
        <time>2024-03-07T13:42:46.015Z</time>
      </trkpt>
      <trkpt lat="43.41131" lon="3.47561">
        <ele>53.9</ele>
        <time>2024-03-07T13:42:49.001Z</time>
      </trkpt>
      <trkpt lat="43.41141" lon="3.47556">
        <ele>54.2</ele>
        <time>2024-03-07T13:42:52.012Z</time>
      </trkpt>
      <trkpt lat="43.41152" lon="3.4755">
        <ele>54.6</ele>
        <time>2024-03-07T13:42:55.005Z</time>
      </trkpt>
      <trkpt lat="43.41162" lon="3.47544">
        <ele>54.9</ele>
        <time>2024-03-07T13:42:58.008Z</time>
      </trkpt>
      <trkpt lat="43.41174" lon="3.4754">
        <ele>55.1</ele>
        <time>2024-03-07T13:43:01.003Z</time>
      </trkpt>
      <trkpt lat="43.41186" lon="3.47535">
        <ele>55.2</ele>
        <time>2024-03-07T13:43:03.999Z</time>
      </trkpt>
      <trkpt lat="43.41198" lon="3.47531">
        <ele>55.5</ele>
        <time>2024-03-07T13:43:07.015Z</time>
      </trkpt>
      <trkpt lat="43.41209" lon="3.47527">
        <ele>56</ele>
        <time>2024-03-07T13:43:09.998Z</time>
      </trkpt>
      <trkpt lat="43.4122" lon="3.47523">
        <ele>56.5</ele>
        <time>2024-03-07T13:43:13.005Z</time>
      </trkpt>
      <trkpt lat="43.41229" lon="3.47521">
        <ele>56.8</ele>
        <time>2024-03-07T13:43:16.008Z</time>
      </trkpt>
      <trkpt lat="43.4124" lon="3.47518">
        <ele>56.9</ele>
        <time>2024-03-07T13:43:19.011Z</time>
      </trkpt>
      <trkpt lat="43.41252" lon="3.47515">
        <ele>57.2</ele>
        <time>2024-03-07T13:43:22.009Z</time>
      </trkpt>
      <trkpt lat="43.41264" lon="3.47512">
        <ele>57.4</ele>
        <time>2024-03-07T13:43:24.999Z</time>
      </trkpt>
      <trkpt lat="43.41277" lon="3.47509">
        <ele>57.6</ele>
        <time>2024-03-07T13:43:28.004Z</time>
      </trkpt>
      <trkpt lat="43.41289" lon="3.47505">
        <ele>58</ele>
        <time>2024-03-07T13:43:31.013Z</time>
      </trkpt>
      <trkpt lat="43.41301" lon="3.47502">
        <ele>58.7</ele>
        <time>2024-03-07T13:43:33.999Z</time>
      </trkpt>
      <trkpt lat="43.41313" lon="3.47498">
        <ele>59.2</ele>
        <time>2024-03-07T13:43:37.006Z</time>
      </trkpt>
      <trkpt lat="43.41325" lon="3.47494">
        <ele>59.5</ele>
        <time>2024-03-07T13:43:40.012Z</time>
      </trkpt>
      <trkpt lat="43.41337" lon="3.4749">
        <ele>59.9</ele>
        <time>2024-03-07T13:43:42.996Z</time>
      </trkpt>
      <trkpt lat="43.41349" lon="3.47485">
        <ele>60.3</ele>
        <time>2024-03-07T13:43:46.016Z</time>
      </trkpt>
      <trkpt lat="43.4136" lon="3.47481">
        <ele>60.6</ele>
        <time>2024-03-07T13:43:48.981Z</time>
      </trkpt>
      <trkpt lat="43.41372" lon="3.47477">
        <ele>61.1</ele>
        <time>2024-03-07T13:43:51.995Z</time>
      </trkpt>
      <trkpt lat="43.41384" lon="3.47471">
        <ele>61.6</ele>
        <time>2024-03-07T13:43:55.006Z</time>
      </trkpt>
      <trkpt lat="43.41395" lon="3.47465">
        <ele>62.1</ele>
        <time>2024-03-07T13:43:58.012Z</time>
      </trkpt>
      <trkpt lat="43.41407" lon="3.47458">
        <ele>62.5</ele>
        <time>2024-03-07T13:44:00.995Z</time>
      </trkpt>
      <trkpt lat="43.41418" lon="3.47451">
        <ele>62.6</ele>
        <time>2024-03-07T13:44:04.011Z</time>
      </trkpt>
      <trkpt lat="43.4143" lon="3.47443">
        <ele>63</ele>
        <time>2024-03-07T13:44:07.005Z</time>
      </trkpt>
      <trkpt lat="43.41441" lon="3.47434">
        <ele>63.8</ele>
        <time>2024-03-07T13:44:10.011Z</time>
      </trkpt>
      <trkpt lat="43.41452" lon="3.47424">
        <ele>64.3</ele>
        <time>2024-03-07T13:44:13.009Z</time>
      </trkpt>
      <trkpt lat="43.41463" lon="3.47415">
        <ele>64.7</ele>
        <time>2024-03-07T13:44:16.010Z</time>
      </trkpt>
      <trkpt lat="43.41472" lon="3.47405">
        <ele>65</ele>
        <time>2024-03-07T13:44:18.988Z</time>
      </trkpt>
      <trkpt lat="43.4148" lon="3.47399">
        <ele>65.3</ele>
        <time>2024-03-07T13:44:22.005Z</time>
      </trkpt>
      <trkpt lat="43.41489" lon="3.47392">
        <ele>65.6</ele>
        <time>2024-03-07T13:44:24.999Z</time>
      </trkpt>
      <trkpt lat="43.41499" lon="3.47385">
        <ele>66.1</ele>
        <time>2024-03-07T13:44:28.004Z</time>
      </trkpt>
      <trkpt lat="43.4151" lon="3.47379">
        <ele>66.7</ele>
        <time>2024-03-07T13:44:31.002Z</time>
      </trkpt>
      <trkpt lat="43.41521" lon="3.47375">
        <ele>67.3</ele>
        <time>2024-03-07T13:44:33.996Z</time>
      </trkpt>
      <trkpt lat="43.41532" lon="3.47371">
        <ele>67.7</ele>
        <time>2024-03-07T13:44:37.009Z</time>
      </trkpt>
      <trkpt lat="43.41541" lon="3.47368">
        <ele>67.9</ele>
        <time>2024-03-07T13:44:40.006Z</time>
      </trkpt>
      <trkpt lat="43.41552" lon="3.47366">
        <ele>68</ele>
        <time>2024-03-07T13:44:43.003Z</time>
      </trkpt>
      <trkpt lat="43.41564" lon="3.47366">
        <ele>68.3</ele>
        <time>2024-03-07T13:44:46.006Z</time>
      </trkpt>
      <trkpt lat="43.41574" lon="3.47371">
        <ele>68.7</ele>
        <time>2024-03-07T13:44:49.000Z</time>
      </trkpt>
      <trkpt lat="43.41584" lon="3.47375">
        <ele>69</ele>
        <time>2024-03-07T13:44:51.999Z</time>
      </trkpt>
      <trkpt lat="43.41595" lon="3.47379">
        <ele>69.8</ele>
        <time>2024-03-07T13:44:55.012Z</time>
      </trkpt>
      <trkpt lat="43.41606" lon="3.47383">
        <ele>70.6</ele>
        <time>2024-03-07T13:44:58.007Z</time>
      </trkpt>
      <trkpt lat="43.41616" lon="3.47387">
        <ele>71.2</ele>
        <time>2024-03-07T13:45:01.010Z</time>
      </trkpt>
      <trkpt lat="43.41627" lon="3.47392">
        <ele>71.6</ele>
        <time>2024-03-07T13:45:03.988Z</time>
      </trkpt>
      <trkpt lat="43.41636" lon="3.47396">
        <ele>72.1</ele>
        <time>2024-03-07T13:45:07.006Z</time>
      </trkpt>
      <trkpt lat="43.41646" lon="3.47401">
        <ele>72.8</ele>
        <time>2024-03-07T13:45:10.007Z</time>
      </trkpt>
      <trkpt lat="43.41655" lon="3.47404">
        <ele>73.4</ele>
        <time>2024-03-07T13:45:13.003Z</time>
      </trkpt>
      <trkpt lat="43.41665" lon="3.47408">
        <ele>73.9</ele>
        <time>2024-03-07T13:45:16.000Z</time>
      </trkpt>
      <trkpt lat="43.41675" lon="3.47412">
        <ele>74.5</ele>
        <time>2024-03-07T13:45:18.006Z</time>
      </trkpt>
      <trkpt lat="43.41687" lon="3.47415">
        <ele>75.4</ele>
        <time>2024-03-07T13:45:19.993Z</time>
      </trkpt>
      <trkpt lat="43.41699" lon="3.47416">
        <ele>76.3</ele>
        <time>2024-03-07T13:45:21.995Z</time>
      </trkpt>
      <trkpt lat="43.41711" lon="3.47416">
        <ele>77.2</ele>
        <time>2024-03-07T13:45:24.004Z</time>
      </trkpt>
      <trkpt lat="43.41723" lon="3.47413">
        <ele>77.9</ele>
        <time>2024-03-07T13:45:26.002Z</time>
      </trkpt>
      <trkpt lat="43.41735" lon="3.47411">
        <ele>78.3</ele>
        <time>2024-03-07T13:45:28.003Z</time>
      </trkpt>
      <trkpt lat="43.41747" lon="3.47409">
        <ele>78.6</ele>
        <time>2024-03-07T13:45:30.010Z</time>
      </trkpt>
      <trkpt lat="43.41759" lon="3.47405">
        <ele>79</ele>
        <time>2024-03-07T13:45:32.014Z</time>
      </trkpt>
      <trkpt lat="43.4177" lon="3.474">
        <ele>79.6</ele>
        <time>2024-03-07T13:45:33.986Z</time>
      </trkpt>
      <trkpt lat="43.41781" lon="3.47396">
        <ele>80.1</ele>
        <time>2024-03-07T13:45:35.997Z</time>
      </trkpt>
      <trkpt lat="43.41793" lon="3.47393">
        <ele>80.5</ele>
        <time>2024-03-07T13:45:37.996Z</time>
      </trkpt>
      <trkpt lat="43.41804" lon="3.47389">
        <ele>80.9</ele>
        <time>2024-03-07T13:45:39.995Z</time>
      </trkpt>
      <trkpt lat="43.41817" lon="3.47386">
        <ele>81</ele>
        <time>2024-03-07T13:45:42.011Z</time>
      </trkpt>
      <trkpt lat="43.41829" lon="3.47385">
        <ele>81</ele>
        <time>2024-03-07T13:45:43.991Z</time>
      </trkpt>
      <trkpt lat="43.41841" lon="3.47383">
        <ele>81.6</ele>
        <time>2024-03-07T13:45:46.008Z</time>
      </trkpt>
      <trkpt lat="43.41852" lon="3.4738">
        <ele>82.3</ele>
        <time>2024-03-07T13:45:48.005Z</time>
      </trkpt>
      <trkpt lat="43.41863" lon="3.47379">
        <ele>83.1</ele>
        <time>2024-03-07T13:45:50.010Z</time>
      </trkpt>
      <trkpt lat="43.41874" lon="3.47379">
        <ele>83.8</ele>
        <time>2024-03-07T13:45:52.004Z</time>
      </trkpt>
      <trkpt lat="43.41884" lon="3.47378">
        <ele>84.3</ele>
        <time>2024-03-07T13:45:53.996Z</time>
      </trkpt>
      <trkpt lat="43.41893" lon="3.47378">
        <ele>84.8</ele>
        <time>2024-03-07T13:45:56.003Z</time>
      </trkpt>
      <trkpt lat="43.41904" lon="3.47377">
        <ele>85.1</ele>
        <time>2024-03-07T13:45:58.004Z</time>
      </trkpt>
      <trkpt lat="43.41915" lon="3.47375">
        <ele>85.4</ele>
        <time>2024-03-07T13:46:00.004Z</time>
      </trkpt>
      <trkpt lat="43.41925" lon="3.47373">
        <ele>85.6</ele>
        <time>2024-03-07T13:46:02.007Z</time>
      </trkpt>
      <trkpt lat="43.41935" lon="3.4737">
        <ele>85.8</ele>
        <time>2024-03-07T13:46:04.003Z</time>
      </trkpt>
      <trkpt lat="43.41944" lon="3.47368">
        <ele>86</ele>
        <time>2024-03-07T13:46:06.014Z</time>
      </trkpt>
      <trkpt lat="43.41954" lon="3.47367">
        <ele>86.3</ele>
        <time>2024-03-07T13:46:08.001Z</time>
      </trkpt>
      <trkpt lat="43.41964" lon="3.47367">
        <ele>86.7</ele>
        <time>2024-03-07T13:46:11.007Z</time>
      </trkpt>
      <trkpt lat="43.41973" lon="3.47372">
        <ele>87</ele>
        <time>2024-03-07T13:46:13.994Z</time>
      </trkpt>
      <trkpt lat="43.41977" lon="3.47385">
        <ele>87.2</ele>
        <time>2024-03-07T13:46:18.012Z</time>
      </trkpt>
      <trkpt lat="43.41975" lon="3.47399">
        <ele>87.1</ele>
        <time>2024-03-07T13:46:23.006Z</time>
      </trkpt>
      <trkpt lat="43.41973" lon="3.47412">
        <ele>87</ele>
        <time>2024-03-07T13:46:27.988Z</time>
      </trkpt>
      <trkpt lat="43.41969" lon="3.47426">
        <ele>87.2</ele>
        <time>2024-03-07T13:46:32.014Z</time>
      </trkpt>
      <trkpt lat="43.41967" lon="3.47442">
        <ele>87.7</ele>
        <time>2024-03-07T13:46:36.013Z</time>
      </trkpt>
      <trkpt lat="43.41966" lon="3.47456">
        <ele>87.8</ele>
        <time>2024-03-07T13:46:40.007Z</time>
      </trkpt>
      <trkpt lat="43.4197" lon="3.47468">
        <ele>87.9</ele>
        <time>2024-03-07T13:46:44.997Z</time>
      </trkpt>
      <trkpt lat="43.41979" lon="3.47474">
        <ele>88.2</ele>
        <time>2024-03-07T13:46:49.009Z</time>
      </trkpt>
      <trkpt lat="43.4199" lon="3.47476">
        <ele>88.6</ele>
        <time>2024-03-07T13:46:53.001Z</time>
      </trkpt>
      <trkpt lat="43.41999" lon="3.47473">
        <ele>88.9</ele>
        <time>2024-03-07T13:46:56.009Z</time>
      </trkpt>
      <trkpt lat="43.42009" lon="3.47472">
        <ele>89.3</ele>
        <time>2024-03-07T13:46:59.001Z</time>
      </trkpt>
      <trkpt lat="43.4201" lon="3.47486">
        <ele>89</ele>
        <time>2024-03-07T13:47:03.008Z</time>
      </trkpt>
      <trkpt lat="43.42004" lon="3.47498">
        <ele>88.3</ele>
        <time>2024-03-07T13:47:06.006Z</time>
      </trkpt>
      <trkpt lat="43.41999" lon="3.47512">
        <ele>88.4</ele>
        <time>2024-03-07T13:47:09.010Z</time>
      </trkpt>
      <trkpt lat="43.41993" lon="3.47526">
        <ele>88.7</ele>
        <time>2024-03-07T13:47:12.002Z</time>
      </trkpt>
      <trkpt lat="43.41987" lon="3.4754">
        <ele>88.5</ele>
        <time>2024-03-07T13:47:15.002Z</time>
      </trkpt>
      <trkpt lat="43.4198" lon="3.47554">
        <ele>88.3</ele>
        <time>2024-03-07T13:47:17.993Z</time>
      </trkpt>
      <trkpt lat="43.41974" lon="3.47569">
        <ele>88.5</ele>
        <time>2024-03-07T13:47:20.999Z</time>
      </trkpt>
      <trkpt lat="43.41967" lon="3.47583">
        <ele>88.8</ele>
        <time>2024-03-07T13:47:24.004Z</time>
      </trkpt>
      <trkpt lat="43.4196" lon="3.47598">
        <ele>88.6</ele>
        <time>2024-03-07T13:47:27.008Z</time>
      </trkpt>
      <trkpt lat="43.41954" lon="3.47613">
        <ele>88.4</ele>
        <time>2024-03-07T13:47:29.998Z</time>
      </trkpt>
      <trkpt lat="43.41946" lon="3.47628">
        <ele>88.6</ele>
        <time>2024-03-07T13:47:33.011Z</time>
      </trkpt>
      <trkpt lat="43.41941" lon="3.47638">
        <ele>88.8</ele>
        <time>2024-03-07T13:47:35.007Z</time>
      </trkpt>
      <trkpt lat="43.41935" lon="3.47654">
        <ele>88.1</ele>
        <time>2024-03-07T13:47:38.003Z</time>
      </trkpt>
      <trkpt lat="43.41928" lon="3.47669">
        <ele>87.4</ele>
        <time>2024-03-07T13:47:41.011Z</time>
      </trkpt>
      <trkpt lat="43.41923" lon="3.47679">
        <ele>87.2</ele>
        <time>2024-03-07T13:47:43.005Z</time>
      </trkpt>
      <trkpt lat="43.41917" lon="3.47689">
        <ele>87</ele>
        <time>2024-03-07T13:47:45.002Z</time>
      </trkpt>
      <trkpt lat="43.41911" lon="3.47699">
        <ele>86.8</ele>
        <time>2024-03-07T13:47:47.007Z</time>
      </trkpt>
      <trkpt lat="43.41904" lon="3.47708">
        <ele>86.5</ele>
        <time>2024-03-07T13:47:48.999Z</time>
      </trkpt>
      <trkpt lat="43.41896" lon="3.47722">
        <ele>86.3</ele>
        <time>2024-03-07T13:47:52.007Z</time>
      </trkpt>
      <trkpt lat="43.41887" lon="3.47735">
        <ele>85.9</ele>
        <time>2024-03-07T13:47:55.000Z</time>
      </trkpt>
      <trkpt lat="43.41879" lon="3.47748">
        <ele>85.6</ele>
        <time>2024-03-07T13:47:57.996Z</time>
      </trkpt>
      <trkpt lat="43.41871" lon="3.47761">
        <ele>85.2</ele>
        <time>2024-03-07T13:48:01.010Z</time>
      </trkpt>
      <trkpt lat="43.41865" lon="3.4777">
        <ele>85</ele>
        <time>2024-03-07T13:48:02.998Z</time>
      </trkpt>
      <trkpt lat="43.41856" lon="3.47783">
        <ele>84.5</ele>
        <time>2024-03-07T13:48:06.009Z</time>
      </trkpt>
      <trkpt lat="43.41848" lon="3.47796">
        <ele>83.7</ele>
        <time>2024-03-07T13:48:09.008Z</time>
      </trkpt>
      <trkpt lat="43.41841" lon="3.47805">
        <ele>83.3</ele>
        <time>2024-03-07T13:48:11.008Z</time>
      </trkpt>
      <trkpt lat="43.41834" lon="3.47814">
        <ele>83</ele>
        <time>2024-03-07T13:48:13.005Z</time>
      </trkpt>
      <trkpt lat="43.41826" lon="3.47824">
        <ele>82.6</ele>
        <time>2024-03-07T13:48:15.010Z</time>
      </trkpt>
      <trkpt lat="43.41818" lon="3.47835">
        <ele>81.9</ele>
        <time>2024-03-07T13:48:17.006Z</time>
      </trkpt>
      <trkpt lat="43.41811" lon="3.47846">
        <ele>81.3</ele>
        <time>2024-03-07T13:48:18.993Z</time>
      </trkpt>
      <trkpt lat="43.41804" lon="3.47856">
        <ele>80.9</ele>
        <time>2024-03-07T13:48:21.009Z</time>
      </trkpt>
      <trkpt lat="43.41797" lon="3.47866">
        <ele>80.7</ele>
        <time>2024-03-07T13:48:23.008Z</time>
      </trkpt>
      <trkpt lat="43.41791" lon="3.47876">
        <ele>80.5</ele>
        <time>2024-03-07T13:48:25.008Z</time>
      </trkpt>
      <trkpt lat="43.41785" lon="3.47885">
        <ele>80.3</ele>
        <time>2024-03-07T13:48:27.007Z</time>
      </trkpt>
      <trkpt lat="43.41778" lon="3.47895">
        <ele>80</ele>
        <time>2024-03-07T13:48:28.997Z</time>
      </trkpt>
      <trkpt lat="43.4177" lon="3.47905">
        <ele>79.7</ele>
        <time>2024-03-07T13:48:30.992Z</time>
      </trkpt>
      <trkpt lat="43.41763" lon="3.47914">
        <ele>79.5</ele>
        <time>2024-03-07T13:48:32.998Z</time>
      </trkpt>
      <trkpt lat="43.41755" lon="3.47924">
        <ele>79.4</ele>
        <time>2024-03-07T13:48:35.013Z</time>
      </trkpt>
      <trkpt lat="43.41747" lon="3.47935">
        <ele>79.5</ele>
        <time>2024-03-07T13:48:36.995Z</time>
      </trkpt>
      <trkpt lat="43.4174" lon="3.47945">
        <ele>79.3</ele>
        <time>2024-03-07T13:48:39.001Z</time>
      </trkpt>
      <trkpt lat="43.41733" lon="3.47954">
        <ele>78.8</ele>
        <time>2024-03-07T13:48:41.010Z</time>
      </trkpt>
      <trkpt lat="43.41728" lon="3.47965">
        <ele>78.4</ele>
        <time>2024-03-07T13:48:43.006Z</time>
      </trkpt>
      <trkpt lat="43.41722" lon="3.47976">
        <ele>78.1</ele>
        <time>2024-03-07T13:48:45.008Z</time>
      </trkpt>
      <trkpt lat="43.41718" lon="3.47988">
        <ele>78.5</ele>
        <time>2024-03-07T13:48:47.012Z</time>
      </trkpt>
      <trkpt lat="43.41713" lon="3.47999">
        <ele>78.6</ele>
        <time>2024-03-07T13:48:49.021Z</time>
      </trkpt>
      <trkpt lat="43.41707" lon="3.48011">
        <ele>78.5</ele>
        <time>2024-03-07T13:48:50.993Z</time>
      </trkpt>
      <trkpt lat="43.417" lon="3.4802">
        <ele>78.2</ele>
        <time>2024-03-07T13:48:52.999Z</time>
      </trkpt>
      <trkpt lat="43.41692" lon="3.48029">
        <ele>78</ele>
        <time>2024-03-07T13:48:54.986Z</time>
      </trkpt>
      <trkpt lat="43.41682" lon="3.4804">
        <ele>78</ele>
        <time>2024-03-07T13:48:58.014Z</time>
      </trkpt>
      <trkpt lat="43.41674" lon="3.48051">
        <ele>78</ele>
        <time>2024-03-07T13:49:01.004Z</time>
      </trkpt>
      <trkpt lat="43.41666" lon="3.4806">
        <ele>78</ele>
        <time>2024-03-07T13:49:04.006Z</time>
      </trkpt>
      <trkpt lat="43.41661" lon="3.48072">
        <ele>77.8</ele>
        <time>2024-03-07T13:49:06.993Z</time>
      </trkpt>
      <trkpt lat="43.41662" lon="3.48085">
        <ele>77.8</ele>
        <time>2024-03-07T13:49:09.989Z</time>
      </trkpt>
      <trkpt lat="43.4167" lon="3.48097">
        <ele>77.5</ele>
        <time>2024-03-07T13:49:13.010Z</time>
      </trkpt>
      <trkpt lat="43.41676" lon="3.48107">
        <ele>77.1</ele>
        <time>2024-03-07T13:49:15.003Z</time>
      </trkpt>
      <trkpt lat="43.41682" lon="3.48119">
        <ele>76.9</ele>
        <time>2024-03-07T13:49:17.004Z</time>
      </trkpt>
      <trkpt lat="43.41688" lon="3.48131">
        <ele>76.8</ele>
        <time>2024-03-07T13:49:19.009Z</time>
      </trkpt>
      <trkpt lat="43.41695" lon="3.48141">
        <ele>77</ele>
        <time>2024-03-07T13:49:21.008Z</time>
      </trkpt>
      <trkpt lat="43.41701" lon="3.4815">
        <ele>77.2</ele>
        <time>2024-03-07T13:49:22.995Z</time>
      </trkpt>
      <trkpt lat="43.41707" lon="3.4816">
        <ele>77.5</ele>
        <time>2024-03-07T13:49:25.006Z</time>
      </trkpt>
      <trkpt lat="43.41716" lon="3.48174">
        <ele>77.6</ele>
        <time>2024-03-07T13:49:27.999Z</time>
      </trkpt>
      <trkpt lat="43.41726" lon="3.48173">
        <ele>77.8</ele>
        <time>2024-03-07T13:49:31.008Z</time>
      </trkpt>
      <trkpt lat="43.41735" lon="3.4816">
        <ele>78.1</ele>
        <time>2024-03-07T13:49:34.004Z</time>
      </trkpt>
      <trkpt lat="43.41742" lon="3.48151">
        <ele>78.4</ele>
        <time>2024-03-07T13:49:35.998Z</time>
      </trkpt>
      <trkpt lat="43.41749" lon="3.48142">
        <ele>78.9</ele>
        <time>2024-03-07T13:49:38.004Z</time>
      </trkpt>
      <trkpt lat="43.41758" lon="3.48134">
        <ele>79</ele>
        <time>2024-03-07T13:49:40.004Z</time>
      </trkpt>
      <trkpt lat="43.41767" lon="3.48126">
        <ele>79</ele>
        <time>2024-03-07T13:49:42.004Z</time>
      </trkpt>
      <trkpt lat="43.41776" lon="3.48117">
        <ele>79</ele>
        <time>2024-03-07T13:49:44.003Z</time>
      </trkpt>
      <trkpt lat="43.41785" lon="3.48106">
        <ele>79.2</ele>
        <time>2024-03-07T13:49:46.002Z</time>
      </trkpt>
      <trkpt lat="43.41792" lon="3.48096">
        <ele>79.5</ele>
        <time>2024-03-07T13:49:48.006Z</time>
      </trkpt>
      <trkpt lat="43.41799" lon="3.48086">
        <ele>79.9</ele>
        <time>2024-03-07T13:49:50.015Z</time>
      </trkpt>
      <trkpt lat="43.41807" lon="3.48079">
        <ele>80</ele>
        <time>2024-03-07T13:49:51.995Z</time>
      </trkpt>
      <trkpt lat="43.41818" lon="3.48072">
        <ele>80.2</ele>
        <time>2024-03-07T13:49:55.007Z</time>
      </trkpt>
      <trkpt lat="43.41827" lon="3.48063">
        <ele>80.6</ele>
        <time>2024-03-07T13:49:58.007Z</time>
      </trkpt>
      <trkpt lat="43.41834" lon="3.48054">
        <ele>81</ele>
        <time>2024-03-07T13:50:02.002Z</time>
      </trkpt>
      <trkpt lat="43.41839" lon="3.48043">
        <ele>80.9</ele>
        <time>2024-03-07T13:50:20.006Z</time>
      </trkpt>
      <trkpt lat="43.41849" lon="3.48028">
        <ele>81</ele>
        <time>2024-03-07T13:57:21.040Z</time>
      </trkpt>
      <trkpt lat="43.41858" lon="3.48022">
        <ele>81.2</ele>
        <time>2024-03-07T13:57:27.026Z</time>
      </trkpt>
      <trkpt lat="43.41875" lon="3.48027">
        <ele>79.1</ele>
        <time>2024-03-07T13:57:45.025Z</time>
      </trkpt>
      <trkpt lat="43.41882" lon="3.48017">
        <ele>79</ele>
        <time>2024-03-07T13:57:49.023Z</time>
      </trkpt>
      <trkpt lat="43.41886" lon="3.48005">
        <ele>79.7</ele>
        <time>2024-03-07T13:57:52.036Z</time>
      </trkpt>
      <trkpt lat="43.41895" lon="3.47994">
        <ele>79.1</ele>
        <time>2024-03-07T13:57:54.023Z</time>
      </trkpt>
      <trkpt lat="43.41902" lon="3.47983">
        <ele>78.4</ele>
        <time>2024-03-07T13:57:56.019Z</time>
      </trkpt>
      <trkpt lat="43.41911" lon="3.47971">
        <ele>77.3</ele>
        <time>2024-03-07T13:57:58.028Z</time>
      </trkpt>
      <trkpt lat="43.41918" lon="3.47955">
        <ele>77.5</ele>
        <time>2024-03-07T13:58:00.022Z</time>
      </trkpt>
      <trkpt lat="43.41926" lon="3.47941">
        <ele>76.9</ele>
        <time>2024-03-07T13:58:02.019Z</time>
      </trkpt>
      <trkpt lat="43.41932" lon="3.4793">
        <ele>76.5</ele>
        <time>2024-03-07T13:58:04.016Z</time>
      </trkpt>
      <trkpt lat="43.41936" lon="3.47915">
        <ele>77</ele>
        <time>2024-03-07T13:58:07.021Z</time>
      </trkpt>
      <trkpt lat="43.41941" lon="3.47904">
        <ele>77.1</ele>
        <time>2024-03-07T13:58:09.019Z</time>
      </trkpt>
      <trkpt lat="43.41944" lon="3.47889">
        <ele>78.1</ele>
        <time>2024-03-07T13:58:11.023Z</time>
      </trkpt>
      <trkpt lat="43.41953" lon="3.47878">
        <ele>77.6</ele>
        <time>2024-03-07T13:58:14.026Z</time>
      </trkpt>
      <trkpt lat="43.41959" lon="3.47864">
        <ele>78</ele>
        <time>2024-03-07T13:58:16.029Z</time>
      </trkpt>
      <trkpt lat="43.41967" lon="3.47848">
        <ele>78</ele>
        <time>2024-03-07T13:58:18.023Z</time>
      </trkpt>
      <trkpt lat="43.41972" lon="3.47837">
        <ele>78.5</ele>
        <time>2024-03-07T13:58:20.035Z</time>
      </trkpt>
      <trkpt lat="43.4198" lon="3.47826">
        <ele>77.6</ele>
        <time>2024-03-07T13:58:23.032Z</time>
      </trkpt>
      <trkpt lat="43.41986" lon="3.47813">
        <ele>77.2</ele>
        <time>2024-03-07T13:58:25.020Z</time>
      </trkpt>
      <trkpt lat="43.41993" lon="3.47802">
        <ele>76.6</ele>
        <time>2024-03-07T13:58:27.031Z</time>
      </trkpt>
      <trkpt lat="43.41998" lon="3.47791">
        <ele>77.1</ele>
        <time>2024-03-07T13:58:29.016Z</time>
      </trkpt>
      <trkpt lat="43.41998" lon="3.47774">
        <ele>79.9</ele>
        <time>2024-03-07T13:58:32.038Z</time>
      </trkpt>
      <trkpt lat="43.42002" lon="3.4776">
        <ele>81</ele>
        <time>2024-03-07T13:58:35.020Z</time>
      </trkpt>
      <trkpt lat="43.4201" lon="3.47746">
        <ele>80.5</ele>
        <time>2024-03-07T13:58:38.025Z</time>
      </trkpt>
      <trkpt lat="43.42016" lon="3.47735">
        <ele>80.1</ele>
        <time>2024-03-07T13:58:41.012Z</time>
      </trkpt>
      <trkpt lat="43.42022" lon="3.47725">
        <ele>79.9</ele>
        <time>2024-03-07T13:58:44.013Z</time>
      </trkpt>
      <trkpt lat="43.4203" lon="3.47716">
        <ele>79.2</ele>
        <time>2024-03-07T13:58:48.022Z</time>
      </trkpt>
      <trkpt lat="43.42037" lon="3.47704">
        <ele>78.9</ele>
        <time>2024-03-07T13:58:51.023Z</time>
      </trkpt>
      <trkpt lat="43.42042" lon="3.47693">
        <ele>79.1</ele>
        <time>2024-03-07T13:58:53.026Z</time>
      </trkpt>
      <trkpt lat="43.42047" lon="3.47678">
        <ele>79.9</ele>
        <time>2024-03-07T13:58:56.012Z</time>
      </trkpt>
      <trkpt lat="43.42054" lon="3.47663">
        <ele>80.8</ele>
        <time>2024-03-07T13:58:59.020Z</time>
      </trkpt>
      <trkpt lat="43.42061" lon="3.4765">
        <ele>81</ele>
        <time>2024-03-07T13:59:02.023Z</time>
      </trkpt>
      <trkpt lat="43.42069" lon="3.47637">
        <ele>80.9</ele>
        <time>2024-03-07T13:59:05.012Z</time>
      </trkpt>
      <trkpt lat="43.42075" lon="3.47626">
        <ele>81.1</ele>
        <time>2024-03-07T13:59:07.019Z</time>
      </trkpt>
      <trkpt lat="43.4208" lon="3.47614">
        <ele>82.1</ele>
        <time>2024-03-07T13:59:09.019Z</time>
      </trkpt>
      <trkpt lat="43.42086" lon="3.47602">
        <ele>82.6</ele>
        <time>2024-03-07T13:59:11.021Z</time>
      </trkpt>
      <trkpt lat="43.42092" lon="3.47592">
        <ele>82.5</ele>
        <time>2024-03-07T13:59:13.017Z</time>
      </trkpt>
      <trkpt lat="43.42098" lon="3.47579">
        <ele>82.9</ele>
        <time>2024-03-07T13:59:16.010Z</time>
      </trkpt>
      <trkpt lat="43.42108" lon="3.47572">
        <ele>81.7</ele>
        <time>2024-03-07T13:59:19.021Z</time>
      </trkpt>
      <trkpt lat="43.42113" lon="3.47557">
        <ele>83.1</ele>
        <time>2024-03-07T13:59:22.025Z</time>
      </trkpt>
      <trkpt lat="43.42119" lon="3.47548">
        <ele>82.3</ele>
        <time>2024-03-07T13:59:24.014Z</time>
      </trkpt>
      <trkpt lat="43.42123" lon="3.47534">
        <ele>83.2</ele>
        <time>2024-03-07T13:59:27.014Z</time>
      </trkpt>
      <trkpt lat="43.4213" lon="3.47521">
        <ele>82.6</ele>
        <time>2024-03-07T13:59:30.011Z</time>
      </trkpt>
      <trkpt lat="43.42132" lon="3.47507">
        <ele>83.7</ele>
        <time>2024-03-07T13:59:33.017Z</time>
      </trkpt>
      <trkpt lat="43.42137" lon="3.47494">
        <ele>84.2</ele>
        <time>2024-03-07T13:59:36.007Z</time>
      </trkpt>
      <trkpt lat="43.42144" lon="3.4748">
        <ele>84.4</ele>
        <time>2024-03-07T13:59:39.008Z</time>
      </trkpt>
      <trkpt lat="43.42149" lon="3.47468">
        <ele>84.6</ele>
        <time>2024-03-07T13:59:42.026Z</time>
      </trkpt>
      <trkpt lat="43.42154" lon="3.47457">
        <ele>84.6</ele>
        <time>2024-03-07T13:59:44.047Z</time>
      </trkpt>
      <trkpt lat="43.4216" lon="3.47446">
        <ele>84.5</ele>
        <time>2024-03-07T13:59:47.024Z</time>
      </trkpt>
      <trkpt lat="43.42165" lon="3.47434">
        <ele>84.5</ele>
        <time>2024-03-07T13:59:50.007Z</time>
      </trkpt>
      <trkpt lat="43.42168" lon="3.47421">
        <ele>85.1</ele>
        <time>2024-03-07T13:59:53.031Z</time>
      </trkpt>
      <trkpt lat="43.42164" lon="3.47405">
        <ele>87.6</ele>
        <time>2024-03-07T13:59:57.012Z</time>
      </trkpt>
      <trkpt lat="43.42166" lon="3.47391">
        <ele>88.8</ele>
        <time>2024-03-07T14:00:00.009Z</time>
      </trkpt>
      <trkpt lat="43.42171" lon="3.47379">
        <ele>88.7</ele>
        <time>2024-03-07T14:00:05.018Z</time>
      </trkpt>
      <trkpt lat="43.42175" lon="3.47364">
        <ele>89</ele>
        <time>2024-03-07T14:00:09.024Z</time>
      </trkpt>
      <trkpt lat="43.42179" lon="3.47352">
        <ele>88.8</ele>
        <time>2024-03-07T14:00:12.030Z</time>
      </trkpt>
      <trkpt lat="43.42183" lon="3.4734">
        <ele>88.8</ele>
        <time>2024-03-07T14:00:15.009Z</time>
      </trkpt>
      <trkpt lat="43.42188" lon="3.47326">
        <ele>89.1</ele>
        <time>2024-03-07T14:00:18.013Z</time>
      </trkpt>
      <trkpt lat="43.42193" lon="3.47312">
        <ele>89.6</ele>
        <time>2024-03-07T14:00:21.018Z</time>
      </trkpt>
      <trkpt lat="43.42196" lon="3.47297">
        <ele>89.6</ele>
        <time>2024-03-07T14:00:24.014Z</time>
      </trkpt>
      <trkpt lat="43.42199" lon="3.4728">
        <ele>88.9</ele>
        <time>2024-03-07T14:00:27.033Z</time>
      </trkpt>
      <trkpt lat="43.422" lon="3.47264">
        <ele>88.8</ele>
        <time>2024-03-07T14:00:30.035Z</time>
      </trkpt>
      <trkpt lat="43.42203" lon="3.47248">
        <ele>88.5</ele>
        <time>2024-03-07T14:00:33.027Z</time>
      </trkpt>
      <trkpt lat="43.42207" lon="3.47232">
        <ele>88.6</ele>
        <time>2024-03-07T14:00:36.025Z</time>
      </trkpt>
      <trkpt lat="43.42212" lon="3.47215">
        <ele>89</ele>
        <time>2024-03-07T14:00:39.018Z</time>
      </trkpt>
      <trkpt lat="43.42216" lon="3.47198">
        <ele>89.3</ele>
        <time>2024-03-07T14:00:42.020Z</time>
      </trkpt>
      <trkpt lat="43.42222" lon="3.47181">
        <ele>89.5</ele>
        <time>2024-03-07T14:00:45.021Z</time>
      </trkpt>
      <trkpt lat="43.42226" lon="3.47166">
        <ele>89.2</ele>
        <time>2024-03-07T14:00:48.019Z</time>
      </trkpt>
      <trkpt lat="43.42229" lon="3.47152">
        <ele>88.7</ele>
        <time>2024-03-07T14:00:51.023Z</time>
      </trkpt>
      <trkpt lat="43.42232" lon="3.47139">
        <ele>88.2</ele>
        <time>2024-03-07T14:00:54.012Z</time>
      </trkpt>
      <trkpt lat="43.42236" lon="3.4711">
        <ele>88.5</ele>
        <time>2024-03-07T14:01:30.022Z</time>
      </trkpt>
      <trkpt lat="43.42239" lon="3.47098">
        <ele>87.7</ele>
        <time>2024-03-07T14:01:32.025Z</time>
      </trkpt>
      <trkpt lat="43.42241" lon="3.47084">
        <ele>87</ele>
        <time>2024-03-07T14:01:34.028Z</time>
      </trkpt>
      <trkpt lat="43.4224" lon="3.4707">
        <ele>86.1</ele>
        <time>2024-03-07T14:01:36.026Z</time>
      </trkpt>
      <trkpt lat="43.42241" lon="3.47054">
        <ele>84.9</ele>
        <time>2024-03-07T14:01:38.043Z</time>
      </trkpt>
      <trkpt lat="43.42241" lon="3.47036">
        <ele>84.3</ele>
        <time>2024-03-07T14:01:40.012Z</time>
      </trkpt>
      <trkpt lat="43.42238" lon="3.47018">
        <ele>83.6</ele>
        <time>2024-03-07T14:01:42.030Z</time>
      </trkpt>
      <trkpt lat="43.42234" lon="3.46998">
        <ele>82.6</ele>
        <time>2024-03-07T14:01:44.015Z</time>
      </trkpt>
      <trkpt lat="43.4223" lon="3.46977">
        <ele>82.5</ele>
        <time>2024-03-07T14:01:46.030Z</time>
      </trkpt>
      <trkpt lat="43.4223" lon="3.46958">
        <ele>82.2</ele>
        <time>2024-03-07T14:01:48.011Z</time>
      </trkpt>
      <trkpt lat="43.42233" lon="3.46943">
        <ele>81.4</ele>
        <time>2024-03-07T14:01:50.036Z</time>
      </trkpt>
      <trkpt lat="43.42237" lon="3.46931">
        <ele>81.8</ele>
        <time>2024-03-07T14:01:52.033Z</time>
      </trkpt>
      <trkpt lat="43.42242" lon="3.4692">
        <ele>82.4</ele>
        <time>2024-03-07T14:01:54.005Z</time>
      </trkpt>
      <trkpt lat="43.42248" lon="3.46908">
        <ele>83.1</ele>
        <time>2024-03-07T14:01:56.031Z</time>
      </trkpt>
      <trkpt lat="43.42252" lon="3.46895">
        <ele>83.8</ele>
        <time>2024-03-07T14:01:58.009Z</time>
      </trkpt>
      <trkpt lat="43.42255" lon="3.46883">
        <ele>83.8</ele>
        <time>2024-03-07T14:02:00.041Z</time>
      </trkpt>
      <trkpt lat="43.42258" lon="3.46865">
        <ele>83.6</ele>
        <time>2024-03-07T14:02:03.025Z</time>
      </trkpt>
      <trkpt lat="43.42261" lon="3.46853">
        <ele>83.1</ele>
        <time>2024-03-07T14:02:05.020Z</time>
      </trkpt>
      <trkpt lat="43.42262" lon="3.4684">
        <ele>83.2</ele>
        <time>2024-03-07T14:02:07.029Z</time>
      </trkpt>
      <trkpt lat="43.42264" lon="3.46826">
        <ele>83.2</ele>
        <time>2024-03-07T14:02:09.023Z</time>
      </trkpt>
      <trkpt lat="43.42266" lon="3.46809">
        <ele>83.6</ele>
        <time>2024-03-07T14:02:11.054Z</time>
      </trkpt>
      <trkpt lat="43.42268" lon="3.46791">
        <ele>83.6</ele>
        <time>2024-03-07T14:02:13.013Z</time>
      </trkpt>
      <trkpt lat="43.42269" lon="3.46773">
        <ele>83.6</ele>
        <time>2024-03-07T14:02:15.029Z</time>
      </trkpt>
      <trkpt lat="43.42269" lon="3.46755">
        <ele>83.6</ele>
        <time>2024-03-07T14:02:17.022Z</time>
      </trkpt>
      <trkpt lat="43.42269" lon="3.46736">
        <ele>83.4</ele>
        <time>2024-03-07T14:02:19.023Z</time>
      </trkpt>
      <trkpt lat="43.42268" lon="3.46718">
        <ele>83.4</ele>
        <time>2024-03-07T14:02:21.017Z</time>
      </trkpt>
      <trkpt lat="43.42269" lon="3.467">
        <ele>83.3</ele>
        <time>2024-03-07T14:02:23.015Z</time>
      </trkpt>
      <trkpt lat="43.4227" lon="3.46682">
        <ele>83.1</ele>
        <time>2024-03-07T14:02:25.005Z</time>
      </trkpt>
      <trkpt lat="43.4227" lon="3.46664">
        <ele>83.1</ele>
        <time>2024-03-07T14:02:27.020Z</time>
      </trkpt>
      <trkpt lat="43.42271" lon="3.46646">
        <ele>83</ele>
        <time>2024-03-07T14:02:29.028Z</time>
      </trkpt>
      <trkpt lat="43.42271" lon="3.46629">
        <ele>83.2</ele>
        <time>2024-03-07T14:02:31.013Z</time>
      </trkpt>
      <trkpt lat="43.42271" lon="3.46612">
        <ele>83.7</ele>
        <time>2024-03-07T14:02:33.035Z</time>
      </trkpt>
      <trkpt lat="43.42271" lon="3.46596">
        <ele>83.7</ele>
        <time>2024-03-07T14:02:35.011Z</time>
      </trkpt>
      <trkpt lat="43.42272" lon="3.46581">
        <ele>83.5</ele>
        <time>2024-03-07T14:02:37.003Z</time>
      </trkpt>
      <trkpt lat="43.42272" lon="3.46566">
        <ele>83</ele>
        <time>2024-03-07T14:02:39.014Z</time>
      </trkpt>
      <trkpt lat="43.42272" lon="3.46551">
        <ele>82.5</ele>
        <time>2024-03-07T14:02:41.016Z</time>
      </trkpt>
      <trkpt lat="43.42271" lon="3.46535">
        <ele>82</ele>
        <time>2024-03-07T14:02:43.045Z</time>
      </trkpt>
      <trkpt lat="43.4227" lon="3.46519">
        <ele>81.5</ele>
        <time>2024-03-07T14:02:45.010Z</time>
      </trkpt>
      <trkpt lat="43.42268" lon="3.46503">
        <ele>81.2</ele>
        <time>2024-03-07T14:02:47.021Z</time>
      </trkpt>
      <trkpt lat="43.42267" lon="3.46486">
        <ele>80.4</ele>
        <time>2024-03-07T14:02:49.008Z</time>
      </trkpt>
      <trkpt lat="43.42266" lon="3.46472">
        <ele>79.7</ele>
        <time>2024-03-07T14:02:51.019Z</time>
      </trkpt>
      <trkpt lat="43.42265" lon="3.46455">
        <ele>79.2</ele>
        <time>2024-03-07T14:02:54.005Z</time>
      </trkpt>
      <trkpt lat="43.42263" lon="3.4644">
        <ele>78.9</ele>
        <time>2024-03-07T14:02:58.027Z</time>
      </trkpt>
      <trkpt lat="43.4226" lon="3.46417">
        <ele>78.2</ele>
        <time>2024-03-07T14:07:30.021Z</time>
      </trkpt>
      <trkpt lat="43.42256" lon="3.46398">
        <ele>77.7</ele>
        <time>2024-03-07T14:07:33.027Z</time>
      </trkpt>
      <trkpt lat="43.42252" lon="3.46386">
        <ele>78.2</ele>
        <time>2024-03-07T14:07:35.021Z</time>
      </trkpt>
      <trkpt lat="43.4224" lon="3.46382">
        <ele>79.2</ele>
        <time>2024-03-07T14:07:38.017Z</time>
      </trkpt>
      <trkpt lat="43.4223" lon="3.46381">
        <ele>79.6</ele>
        <time>2024-03-07T14:07:41.025Z</time>
      </trkpt>
      <trkpt lat="43.42222" lon="3.46372">
        <ele>80</ele>
        <time>2024-03-07T14:07:44.008Z</time>
      </trkpt>
      <trkpt lat="43.4222" lon="3.46355">
        <ele>80</ele>
        <time>2024-03-07T14:07:47.020Z</time>
      </trkpt>
      <trkpt lat="43.4222" lon="3.46339">
        <ele>80</ele>
        <time>2024-03-07T14:07:50.029Z</time>
      </trkpt>
      <trkpt lat="43.42218" lon="3.46323">
        <ele>79.7</ele>
        <time>2024-03-07T14:07:53.016Z</time>
      </trkpt>
      <trkpt lat="43.42216" lon="3.46307">
        <ele>79.3</ele>
        <time>2024-03-07T14:07:56.023Z</time>
      </trkpt>
      <trkpt lat="43.42215" lon="3.46295">
        <ele>79</ele>
        <time>2024-03-07T14:07:58.029Z</time>
      </trkpt>
      <trkpt lat="43.42213" lon="3.46282">
        <ele>78.8</ele>
        <time>2024-03-07T14:08:00.020Z</time>
      </trkpt>
      <trkpt lat="43.42206" lon="3.46269">
        <ele>79</ele>
        <time>2024-03-07T14:08:03.033Z</time>
      </trkpt>
      <trkpt lat="43.42199" lon="3.46254">
        <ele>79.5</ele>
        <time>2024-03-07T14:08:06.029Z</time>
      </trkpt>
      <trkpt lat="43.42192" lon="3.46245">
        <ele>79.9</ele>
        <time>2024-03-07T14:08:08.022Z</time>
      </trkpt>
      <trkpt lat="43.42185" lon="3.46237">
        <ele>79.1</ele>
        <time>2024-03-07T14:08:10.029Z</time>
      </trkpt>
      <trkpt lat="43.4218" lon="3.46226">
        <ele>78.4</ele>
        <time>2024-03-07T14:08:12.023Z</time>
      </trkpt>
      <trkpt lat="43.42178" lon="3.46213">
        <ele>78.2</ele>
        <time>2024-03-07T14:08:14.007Z</time>
      </trkpt>
      <trkpt lat="43.42177" lon="3.462">
        <ele>78.4</ele>
        <time>2024-03-07T14:08:16.044Z</time>
      </trkpt>
      <trkpt lat="43.42178" lon="3.46182">
        <ele>78.6</ele>
        <time>2024-03-07T14:08:19.027Z</time>
      </trkpt>
      <trkpt lat="43.4218" lon="3.46166">
        <ele>78.9</ele>
        <time>2024-03-07T14:08:22.021Z</time>
      </trkpt>
      <trkpt lat="43.42181" lon="3.46153">
        <ele>79.1</ele>
        <time>2024-03-07T14:08:24.020Z</time>
      </trkpt>
      <trkpt lat="43.42181" lon="3.46138">
        <ele>79.1</ele>
        <time>2024-03-07T14:08:26.025Z</time>
      </trkpt>
      <trkpt lat="43.42183" lon="3.46125">
        <ele>79.4</ele>
        <time>2024-03-07T14:08:28.016Z</time>
      </trkpt>
      <trkpt lat="43.42185" lon="3.46107">
        <ele>79.6</ele>
        <time>2024-03-07T14:08:31.013Z</time>
      </trkpt>
      <trkpt lat="43.42185" lon="3.46092">
        <ele>79.4</ele>
        <time>2024-03-07T14:08:33.024Z</time>
      </trkpt>
      <trkpt lat="43.42186" lon="3.46078">
        <ele>79.3</ele>
        <time>2024-03-07T14:08:35.037Z</time>
      </trkpt>
      <trkpt lat="43.42186" lon="3.46064">
        <ele>79.2</ele>
        <time>2024-03-07T14:08:37.023Z</time>
      </trkpt>
      <trkpt lat="43.42187" lon="3.46051">
        <ele>79.2</ele>
        <time>2024-03-07T14:08:39.019Z</time>
      </trkpt>
      <trkpt lat="43.42189" lon="3.46034">
        <ele>79.6</ele>
        <time>2024-03-07T14:08:42.016Z</time>
      </trkpt>
      <trkpt lat="43.42191" lon="3.46017">
        <ele>79.8</ele>
        <time>2024-03-07T14:08:45.023Z</time>
      </trkpt>
      <trkpt lat="43.42191" lon="3.45999">
        <ele>79.8</ele>
        <time>2024-03-07T14:08:48.025Z</time>
      </trkpt>
      <trkpt lat="43.42192" lon="3.45986">
        <ele>79.9</ele>
        <time>2024-03-07T14:08:50.011Z</time>
      </trkpt>
      <trkpt lat="43.42192" lon="3.45969">
        <ele>80</ele>
        <time>2024-03-07T14:08:53.015Z</time>
      </trkpt>
      <trkpt lat="43.42192" lon="3.45956">
        <ele>80.4</ele>
        <time>2024-03-07T14:08:55.019Z</time>
      </trkpt>
      <trkpt lat="43.42193" lon="3.45944">
        <ele>80.9</ele>
        <time>2024-03-07T14:08:57.016Z</time>
      </trkpt>
      <trkpt lat="43.42194" lon="3.45926">
        <ele>81</ele>
        <time>2024-03-07T14:09:00.016Z</time>
      </trkpt>
      <trkpt lat="43.42193" lon="3.45908">
        <ele>80.6</ele>
        <time>2024-03-07T14:09:03.013Z</time>
      </trkpt>
      <trkpt lat="43.42191" lon="3.45895">
        <ele>80.1</ele>
        <time>2024-03-07T14:09:05.024Z</time>
      </trkpt>
      <trkpt lat="43.42188" lon="3.45883">
        <ele>79.7</ele>
        <time>2024-03-07T14:09:07.027Z</time>
      </trkpt>
      <trkpt lat="43.42189" lon="3.45864">
        <ele>79.6</ele>
        <time>2024-03-07T14:09:10.021Z</time>
      </trkpt>
      <trkpt lat="43.42188" lon="3.4585">
        <ele>78.8</ele>
        <time>2024-03-07T14:09:12.028Z</time>
      </trkpt>
      <trkpt lat="43.42184" lon="3.45838">
        <ele>77.9</ele>
        <time>2024-03-07T14:09:14.033Z</time>
      </trkpt>
      <trkpt lat="43.4218" lon="3.45825">
        <ele>76.9</ele>
        <time>2024-03-07T14:09:16.016Z</time>
      </trkpt>
      <trkpt lat="43.42177" lon="3.45812">
        <ele>75.6</ele>
        <time>2024-03-07T14:09:18.026Z</time>
      </trkpt>
      <trkpt lat="43.42169" lon="3.45799">
        <ele>73.3</ele>
        <time>2024-03-07T14:09:21.022Z</time>
      </trkpt>
      <trkpt lat="43.42163" lon="3.45789">
        <ele>71.4</ele>
        <time>2024-03-07T14:09:23.019Z</time>
      </trkpt>
      <trkpt lat="43.42156" lon="3.45777">
        <ele>69.1</ele>
        <time>2024-03-07T14:09:26.016Z</time>
      </trkpt>
      <trkpt lat="43.42148" lon="3.4577">
        <ele>67.5</ele>
        <time>2024-03-07T14:09:29.014Z</time>
      </trkpt>
      <trkpt lat="43.42139" lon="3.45756">
        <ele>64.1</ele>
        <time>2024-03-07T14:09:32.016Z</time>
      </trkpt>
      <trkpt lat="43.42129" lon="3.45744">
        <ele>62.8</ele>
        <time>2024-03-07T14:09:35.032Z</time>
      </trkpt>
      <trkpt lat="43.42124" lon="3.45732">
        <ele>61.1</ele>
        <time>2024-03-07T14:09:37.028Z</time>
      </trkpt>
      <trkpt lat="43.42121" lon="3.45721">
        <ele>59.5</ele>
        <time>2024-03-07T14:09:41.023Z</time>
      </trkpt>
      <trkpt lat="43.42123" lon="3.45707">
        <ele>57.4</ele>
        <time>2024-03-07T14:09:46.018Z</time>
      </trkpt>
      <trkpt lat="43.42127" lon="3.45692">
        <ele>55</ele>
        <time>2024-03-07T14:09:50.076Z</time>
      </trkpt>
      <trkpt lat="43.42131" lon="3.45678">
        <ele>52.5</ele>
        <time>2024-03-07T14:09:53.012Z</time>
      </trkpt>
      <trkpt lat="43.42134" lon="3.45665">
        <ele>50.1</ele>
        <time>2024-03-07T14:09:56.021Z</time>
      </trkpt>
      <trkpt lat="43.42138" lon="3.45651">
        <ele>47.2</ele>
        <time>2024-03-07T14:10:04.017Z</time>
      </trkpt>
      <trkpt lat="43.42134" lon="3.45639">
        <ele>45.4</ele>
        <time>2024-03-07T14:10:09.022Z</time>
      </trkpt>
      <trkpt lat="43.42133" lon="3.45624">
        <ele>42.4</ele>
        <time>2024-03-07T14:10:13.027Z</time>
      </trkpt>
      <trkpt lat="43.42132" lon="3.45607">
        <ele>39.4</ele>
        <time>2024-03-07T14:10:16.021Z</time>
      </trkpt>
      <trkpt lat="43.42127" lon="3.4559">
        <ele>37.1</ele>
        <time>2024-03-07T14:10:19.022Z</time>
      </trkpt>
      <trkpt lat="43.42122" lon="3.45579">
        <ele>35.3</ele>
        <time>2024-03-07T14:10:21.021Z</time>
      </trkpt>
      <trkpt lat="43.42116" lon="3.45568">
        <ele>33.1</ele>
        <time>2024-03-07T14:10:23.011Z</time>
      </trkpt>
      <trkpt lat="43.42109" lon="3.45556">
        <ele>30</ele>
        <time>2024-03-07T14:10:25.010Z</time>
      </trkpt>
      <trkpt lat="43.42107" lon="3.45539">
        <ele>28.7</ele>
        <time>2024-03-07T14:10:28.029Z</time>
      </trkpt>
      <trkpt lat="43.42111" lon="3.45524">
        <ele>27.9</ele>
        <time>2024-03-07T14:10:31.023Z</time>
      </trkpt>
      <trkpt lat="43.4212" lon="3.45516">
        <ele>27.8</ele>
        <time>2024-03-07T14:10:39.032Z</time>
      </trkpt>
      <trkpt lat="43.42129" lon="3.45503">
        <ele>26.7</ele>
        <time>2024-03-07T14:10:43.036Z</time>
      </trkpt>
      <trkpt lat="43.42137" lon="3.45496">
        <ele>26.2</ele>
        <time>2024-03-07T14:10:46.034Z</time>
      </trkpt>
      <trkpt lat="43.42148" lon="3.45491">
        <ele>26.3</ele>
        <time>2024-03-07T14:10:49.031Z</time>
      </trkpt>
      <trkpt lat="43.42161" lon="3.45492">
        <ele>26.3</ele>
        <time>2024-03-07T14:10:52.010Z</time>
      </trkpt>
      <trkpt lat="43.42172" lon="3.45489">
        <ele>26.4</ele>
        <time>2024-03-07T14:10:54.008Z</time>
      </trkpt>
      <trkpt lat="43.42183" lon="3.45487">
        <ele>26.5</ele>
        <time>2024-03-07T14:10:56.008Z</time>
      </trkpt>
      <trkpt lat="43.42194" lon="3.45491">
        <ele>26.3</ele>
        <time>2024-03-07T14:10:58.021Z</time>
      </trkpt>
      <trkpt lat="43.42204" lon="3.45492">
        <ele>25.9</ele>
        <time>2024-03-07T14:11:00.013Z</time>
      </trkpt>
      <trkpt lat="43.42213" lon="3.4549">
        <ele>25.7</ele>
        <time>2024-03-07T14:11:02.024Z</time>
      </trkpt>
      <trkpt lat="43.42223" lon="3.45491">
        <ele>25.3</ele>
        <time>2024-03-07T14:11:04.026Z</time>
      </trkpt>
      <trkpt lat="43.42234" lon="3.4549">
        <ele>24.8</ele>
        <time>2024-03-07T14:11:06.023Z</time>
      </trkpt>
      <trkpt lat="43.42244" lon="3.45484">
        <ele>24.3</ele>
        <time>2024-03-07T14:11:08.016Z</time>
      </trkpt>
      <trkpt lat="43.42255" lon="3.4548">
        <ele>23.8</ele>
        <time>2024-03-07T14:11:11.024Z</time>
      </trkpt>
      <trkpt lat="43.42259" lon="3.45495">
        <ele>23.4</ele>
        <time>2024-03-07T14:11:14.021Z</time>
      </trkpt>
      <trkpt lat="43.42261" lon="3.45512">
        <ele>23.6</ele>
        <time>2024-03-07T14:11:17.013Z</time>
      </trkpt>
      <trkpt lat="43.42271" lon="3.45522">
        <ele>23.3</ele>
        <time>2024-03-07T14:11:20.024Z</time>
      </trkpt>
      <trkpt lat="43.42283" lon="3.45528">
        <ele>22.8</ele>
        <time>2024-03-07T14:11:23.029Z</time>
      </trkpt>
      <trkpt lat="43.42296" lon="3.45534">
        <ele>22.6</ele>
        <time>2024-03-07T14:11:26.022Z</time>
      </trkpt>
      <trkpt lat="43.42304" lon="3.45541">
        <ele>22.5</ele>
        <time>2024-03-07T14:11:28.032Z</time>
      </trkpt>
      <trkpt lat="43.42313" lon="3.45553">
        <ele>22.4</ele>
        <time>2024-03-07T14:11:31.031Z</time>
      </trkpt>
      <trkpt lat="43.42318" lon="3.45563">
        <ele>22.4</ele>
        <time>2024-03-07T14:11:33.014Z</time>
      </trkpt>
      <trkpt lat="43.42323" lon="3.45574">
        <ele>22.4</ele>
        <time>2024-03-07T14:11:35.029Z</time>
      </trkpt>
      <trkpt lat="43.4233" lon="3.4559">
        <ele>22.7</ele>
        <time>2024-03-07T14:11:38.021Z</time>
      </trkpt>
      <trkpt lat="43.42336" lon="3.456">
        <ele>23</ele>
        <time>2024-03-07T14:11:40.027Z</time>
      </trkpt>
      <trkpt lat="43.42343" lon="3.4561">
        <ele>22.9</ele>
        <time>2024-03-07T14:11:42.023Z</time>
      </trkpt>
      <trkpt lat="43.42349" lon="3.4562">
        <ele>22.6</ele>
        <time>2024-03-07T14:11:44.014Z</time>
      </trkpt>
      <trkpt lat="43.42357" lon="3.45632">
        <ele>22.2</ele>
        <time>2024-03-07T14:11:47.026Z</time>
      </trkpt>
      <trkpt lat="43.42363" lon="3.45643">
        <ele>21.9</ele>
        <time>2024-03-07T14:11:50.023Z</time>
      </trkpt>
      <trkpt lat="43.42358" lon="3.45653">
        <ele>22.4</ele>
        <time>2024-03-07T14:11:53.015Z</time>
      </trkpt>
      <trkpt lat="43.42355" lon="3.45668">
        <ele>22.9</ele>
        <time>2024-03-07T14:11:56.008Z</time>
      </trkpt>
      <trkpt lat="43.42354" lon="3.45682">
        <ele>23.2</ele>
        <time>2024-03-07T14:11:59.039Z</time>
      </trkpt>
      <trkpt lat="43.42353" lon="3.45697">
        <ele>23.5</ele>
        <time>2024-03-07T14:12:02.033Z</time>
      </trkpt>
      <trkpt lat="43.42352" lon="3.45712">
        <ele>23.6</ele>
        <time>2024-03-07T14:12:05.019Z</time>
      </trkpt>
      <trkpt lat="43.4235" lon="3.45728">
        <ele>24.1</ele>
        <time>2024-03-07T14:12:08.017Z</time>
      </trkpt>
      <trkpt lat="43.42348" lon="3.45741">
        <ele>24.7</ele>
        <time>2024-03-07T14:12:10.033Z</time>
      </trkpt>
      <trkpt lat="43.42347" lon="3.45757">
        <ele>25.2</ele>
        <time>2024-03-07T14:12:13.029Z</time>
      </trkpt>
      <trkpt lat="43.42347" lon="3.45771">
        <ele>25.4</ele>
        <time>2024-03-07T14:12:16.018Z</time>
      </trkpt>
      <trkpt lat="43.42344" lon="3.45786">
        <ele>26.3</ele>
        <time>2024-03-07T14:12:19.035Z</time>
      </trkpt>
      <trkpt lat="43.42342" lon="3.458">
        <ele>26.8</ele>
        <time>2024-03-07T14:12:22.028Z</time>
      </trkpt>
      <trkpt lat="43.4234" lon="3.45817">
        <ele>27.1</ele>
        <time>2024-03-07T14:12:25.021Z</time>
      </trkpt>
      <trkpt lat="43.42337" lon="3.45829">
        <ele>27.5</ele>
        <time>2024-03-07T14:12:27.017Z</time>
      </trkpt>
      <trkpt lat="43.42334" lon="3.45842">
        <ele>27.3</ele>
        <time>2024-03-07T14:12:31.024Z</time>
      </trkpt>
      <trkpt lat="43.42327" lon="3.45851">
        <ele>28.9</ele>
        <time>2024-03-07T14:12:59.021Z</time>
      </trkpt>
      <trkpt lat="43.42325" lon="3.45864">
        <ele>28.7</ele>
        <time>2024-03-07T14:13:11.020Z</time>
      </trkpt>
      <trkpt lat="43.42319" lon="3.4588">
        <ele>30.3</ele>
        <time>2024-03-07T14:13:14.999Z</time>
      </trkpt>
      <trkpt lat="43.42317" lon="3.45893">
        <ele>30.7</ele>
        <time>2024-03-07T14:13:18.007Z</time>
      </trkpt>
      <trkpt lat="43.42317" lon="3.45907">
        <ele>30.6</ele>
        <time>2024-03-07T14:13:21.007Z</time>
      </trkpt>
      <trkpt lat="43.4232" lon="3.45924">
        <ele>29.9</ele>
        <time>2024-03-07T14:13:24.012Z</time>
      </trkpt>
      <trkpt lat="43.42324" lon="3.45936">
        <ele>29</ele>
        <time>2024-03-07T14:13:26.044Z</time>
      </trkpt>
      <trkpt lat="43.42328" lon="3.45947">
        <ele>28.2</ele>
        <time>2024-03-07T14:13:28.027Z</time>
      </trkpt>
      <trkpt lat="43.42331" lon="3.45959">
        <ele>27.5</ele>
        <time>2024-03-07T14:13:30.013Z</time>
      </trkpt>
      <trkpt lat="43.42332" lon="3.45976">
        <ele>27.5</ele>
        <time>2024-03-07T14:13:32.997Z</time>
      </trkpt>
      <trkpt lat="43.42334" lon="3.45991">
        <ele>27.6</ele>
        <time>2024-03-07T14:13:36.008Z</time>
      </trkpt>
      <trkpt lat="43.42332" lon="3.46007">
        <ele>28.6</ele>
        <time>2024-03-07T14:13:40.022Z</time>
      </trkpt>
      <trkpt lat="43.42334" lon="3.46023">
        <ele>28.7</ele>
        <time>2024-03-07T14:13:44.018Z</time>
      </trkpt>
      <trkpt lat="43.42333" lon="3.46036">
        <ele>28.8</ele>
        <time>2024-03-07T14:13:49.022Z</time>
      </trkpt>
      <trkpt lat="43.4233" lon="3.4605">
        <ele>29.4</ele>
        <time>2024-03-07T14:13:54.006Z</time>
      </trkpt>
      <trkpt lat="43.42328" lon="3.46067">
        <ele>29.9</ele>
        <time>2024-03-07T14:13:59.010Z</time>
      </trkpt>
      <trkpt lat="43.42329" lon="3.46082">
        <ele>29.6</ele>
        <time>2024-03-07T14:14:03.012Z</time>
      </trkpt>
      <trkpt lat="43.42332" lon="3.46094">
        <ele>28.4</ele>
        <time>2024-03-07T14:14:06.033Z</time>
      </trkpt>
      <trkpt lat="43.42332" lon="3.46108">
        <ele>28.4</ele>
        <time>2024-03-07T14:14:09.035Z</time>
      </trkpt>
      <trkpt lat="43.42332" lon="3.46125">
        <ele>28.4</ele>
        <time>2024-03-07T14:14:12.016Z</time>
      </trkpt>
      <trkpt lat="43.42331" lon="3.46141">
        <ele>28.7</ele>
        <time>2024-03-07T14:14:15.022Z</time>
      </trkpt>
      <trkpt lat="43.4233" lon="3.46153">
        <ele>29.5</ele>
        <time>2024-03-07T14:14:18.019Z</time>
      </trkpt>
      <trkpt lat="43.42334" lon="3.46167">
        <ele>28.9</ele>
        <time>2024-03-07T14:14:22.033Z</time>
      </trkpt>
      <trkpt lat="43.42335" lon="3.46186">
        <ele>29.4</ele>
        <time>2024-03-07T14:14:25.029Z</time>
      </trkpt>
      <trkpt lat="43.42337" lon="3.46201">
        <ele>29.5</ele>
        <time>2024-03-07T14:14:28.016Z</time>
      </trkpt>
      <trkpt lat="43.4234" lon="3.46213">
        <ele>29.4</ele>
        <time>2024-03-07T14:14:31.015Z</time>
      </trkpt>
      <trkpt lat="43.42345" lon="3.46226">
        <ele>29.2</ele>
        <time>2024-03-07T14:14:34.028Z</time>
      </trkpt>
      <trkpt lat="43.42351" lon="3.46241">
        <ele>29.6</ele>
        <time>2024-03-07T14:14:37.025Z</time>
      </trkpt>
      <trkpt lat="43.42358" lon="3.46256">
        <ele>29.7</ele>
        <time>2024-03-07T14:14:40.032Z</time>
      </trkpt>
      <trkpt lat="43.42362" lon="3.46269">
        <ele>29.5</ele>
        <time>2024-03-07T14:14:43.013Z</time>
      </trkpt>
      <trkpt lat="43.42365" lon="3.46281">
        <ele>29.4</ele>
        <time>2024-03-07T14:14:46.034Z</time>
      </trkpt>
      <trkpt lat="43.4237" lon="3.46293">
        <ele>28.7</ele>
        <time>2024-03-07T14:14:49.020Z</time>
      </trkpt>
      <trkpt lat="43.42373" lon="3.46308">
        <ele>28.5</ele>
        <time>2024-03-07T14:14:52.005Z</time>
      </trkpt>
      <trkpt lat="43.42377" lon="3.46323">
        <ele>29</ele>
        <time>2024-03-07T14:14:55.016Z</time>
      </trkpt>
      <trkpt lat="43.42381" lon="3.46339">
        <ele>29.4</ele>
        <time>2024-03-07T14:14:58.017Z</time>
      </trkpt>
      <trkpt lat="43.42384" lon="3.46353">
        <ele>29.5</ele>
        <time>2024-03-07T14:15:01.023Z</time>
      </trkpt>
      <trkpt lat="43.42386" lon="3.46366">
        <ele>29.5</ele>
        <time>2024-03-07T14:15:04.011Z</time>
      </trkpt>
      <trkpt lat="43.42386" lon="3.46384">
        <ele>29.5</ele>
        <time>2024-03-07T14:15:07.011Z</time>
      </trkpt>
      <trkpt lat="43.42385" lon="3.46398">
        <ele>30</ele>
        <time>2024-03-07T14:15:09.020Z</time>
      </trkpt>
      <trkpt lat="43.42387" lon="3.46411">
        <ele>30.1</ele>
        <time>2024-03-07T14:15:11.018Z</time>
      </trkpt>
      <trkpt lat="43.42392" lon="3.46424">
        <ele>30.5</ele>
        <time>2024-03-07T14:15:13.016Z</time>
      </trkpt>
      <trkpt lat="43.42397" lon="3.46437">
        <ele>31.2</ele>
        <time>2024-03-07T14:15:15.019Z</time>
      </trkpt>
      <trkpt lat="43.42401" lon="3.46451">
        <ele>31.6</ele>
        <time>2024-03-07T14:15:18.030Z</time>
      </trkpt>
      <trkpt lat="43.42409" lon="3.46459">
        <ele>31</ele>
        <time>2024-03-07T14:15:22.025Z</time>
      </trkpt>
      <trkpt lat="43.42417" lon="3.46462">
        <ele>30.2</ele>
      </trkpt>
      <trkpt lat="43.42425" lon="3.46464">
        <ele>29.3</ele>
      </trkpt>
      <trkpt lat="43.42431" lon="3.46466">
        <ele>28.6</ele>
        <time>2024-03-07T14:16:31.023Z</time>
      </trkpt>
      <trkpt lat="43.42439" lon="3.46474">
        <ele>27.9</ele>
        <time>2024-03-07T14:16:33.029Z</time>
      </trkpt>
      <trkpt lat="43.42452" lon="3.46477">
        <ele>26.6</ele>
        <time>2024-03-07T14:16:36.014Z</time>
      </trkpt>
      <trkpt lat="43.42461" lon="3.4647">
        <ele>25.8</ele>
        <time>2024-03-07T14:16:38.019Z</time>
      </trkpt>
      <trkpt lat="43.42471" lon="3.46462">
        <ele>25.1</ele>
        <time>2024-03-07T14:16:40.033Z</time>
      </trkpt>
      <trkpt lat="43.42481" lon="3.46457">
        <ele>25</ele>
        <time>2024-03-07T14:16:42.018Z</time>
      </trkpt>
      <trkpt lat="43.42493" lon="3.4645">
        <ele>25</ele>
        <time>2024-03-07T14:16:45.012Z</time>
      </trkpt>
      <trkpt lat="43.42505" lon="3.46441">
        <ele>25.2</ele>
        <time>2024-03-07T14:16:48.013Z</time>
      </trkpt>
      <trkpt lat="43.42516" lon="3.46432">
        <ele>25.6</ele>
        <time>2024-03-07T14:16:51.038Z</time>
      </trkpt>
      <trkpt lat="43.42527" lon="3.46425">
        <ele>26</ele>
        <time>2024-03-07T14:16:54.026Z</time>
      </trkpt>
      <trkpt lat="43.42538" lon="3.46427">
        <ele>26.6</ele>
        <time>2024-03-07T14:16:57.016Z</time>
      </trkpt>
      <trkpt lat="43.42549" lon="3.46434">
        <ele>27.1</ele>
        <time>2024-03-07T14:17:00.009Z</time>
      </trkpt>
      <trkpt lat="43.42559" lon="3.46429">
        <ele>27.6</ele>
        <time>2024-03-07T14:17:03.012Z</time>
      </trkpt>
      <trkpt lat="43.42571" lon="3.46423">
        <ele>27.9</ele>
        <time>2024-03-07T14:17:06.018Z</time>
      </trkpt>
      <trkpt lat="43.42584" lon="3.46415">
        <ele>28.1</ele>
        <time>2024-03-07T14:17:09.025Z</time>
      </trkpt>
      <trkpt lat="43.42592" lon="3.46411">
        <ele>28.7</ele>
        <time>2024-03-07T14:17:11.040Z</time>
      </trkpt>
      <trkpt lat="43.426" lon="3.46406">
        <ele>29.1</ele>
        <time>2024-03-07T14:17:13.024Z</time>
      </trkpt>
      <trkpt lat="43.42612" lon="3.46398">
        <ele>29.7</ele>
        <time>2024-03-07T14:17:16.015Z</time>
      </trkpt>
      <trkpt lat="43.42624" lon="3.46391">
        <ele>30</ele>
        <time>2024-03-07T14:17:19.018Z</time>
      </trkpt>
      <trkpt lat="43.42636" lon="3.46383">
        <ele>30.2</ele>
        <time>2024-03-07T14:17:22.041Z</time>
      </trkpt>
      <trkpt lat="43.42648" lon="3.46375">
        <ele>30.7</ele>
        <time>2024-03-07T14:17:25.013Z</time>
      </trkpt>
      <trkpt lat="43.4266" lon="3.46368">
        <ele>30.9</ele>
        <time>2024-03-07T14:17:28.024Z</time>
      </trkpt>
      <trkpt lat="43.42672" lon="3.46361">
        <ele>31.2</ele>
        <time>2024-03-07T14:17:31.023Z</time>
      </trkpt>
      <trkpt lat="43.42683" lon="3.46354">
        <ele>31.8</ele>
        <time>2024-03-07T14:17:34.005Z</time>
      </trkpt>
      <trkpt lat="43.42695" lon="3.46346">
        <ele>32.6</ele>
        <time>2024-03-07T14:17:37.002Z</time>
      </trkpt>
      <trkpt lat="43.42706" lon="3.46337">
        <ele>33.3</ele>
        <time>2024-03-07T14:17:40.016Z</time>
      </trkpt>
      <trkpt lat="43.42717" lon="3.46328">
        <ele>33.8</ele>
        <time>2024-03-07T14:17:43.063Z</time>
      </trkpt>
      <trkpt lat="43.42728" lon="3.4632">
        <ele>34.1</ele>
        <time>2024-03-07T14:17:46.026Z</time>
      </trkpt>
      <trkpt lat="43.42739" lon="3.46311">
        <ele>34.1</ele>
        <time>2024-03-07T14:17:49.036Z</time>
      </trkpt>
      <trkpt lat="43.42749" lon="3.46301">
        <ele>34.3</ele>
        <time>2024-03-07T14:17:52.018Z</time>
      </trkpt>
      <trkpt lat="43.42757" lon="3.46293">
        <ele>35.4</ele>
        <time>2024-03-07T14:17:56.013Z</time>
      </trkpt>
      <trkpt lat="43.42767" lon="3.46297">
        <ele>36.1</ele>
        <time>2024-03-07T14:17:59.022Z</time>
      </trkpt>
      <trkpt lat="43.4278" lon="3.46294">
        <ele>37</ele>
        <time>2024-03-07T14:18:02.022Z</time>
      </trkpt>
      <trkpt lat="43.42788" lon="3.46288">
        <ele>37.2</ele>
        <time>2024-03-07T14:18:04.021Z</time>
      </trkpt>
      <trkpt lat="43.42798" lon="3.46278">
        <ele>37.7</ele>
        <time>2024-03-07T14:18:07.007Z</time>
      </trkpt>
      <trkpt lat="43.42807" lon="3.46269">
        <ele>38.3</ele>
        <time>2024-03-07T14:18:10.026Z</time>
      </trkpt>
      <trkpt lat="43.42816" lon="3.46259">
        <ele>38.7</ele>
        <time>2024-03-07T14:18:13.011Z</time>
      </trkpt>
      <trkpt lat="43.42826" lon="3.46249">
        <ele>39</ele>
        <time>2024-03-07T14:18:16.022Z</time>
      </trkpt>
      <trkpt lat="43.42835" lon="3.4624">
        <ele>39.4</ele>
        <time>2024-03-07T14:18:19.011Z</time>
      </trkpt>
      <trkpt lat="43.42843" lon="3.46231">
        <ele>40</ele>
        <time>2024-03-07T14:18:22.020Z</time>
      </trkpt>
      <trkpt lat="43.42851" lon="3.46221">
        <ele>40.7</ele>
        <time>2024-03-07T14:18:25.031Z</time>
      </trkpt>
      <trkpt lat="43.42859" lon="3.46212">
        <ele>41.3</ele>
        <time>2024-03-07T14:18:28.021Z</time>
      </trkpt>
      <trkpt lat="43.42867" lon="3.46202">
        <ele>42.1</ele>
        <time>2024-03-07T14:18:31.031Z</time>
      </trkpt>
      <trkpt lat="43.42874" lon="3.46192">
        <ele>43</ele>
        <time>2024-03-07T14:18:34.011Z</time>
      </trkpt>
      <trkpt lat="43.42882" lon="3.46182">
        <ele>43.6</ele>
        <time>2024-03-07T14:18:37.020Z</time>
      </trkpt>
      <trkpt lat="43.42888" lon="3.46171">
        <ele>44</ele>
        <time>2024-03-07T14:18:40.026Z</time>
      </trkpt>
      <trkpt lat="43.42896" lon="3.46162">
        <ele>44.8</ele>
        <time>2024-03-07T14:18:43.027Z</time>
      </trkpt>
      <trkpt lat="43.42903" lon="3.46153">
        <ele>45.8</ele>
        <time>2024-03-07T14:18:46.031Z</time>
      </trkpt>
      <trkpt lat="43.42911" lon="3.46144">
        <ele>46.6</ele>
        <time>2024-03-07T14:18:49.025Z</time>
      </trkpt>
      <trkpt lat="43.42919" lon="3.46137">
        <ele>47.4</ele>
        <time>2024-03-07T14:18:52.017Z</time>
      </trkpt>
      <trkpt lat="43.42927" lon="3.4613">
        <ele>48.6</ele>
        <time>2024-03-07T14:18:55.005Z</time>
      </trkpt>
      <trkpt lat="43.42935" lon="3.46123">
        <ele>49.7</ele>
        <time>2024-03-07T14:18:58.014Z</time>
      </trkpt>
      <trkpt lat="43.42943" lon="3.46115">
        <ele>50.7</ele>
        <time>2024-03-07T14:19:01.011Z</time>
      </trkpt>
      <trkpt lat="43.42951" lon="3.46108">
        <ele>51.7</ele>
        <time>2024-03-07T14:19:04.019Z</time>
      </trkpt>
      <trkpt lat="43.42958" lon="3.461">
        <ele>52.8</ele>
        <time>2024-03-07T14:19:07.017Z</time>
      </trkpt>
      <trkpt lat="43.42966" lon="3.46092">
        <ele>53.9</ele>
        <time>2024-03-07T14:19:10.010Z</time>
      </trkpt>
      <trkpt lat="43.42973" lon="3.46082">
        <ele>55.2</ele>
        <time>2024-03-07T14:19:13.028Z</time>
      </trkpt>
      <trkpt lat="43.42982" lon="3.46074">
        <ele>56.6</ele>
        <time>2024-03-07T14:19:16.001Z</time>
      </trkpt>
      <trkpt lat="43.4299" lon="3.46065">
        <ele>57.8</ele>
        <time>2024-03-07T14:19:19.015Z</time>
      </trkpt>
      <trkpt lat="43.42998" lon="3.46055">
        <ele>58.9</ele>
        <time>2024-03-07T14:19:22.015Z</time>
      </trkpt>
      <trkpt lat="43.43005" lon="3.46042">
        <ele>59.5</ele>
        <time>2024-03-07T14:19:26.021Z</time>
      </trkpt>
      <trkpt lat="43.43011" lon="3.46028">
        <ele>59.8</ele>
        <time>2024-03-07T14:19:30.021Z</time>
      </trkpt>
      <trkpt lat="43.43015" lon="3.46015">
        <ele>59.4</ele>
        <time>2024-03-07T14:19:33.006Z</time>
      </trkpt>
      <trkpt lat="43.43019" lon="3.46002">
        <ele>58.8</ele>
        <time>2024-03-07T14:19:36.024Z</time>
      </trkpt>
      <trkpt lat="43.43025" lon="3.45987">
        <ele>58</ele>
        <time>2024-03-07T14:19:40.022Z</time>
      </trkpt>
      <trkpt lat="43.4303" lon="3.45974">
        <ele>57.3</ele>
        <time>2024-03-07T14:19:44.025Z</time>
      </trkpt>
      <trkpt lat="43.43036" lon="3.45961">
        <ele>56.9</ele>
        <time>2024-03-07T14:19:48.020Z</time>
      </trkpt>
      <trkpt lat="43.43041" lon="3.45949">
        <ele>56.7</ele>
        <time>2024-03-07T14:19:51.015Z</time>
      </trkpt>
      <trkpt lat="43.43046" lon="3.45935">
        <ele>56.6</ele>
        <time>2024-03-07T14:19:54.004Z</time>
      </trkpt>
      <trkpt lat="43.43051" lon="3.45923">
        <ele>56.7</ele>
        <time>2024-03-07T14:19:57.012Z</time>
      </trkpt>
      <trkpt lat="43.43056" lon="3.45911">
        <ele>56.6</ele>
        <time>2024-03-07T14:20:00.032Z</time>
      </trkpt>
      <trkpt lat="43.4306" lon="3.45898">
        <ele>56.2</ele>
        <time>2024-03-07T14:20:03.027Z</time>
      </trkpt>
      <trkpt lat="43.43064" lon="3.45887">
        <ele>56.1</ele>
        <time>2024-03-07T14:20:05.016Z</time>
      </trkpt>
      <trkpt lat="43.43068" lon="3.45875">
        <ele>55.8</ele>
        <time>2024-03-07T14:20:07.030Z</time>
      </trkpt>
      <trkpt lat="43.43072" lon="3.45863">
        <ele>55.5</ele>
        <time>2024-03-07T14:20:09.034Z</time>
      </trkpt>
      <trkpt lat="43.43075" lon="3.45851">
        <ele>55.5</ele>
        <time>2024-03-07T14:20:11.026Z</time>
      </trkpt>
      <trkpt lat="43.43077" lon="3.45836">
        <ele>55.4</ele>
        <time>2024-03-07T14:20:13.017Z</time>
      </trkpt>
      <trkpt lat="43.43079" lon="3.45823">
        <ele>55.5</ele>
        <time>2024-03-07T14:20:15.012Z</time>
      </trkpt>
      <trkpt lat="43.4308" lon="3.45808">
        <ele>55.6</ele>
        <time>2024-03-07T14:20:17.011Z</time>
      </trkpt>
      <trkpt lat="43.43079" lon="3.45793">
        <ele>55.9</ele>
        <time>2024-03-07T14:20:19.022Z</time>
      </trkpt>
      <trkpt lat="43.4308" lon="3.45776">
        <ele>56.5</ele>
        <time>2024-03-07T14:20:21.017Z</time>
      </trkpt>
      <trkpt lat="43.43081" lon="3.45759">
        <ele>56</ele>
        <time>2024-03-07T14:20:23.017Z</time>
      </trkpt>
      <trkpt lat="43.43082" lon="3.45744">
        <ele>55.8</ele>
        <time>2024-03-07T14:20:25.024Z</time>
      </trkpt>
      <trkpt lat="43.43085" lon="3.45733">
        <ele>56.2</ele>
        <time>2024-03-07T14:20:27.027Z</time>
      </trkpt>
      <trkpt lat="43.43089" lon="3.45721">
        <ele>56.5</ele>
        <time>2024-03-07T14:20:29.011Z</time>
      </trkpt>
      <trkpt lat="43.43094" lon="3.4571">
        <ele>56.4</ele>
        <time>2024-03-07T14:20:31.019Z</time>
      </trkpt>
      <trkpt lat="43.43099" lon="3.45699">
        <ele>56.5</ele>
        <time>2024-03-07T14:20:33.022Z</time>
      </trkpt>
      <trkpt lat="43.43103" lon="3.45687">
        <ele>56.8</ele>
        <time>2024-03-07T14:20:35.020Z</time>
      </trkpt>
      <trkpt lat="43.43106" lon="3.45675">
        <ele>57.1</ele>
        <time>2024-03-07T14:20:37.009Z</time>
      </trkpt>
      <trkpt lat="43.43108" lon="3.45662">
        <ele>57.3</ele>
        <time>2024-03-07T14:20:39.024Z</time>
      </trkpt>
      <trkpt lat="43.43111" lon="3.45647">
        <ele>57.3</ele>
        <time>2024-03-07T14:20:42.017Z</time>
      </trkpt>
      <trkpt lat="43.43114" lon="3.45635">
        <ele>57.1</ele>
        <time>2024-03-07T14:20:44.034Z</time>
      </trkpt>
      <trkpt lat="43.4312" lon="3.45618">
        <ele>56.8</ele>
        <time>2024-03-07T14:20:47.018Z</time>
      </trkpt>
      <trkpt lat="43.43126" lon="3.45602">
        <ele>56.7</ele>
        <time>2024-03-07T14:20:50.025Z</time>
      </trkpt>
      <trkpt lat="43.43131" lon="3.45586">
        <ele>56.7</ele>
        <time>2024-03-07T14:20:53.038Z</time>
      </trkpt>
      <trkpt lat="43.43135" lon="3.45573">
        <ele>56.7</ele>
        <time>2024-03-07T14:20:56.016Z</time>
      </trkpt>
      <trkpt lat="43.43142" lon="3.45557">
        <ele>56.3</ele>
        <time>2024-03-07T14:20:59.029Z</time>
      </trkpt>
      <trkpt lat="43.43147" lon="3.45545">
        <ele>56.4</ele>
        <time>2024-03-07T14:21:01.010Z</time>
      </trkpt>
      <trkpt lat="43.43151" lon="3.45534">
        <ele>56.2</ele>
        <time>2024-03-07T14:21:03.025Z</time>
      </trkpt>
      <trkpt lat="43.43155" lon="3.45522">
        <ele>55.6</ele>
        <time>2024-03-07T14:21:05.021Z</time>
      </trkpt>
      <trkpt lat="43.4316" lon="3.45512">
        <ele>54.9</ele>
        <time>2024-03-07T14:21:07.029Z</time>
      </trkpt>
      <trkpt lat="43.43166" lon="3.45502">
        <ele>54.1</ele>
        <time>2024-03-07T14:21:09.021Z</time>
      </trkpt>
      <trkpt lat="43.4317" lon="3.45489">
        <ele>53.6</ele>
        <time>2024-03-07T14:21:12.014Z</time>
      </trkpt>
      <trkpt lat="43.43171" lon="3.45476">
        <ele>53.1</ele>
        <time>2024-03-07T14:21:16.035Z</time>
      </trkpt>
      <trkpt lat="43.43178" lon="3.45467">
        <ele>52.9</ele>
        <time>2024-03-07T14:21:20.031Z</time>
      </trkpt>
      <trkpt lat="43.43184" lon="3.45457">
        <ele>52.8</ele>
        <time>2024-03-07T14:21:23.018Z</time>
      </trkpt>
      <trkpt lat="43.43191" lon="3.45445">
        <ele>52.9</ele>
        <time>2024-03-07T14:21:26.025Z</time>
      </trkpt>
      <trkpt lat="43.43197" lon="3.45432">
        <ele>52.1</ele>
        <time>2024-03-07T14:21:29.025Z</time>
      </trkpt>
      <trkpt lat="43.43204" lon="3.4542">
        <ele>51.5</ele>
        <time>2024-03-07T14:21:32.023Z</time>
      </trkpt>
      <trkpt lat="43.4321" lon="3.45406">
        <ele>51.6</ele>
        <time>2024-03-07T14:21:35.022Z</time>
      </trkpt>
      <trkpt lat="43.43216" lon="3.45392">
        <ele>51.8</ele>
        <time>2024-03-07T14:21:38.027Z</time>
      </trkpt>
      <trkpt lat="43.43221" lon="3.45377">
        <ele>51.9</ele>
        <time>2024-03-07T14:21:41.012Z</time>
      </trkpt>
      <trkpt lat="43.43225" lon="3.4536">
        <ele>52.1</ele>
        <time>2024-03-07T14:21:44.026Z</time>
      </trkpt>
      <trkpt lat="43.43226" lon="3.45342">
        <ele>52.7</ele>
        <time>2024-03-07T14:21:47.041Z</time>
      </trkpt>
      <trkpt lat="43.43227" lon="3.45326">
        <ele>53</ele>
        <time>2024-03-07T14:21:50.021Z</time>
      </trkpt>
      <trkpt lat="43.43229" lon="3.45312">
        <ele>53.2</ele>
        <time>2024-03-07T14:21:53.019Z</time>
      </trkpt>
      <trkpt lat="43.4323" lon="3.45296">
        <ele>53.6</ele>
        <time>2024-03-07T14:21:56.017Z</time>
      </trkpt>
      <trkpt lat="43.43231" lon="3.45282">
        <ele>54.2</ele>
        <time>2024-03-07T14:21:59.032Z</time>
      </trkpt>
      <trkpt lat="43.43234" lon="3.45267">
        <ele>54.2</ele>
        <time>2024-03-07T14:22:02.033Z</time>
      </trkpt>
      <trkpt lat="43.4324" lon="3.45252">
        <ele>54.3</ele>
        <time>2024-03-07T14:22:05.023Z</time>
      </trkpt>
      <trkpt lat="43.43246" lon="3.45235">
        <ele>54.6</ele>
        <time>2024-03-07T14:22:08.020Z</time>
      </trkpt>
      <trkpt lat="43.43248" lon="3.45218">
        <ele>54.6</ele>
        <time>2024-03-07T14:22:11.017Z</time>
      </trkpt>
      <trkpt lat="43.43249" lon="3.45206">
        <ele>54.3</ele>
        <time>2024-03-07T14:22:13.024Z</time>
      </trkpt>
      <trkpt lat="43.43247" lon="3.45192">
        <ele>53.8</ele>
        <time>2024-03-07T14:22:15.031Z</time>
      </trkpt>
      <trkpt lat="43.43245" lon="3.45179">
        <ele>53.5</ele>
        <time>2024-03-07T14:22:17.031Z</time>
      </trkpt>
      <trkpt lat="43.43243" lon="3.45166">
        <ele>53.3</ele>
        <time>2024-03-07T14:22:19.024Z</time>
      </trkpt>
      <trkpt lat="43.43241" lon="3.45153">
        <ele>53.5</ele>
        <time>2024-03-07T14:22:21.033Z</time>
      </trkpt>
      <trkpt lat="43.43239" lon="3.4514">
        <ele>53.8</ele>
        <time>2024-03-07T14:22:23.022Z</time>
      </trkpt>
      <trkpt lat="43.43237" lon="3.45128">
        <ele>53.8</ele>
        <time>2024-03-07T14:22:25.016Z</time>
      </trkpt>
      <trkpt lat="43.43233" lon="3.45116">
        <ele>53.7</ele>
        <time>2024-03-07T14:22:27.009Z</time>
      </trkpt>
      <trkpt lat="43.43227" lon="3.451">
        <ele>54.4</ele>
        <time>2024-03-07T14:22:30.029Z</time>
      </trkpt>
      <trkpt lat="43.4322" lon="3.45088">
        <ele>55.2</ele>
        <time>2024-03-07T14:22:33.029Z</time>
      </trkpt>
      <trkpt lat="43.43212" lon="3.45079">
        <ele>54.6</ele>
        <time>2024-03-07T14:22:36.016Z</time>
      </trkpt>
      <trkpt lat="43.43201" lon="3.45071">
        <ele>53.6</ele>
        <time>2024-03-07T14:22:39.009Z</time>
      </trkpt>
      <trkpt lat="43.43191" lon="3.45066">
        <ele>53.1</ele>
        <time>2024-03-07T14:22:41.030Z</time>
      </trkpt>
      <trkpt lat="43.43182" lon="3.4506">
        <ele>53.2</ele>
        <time>2024-03-07T14:22:43.022Z</time>
      </trkpt>
      <trkpt lat="43.43173" lon="3.45054">
        <ele>53.3</ele>
        <time>2024-03-07T14:22:45.031Z</time>
      </trkpt>
      <trkpt lat="43.43165" lon="3.45046">
        <ele>52.9</ele>
        <time>2024-03-07T14:22:47.014Z</time>
      </trkpt>
      <trkpt lat="43.43158" lon="3.45037">
        <ele>52.7</ele>
        <time>2024-03-07T14:22:49.033Z</time>
      </trkpt>
      <trkpt lat="43.43153" lon="3.45024">
        <ele>52.5</ele>
        <time>2024-03-07T14:22:52.026Z</time>
      </trkpt>
      <trkpt lat="43.43148" lon="3.45009">
        <ele>52.1</ele>
        <time>2024-03-07T14:22:55.018Z</time>
      </trkpt>
      <trkpt lat="43.43139" lon="3.44994">
        <ele>50.8</ele>
        <time>2024-03-07T14:22:58.028Z</time>
      </trkpt>
      <trkpt lat="43.43132" lon="3.44982">
        <ele>50.3</ele>
        <time>2024-03-07T14:23:01.010Z</time>
      </trkpt>
      <trkpt lat="43.43128" lon="3.44965">
        <ele>49.2</ele>
        <time>2024-03-07T14:23:04.030Z</time>
      </trkpt>
      <trkpt lat="43.43125" lon="3.44953">
        <ele>48.5</ele>
        <time>2024-03-07T14:23:06.020Z</time>
      </trkpt>
      <trkpt lat="43.43123" lon="3.44936">
        <ele>47.1</ele>
        <time>2024-03-07T14:23:09.023Z</time>
      </trkpt>
      <trkpt lat="43.43123" lon="3.44924">
        <ele>46.1</ele>
        <time>2024-03-07T14:23:11.023Z</time>
      </trkpt>
      <trkpt lat="43.43125" lon="3.44911">
        <ele>45.3</ele>
        <time>2024-03-07T14:23:13.044Z</time>
      </trkpt>
      <trkpt lat="43.43131" lon="3.44897">
        <ele>45</ele>
        <time>2024-03-07T14:23:16.018Z</time>
      </trkpt>
      <trkpt lat="43.43142" lon="3.4489">
        <ele>45.2</ele>
        <time>2024-03-07T14:23:20.027Z</time>
      </trkpt>
      <trkpt lat="43.43153" lon="3.44882">
        <ele>45.1</ele>
        <time>2024-03-07T14:23:23.016Z</time>
      </trkpt>
      <trkpt lat="43.43163" lon="3.44873">
        <ele>44.8</ele>
        <time>2024-03-07T14:23:26.029Z</time>
      </trkpt>
      <trkpt lat="43.43171" lon="3.44866">
        <ele>44.6</ele>
        <time>2024-03-07T14:23:29.032Z</time>
      </trkpt>
      <trkpt lat="43.4318" lon="3.44859">
        <ele>45</ele>
        <time>2024-03-07T14:23:32.014Z</time>
      </trkpt>
      <trkpt lat="43.43189" lon="3.44853">
        <ele>45.6</ele>
        <time>2024-03-07T14:23:35.021Z</time>
      </trkpt>
      <trkpt lat="43.43195" lon="3.44842">
        <ele>46.1</ele>
        <time>2024-03-07T14:23:38.029Z</time>
      </trkpt>
      <trkpt lat="43.43196" lon="3.44827">
        <ele>45.9</ele>
      </trkpt>
      <trkpt lat="43.43199" lon="3.44812">
        <ele>45.6</ele>
      </trkpt>
      <trkpt lat="43.43203" lon="3.44807">
        <ele>45.7</ele>
      </trkpt>
      <trkpt lat="43.43209" lon="3.44803">
        <ele>46</ele>
      </trkpt>
      <trkpt lat="43.43215" lon="3.44802">
        <ele>46.4</ele>
      </trkpt>
      <trkpt lat="43.43225" lon="3.44801">
        <ele>47.1</ele>
        <time>2024-03-07T14:24:08.023Z</time>
      </trkpt>
      <trkpt lat="43.43234" lon="3.44799">
        <ele>47.9</ele>
        <time>2024-03-07T14:24:11.016Z</time>
      </trkpt>
      <trkpt lat="43.43244" lon="3.44797">
        <ele>48.8</ele>
        <time>2024-03-07T14:24:16.024Z</time>
      </trkpt>
      <trkpt lat="43.43254" lon="3.44796">
        <ele>49.7</ele>
        <time>2024-03-07T14:24:21.026Z</time>
      </trkpt>
      <trkpt lat="43.43269" lon="3.44798">
        <ele>51.5</ele>
        <time>2024-03-07T14:24:40.032Z</time>
      </trkpt>
      <trkpt lat="43.43278" lon="3.44794">
        <ele>52.2</ele>
        <time>2024-03-07T14:24:46.034Z</time>
      </trkpt>
      <trkpt lat="43.43287" lon="3.44788">
        <ele>51.9</ele>
        <time>2024-03-07T14:24:52.022Z</time>
      </trkpt>
      <trkpt lat="43.43296" lon="3.44781">
        <ele>51.8</ele>
        <time>2024-03-07T14:24:58.021Z</time>
      </trkpt>
      <trkpt lat="43.43296" lon="3.44768">
        <ele>51.9</ele>
        <time>2024-03-07T14:25:04.026Z</time>
      </trkpt>
      <trkpt lat="43.43299" lon="3.44756">
        <ele>52.4</ele>
        <time>2024-03-07T14:25:09.022Z</time>
      </trkpt>
      <trkpt lat="43.43303" lon="3.44743">
        <ele>52.6</ele>
        <time>2024-03-07T14:25:13.031Z</time>
      </trkpt>
      <trkpt lat="43.43307" lon="3.44727">
        <ele>51.9</ele>
        <time>2024-03-07T14:25:18.033Z</time>
      </trkpt>
      <trkpt lat="43.43305" lon="3.44712">
        <ele>51.7</ele>
        <time>2024-03-07T14:25:21.033Z</time>
      </trkpt>
      <trkpt lat="43.43299" lon="3.44696">
        <ele>51.7</ele>
        <time>2024-03-07T14:25:24.020Z</time>
      </trkpt>
      <trkpt lat="43.43295" lon="3.44685">
        <ele>52.1</ele>
        <time>2024-03-07T14:25:26.035Z</time>
      </trkpt>
      <trkpt lat="43.43291" lon="3.44669">
        <ele>52.6</ele>
        <time>2024-03-07T14:25:29.028Z</time>
      </trkpt>
      <trkpt lat="43.43289" lon="3.44655">
        <ele>52.4</ele>
        <time>2024-03-07T14:25:32.026Z</time>
      </trkpt>
      <trkpt lat="43.43289" lon="3.44641">
        <ele>51.8</ele>
        <time>2024-03-07T14:25:36.017Z</time>
      </trkpt>
      <trkpt lat="43.43286" lon="3.44627">
        <ele>52.6</ele>
        <time>2024-03-07T14:25:40.025Z</time>
      </trkpt>
      <trkpt lat="43.43279" lon="3.44616">
        <ele>54.6</ele>
        <time>2024-03-07T14:25:43.032Z</time>
      </trkpt>
      <trkpt lat="43.43275" lon="3.44604">
        <ele>53.5</ele>
        <time>2024-03-07T14:25:46.021Z</time>
      </trkpt>
      <trkpt lat="43.43271" lon="3.44586">
        <ele>50.8</ele>
        <time>2024-03-07T14:25:49.022Z</time>
      </trkpt>
      <trkpt lat="43.43267" lon="3.44574">
        <ele>49.4</ele>
        <time>2024-03-07T14:25:51.017Z</time>
      </trkpt>
      <trkpt lat="43.43261" lon="3.44562">
        <ele>48.9</ele>
        <time>2024-03-07T14:25:53.024Z</time>
      </trkpt>
      <trkpt lat="43.43256" lon="3.4455">
        <ele>48.9</ele>
        <time>2024-03-07T14:25:55.025Z</time>
      </trkpt>
      <trkpt lat="43.43252" lon="3.44537">
        <ele>48.5</ele>
        <time>2024-03-07T14:25:57.021Z</time>
      </trkpt>
      <trkpt lat="43.43247" lon="3.44522">
        <ele>46.8</ele>
        <time>2024-03-07T14:25:59.028Z</time>
      </trkpt>
      <trkpt lat="43.43241" lon="3.44509">
        <ele>45</ele>
        <time>2024-03-07T14:26:01.022Z</time>
      </trkpt>
      <trkpt lat="43.43238" lon="3.44497">
        <ele>43.8</ele>
        <time>2024-03-07T14:26:03.025Z</time>
      </trkpt>
      <trkpt lat="43.43232" lon="3.44487">
        <ele>43</ele>
        <time>2024-03-07T14:26:05.023Z</time>
      </trkpt>
      <trkpt lat="43.43227" lon="3.44475">
        <ele>42.3</ele>
        <time>2024-03-07T14:26:07.025Z</time>
      </trkpt>
      <trkpt lat="43.43222" lon="3.44464">
        <ele>41.5</ele>
        <time>2024-03-07T14:26:09.028Z</time>
      </trkpt>
      <trkpt lat="43.43215" lon="3.44452">
        <ele>39.5</ele>
        <time>2024-03-07T14:26:11.048Z</time>
      </trkpt>
      <trkpt lat="43.43208" lon="3.44444">
        <ele>38.9</ele>
        <time>2024-03-07T14:26:13.020Z</time>
      </trkpt>
      <trkpt lat="43.43201" lon="3.44435">
        <ele>37.4</ele>
        <time>2024-03-07T14:26:18.037Z</time>
      </trkpt>
      <trkpt lat="43.43194" lon="3.44425">
        <ele>35.7</ele>
        <time>2024-03-07T14:26:23.032Z</time>
      </trkpt>
      <trkpt lat="43.43186" lon="3.44416">
        <ele>32.9</ele>
        <time>2024-03-07T14:26:27.023Z</time>
      </trkpt>
      <trkpt lat="43.43178" lon="3.44408">
        <ele>30.1</ele>
        <time>2024-03-07T14:26:31.026Z</time>
      </trkpt>
      <trkpt lat="43.43168" lon="3.44403">
        <ele>28.1</ele>
        <time>2024-03-07T14:26:34.028Z</time>
      </trkpt>
      <trkpt lat="43.43159" lon="3.44397">
        <ele>26.8</ele>
        <time>2024-03-07T14:26:37.019Z</time>
      </trkpt>
      <trkpt lat="43.43168" lon="3.44394">
        <ele>26.2</ele>
        <time>2024-03-07T14:26:43.029Z</time>
      </trkpt>
      <trkpt lat="43.43181" lon="3.44393">
        <ele>26.6</ele>
        <time>2024-03-07T14:26:46.015Z</time>
      </trkpt>
      <trkpt lat="43.4319" lon="3.44393">
        <ele>27</ele>
        <time>2024-03-07T14:26:48.022Z</time>
      </trkpt>
      <trkpt lat="43.432" lon="3.44396">
        <ele>28.2</ele>
        <time>2024-03-07T14:26:51.031Z</time>
      </trkpt>
      <trkpt lat="43.43211" lon="3.44402">
        <ele>29.6</ele>
        <time>2024-03-07T14:26:55.025Z</time>
      </trkpt>
      <trkpt lat="43.43221" lon="3.44408">
        <ele>30.1</ele>
        <time>2024-03-07T14:26:59.023Z</time>
      </trkpt>
      <trkpt lat="43.4323" lon="3.44416">
        <ele>31.2</ele>
        <time>2024-03-07T14:27:04.020Z</time>
      </trkpt>
      <trkpt lat="43.43238" lon="3.44427">
        <ele>33.1</ele>
        <time>2024-03-07T14:27:09.034Z</time>
      </trkpt>
      <trkpt lat="43.43243" lon="3.44439">
        <ele>34.4</ele>
        <time>2024-03-07T14:27:13.032Z</time>
      </trkpt>
      <trkpt lat="43.4325" lon="3.44449">
        <ele>34.5</ele>
        <time>2024-03-07T14:27:16.019Z</time>
      </trkpt>
      <trkpt lat="43.43255" lon="3.44462">
        <ele>35.8</ele>
        <time>2024-03-07T14:27:19.026Z</time>
      </trkpt>
      <trkpt lat="43.4326" lon="3.44472">
        <ele>36.6</ele>
        <time>2024-03-07T14:27:22.026Z</time>
      </trkpt>
      <trkpt lat="43.43266" lon="3.44484">
        <ele>38.2</ele>
        <time>2024-03-07T14:27:25.028Z</time>
      </trkpt>
      <trkpt lat="43.4327" lon="3.44495">
        <ele>39.4</ele>
        <time>2024-03-07T14:27:28.017Z</time>
      </trkpt>
      <trkpt lat="43.43276" lon="3.44507">
        <ele>40</ele>
        <time>2024-03-07T14:27:31.020Z</time>
      </trkpt>
      <trkpt lat="43.4328" lon="3.44522">
        <ele>40.9</ele>
        <time>2024-03-07T14:27:35.044Z</time>
      </trkpt>
      <trkpt lat="43.43282" lon="3.44535">
        <ele>41.6</ele>
        <time>2024-03-07T14:27:39.036Z</time>
      </trkpt>
      <trkpt lat="43.43284" lon="3.44548">
        <ele>42.1</ele>
        <time>2024-03-07T14:27:43.025Z</time>
      </trkpt>
      <trkpt lat="43.43286" lon="3.4456">
        <ele>43</ele>
        <time>2024-03-07T14:27:47.024Z</time>
      </trkpt>
      <trkpt lat="43.43289" lon="3.44573">
        <ele>44.6</ele>
        <time>2024-03-07T14:27:51.023Z</time>
      </trkpt>
      <trkpt lat="43.43294" lon="3.44584">
        <ele>44.9</ele>
        <time>2024-03-07T14:27:55.023Z</time>
      </trkpt>
      <trkpt lat="43.43299" lon="3.44597">
        <ele>46</ele>
        <time>2024-03-07T14:27:59.037Z</time>
      </trkpt>
      <trkpt lat="43.43304" lon="3.44608">
        <ele>46.8</ele>
        <time>2024-03-07T14:28:03.030Z</time>
      </trkpt>
      <trkpt lat="43.43308" lon="3.44622">
        <ele>46.4</ele>
        <time>2024-03-07T14:28:07.033Z</time>
      </trkpt>
      <trkpt lat="43.4331" lon="3.44635">
        <ele>46.1</ele>
        <time>2024-03-07T14:28:10.025Z</time>
      </trkpt>
      <trkpt lat="43.43315" lon="3.44649">
        <ele>46.5</ele>
        <time>2024-03-07T14:28:14.016Z</time>
      </trkpt>
      <trkpt lat="43.43319" lon="3.44662">
        <ele>47.1</ele>
        <time>2024-03-07T14:28:19.024Z</time>
      </trkpt>
      <trkpt lat="43.43321" lon="3.4468">
        <ele>47.6</ele>
        <time>2024-03-07T14:28:23.025Z</time>
      </trkpt>
      <trkpt lat="43.43325" lon="3.44695">
        <ele>47.5</ele>
        <time>2024-03-07T14:28:27.023Z</time>
      </trkpt>
      <trkpt lat="43.43329" lon="3.44709">
        <ele>47.3</ele>
        <time>2024-03-07T14:28:30.031Z</time>
      </trkpt>
      <trkpt lat="43.43333" lon="3.44723">
        <ele>47.1</ele>
        <time>2024-03-07T14:28:34.019Z</time>
      </trkpt>
      <trkpt lat="43.43334" lon="3.44735">
        <ele>47.9</ele>
        <time>2024-03-07T14:28:37.024Z</time>
      </trkpt>
      <trkpt lat="43.43335" lon="3.44747">
        <ele>48.7</ele>
        <time>2024-03-07T14:28:41.023Z</time>
      </trkpt>
      <trkpt lat="43.43335" lon="3.44762">
        <ele>48.9</ele>
        <time>2024-03-07T14:28:46.031Z</time>
      </trkpt>
      <trkpt lat="43.43336" lon="3.44775">
        <ele>48.9</ele>
        <time>2024-03-07T14:28:52.026Z</time>
      </trkpt>
      <trkpt lat="43.43334" lon="3.44801">
        <ele>49</ele>
        <time>2024-03-07T14:29:18.040Z</time>
      </trkpt>
      <trkpt lat="43.43335" lon="3.44818">
        <ele>48.9</ele>
        <time>2024-03-07T14:29:22.018Z</time>
      </trkpt>
      <trkpt lat="43.43339" lon="3.44831">
        <ele>48.6</ele>
        <time>2024-03-07T14:29:25.034Z</time>
      </trkpt>
      <trkpt lat="43.43345" lon="3.44846">
        <ele>48.2</ele>
        <time>2024-03-07T14:29:28.026Z</time>
      </trkpt>
      <trkpt lat="43.43348" lon="3.44862">
        <ele>48</ele>
        <time>2024-03-07T14:29:31.026Z</time>
      </trkpt>
      <trkpt lat="43.43352" lon="3.44878">
        <ele>48.7</ele>
        <time>2024-03-07T14:29:34.034Z</time>
      </trkpt>
      <trkpt lat="43.43358" lon="3.44893">
        <ele>48.7</ele>
        <time>2024-03-07T14:29:37.026Z</time>
      </trkpt>
      <trkpt lat="43.43363" lon="3.44907">
        <ele>49</ele>
        <time>2024-03-07T14:29:40.023Z</time>
      </trkpt>
      <trkpt lat="43.43368" lon="3.44923">
        <ele>49</ele>
        <time>2024-03-07T14:29:43.022Z</time>
      </trkpt>
      <trkpt lat="43.4337" lon="3.44936">
        <ele>49.1</ele>
        <time>2024-03-07T14:29:45.030Z</time>
      </trkpt>
      <trkpt lat="43.43373" lon="3.4495">
        <ele>48.9</ele>
        <time>2024-03-07T14:29:47.045Z</time>
      </trkpt>
      <trkpt lat="43.43376" lon="3.44964">
        <ele>48.3</ele>
        <time>2024-03-07T14:29:49.027Z</time>
      </trkpt>
      <trkpt lat="43.4338" lon="3.44978">
        <ele>47.3</ele>
        <time>2024-03-07T14:29:51.039Z</time>
      </trkpt>
      <trkpt lat="43.43386" lon="3.44992">
        <ele>45.7</ele>
        <time>2024-03-07T14:29:54.018Z</time>
      </trkpt>
      <trkpt lat="43.43391" lon="3.45003">
        <ele>45</ele>
        <time>2024-03-07T14:29:57.023Z</time>
      </trkpt>
      <trkpt lat="43.43402" lon="3.45011">
        <ele>44.6</ele>
        <time>2024-03-07T14:30:00.015Z</time>
      </trkpt>
      <trkpt lat="43.43411" lon="3.45019">
        <ele>44.6</ele>
        <time>2024-03-07T14:30:02.016Z</time>
      </trkpt>
      <trkpt lat="43.4342" lon="3.45026">
        <ele>44.5</ele>
        <time>2024-03-07T14:30:04.016Z</time>
      </trkpt>
      <trkpt lat="43.43428" lon="3.45031">
        <ele>44.3</ele>
        <time>2024-03-07T14:30:06.020Z</time>
      </trkpt>
      <trkpt lat="43.43439" lon="3.45041">
        <ele>44.2</ele>
        <time>2024-03-07T14:30:09.008Z</time>
      </trkpt>
      <trkpt lat="43.43446" lon="3.45053">
        <ele>44.5</ele>
        <time>2024-03-07T14:30:11.024Z</time>
      </trkpt>
      <trkpt lat="43.4345" lon="3.45067">
        <ele>44.7</ele>
        <time>2024-03-07T14:30:13.010Z</time>
      </trkpt>
      <trkpt lat="43.43454" lon="3.4508">
        <ele>44.7</ele>
        <time>2024-03-07T14:30:15.005Z</time>
      </trkpt>
      <trkpt lat="43.43456" lon="3.45094">
        <ele>44.7</ele>
        <time>2024-03-07T14:30:17.014Z</time>
      </trkpt>
      <trkpt lat="43.43461" lon="3.45107">
        <ele>43.9</ele>
        <time>2024-03-07T14:30:20.023Z</time>
      </trkpt>
      <trkpt lat="43.43463" lon="3.45122">
        <ele>43.4</ele>
        <time>2024-03-07T14:30:23.026Z</time>
      </trkpt>
      <trkpt lat="43.43461" lon="3.45134">
        <ele>43.4</ele>
        <time>2024-03-07T14:30:25.029Z</time>
      </trkpt>
      <trkpt lat="43.43459" lon="3.4515">
        <ele>43.4</ele>
        <time>2024-03-07T14:30:28.025Z</time>
      </trkpt>
      <trkpt lat="43.43456" lon="3.45163">
        <ele>43.8</ele>
        <time>2024-03-07T14:30:31.028Z</time>
      </trkpt>
      <trkpt lat="43.43447" lon="3.45174">
        <ele>44.2</ele>
        <time>2024-03-07T14:30:34.025Z</time>
      </trkpt>
      <trkpt lat="43.43441" lon="3.45188">
        <ele>44.1</ele>
        <time>2024-03-07T14:30:37.019Z</time>
      </trkpt>
      <trkpt lat="43.43434" lon="3.45201">
        <ele>44.7</ele>
        <time>2024-03-07T14:30:40.026Z</time>
      </trkpt>
      <trkpt lat="43.43426" lon="3.45211">
        <ele>45.5</ele>
        <time>2024-03-07T14:30:43.020Z</time>
      </trkpt>
      <trkpt lat="43.43419" lon="3.45223">
        <ele>45.7</ele>
        <time>2024-03-07T14:30:46.034Z</time>
      </trkpt>
      <trkpt lat="43.43413" lon="3.45234">
        <ele>45.3</ele>
        <time>2024-03-07T14:30:49.023Z</time>
      </trkpt>
      <trkpt lat="43.43411" lon="3.4525">
        <ele>44.4</ele>
        <time>2024-03-07T14:30:53.027Z</time>
      </trkpt>
      <trkpt lat="43.43416" lon="3.45263">
        <ele>44.5</ele>
        <time>2024-03-07T14:30:57.032Z</time>
      </trkpt>
      <trkpt lat="43.43421" lon="3.45273">
        <ele>44.8</ele>
        <time>2024-03-07T14:31:02.021Z</time>
      </trkpt>
      <trkpt lat="43.43427" lon="3.45284">
        <ele>45.6</ele>
        <time>2024-03-07T14:31:06.020Z</time>
      </trkpt>
      <trkpt lat="43.43434" lon="3.45294">
        <ele>46.9</ele>
        <time>2024-03-07T14:31:09.025Z</time>
      </trkpt>
      <trkpt lat="43.4344" lon="3.45305">
        <ele>48.6</ele>
        <time>2024-03-07T14:31:13.027Z</time>
      </trkpt>
      <trkpt lat="43.43447" lon="3.45315">
        <ele>49.5</ele>
        <time>2024-03-07T14:31:18.040Z</time>
      </trkpt>
      <trkpt lat="43.4345" lon="3.45327">
        <ele>50.6</ele>
        <time>2024-03-07T14:31:23.027Z</time>
      </trkpt>
      <trkpt lat="43.43451" lon="3.45342">
        <ele>51.8</ele>
        <time>2024-03-07T14:31:28.030Z</time>
      </trkpt>
      <trkpt lat="43.4345" lon="3.45354">
        <ele>52.4</ele>
        <time>2024-03-07T14:31:31.023Z</time>
      </trkpt>
      <trkpt lat="43.43454" lon="3.45369">
        <ele>53.5</ele>
        <time>2024-03-07T14:31:35.038Z</time>
      </trkpt>
      <trkpt lat="43.43461" lon="3.4538">
        <ele>54.3</ele>
        <time>2024-03-07T14:31:40.028Z</time>
      </trkpt>
      <trkpt lat="43.43462" lon="3.45394">
        <ele>54.4</ele>
        <time>2024-03-07T14:31:45.035Z</time>
      </trkpt>
      <trkpt lat="43.43457" lon="3.45407">
        <ele>54.6</ele>
        <time>2024-03-07T14:31:48.021Z</time>
      </trkpt>
      <trkpt lat="43.43456" lon="3.45421">
        <ele>54.9</ele>
        <time>2024-03-07T14:31:52.026Z</time>
      </trkpt>
      <trkpt lat="43.4345" lon="3.45433">
        <ele>54.8</ele>
        <time>2024-03-07T14:31:56.023Z</time>
      </trkpt>
      <trkpt lat="43.43444" lon="3.45441">
        <ele>55</ele>
        <time>2024-03-07T14:31:59.027Z</time>
      </trkpt>
      <trkpt lat="43.43438" lon="3.45451">
        <ele>55.2</ele>
        <time>2024-03-07T14:32:02.027Z</time>
      </trkpt>
      <trkpt lat="43.43433" lon="3.45464">
        <ele>54.8</ele>
        <time>2024-03-07T14:32:06.030Z</time>
      </trkpt>
      <trkpt lat="43.43426" lon="3.45478">
        <ele>54.5</ele>
        <time>2024-03-07T14:32:10.032Z</time>
      </trkpt>
      <trkpt lat="43.43416" lon="3.45487">
        <ele>54.4</ele>
        <time>2024-03-07T14:32:13.027Z</time>
      </trkpt>
      <trkpt lat="43.43408" lon="3.45495">
        <ele>54</ele>
        <time>2024-03-07T14:32:15.021Z</time>
      </trkpt>
      <trkpt lat="43.43401" lon="3.45503">
        <ele>54</ele>
        <time>2024-03-07T14:32:17.029Z</time>
      </trkpt>
      <trkpt lat="43.43393" lon="3.45512">
        <ele>54.3</ele>
        <time>2024-03-07T14:32:20.023Z</time>
      </trkpt>
      <trkpt lat="43.43381" lon="3.45516">
        <ele>54.5</ele>
        <time>2024-03-07T14:32:23.019Z</time>
      </trkpt>
      <trkpt lat="43.4337" lon="3.45519">
        <ele>54.5</ele>
        <time>2024-03-07T14:32:26.014Z</time>
      </trkpt>
      <trkpt lat="43.43357" lon="3.45525">
        <ele>54.7</ele>
        <time>2024-03-07T14:32:29.030Z</time>
      </trkpt>
      <trkpt lat="43.43349" lon="3.45529">
        <ele>54.7</ele>
        <time>2024-03-07T14:32:31.039Z</time>
      </trkpt>
      <trkpt lat="43.43337" lon="3.45533">
        <ele>54.8</ele>
        <time>2024-03-07T14:32:34.031Z</time>
      </trkpt>
      <trkpt lat="43.43328" lon="3.45538">
        <ele>55.3</ele>
        <time>2024-03-07T14:32:37.028Z</time>
      </trkpt>
      <trkpt lat="43.43321" lon="3.45549">
        <ele>56.4</ele>
        <time>2024-03-07T14:32:40.015Z</time>
      </trkpt>
      <trkpt lat="43.43317" lon="3.45561">
        <ele>57.1</ele>
        <time>2024-03-07T14:32:43.017Z</time>
      </trkpt>
      <trkpt lat="43.43311" lon="3.45574">
        <ele>57.6</ele>
        <time>2024-03-07T14:32:47.040Z</time>
      </trkpt>
      <trkpt lat="43.43307" lon="3.45587">
        <ele>58.3</ele>
        <time>2024-03-07T14:32:51.024Z</time>
      </trkpt>
      <trkpt lat="43.43303" lon="3.45602">
        <ele>59.3</ele>
        <time>2024-03-07T14:32:55.033Z</time>
      </trkpt>
      <trkpt lat="43.43297" lon="3.45614">
        <ele>60.2</ele>
        <time>2024-03-07T14:32:59.032Z</time>
      </trkpt>
      <trkpt lat="43.43289" lon="3.4562">
        <ele>60.6</ele>
        <time>2024-03-07T14:33:03.026Z</time>
      </trkpt>
      <trkpt lat="43.43282" lon="3.4563">
        <ele>61.4</ele>
        <time>2024-03-07T14:33:08.021Z</time>
      </trkpt>
      <trkpt lat="43.43273" lon="3.45624">
        <ele>61.3</ele>
        <time>2024-03-07T14:33:20.025Z</time>
      </trkpt>
      <trkpt lat="43.43272" lon="3.45638">
        <ele>62.5</ele>
        <time>2024-03-07T14:33:28.029Z</time>
      </trkpt>
      <trkpt lat="43.43276" lon="3.4565">
        <ele>63.1</ele>
        <time>2024-03-07T14:33:32.026Z</time>
      </trkpt>
      <trkpt lat="43.43279" lon="3.45664">
        <ele>63.8</ele>
        <time>2024-03-07T14:33:37.039Z</time>
      </trkpt>
      <trkpt lat="43.43285" lon="3.45676">
        <ele>64.6</ele>
        <time>2024-03-07T14:33:41.025Z</time>
      </trkpt>
      <trkpt lat="43.4329" lon="3.45687">
        <ele>65.1</ele>
        <time>2024-03-07T14:33:45.027Z</time>
      </trkpt>
      <trkpt lat="43.4329" lon="3.457">
        <ele>65.9</ele>
        <time>2024-03-07T14:33:49.036Z</time>
      </trkpt>
      <trkpt lat="43.43291" lon="3.45716">
        <ele>66.4</ele>
        <time>2024-03-07T14:33:54.028Z</time>
      </trkpt>
      <trkpt lat="43.43292" lon="3.45729">
        <ele>66.6</ele>
        <time>2024-03-07T14:33:58.033Z</time>
      </trkpt>
      <trkpt lat="43.43289" lon="3.45742">
        <ele>67.3</ele>
        <time>2024-03-07T14:34:02.020Z</time>
      </trkpt>
      <trkpt lat="43.43285" lon="3.45756">
        <ele>68</ele>
        <time>2024-03-07T14:34:06.029Z</time>
      </trkpt>
      <trkpt lat="43.43283" lon="3.4577">
        <ele>68.4</ele>
        <time>2024-03-07T14:34:10.019Z</time>
      </trkpt>
      <trkpt lat="43.43281" lon="3.45784">
        <ele>69</ele>
        <time>2024-03-07T14:34:14.017Z</time>
      </trkpt>
      <trkpt lat="43.43278" lon="3.45796">
        <ele>69.6</ele>
        <time>2024-03-07T14:34:17.021Z</time>
      </trkpt>
      <trkpt lat="43.43275" lon="3.45809">
        <ele>70.6</ele>
        <time>2024-03-07T14:34:20.027Z</time>
      </trkpt>
      <trkpt lat="43.43272" lon="3.45821">
        <ele>71.6</ele>
        <time>2024-03-07T14:34:24.022Z</time>
      </trkpt>
      <trkpt lat="43.43275" lon="3.45832">
        <ele>72</ele>
        <time>2024-03-07T14:34:29.022Z</time>
      </trkpt>
      <trkpt lat="43.43275" lon="3.45845">
        <ele>71.7</ele>
        <time>2024-03-07T14:34:33.035Z</time>
      </trkpt>
      <trkpt lat="43.43274" lon="3.45859">
        <ele>71.2</ele>
        <time>2024-03-07T14:34:36.036Z</time>
      </trkpt>
      <trkpt lat="43.43273" lon="3.45875">
        <ele>70.7</ele>
        <time>2024-03-07T14:34:39.014Z</time>
      </trkpt>
      <trkpt lat="43.43275" lon="3.4589">
        <ele>70.1</ele>
        <time>2024-03-07T14:34:42.024Z</time>
      </trkpt>
      <trkpt lat="43.43279" lon="3.45906">
        <ele>70.1</ele>
        <time>2024-03-07T14:34:45.023Z</time>
      </trkpt>
      <trkpt lat="43.43281" lon="3.45923">
        <ele>69.9</ele>
        <time>2024-03-07T14:34:48.033Z</time>
      </trkpt>
      <trkpt lat="43.43285" lon="3.45939">
        <ele>69.2</ele>
        <time>2024-03-07T14:34:51.027Z</time>
      </trkpt>
      <trkpt lat="43.43288" lon="3.4595">
        <ele>68.7</ele>
        <time>2024-03-07T14:34:53.021Z</time>
      </trkpt>
      <trkpt lat="43.43292" lon="3.45967">
        <ele>67.9</ele>
        <time>2024-03-07T14:34:56.023Z</time>
      </trkpt>
      <trkpt lat="43.43294" lon="3.45984">
        <ele>67.2</ele>
        <time>2024-03-07T14:34:59.023Z</time>
      </trkpt>
      <trkpt lat="43.43293" lon="3.46001">
        <ele>66.2</ele>
        <time>2024-03-07T14:35:02.016Z</time>
      </trkpt>
      <trkpt lat="43.43291" lon="3.46014">
        <ele>65.4</ele>
        <time>2024-03-07T14:35:04.021Z</time>
      </trkpt>
      <trkpt lat="43.43289" lon="3.46027">
        <ele>64.6</ele>
        <time>2024-03-07T14:35:06.026Z</time>
      </trkpt>
      <trkpt lat="43.43287" lon="3.46039">
        <ele>64.1</ele>
        <time>2024-03-07T14:35:08.028Z</time>
      </trkpt>
      <trkpt lat="43.43284" lon="3.46051">
        <ele>63.2</ele>
        <time>2024-03-07T14:35:10.023Z</time>
      </trkpt>
      <trkpt lat="43.4328" lon="3.46068">
        <ele>62.4</ele>
        <time>2024-03-07T14:35:13.019Z</time>
      </trkpt>
      <trkpt lat="43.4328" lon="3.46083">
        <ele>62.4</ele>
        <time>2024-03-07T14:35:15.029Z</time>
      </trkpt>
      <trkpt lat="43.43279" lon="3.46102">
        <ele>61.5</ele>
        <time>2024-03-07T14:35:17.026Z</time>
      </trkpt>
      <trkpt lat="43.43277" lon="3.46118">
        <ele>60.7</ele>
        <time>2024-03-07T14:35:19.034Z</time>
      </trkpt>
      <trkpt lat="43.43275" lon="3.46131">
        <ele>60.1</ele>
        <time>2024-03-07T14:35:21.034Z</time>
      </trkpt>
      <trkpt lat="43.43274" lon="3.46148">
        <ele>59.4</ele>
        <time>2024-03-07T14:35:24.021Z</time>
      </trkpt>
      <trkpt lat="43.43272" lon="3.46161">
        <ele>58.8</ele>
        <time>2024-03-07T14:35:26.045Z</time>
      </trkpt>
      <trkpt lat="43.43271" lon="3.46174">
        <ele>58.9</ele>
        <time>2024-03-07T14:35:28.020Z</time>
      </trkpt>
      <trkpt lat="43.43267" lon="3.46192">
        <ele>59.3</ele>
        <time>2024-03-07T14:35:31.030Z</time>
      </trkpt>
      <trkpt lat="43.43262" lon="3.46209">
        <ele>59</ele>
        <time>2024-03-07T14:35:34.032Z</time>
      </trkpt>
      <trkpt lat="43.43258" lon="3.46222">
        <ele>58.4</ele>
        <time>2024-03-07T14:35:36.033Z</time>
      </trkpt>
      <trkpt lat="43.43254" lon="3.4624">
        <ele>57.8</ele>
        <time>2024-03-07T14:35:39.033Z</time>
      </trkpt>
      <trkpt lat="43.43249" lon="3.46257">
        <ele>57.1</ele>
        <time>2024-03-07T14:35:42.052Z</time>
      </trkpt>
      <trkpt lat="43.43246" lon="3.4627">
        <ele>57.1</ele>
        <time>2024-03-07T14:35:44.027Z</time>
      </trkpt>
      <trkpt lat="43.43243" lon="3.46281">
        <ele>56.7</ele>
        <time>2024-03-07T14:35:46.021Z</time>
      </trkpt>
      <trkpt lat="43.43239" lon="3.46295">
        <ele>56</ele>
        <time>2024-03-07T14:35:49.022Z</time>
      </trkpt>
      <trkpt lat="43.43237" lon="3.46311">
        <ele>55.6</ele>
        <time>2024-03-07T14:35:52.022Z</time>
      </trkpt>
      <trkpt lat="43.43237" lon="3.46329">
        <ele>55.2</ele>
        <time>2024-03-07T14:35:55.033Z</time>
      </trkpt>
      <trkpt lat="43.43234" lon="3.46348">
        <ele>54.7</ele>
        <time>2024-03-07T14:35:58.029Z</time>
      </trkpt>
      <trkpt lat="43.43232" lon="3.4636">
        <ele>54.4</ele>
        <time>2024-03-07T14:36:00.036Z</time>
      </trkpt>
      <trkpt lat="43.43228" lon="3.46377">
        <ele>54.4</ele>
        <time>2024-03-07T14:36:03.031Z</time>
      </trkpt>
      <trkpt lat="43.43225" lon="3.46389">
        <ele>54.4</ele>
        <time>2024-03-07T14:36:05.022Z</time>
      </trkpt>
      <trkpt lat="43.43218" lon="3.46398">
        <ele>53.9</ele>
        <time>2024-03-07T14:36:07.036Z</time>
      </trkpt>
      <trkpt lat="43.43208" lon="3.46408">
        <ele>53.2</ele>
        <time>2024-03-07T14:36:10.023Z</time>
      </trkpt>
      <trkpt lat="43.43202" lon="3.46418">
        <ele>52.9</ele>
        <time>2024-03-07T14:36:13.020Z</time>
      </trkpt>
      <trkpt lat="43.432" lon="3.46431">
        <ele>53</ele>
        <time>2024-03-07T14:36:16.022Z</time>
      </trkpt>
      <trkpt lat="43.43195" lon="3.46445">
        <ele>53</ele>
        <time>2024-03-07T14:36:19.025Z</time>
      </trkpt>
      <trkpt lat="43.43192" lon="3.46456">
        <ele>52.8</ele>
        <time>2024-03-07T14:36:22.058Z</time>
      </trkpt>
      <trkpt lat="43.43188" lon="3.46469">
        <ele>52.5</ele>
        <time>2024-03-07T14:36:27.033Z</time>
      </trkpt>
      <trkpt lat="43.43184" lon="3.46481">
        <ele>52.6</ele>
        <time>2024-03-07T14:36:35.025Z</time>
      </trkpt>
      <trkpt lat="43.4318" lon="3.46493">
        <ele>52.7</ele>
        <time>2024-03-07T14:36:41.049Z</time>
      </trkpt>
      <trkpt lat="43.43175" lon="3.46505">
        <ele>52.7</ele>
        <time>2024-03-07T14:36:47.027Z</time>
      </trkpt>
      <trkpt lat="43.43169" lon="3.46517">
        <ele>52.2</ele>
        <time>2024-03-07T14:36:53.033Z</time>
      </trkpt>
      <trkpt lat="43.43161" lon="3.46542">
        <ele>52.2</ele>
        <time>2024-03-07T14:37:26.043Z</time>
      </trkpt>
      <trkpt lat="43.43159" lon="3.46557">
        <ele>52.5</ele>
        <time>2024-03-07T14:37:30.017Z</time>
      </trkpt>
      <trkpt lat="43.43155" lon="3.46569">
        <ele>52.9</ele>
        <time>2024-03-07T14:37:33.043Z</time>
      </trkpt>
      <trkpt lat="43.43149" lon="3.46582">
        <ele>53</ele>
        <time>2024-03-07T14:37:36.022Z</time>
      </trkpt>
      <trkpt lat="43.43145" lon="3.46596">
        <ele>53.1</ele>
        <time>2024-03-07T14:37:39.035Z</time>
      </trkpt>
      <trkpt lat="43.43142" lon="3.46609">
        <ele>53.3</ele>
        <time>2024-03-07T14:37:42.037Z</time>
      </trkpt>
      <trkpt lat="43.43138" lon="3.46624">
        <ele>52.9</ele>
        <time>2024-03-07T14:37:45.027Z</time>
      </trkpt>
      <trkpt lat="43.43135" lon="3.46639">
        <ele>52.6</ele>
        <time>2024-03-07T14:37:48.025Z</time>
      </trkpt>
      <trkpt lat="43.43132" lon="3.46654">
        <ele>52.7</ele>
        <time>2024-03-07T14:37:51.026Z</time>
      </trkpt>
      <trkpt lat="43.4313" lon="3.46668">
        <ele>52.7</ele>
        <time>2024-03-07T14:37:54.028Z</time>
      </trkpt>
      <trkpt lat="43.43129" lon="3.46682">
        <ele>52.4</ele>
        <time>2024-03-07T14:37:57.040Z</time>
      </trkpt>
      <trkpt lat="43.43131" lon="3.46695">
        <ele>52.6</ele>
        <time>2024-03-07T14:38:00.024Z</time>
      </trkpt>
      <trkpt lat="43.43138" lon="3.46704">
        <ele>54.2</ele>
        <time>2024-03-07T14:38:03.016Z</time>
      </trkpt>
      <trkpt lat="43.43149" lon="3.46714">
        <ele>55.9</ele>
        <time>2024-03-07T14:38:06.023Z</time>
      </trkpt>
      <trkpt lat="43.4316" lon="3.46724">
        <ele>57.2</ele>
        <time>2024-03-07T14:38:09.032Z</time>
      </trkpt>
      <trkpt lat="43.43169" lon="3.46728">
        <ele>57.6</ele>
        <time>2024-03-07T14:38:11.028Z</time>
      </trkpt>
      <trkpt lat="43.43181" lon="3.46723">
        <ele>58.4</ele>
        <time>2024-03-07T14:38:14.022Z</time>
      </trkpt>
      <trkpt lat="43.43189" lon="3.46717">
        <ele>59.1</ele>
        <time>2024-03-07T14:38:16.024Z</time>
      </trkpt>
      <trkpt lat="43.43197" lon="3.4671">
        <ele>59.9</ele>
        <time>2024-03-07T14:38:18.035Z</time>
      </trkpt>
      <trkpt lat="43.43208" lon="3.467">
        <ele>61.2</ele>
        <time>2024-03-07T14:38:21.022Z</time>
      </trkpt>
      <trkpt lat="43.43215" lon="3.46691">
        <ele>62.5</ele>
        <time>2024-03-07T14:38:24.025Z</time>
      </trkpt>
      <trkpt lat="43.43222" lon="3.46682">
        <ele>63</ele>
        <time>2024-03-07T14:38:27.032Z</time>
      </trkpt>
      <trkpt lat="43.43229" lon="3.46672">
        <ele>62.2</ele>
        <time>2024-03-07T14:38:30.029Z</time>
      </trkpt>
      <trkpt lat="43.43236" lon="3.46661">
        <ele>61.9</ele>
        <time>2024-03-07T14:38:33.025Z</time>
      </trkpt>
      <trkpt lat="43.43243" lon="3.46652">
        <ele>62.3</ele>
        <time>2024-03-07T14:38:36.016Z</time>
      </trkpt>
      <trkpt lat="43.43251" lon="3.46642">
        <ele>63.5</ele>
        <time>2024-03-07T14:38:39.027Z</time>
      </trkpt>
      <trkpt lat="43.43258" lon="3.46633">
        <ele>63.8</ele>
        <time>2024-03-07T14:38:42.037Z</time>
      </trkpt>
      <trkpt lat="43.43266" lon="3.46626">
        <ele>64.1</ele>
        <time>2024-03-07T14:38:45.024Z</time>
      </trkpt>
      <trkpt lat="43.43275" lon="3.4662">
        <ele>64.7</ele>
        <time>2024-03-07T14:38:48.028Z</time>
      </trkpt>
      <trkpt lat="43.43285" lon="3.46614">
        <ele>64.8</ele>
        <time>2024-03-07T14:38:51.026Z</time>
      </trkpt>
      <trkpt lat="43.43293" lon="3.46608">
        <ele>64.4</ele>
        <time>2024-03-07T14:38:54.018Z</time>
      </trkpt>
      <trkpt lat="43.43301" lon="3.46598">
        <ele>64.2</ele>
        <time>2024-03-07T14:38:57.035Z</time>
      </trkpt>
      <trkpt lat="43.43308" lon="3.46587">
        <ele>64.6</ele>
        <time>2024-03-07T14:39:00.028Z</time>
      </trkpt>
      <trkpt lat="43.43316" lon="3.46576">
        <ele>64.9</ele>
        <time>2024-03-07T14:39:03.035Z</time>
      </trkpt>
      <trkpt lat="43.43323" lon="3.46566">
        <ele>65.9</ele>
        <time>2024-03-07T14:39:07.034Z</time>
      </trkpt>
      <trkpt lat="43.43331" lon="3.46556">
        <ele>67.8</ele>
        <time>2024-03-07T14:39:11.029Z</time>
      </trkpt>
      <trkpt lat="43.43339" lon="3.46546">
        <ele>67.9</ele>
        <time>2024-03-07T14:39:15.036Z</time>
      </trkpt>
      <trkpt lat="43.43348" lon="3.46543">
        <ele>67.6</ele>
        <time>2024-03-07T14:39:19.029Z</time>
      </trkpt>
      <trkpt lat="43.43358" lon="3.46538">
        <ele>67.7</ele>
        <time>2024-03-07T14:39:24.034Z</time>
      </trkpt>
      <trkpt lat="43.43367" lon="3.46531">
        <ele>67.7</ele>
        <time>2024-03-07T14:39:30.025Z</time>
      </trkpt>
      <trkpt lat="43.43377" lon="3.46522">
        <ele>67.3</ele>
        <time>2024-03-07T14:39:35.024Z</time>
      </trkpt>
      <trkpt lat="43.43384" lon="3.46514">
        <ele>67.2</ele>
        <time>2024-03-07T14:39:38.022Z</time>
      </trkpt>
      <trkpt lat="43.43393" lon="3.46505">
        <ele>66.9</ele>
        <time>2024-03-07T14:39:41.023Z</time>
      </trkpt>
      <trkpt lat="43.43404" lon="3.46498">
        <ele>65.9</ele>
        <time>2024-03-07T14:39:44.022Z</time>
      </trkpt>
      <trkpt lat="43.43413" lon="3.46495">
        <ele>64.7</ele>
        <time>2024-03-07T14:39:46.032Z</time>
      </trkpt>
      <trkpt lat="43.43423" lon="3.46494">
        <ele>63.3</ele>
        <time>2024-03-07T14:39:48.026Z</time>
      </trkpt>
      <trkpt lat="43.43433" lon="3.46495">
        <ele>61.7</ele>
        <time>2024-03-07T14:39:50.026Z</time>
      </trkpt>
      <trkpt lat="43.43441" lon="3.46503">
        <ele>60.4</ele>
        <time>2024-03-07T14:39:52.034Z</time>
      </trkpt>
      <trkpt lat="43.43445" lon="3.46515">
        <ele>59.4</ele>
        <time>2024-03-07T14:39:54.002Z</time>
      </trkpt>
      <trkpt lat="43.43447" lon="3.46529">
        <ele>58.6</ele>
        <time>2024-03-07T14:39:56.032Z</time>
      </trkpt>
      <trkpt lat="43.43447" lon="3.46542">
        <ele>58.7</ele>
        <time>2024-03-07T14:39:58.068Z</time>
      </trkpt>
      <trkpt lat="43.43449" lon="3.46556">
        <ele>58.5</ele>
        <time>2024-03-07T14:39:59.995Z</time>
      </trkpt>
      <trkpt lat="43.4345" lon="3.46571">
        <ele>58</ele>
        <time>2024-03-07T14:40:02.022Z</time>
      </trkpt>
      <trkpt lat="43.43452" lon="3.46586">
        <ele>57.5</ele>
        <time>2024-03-07T14:40:04.007Z</time>
      </trkpt>
      <trkpt lat="43.43453" lon="3.46602">
        <ele>57.4</ele>
        <time>2024-03-07T14:40:06.001Z</time>
      </trkpt>
      <trkpt lat="43.43454" lon="3.46617">
        <ele>57.2</ele>
        <time>2024-03-07T14:40:07.999Z</time>
      </trkpt>
      <trkpt lat="43.43455" lon="3.46633">
        <ele>56.8</ele>
        <time>2024-03-07T14:40:10.005Z</time>
      </trkpt>
      <trkpt lat="43.43456" lon="3.46651">
        <ele>56.3</ele>
        <time>2024-03-07T14:40:12.014Z</time>
      </trkpt>
      <trkpt lat="43.43456" lon="3.46669">
        <ele>55.9</ele>
        <time>2024-03-07T14:40:14.020Z</time>
      </trkpt>
      <trkpt lat="43.43457" lon="3.46688">
        <ele>55.2</ele>
        <time>2024-03-07T14:40:15.980Z</time>
      </trkpt>
      <trkpt lat="43.43459" lon="3.46706">
        <ele>54.8</ele>
        <time>2024-03-07T14:40:18.005Z</time>
      </trkpt>
      <trkpt lat="43.43461" lon="3.46723">
        <ele>54.6</ele>
        <time>2024-03-07T14:40:20.002Z</time>
      </trkpt>
      <trkpt lat="43.43462" lon="3.46739">
        <ele>54.3</ele>
        <time>2024-03-07T14:40:22.016Z</time>
      </trkpt>
      <trkpt lat="43.43465" lon="3.46754">
        <ele>54</ele>
        <time>2024-03-07T14:40:24.023Z</time>
      </trkpt>
      <trkpt lat="43.43469" lon="3.46768">
        <ele>53.9</ele>
        <time>2024-03-07T14:40:26.033Z</time>
      </trkpt>
      <trkpt lat="43.43474" lon="3.4678">
        <ele>54</ele>
        <time>2024-03-07T14:40:28.024Z</time>
      </trkpt>
      <trkpt lat="43.43479" lon="3.46791">
        <ele>53.9</ele>
        <time>2024-03-07T14:40:30.059Z</time>
      </trkpt>
      <trkpt lat="43.43483" lon="3.46803">
        <ele>53.6</ele>
        <time>2024-03-07T14:40:32.028Z</time>
      </trkpt>
      <trkpt lat="43.43487" lon="3.46816">
        <ele>53.5</ele>
        <time>2024-03-07T14:40:34.031Z</time>
      </trkpt>
      <trkpt lat="43.43488" lon="3.4683">
        <ele>53.6</ele>
        <time>2024-03-07T14:40:36.028Z</time>
      </trkpt>
      <trkpt lat="43.43486" lon="3.46845">
        <ele>53.5</ele>
        <time>2024-03-07T14:40:39.028Z</time>
      </trkpt>
      <trkpt lat="43.43484" lon="3.46859">
        <ele>53.4</ele>
        <time>2024-03-07T14:40:43.029Z</time>
      </trkpt>
      <trkpt lat="43.43485" lon="3.46873">
        <ele>53.7</ele>
        <time>2024-03-07T14:40:46.028Z</time>
      </trkpt>
      <trkpt lat="43.43484" lon="3.46886">
        <ele>53.8</ele>
        <time>2024-03-07T14:40:48.022Z</time>
      </trkpt>
      <trkpt lat="43.43486" lon="3.46899">
        <ele>54.4</ele>
        <time>2024-03-07T14:40:50.035Z</time>
      </trkpt>
      <trkpt lat="43.43486" lon="3.46916">
        <ele>55</ele>
        <time>2024-03-07T14:40:53.026Z</time>
      </trkpt>
      <trkpt lat="43.43476" lon="3.46927">
        <ele>54.6</ele>
        <time>2024-03-07T14:40:56.030Z</time>
      </trkpt>
      <trkpt lat="43.43472" lon="3.46943">
        <ele>54.9</ele>
        <time>2024-03-07T14:40:59.023Z</time>
      </trkpt>
      <trkpt lat="43.4347" lon="3.46959">
        <ele>54.8</ele>
        <time>2024-03-07T14:41:02.025Z</time>
      </trkpt>
      <trkpt lat="43.43465" lon="3.4697">
        <ele>54.5</ele>
        <time>2024-03-07T14:41:05.029Z</time>
      </trkpt>
      <trkpt lat="43.43455" lon="3.46978">
        <ele>53.8</ele>
        <time>2024-03-07T14:41:09.027Z</time>
      </trkpt>
      <trkpt lat="43.43447" lon="3.46985">
        <ele>53.2</ele>
        <time>2024-03-07T14:41:12.021Z</time>
      </trkpt>
      <trkpt lat="43.43438" lon="3.46994">
        <ele>52.5</ele>
        <time>2024-03-07T14:41:15.023Z</time>
      </trkpt>
      <trkpt lat="43.43426" lon="3.47001">
        <ele>51.7</ele>
        <time>2024-03-07T14:41:19.025Z</time>
      </trkpt>
      <trkpt lat="43.4342" lon="3.4701">
        <ele>51.2</ele>
        <time>2024-03-07T14:41:21.020Z</time>
      </trkpt>
      <trkpt lat="43.43417" lon="3.47023">
        <ele>51</ele>
        <time>2024-03-07T14:41:24.021Z</time>
      </trkpt>
      <trkpt lat="43.43418" lon="3.47037">
        <ele>51.4</ele>
        <time>2024-03-07T14:41:32.031Z</time>
      </trkpt>
      <trkpt lat="43.43411" lon="3.47046">
        <ele>51.1</ele>
        <time>2024-03-07T14:41:39.029Z</time>
      </trkpt>
      <trkpt lat="43.43409" lon="3.47066">
        <ele>51.3</ele>
        <time>2024-03-07T14:42:16.037Z</time>
      </trkpt>
      <trkpt lat="43.43406" lon="3.47078">
        <ele>51.2</ele>
        <time>2024-03-07T14:42:19.029Z</time>
      </trkpt>
      <trkpt lat="43.43406" lon="3.47093">
        <ele>51.2</ele>
        <time>2024-03-07T14:42:22.028Z</time>
      </trkpt>
      <trkpt lat="43.43414" lon="3.471">
        <ele>51.8</ele>
        <time>2024-03-07T14:42:28.029Z</time>
      </trkpt>
      <trkpt lat="43.43423" lon="3.47111">
        <ele>52.7</ele>
        <time>2024-03-07T14:42:41.043Z</time>
      </trkpt>
      <trkpt lat="43.43431" lon="3.4712">
        <ele>53.4</ele>
        <time>2024-03-07T14:42:45.042Z</time>
      </trkpt>
      <trkpt lat="43.43433" lon="3.47136">
        <ele>53.2</ele>
        <time>2024-03-07T14:42:49.037Z</time>
      </trkpt>
      <trkpt lat="43.4344" lon="3.47144">
        <ele>53.3</ele>
        <time>2024-03-07T14:42:53.029Z</time>
      </trkpt>
      <trkpt lat="43.43449" lon="3.47139">
        <ele>54.2</ele>
        <time>2024-03-07T14:42:57.049Z</time>
      </trkpt>
      <trkpt lat="43.43457" lon="3.47129">
        <ele>54.8</ele>
        <time>2024-03-07T14:43:01.023Z</time>
      </trkpt>
      <trkpt lat="43.43463" lon="3.47119">
        <ele>55.4</ele>
        <time>2024-03-07T14:43:06.030Z</time>
      </trkpt>
      <trkpt lat="43.43469" lon="3.4711">
        <ele>55.9</ele>
        <time>2024-03-07T14:43:12.035Z</time>
      </trkpt>
      <trkpt lat="43.43481" lon="3.47107">
        <ele>56.5</ele>
        <time>2024-03-07T14:43:17.022Z</time>
      </trkpt>
      <trkpt lat="43.43488" lon="3.47113">
        <ele>56.5</ele>
        <time>2024-03-07T14:43:20.025Z</time>
      </trkpt>
      <trkpt lat="43.43495" lon="3.47123">
        <ele>56.4</ele>
        <time>2024-03-07T14:43:23.023Z</time>
      </trkpt>
      <trkpt lat="43.43502" lon="3.47132">
        <ele>56.3</ele>
        <time>2024-03-07T14:43:26.021Z</time>
      </trkpt>
      <trkpt lat="43.43511" lon="3.47145">
        <ele>56.4</ele>
        <time>2024-03-07T14:43:29.022Z</time>
      </trkpt>
      <trkpt lat="43.43519" lon="3.47155">
        <ele>56.7</ele>
        <time>2024-03-07T14:43:32.032Z</time>
      </trkpt>
      <trkpt lat="43.43527" lon="3.47166">
        <ele>57</ele>
        <time>2024-03-07T14:43:35.023Z</time>
      </trkpt>
      <trkpt lat="43.43534" lon="3.47176">
        <ele>57.3</ele>
        <time>2024-03-07T14:43:38.032Z</time>
      </trkpt>
      <trkpt lat="43.43542" lon="3.47184">
        <ele>57.6</ele>
        <time>2024-03-07T14:43:42.042Z</time>
      </trkpt>
      <trkpt lat="43.43547" lon="3.47195">
        <ele>58</ele>
        <time>2024-03-07T14:43:54.031Z</time>
      </trkpt>
      <trkpt lat="43.4355" lon="3.47217">
        <ele>58.8</ele>
        <time>2024-03-07T14:44:26.028Z</time>
      </trkpt>
      <trkpt lat="43.4355" lon="3.47233">
        <ele>59</ele>
        <time>2024-03-07T14:44:29.032Z</time>
      </trkpt>
      <trkpt lat="43.4355" lon="3.47248">
        <ele>59</ele>
        <time>2024-03-07T14:44:32.021Z</time>
      </trkpt>
      <trkpt lat="43.4355" lon="3.47264">
        <ele>59.1</ele>
        <time>2024-03-07T14:44:35.038Z</time>
      </trkpt>
      <trkpt lat="43.43549" lon="3.47281">
        <ele>59.3</ele>
        <time>2024-03-07T14:44:38.033Z</time>
      </trkpt>
      <trkpt lat="43.43548" lon="3.47297">
        <ele>59.8</ele>
        <time>2024-03-07T14:44:41.025Z</time>
      </trkpt>
      <trkpt lat="43.43546" lon="3.47311">
        <ele>60.1</ele>
        <time>2024-03-07T14:44:44.021Z</time>
      </trkpt>
      <trkpt lat="43.43546" lon="3.47325">
        <ele>60.2</ele>
        <time>2024-03-07T14:44:47.028Z</time>
      </trkpt>
      <trkpt lat="43.43545" lon="3.47339">
        <ele>60.6</ele>
        <time>2024-03-07T14:44:50.031Z</time>
      </trkpt>
      <trkpt lat="43.43544" lon="3.47353">
        <ele>61.1</ele>
        <time>2024-03-07T14:44:53.035Z</time>
      </trkpt>
      <trkpt lat="43.43546" lon="3.47369">
        <ele>61.3</ele>
        <time>2024-03-07T14:44:56.034Z</time>
      </trkpt>
      <trkpt lat="43.4355" lon="3.47382">
        <ele>61.2</ele>
        <time>2024-03-07T14:44:59.030Z</time>
      </trkpt>
      <trkpt lat="43.43556" lon="3.47395">
        <ele>61.4</ele>
        <time>2024-03-07T14:45:02.022Z</time>
      </trkpt>
      <trkpt lat="43.43561" lon="3.47408">
        <ele>62.1</ele>
        <time>2024-03-07T14:45:05.018Z</time>
      </trkpt>
      <trkpt lat="43.43565" lon="3.47421">
        <ele>62.4</ele>
        <time>2024-03-07T14:45:08.026Z</time>
      </trkpt>
      <trkpt lat="43.43571" lon="3.47434">
        <ele>62.2</ele>
        <time>2024-03-07T14:45:11.035Z</time>
      </trkpt>
      <trkpt lat="43.43579" lon="3.47443">
        <ele>62.1</ele>
        <time>2024-03-07T14:45:14.034Z</time>
      </trkpt>
      <trkpt lat="43.43589" lon="3.47449">
        <ele>61.8</ele>
        <time>2024-03-07T14:45:17.027Z</time>
      </trkpt>
      <trkpt lat="43.43599" lon="3.47453">
        <ele>61.6</ele>
        <time>2024-03-07T14:45:20.027Z</time>
      </trkpt>
      <trkpt lat="43.43611" lon="3.47457">
        <ele>61.5</ele>
        <time>2024-03-07T14:45:23.030Z</time>
      </trkpt>
      <trkpt lat="43.43622" lon="3.47461">
        <ele>61.8</ele>
        <time>2024-03-07T14:45:26.025Z</time>
      </trkpt>
      <trkpt lat="43.43632" lon="3.47467">
        <ele>62</ele>
        <time>2024-03-07T14:45:29.034Z</time>
      </trkpt>
      <trkpt lat="43.43643" lon="3.47472">
        <ele>62</ele>
        <time>2024-03-07T14:45:32.030Z</time>
      </trkpt>
      <trkpt lat="43.43654" lon="3.47477">
        <ele>62</ele>
        <time>2024-03-07T14:45:35.028Z</time>
      </trkpt>
      <trkpt lat="43.43666" lon="3.47484">
        <ele>62</ele>
        <time>2024-03-07T14:45:38.034Z</time>
      </trkpt>
      <trkpt lat="43.43675" lon="3.47494">
        <ele>62.4</ele>
        <time>2024-03-07T14:45:41.031Z</time>
      </trkpt>
      <trkpt lat="43.43684" lon="3.47507">
        <ele>62.6</ele>
        <time>2024-03-07T14:45:44.023Z</time>
      </trkpt>
      <trkpt lat="43.43693" lon="3.4752">
        <ele>62.9</ele>
        <time>2024-03-07T14:45:47.036Z</time>
      </trkpt>
      <trkpt lat="43.43704" lon="3.47529">
        <ele>63.4</ele>
        <time>2024-03-07T14:45:50.020Z</time>
      </trkpt>
      <trkpt lat="43.43716" lon="3.47538">
        <ele>64.1</ele>
        <time>2024-03-07T14:45:53.023Z</time>
      </trkpt>
      <trkpt lat="43.43727" lon="3.47546">
        <ele>64.8</ele>
        <time>2024-03-07T14:45:56.026Z</time>
      </trkpt>
      <trkpt lat="43.43739" lon="3.47553">
        <ele>65.5</ele>
        <time>2024-03-07T14:45:59.030Z</time>
      </trkpt>
      <trkpt lat="43.43751" lon="3.47562">
        <ele>66.2</ele>
        <time>2024-03-07T14:46:02.031Z</time>
      </trkpt>
      <trkpt lat="43.43762" lon="3.4757">
        <ele>66.3</ele>
        <time>2024-03-07T14:46:05.032Z</time>
      </trkpt>
      <trkpt lat="43.43774" lon="3.47578">
        <ele>66.1</ele>
        <time>2024-03-07T14:46:08.029Z</time>
      </trkpt>
      <trkpt lat="43.43786" lon="3.47586">
        <ele>66.1</ele>
        <time>2024-03-07T14:46:11.039Z</time>
      </trkpt>
      <trkpt lat="43.43797" lon="3.47594">
        <ele>66.6</ele>
        <time>2024-03-07T14:46:14.032Z</time>
      </trkpt>
      <trkpt lat="43.43809" lon="3.47601">
        <ele>67.2</ele>
        <time>2024-03-07T14:46:17.017Z</time>
      </trkpt>
      <trkpt lat="43.4382" lon="3.47608">
        <ele>67.3</ele>
        <time>2024-03-07T14:46:20.020Z</time>
      </trkpt>
      <trkpt lat="43.43829" lon="3.47618">
        <ele>67.4</ele>
        <time>2024-03-07T14:46:23.031Z</time>
      </trkpt>
      <trkpt lat="43.43841" lon="3.47625">
        <ele>67.5</ele>
        <time>2024-03-07T14:46:26.028Z</time>
      </trkpt>
      <trkpt lat="43.43853" lon="3.47623">
        <ele>67.4</ele>
        <time>2024-03-07T14:46:29.023Z</time>
      </trkpt>
      <trkpt lat="43.43865" lon="3.47615">
        <ele>67.1</ele>
        <time>2024-03-07T14:46:32.027Z</time>
      </trkpt>
      <trkpt lat="43.43876" lon="3.47607">
        <ele>66.9</ele>
        <time>2024-03-07T14:46:35.031Z</time>
      </trkpt>
      <trkpt lat="43.43887" lon="3.47602">
        <ele>66.7</ele>
        <time>2024-03-07T14:46:38.031Z</time>
      </trkpt>
      <trkpt lat="43.43898" lon="3.47606">
        <ele>67.1</ele>
        <time>2024-03-07T14:46:41.036Z</time>
      </trkpt>
      <trkpt lat="43.43904" lon="3.47622">
        <ele>67.7</ele>
        <time>2024-03-07T14:46:44.019Z</time>
      </trkpt>
      <trkpt lat="43.43906" lon="3.47637">
        <ele>68</ele>
        <time>2024-03-07T14:46:47.032Z</time>
      </trkpt>
      <trkpt lat="43.43909" lon="3.47653">
        <ele>68.4</ele>
        <time>2024-03-07T14:46:50.034Z</time>
      </trkpt>
      <trkpt lat="43.43912" lon="3.47669">
        <ele>68.8</ele>
        <time>2024-03-07T14:46:53.036Z</time>
      </trkpt>
      <trkpt lat="43.43915" lon="3.47685">
        <ele>68.9</ele>
        <time>2024-03-07T14:46:56.027Z</time>
      </trkpt>
      <trkpt lat="43.43918" lon="3.47699">
        <ele>69</ele>
        <time>2024-03-07T14:46:59.030Z</time>
      </trkpt>
      <trkpt lat="43.43923" lon="3.47713">
        <ele>69.2</ele>
        <time>2024-03-07T14:47:02.023Z</time>
      </trkpt>
      <trkpt lat="43.43931" lon="3.47722">
        <ele>69.5</ele>
        <time>2024-03-07T14:47:05.029Z</time>
      </trkpt>
      <trkpt lat="43.4394" lon="3.47726">
        <ele>70</ele>
        <time>2024-03-07T14:47:08.024Z</time>
      </trkpt>
      <trkpt lat="43.43949" lon="3.47731">
        <ele>70.2</ele>
        <time>2024-03-07T14:47:11.026Z</time>
      </trkpt>
      <trkpt lat="43.43958" lon="3.4774">
        <ele>70.5</ele>
        <time>2024-03-07T14:47:14.063Z</time>
      </trkpt>
      <trkpt lat="43.43968" lon="3.47748">
        <ele>70.9</ele>
        <time>2024-03-07T14:47:17.030Z</time>
      </trkpt>
      <trkpt lat="43.43981" lon="3.47746">
        <ele>71</ele>
        <time>2024-03-07T14:47:20.029Z</time>
      </trkpt>
      <trkpt lat="43.43994" lon="3.47743">
        <ele>71.1</ele>
        <time>2024-03-07T14:47:23.036Z</time>
      </trkpt>
      <trkpt lat="43.44007" lon="3.4774">
        <ele>71</ele>
        <time>2024-03-07T14:47:26.025Z</time>
      </trkpt>
      <trkpt lat="43.44018" lon="3.47736">
        <ele>70.8</ele>
        <time>2024-03-07T14:47:29.017Z</time>
      </trkpt>
      <trkpt lat="43.4403" lon="3.47733">
        <ele>70.8</ele>
        <time>2024-03-07T14:47:32.012Z</time>
      </trkpt>
      <trkpt lat="43.44042" lon="3.47731">
        <ele>71</ele>
        <time>2024-03-07T14:47:35.038Z</time>
      </trkpt>
      <trkpt lat="43.44053" lon="3.47731">
        <ele>71.3</ele>
        <time>2024-03-07T14:47:38.023Z</time>
      </trkpt>
      <trkpt lat="43.44064" lon="3.47731">
        <ele>71.6</ele>
        <time>2024-03-07T14:47:41.018Z</time>
      </trkpt>
      <trkpt lat="43.44075" lon="3.47731">
        <ele>72</ele>
        <time>2024-03-07T14:47:44.008Z</time>
      </trkpt>
      <trkpt lat="43.44086" lon="3.4773">
        <ele>72.4</ele>
        <time>2024-03-07T14:47:47.036Z</time>
      </trkpt>
      <trkpt lat="43.44095" lon="3.4773">
        <ele>72.8</ele>
        <time>2024-03-07T14:47:50.032Z</time>
      </trkpt>
      <trkpt lat="43.44106" lon="3.47733">
        <ele>73.5</ele>
        <time>2024-03-07T14:47:54.036Z</time>
      </trkpt>
      <trkpt lat="43.44115" lon="3.47742">
        <ele>74.7</ele>
        <time>2024-03-07T14:47:58.031Z</time>
      </trkpt>
      <trkpt lat="43.44116" lon="3.47755">
        <ele>75.5</ele>
        <time>2024-03-07T14:48:01.034Z</time>
      </trkpt>
      <trkpt lat="43.44113" lon="3.47768">
        <ele>75.8</ele>
        <time>2024-03-07T14:48:04.022Z</time>
      </trkpt>
      <trkpt lat="43.44112" lon="3.47784">
        <ele>76.1</ele>
        <time>2024-03-07T14:48:08.023Z</time>
      </trkpt>
      <trkpt lat="43.44114" lon="3.47796">
        <ele>76.3</ele>
        <time>2024-03-07T14:48:11.036Z</time>
      </trkpt>
      <trkpt lat="43.44119" lon="3.47808">
        <ele>76.9</ele>
        <time>2024-03-07T14:48:14.035Z</time>
      </trkpt>
      <trkpt lat="43.44126" lon="3.47823">
        <ele>77.9</ele>
        <time>2024-03-07T14:48:17.028Z</time>
      </trkpt>
      <trkpt lat="43.44129" lon="3.47838">
        <ele>78.4</ele>
        <time>2024-03-07T14:48:19.026Z</time>
      </trkpt>
      <trkpt lat="43.44134" lon="3.4785">
        <ele>78.9</ele>
        <time>2024-03-07T14:48:21.031Z</time>
      </trkpt>
      <trkpt lat="43.44143" lon="3.47861">
        <ele>79.1</ele>
        <time>2024-03-07T14:48:24.016Z</time>
      </trkpt>
      <trkpt lat="43.44149" lon="3.47874">
        <ele>79.7</ele>
        <time>2024-03-07T14:48:27.025Z</time>
      </trkpt>
      <trkpt lat="43.44155" lon="3.47885">
        <ele>79.9</ele>
        <time>2024-03-07T14:48:30.019Z</time>
      </trkpt>
      <trkpt lat="43.44162" lon="3.47894">
        <ele>80</ele>
        <time>2024-03-07T14:48:33.040Z</time>
      </trkpt>
      <trkpt lat="43.4417" lon="3.47904">
        <ele>80.1</ele>
        <time>2024-03-07T14:48:37.027Z</time>
      </trkpt>
      <trkpt lat="43.4418" lon="3.47911">
        <ele>80.1</ele>
        <time>2024-03-07T14:48:41.042Z</time>
      </trkpt>
      <trkpt lat="43.44189" lon="3.47916">
        <ele>80</ele>
        <time>2024-03-07T14:48:45.028Z</time>
      </trkpt>
      <trkpt lat="43.44195" lon="3.47928">
        <ele>80</ele>
        <time>2024-03-07T14:48:50.025Z</time>
      </trkpt>
      <trkpt lat="43.44201" lon="3.4794">
        <ele>79.6</ele>
        <time>2024-03-07T14:48:54.040Z</time>
      </trkpt>
      <trkpt lat="43.44208" lon="3.47947">
        <ele>79</ele>
        <time>2024-03-07T14:48:58.039Z</time>
      </trkpt>
      <trkpt lat="43.44217" lon="3.4794">
        <ele>78.5</ele>
        <time>2024-03-07T14:49:01.027Z</time>
      </trkpt>
      <trkpt lat="43.44226" lon="3.47929">
        <ele>78.4</ele>
        <time>2024-03-07T14:49:04.024Z</time>
      </trkpt>
      <trkpt lat="43.44234" lon="3.47917">
        <ele>78.6</ele>
        <time>2024-03-07T14:49:07.032Z</time>
      </trkpt>
      <trkpt lat="43.44241" lon="3.47904">
        <ele>79.2</ele>
        <time>2024-03-07T14:49:10.029Z</time>
      </trkpt>
      <trkpt lat="43.44247" lon="3.47888">
        <ele>80.1</ele>
        <time>2024-03-07T14:49:13.029Z</time>
      </trkpt>
      <trkpt lat="43.4425" lon="3.47875">
        <ele>80</ele>
        <time>2024-03-07T14:49:15.032Z</time>
      </trkpt>
      <trkpt lat="43.44254" lon="3.47864">
        <ele>79.8</ele>
        <time>2024-03-07T14:49:17.027Z</time>
      </trkpt>
      <trkpt lat="43.44262" lon="3.4785">
        <ele>80</ele>
        <time>2024-03-07T14:49:20.039Z</time>
      </trkpt>
      <trkpt lat="43.44266" lon="3.47838">
        <ele>80.3</ele>
        <time>2024-03-07T14:49:22.036Z</time>
      </trkpt>
      <trkpt lat="43.4427" lon="3.47825">
        <ele>80.6</ele>
        <time>2024-03-07T14:49:24.028Z</time>
      </trkpt>
      <trkpt lat="43.44273" lon="3.47811">
        <ele>81</ele>
        <time>2024-03-07T14:49:26.032Z</time>
      </trkpt>
      <trkpt lat="43.44272" lon="3.47793">
        <ele>81.3</ele>
        <time>2024-03-07T14:49:29.032Z</time>
      </trkpt>
      <trkpt lat="43.44276" lon="3.4778">
        <ele>81.1</ele>
        <time>2024-03-07T14:49:32.024Z</time>
      </trkpt>
      <trkpt lat="43.44285" lon="3.4777">
        <ele>80.9</ele>
        <time>2024-03-07T14:49:35.024Z</time>
      </trkpt>
      <trkpt lat="43.44285" lon="3.47756">
        <ele>81.3</ele>
        <time>2024-03-07T14:49:38.036Z</time>
      </trkpt>
      <trkpt lat="43.44278" lon="3.47741">
        <ele>81.7</ele>
        <time>2024-03-07T14:49:41.033Z</time>
      </trkpt>
      <trkpt lat="43.44274" lon="3.47728">
        <ele>81.3</ele>
        <time>2024-03-07T14:49:43.022Z</time>
      </trkpt>
      <trkpt lat="43.44271" lon="3.47711">
        <ele>82.1</ele>
        <time>2024-03-07T14:49:46.032Z</time>
      </trkpt>
      <trkpt lat="43.44274" lon="3.47696">
        <ele>83</ele>
        <time>2024-03-07T14:49:49.021Z</time>
      </trkpt>
      <trkpt lat="43.44278" lon="3.47679">
        <ele>83.5</ele>
        <time>2024-03-07T14:49:52.023Z</time>
      </trkpt>
      <trkpt lat="43.44282" lon="3.47666">
        <ele>83.7</ele>
        <time>2024-03-07T14:49:54.023Z</time>
      </trkpt>
      <trkpt lat="43.44286" lon="3.47654">
        <ele>84</ele>
        <time>2024-03-07T14:49:56.032Z</time>
      </trkpt>
      <trkpt lat="43.44291" lon="3.47637">
        <ele>84.6</ele>
        <time>2024-03-07T14:49:59.036Z</time>
      </trkpt>
      <trkpt lat="43.44295" lon="3.47625">
        <ele>85.1</ele>
        <time>2024-03-07T14:50:01.019Z</time>
      </trkpt>
      <trkpt lat="43.443" lon="3.47608">
        <ele>85.7</ele>
        <time>2024-03-07T14:50:04.019Z</time>
      </trkpt>
      <trkpt lat="43.44304" lon="3.47592">
        <ele>86.6</ele>
        <time>2024-03-07T14:50:07.022Z</time>
      </trkpt>
      <trkpt lat="43.44307" lon="3.47577">
        <ele>87.1</ele>
        <time>2024-03-07T14:50:10.029Z</time>
      </trkpt>
      <trkpt lat="43.4431" lon="3.47562">
        <ele>87.4</ele>
        <time>2024-03-07T14:50:13.024Z</time>
      </trkpt>
      <trkpt lat="43.44314" lon="3.47549">
        <ele>87.9</ele>
        <time>2024-03-07T14:50:16.024Z</time>
      </trkpt>
      <trkpt lat="43.44319" lon="3.47537">
        <ele>88.4</ele>
        <time>2024-03-07T14:50:19.034Z</time>
      </trkpt>
      <trkpt lat="43.44324" lon="3.47524">
        <ele>88.8</ele>
        <time>2024-03-07T14:50:22.030Z</time>
      </trkpt>
      <trkpt lat="43.44325" lon="3.47512">
        <ele>89.2</ele>
        <time>2024-03-07T14:50:25.031Z</time>
      </trkpt>
      <trkpt lat="43.44322" lon="3.47498">
        <ele>89.8</ele>
        <time>2024-03-07T14:50:30.026Z</time>
      </trkpt>
      <trkpt lat="43.4432" lon="3.47483">
        <ele>89.6</ele>
        <time>2024-03-07T14:50:33.028Z</time>
      </trkpt>
      <trkpt lat="43.44317" lon="3.47469">
        <ele>89.5</ele>
        <time>2024-03-07T14:50:35.038Z</time>
      </trkpt>
      <trkpt lat="43.44314" lon="3.47456">
        <ele>88.9</ele>
        <time>2024-03-07T14:50:37.029Z</time>
      </trkpt>
      <trkpt lat="43.44308" lon="3.47444">
        <ele>88.7</ele>
        <time>2024-03-07T14:50:39.027Z</time>
      </trkpt>
      <trkpt lat="43.44301" lon="3.47434">
        <ele>88.1</ele>
        <time>2024-03-07T14:50:41.042Z</time>
      </trkpt>
      <trkpt lat="43.4429" lon="3.47426">
        <ele>87.4</ele>
        <time>2024-03-07T14:50:44.020Z</time>
      </trkpt>
      <trkpt lat="43.44278" lon="3.47422">
        <ele>87</ele>
        <time>2024-03-07T14:50:47.027Z</time>
      </trkpt>
      <trkpt lat="43.44269" lon="3.4742">
        <ele>85.2</ele>
        <time>2024-03-07T14:50:49.037Z</time>
      </trkpt>
      <trkpt lat="43.44259" lon="3.47419">
        <ele>83.5</ele>
        <time>2024-03-07T14:50:51.025Z</time>
      </trkpt>
      <trkpt lat="43.44247" lon="3.47417">
        <ele>81.7</ele>
        <time>2024-03-07T14:50:53.034Z</time>
      </trkpt>
      <trkpt lat="43.44235" lon="3.47414">
        <ele>80.4</ele>
        <time>2024-03-07T14:50:55.036Z</time>
      </trkpt>
      <trkpt lat="43.44226" lon="3.47407">
        <ele>79.4</ele>
        <time>2024-03-07T14:50:57.027Z</time>
      </trkpt>
      <trkpt lat="43.44217" lon="3.47401">
        <ele>78.6</ele>
        <time>2024-03-07T14:50:59.033Z</time>
      </trkpt>
      <trkpt lat="43.44211" lon="3.47392">
        <ele>78.5</ele>
        <time>2024-03-07T14:51:01.023Z</time>
      </trkpt>
      <trkpt lat="43.44207" lon="3.47378">
        <ele>78.7</ele>
        <time>2024-03-07T14:51:04.025Z</time>
      </trkpt>
      <trkpt lat="43.44205" lon="3.47363">
        <ele>79</ele>
        <time>2024-03-07T14:51:08.037Z</time>
      </trkpt>
      <trkpt lat="43.442" lon="3.47349">
        <ele>78.6</ele>
        <time>2024-03-07T14:51:11.034Z</time>
      </trkpt>
      <trkpt lat="43.44197" lon="3.47335">
        <ele>78.1</ele>
        <time>2024-03-07T14:51:14.020Z</time>
      </trkpt>
      <trkpt lat="43.44192" lon="3.47322">
        <ele>76.4</ele>
        <time>2024-03-07T14:51:18.020Z</time>
      </trkpt>
      <trkpt lat="43.44184" lon="3.47313">
        <ele>74.5</ele>
        <time>2024-03-07T14:51:20.021Z</time>
      </trkpt>
      <trkpt lat="43.44181" lon="3.47301">
        <ele>73.4</ele>
        <time>2024-03-07T14:51:22.029Z</time>
      </trkpt>
      <trkpt lat="43.44188" lon="3.47288">
        <ele>73.7</ele>
        <time>2024-03-07T14:51:25.020Z</time>
      </trkpt>
      <trkpt lat="43.44197" lon="3.47282">
        <ele>74.3</ele>
        <time>2024-03-07T14:51:28.039Z</time>
      </trkpt>
      <trkpt lat="43.44207" lon="3.47255">
        <ele>73.6</ele>
        <time>2024-03-07T14:51:48.040Z</time>
      </trkpt>
      <trkpt lat="43.44207" lon="3.47241">
        <ele>73.4</ele>
        <time>2024-03-07T14:51:51.036Z</time>
      </trkpt>
      <trkpt lat="43.44209" lon="3.47227">
        <ele>73.5</ele>
        <time>2024-03-07T14:51:54.027Z</time>
      </trkpt>
      <trkpt lat="43.44207" lon="3.47215">
        <ele>73.8</ele>
        <time>2024-03-07T14:51:56.022Z</time>
      </trkpt>
      <trkpt lat="43.44201" lon="3.47205">
        <ele>74</ele>
        <time>2024-03-07T14:51:58.033Z</time>
      </trkpt>
      <trkpt lat="43.44193" lon="3.47198">
        <ele>73.8</ele>
        <time>2024-03-07T14:52:00.031Z</time>
      </trkpt>
      <trkpt lat="43.44185" lon="3.47189">
        <ele>73.4</ele>
        <time>2024-03-07T14:52:02.032Z</time>
      </trkpt>
      <trkpt lat="43.44178" lon="3.47177">
        <ele>72.7</ele>
        <time>2024-03-07T14:52:04.022Z</time>
      </trkpt>
      <trkpt lat="43.44172" lon="3.47164">
        <ele>71.8</ele>
        <time>2024-03-07T14:52:06.050Z</time>
      </trkpt>
      <trkpt lat="43.44165" lon="3.4715">
        <ele>71.5</ele>
        <time>2024-03-07T14:52:08.029Z</time>
      </trkpt>
      <trkpt lat="43.44159" lon="3.47142">
        <ele>71.6</ele>
        <time>2024-03-07T14:52:10.024Z</time>
      </trkpt>
      <trkpt lat="43.44157" lon="3.47128">
        <ele>71.8</ele>
        <time>2024-03-07T14:52:18.020Z</time>
      </trkpt>
      <trkpt lat="43.44161" lon="3.47113">
        <ele>72</ele>
        <time>2024-03-07T14:52:22.029Z</time>
      </trkpt>
      <trkpt lat="43.44158" lon="3.471">
        <ele>71.6</ele>
        <time>2024-03-07T14:52:25.024Z</time>
      </trkpt>
      <trkpt lat="43.44151" lon="3.47085">
        <ele>71.1</ele>
        <time>2024-03-07T14:52:28.020Z</time>
      </trkpt>
      <trkpt lat="43.44145" lon="3.47075">
        <ele>70.6</ele>
        <time>2024-03-07T14:52:31.017Z</time>
      </trkpt>
      <trkpt lat="43.44142" lon="3.47062">
        <ele>70.1</ele>
        <time>2024-03-07T14:52:35.021Z</time>
      </trkpt>
      <trkpt lat="43.44134" lon="3.47055">
        <ele>70</ele>
        <time>2024-03-07T14:52:37.036Z</time>
      </trkpt>
      <trkpt lat="43.44124" lon="3.47046">
        <ele>69.7</ele>
        <time>2024-03-07T14:52:39.044Z</time>
      </trkpt>
      <trkpt lat="43.44118" lon="3.47036">
        <ele>69.3</ele>
        <time>2024-03-07T14:52:42.027Z</time>
      </trkpt>
      <trkpt lat="43.44113" lon="3.47022">
        <ele>68.6</ele>
        <time>2024-03-07T14:52:45.034Z</time>
      </trkpt>
      <trkpt lat="43.44108" lon="3.47006">
        <ele>67.6</ele>
        <time>2024-03-07T14:52:48.027Z</time>
      </trkpt>
      <trkpt lat="43.44107" lon="3.46992">
        <ele>67</ele>
        <time>2024-03-07T14:52:53.018Z</time>
      </trkpt>
      <trkpt lat="43.44106" lon="3.46978">
        <ele>66.6</ele>
        <time>2024-03-07T14:52:57.030Z</time>
      </trkpt>
      <trkpt lat="43.44107" lon="3.46961">
        <ele>65.8</ele>
        <time>2024-03-07T14:53:00.031Z</time>
      </trkpt>
      <trkpt lat="43.44111" lon="3.46931">
        <ele>64.5</ele>
        <time>2024-03-07T14:53:45.042Z</time>
      </trkpt>
      <trkpt lat="43.44116" lon="3.46916">
        <ele>63.4</ele>
        <time>2024-03-07T14:53:48.023Z</time>
      </trkpt>
      <trkpt lat="43.44117" lon="3.46904">
        <ele>62.5</ele>
        <time>2024-03-07T14:53:55.039Z</time>
      </trkpt>
      <trkpt lat="43.44121" lon="3.46884">
        <ele>61.1</ele>
        <time>2024-03-07T14:53:58.047Z</time>
      </trkpt>
      <trkpt lat="43.44122" lon="3.4687">
        <ele>60.5</ele>
        <time>2024-03-07T14:54:00.032Z</time>
      </trkpt>
      <trkpt lat="43.44127" lon="3.46858">
        <ele>59.7</ele>
        <time>2024-03-07T14:54:03.026Z</time>
      </trkpt>
      <trkpt lat="43.44124" lon="3.46845">
        <ele>59.2</ele>
        <time>2024-03-07T14:54:07.040Z</time>
      </trkpt>
      <trkpt lat="43.44117" lon="3.46836">
        <ele>59</ele>
        <time>2024-03-07T14:54:10.031Z</time>
      </trkpt>
      <trkpt lat="43.44117" lon="3.46821">
        <ele>58.8</ele>
        <time>2024-03-07T14:54:13.030Z</time>
      </trkpt>
      <trkpt lat="43.44117" lon="3.46803">
        <ele>59</ele>
        <time>2024-03-07T14:54:16.029Z</time>
      </trkpt>
      <trkpt lat="43.44118" lon="3.46791">
        <ele>59.7</ele>
        <time>2024-03-07T14:54:18.028Z</time>
      </trkpt>
      <trkpt lat="43.44118" lon="3.46773">
        <ele>60.7</ele>
        <time>2024-03-07T14:54:21.034Z</time>
      </trkpt>
      <trkpt lat="43.44115" lon="3.46762">
        <ele>61.3</ele>
        <time>2024-03-07T14:54:23.027Z</time>
      </trkpt>
      <trkpt lat="43.44112" lon="3.46749">
        <ele>62</ele>
        <time>2024-03-07T14:54:25.041Z</time>
      </trkpt>
      <trkpt lat="43.4411" lon="3.46735">
        <ele>62.6</ele>
        <time>2024-03-07T14:54:27.023Z</time>
      </trkpt>
      <trkpt lat="43.44106" lon="3.46718">
        <ele>63</ele>
        <time>2024-03-07T14:54:30.042Z</time>
      </trkpt>
      <trkpt lat="43.44104" lon="3.46705">
        <ele>63</ele>
        <time>2024-03-07T14:54:32.032Z</time>
      </trkpt>
      <trkpt lat="43.44104" lon="3.46691">
        <ele>62.9</ele>
        <time>2024-03-07T14:54:34.029Z</time>
      </trkpt>
      <trkpt lat="43.44104" lon="3.46678">
        <ele>62.6</ele>
        <time>2024-03-07T14:54:36.018Z</time>
      </trkpt>
      <trkpt lat="43.44101" lon="3.46665">
        <ele>62.4</ele>
        <time>2024-03-07T14:54:38.034Z</time>
      </trkpt>
      <trkpt lat="43.44099" lon="3.46651">
        <ele>63.1</ele>
        <time>2024-03-07T14:54:40.030Z</time>
      </trkpt>
      <trkpt lat="43.44097" lon="3.46638">
        <ele>63.5</ele>
        <time>2024-03-07T14:54:42.031Z</time>
      </trkpt>
      <trkpt lat="43.44091" lon="3.46623">
        <ele>62.4</ele>
        <time>2024-03-07T14:54:45.027Z</time>
      </trkpt>
      <trkpt lat="43.44082" lon="3.46615">
        <ele>61.3</ele>
        <time>2024-03-07T14:54:48.042Z</time>
      </trkpt>
      <trkpt lat="43.44072" lon="3.46614">
        <ele>61.1</ele>
        <time>2024-03-07T14:54:52.020Z</time>
      </trkpt>
      <trkpt lat="43.44064" lon="3.46605">
        <ele>60.6</ele>
        <time>2024-03-07T14:54:59.022Z</time>
      </trkpt>
      <trkpt lat="43.44056" lon="3.46599">
        <ele>60.1</ele>
        <time>2024-03-07T14:55:08.035Z</time>
      </trkpt>
      <trkpt lat="43.44045" lon="3.46597">
        <ele>59.8</ele>
        <time>2024-03-07T14:55:12.029Z</time>
      </trkpt>
      <trkpt lat="43.44038" lon="3.46582">
        <ele>58.9</ele>
        <time>2024-03-07T14:55:15.035Z</time>
      </trkpt>
      <trkpt lat="43.44038" lon="3.46569">
        <ele>58.3</ele>
        <time>2024-03-07T14:55:17.029Z</time>
      </trkpt>
      <trkpt lat="43.44046" lon="3.46563">
        <ele>57.8</ele>
        <time>2024-03-07T14:55:22.037Z</time>
      </trkpt>
      <trkpt lat="43.44038" lon="3.46548">
        <ele>57.5</ele>
        <time>2024-03-07T14:55:55.033Z</time>
      </trkpt>
      <trkpt lat="43.44034" lon="3.46532">
        <ele>57.6</ele>
        <time>2024-03-07T14:55:58.028Z</time>
      </trkpt>
      <trkpt lat="43.44027" lon="3.46522">
        <ele>57.8</ele>
        <time>2024-03-07T14:56:01.031Z</time>
      </trkpt>
      <trkpt lat="43.4402" lon="3.46512">
        <ele>57.8</ele>
        <time>2024-03-07T14:56:04.016Z</time>
      </trkpt>
      <trkpt lat="43.44011" lon="3.46504">
        <ele>58.2</ele>
        <time>2024-03-07T14:56:08.039Z</time>
      </trkpt>
      <trkpt lat="43.4401" lon="3.46489">
        <ele>58.1</ele>
        <time>2024-03-07T14:56:12.034Z</time>
      </trkpt>
      <trkpt lat="43.4401" lon="3.46475">
        <ele>58</ele>
        <time>2024-03-07T14:56:14.032Z</time>
      </trkpt>
      <trkpt lat="43.44007" lon="3.46458">
        <ele>58.2</ele>
        <time>2024-03-07T14:56:17.043Z</time>
      </trkpt>
      <trkpt lat="43.44009" lon="3.46441">
        <ele>57.9</ele>
        <time>2024-03-07T14:56:20.022Z</time>
      </trkpt>
      <trkpt lat="43.44013" lon="3.46428">
        <ele>57.3</ele>
        <time>2024-03-07T14:56:23.023Z</time>
      </trkpt>
      <trkpt lat="43.44017" lon="3.46416">
        <ele>56.8</ele>
        <time>2024-03-07T14:56:26.028Z</time>
      </trkpt>
      <trkpt lat="43.44015" lon="3.46402">
        <ele>56.6</ele>
        <time>2024-03-07T14:56:29.039Z</time>
      </trkpt>
      <trkpt lat="43.44011" lon="3.46388">
        <ele>56.8</ele>
        <time>2024-03-07T14:56:32.032Z</time>
      </trkpt>
      <trkpt lat="43.44004" lon="3.46376">
        <ele>56.8</ele>
        <time>2024-03-07T14:56:36.040Z</time>
      </trkpt>
      <trkpt lat="43.44003" lon="3.46362">
        <ele>55.9</ele>
        <time>2024-03-07T14:56:40.045Z</time>
      </trkpt>
      <trkpt lat="43.43998" lon="3.46351">
        <ele>55.8</ele>
        <time>2024-03-07T14:56:44.026Z</time>
      </trkpt>
      <trkpt lat="43.43993" lon="3.46336">
        <ele>55.4</ele>
        <time>2024-03-07T14:56:49.037Z</time>
      </trkpt>
      <trkpt lat="43.43984" lon="3.46329">
        <ele>55.3</ele>
        <time>2024-03-07T14:56:54.025Z</time>
      </trkpt>
      <trkpt lat="43.43972" lon="3.46328">
        <ele>55.6</ele>
        <time>2024-03-07T14:56:58.031Z</time>
      </trkpt>
      <trkpt lat="43.4396" lon="3.46326">
        <ele>55.4</ele>
        <time>2024-03-07T14:57:01.025Z</time>
      </trkpt>
      <trkpt lat="43.4395" lon="3.46325">
        <ele>55.2</ele>
        <time>2024-03-07T14:57:04.025Z</time>
      </trkpt>
      <trkpt lat="43.43941" lon="3.4633">
        <ele>55.3</ele>
        <time>2024-03-07T14:57:06.040Z</time>
      </trkpt>
      <trkpt lat="43.43935" lon="3.46346">
        <ele>55.7</ele>
        <time>2024-03-07T14:57:09.027Z</time>
      </trkpt>
      <trkpt lat="43.43928" lon="3.46361">
        <ele>55.6</ele>
        <time>2024-03-07T14:57:12.034Z</time>
      </trkpt>
      <trkpt lat="43.43915" lon="3.46366">
        <ele>54.1</ele>
        <time>2024-03-07T14:57:15.019Z</time>
      </trkpt>
      <trkpt lat="43.43906" lon="3.4637">
        <ele>53.7</ele>
        <time>2024-03-07T14:57:17.026Z</time>
      </trkpt>
      <trkpt lat="43.43896" lon="3.46372">
        <ele>53.2</ele>
        <time>2024-03-07T14:57:19.025Z</time>
      </trkpt>
      <trkpt lat="43.43886" lon="3.46367">
        <ele>52.4</ele>
        <time>2024-03-07T14:57:21.028Z</time>
      </trkpt>
      <trkpt lat="43.43879" lon="3.46357">
        <ele>51.8</ele>
        <time>2024-03-07T14:57:23.028Z</time>
      </trkpt>
      <trkpt lat="43.43871" lon="3.46346">
        <ele>51.3</ele>
        <time>2024-03-07T14:57:26.039Z</time>
      </trkpt>
      <trkpt lat="43.4386" lon="3.46342">
        <ele>51.3</ele>
        <time>2024-03-07T14:57:30.048Z</time>
      </trkpt>
      <trkpt lat="43.43852" lon="3.46335">
        <ele>51</ele>
        <time>2024-03-07T14:57:34.033Z</time>
      </trkpt>
      <trkpt lat="43.43842" lon="3.46328">
        <ele>50.7</ele>
        <time>2024-03-07T14:57:38.026Z</time>
      </trkpt>
      <trkpt lat="43.43844" lon="3.46311">
        <ele>49.9</ele>
        <time>2024-03-07T14:57:42.032Z</time>
      </trkpt>
      <trkpt lat="43.43854" lon="3.463">
        <ele>48.9</ele>
        <time>2024-03-07T14:57:45.037Z</time>
      </trkpt>
      <trkpt lat="43.43863" lon="3.46293">
        <ele>48.1</ele>
        <time>2024-03-07T14:57:47.032Z</time>
      </trkpt>
      <trkpt lat="43.43873" lon="3.46288">
        <ele>47.7</ele>
        <time>2024-03-07T14:57:49.025Z</time>
      </trkpt>
      <trkpt lat="43.43882" lon="3.4628">
        <ele>47.2</ele>
        <time>2024-03-07T14:57:52.034Z</time>
      </trkpt>
      <trkpt lat="43.43887" lon="3.46264">
        <ele>46.5</ele>
        <time>2024-03-07T14:57:55.035Z</time>
      </trkpt>
      <trkpt lat="43.4389" lon="3.46248">
        <ele>46</ele>
        <time>2024-03-07T14:57:58.031Z</time>
      </trkpt>
      <trkpt lat="43.43894" lon="3.46236">
        <ele>45.9</ele>
        <time>2024-03-07T14:58:00.032Z</time>
      </trkpt>
      <trkpt lat="43.439" lon="3.46222">
        <ele>45.8</ele>
        <time>2024-03-07T14:58:03.033Z</time>
      </trkpt>
      <trkpt lat="43.43906" lon="3.46209">
        <ele>45.6</ele>
        <time>2024-03-07T14:58:06.036Z</time>
      </trkpt>
      <trkpt lat="43.43913" lon="3.46195">
        <ele>45</ele>
        <time>2024-03-07T14:58:09.034Z</time>
      </trkpt>
      <trkpt lat="43.43919" lon="3.4618">
        <ele>45</ele>
        <time>2024-03-07T14:58:12.028Z</time>
      </trkpt>
      <trkpt lat="43.43924" lon="3.46167">
        <ele>44.7</ele>
        <time>2024-03-07T14:58:14.032Z</time>
      </trkpt>
      <trkpt lat="43.4393" lon="3.46156">
        <ele>44.5</ele>
        <time>2024-03-07T14:58:16.022Z</time>
      </trkpt>
      <trkpt lat="43.43936" lon="3.46147">
        <ele>44.3</ele>
        <time>2024-03-07T14:58:18.022Z</time>
      </trkpt>
      <trkpt lat="43.43943" lon="3.46136">
        <ele>44.1</ele>
        <time>2024-03-07T14:58:20.043Z</time>
      </trkpt>
      <trkpt lat="43.43945" lon="3.46121">
        <ele>44.1</ele>
        <time>2024-03-07T14:58:22.037Z</time>
      </trkpt>
      <trkpt lat="43.43944" lon="3.46106">
        <ele>44.2</ele>
        <time>2024-03-07T14:58:24.034Z</time>
      </trkpt>
      <trkpt lat="43.43945" lon="3.4609">
        <ele>44.8</ele>
        <time>2024-03-07T14:58:26.020Z</time>
      </trkpt>
      <trkpt lat="43.43947" lon="3.46076">
        <ele>44.9</ele>
        <time>2024-03-07T14:58:28.023Z</time>
      </trkpt>
      <trkpt lat="43.4395" lon="3.46064">
        <ele>44.8</ele>
        <time>2024-03-07T14:58:30.027Z</time>
      </trkpt>
      <trkpt lat="43.43953" lon="3.46051">
        <ele>45</ele>
        <time>2024-03-07T14:58:32.028Z</time>
      </trkpt>
      <trkpt lat="43.43955" lon="3.46039">
        <ele>45.5</ele>
        <time>2024-03-07T14:58:34.021Z</time>
      </trkpt>
      <trkpt lat="43.43959" lon="3.46023">
        <ele>46</ele>
        <time>2024-03-07T14:58:37.028Z</time>
      </trkpt>
      <trkpt lat="43.43964" lon="3.46006">
        <ele>46.1</ele>
        <time>2024-03-07T14:58:40.035Z</time>
      </trkpt>
      <trkpt lat="43.43968" lon="3.45994">
        <ele>46.2</ele>
        <time>2024-03-07T14:58:42.034Z</time>
      </trkpt>
      <trkpt lat="43.43971" lon="3.45982">
        <ele>46.6</ele>
        <time>2024-03-07T14:58:44.023Z</time>
      </trkpt>
      <trkpt lat="43.43974" lon="3.4597">
        <ele>47.1</ele>
        <time>2024-03-07T14:58:46.024Z</time>
      </trkpt>
      <trkpt lat="43.43977" lon="3.45957">
        <ele>47.6</ele>
        <time>2024-03-07T14:58:48.029Z</time>
      </trkpt>
      <trkpt lat="43.43981" lon="3.45945">
        <ele>48</ele>
        <time>2024-03-07T14:58:50.026Z</time>
      </trkpt>
      <trkpt lat="43.43985" lon="3.45933">
        <ele>48.2</ele>
        <time>2024-03-07T14:58:52.028Z</time>
      </trkpt>
      <trkpt lat="43.43989" lon="3.45921">
        <ele>48.3</ele>
        <time>2024-03-07T14:58:54.044Z</time>
      </trkpt>
      <trkpt lat="43.43994" lon="3.45908">
        <ele>48.8</ele>
        <time>2024-03-07T14:58:56.034Z</time>
      </trkpt>
      <trkpt lat="43.43998" lon="3.45895">
        <ele>49.6</ele>
        <time>2024-03-07T14:58:58.034Z</time>
      </trkpt>
      <trkpt lat="43.44002" lon="3.45882">
        <ele>50.4</ele>
        <time>2024-03-07T14:59:00.031Z</time>
      </trkpt>
      <trkpt lat="43.44005" lon="3.45869">
        <ele>51.1</ele>
        <time>2024-03-07T14:59:02.024Z</time>
      </trkpt>
      <trkpt lat="43.44009" lon="3.45852">
        <ele>52.3</ele>
        <time>2024-03-07T14:59:05.027Z</time>
      </trkpt>
      <trkpt lat="43.44011" lon="3.45837">
        <ele>53.6</ele>
        <time>2024-03-07T14:59:08.026Z</time>
      </trkpt>
      <trkpt lat="43.44011" lon="3.45821">
        <ele>54.5</ele>
        <time>2024-03-07T14:59:11.035Z</time>
      </trkpt>
      <trkpt lat="43.4401" lon="3.45804">
        <ele>55.2</ele>
        <time>2024-03-07T14:59:14.029Z</time>
      </trkpt>
      <trkpt lat="43.44011" lon="3.45787">
        <ele>55</ele>
        <time>2024-03-07T14:59:17.023Z</time>
      </trkpt>
      <trkpt lat="43.44016" lon="3.45771">
        <ele>54.3</ele>
        <time>2024-03-07T14:59:20.040Z</time>
      </trkpt>
      <trkpt lat="43.44021" lon="3.45754">
        <ele>53.9</ele>
        <time>2024-03-07T14:59:23.029Z</time>
      </trkpt>
      <trkpt lat="43.44025" lon="3.45743">
        <ele>53.6</ele>
        <time>2024-03-07T14:59:25.036Z</time>
      </trkpt>
      <trkpt lat="43.44029" lon="3.45727">
        <ele>53.9</ele>
        <time>2024-03-07T14:59:28.028Z</time>
      </trkpt>
      <trkpt lat="43.44034" lon="3.45714">
        <ele>54.5</ele>
        <time>2024-03-07T14:59:31.021Z</time>
      </trkpt>
      <trkpt lat="43.4404" lon="3.45704">
        <ele>55.1</ele>
        <time>2024-03-07T14:59:34.014Z</time>
      </trkpt>
      <trkpt lat="43.44045" lon="3.45692">
        <ele>55.6</ele>
        <time>2024-03-07T14:59:38.027Z</time>
      </trkpt>
      <trkpt lat="43.44051" lon="3.45682">
        <ele>55.8</ele>
        <time>2024-03-07T14:59:43.034Z</time>
      </trkpt>
      <trkpt lat="43.44054" lon="3.45669">
        <ele>55.9</ele>
        <time>2024-03-07T14:59:51.038Z</time>
      </trkpt>
      <trkpt lat="43.44053" lon="3.45653">
        <ele>56.8</ele>
      </trkpt>
      <trkpt lat="43.44052" lon="3.45641">
        <ele>57.6</ele>
      </trkpt>
      <trkpt lat="43.44051" lon="3.45626">
        <ele>58.2</ele>
        <time>2024-03-07T15:00:32.029Z</time>
      </trkpt>
      <trkpt lat="43.44052" lon="3.45607">
        <ele>59.3</ele>
        <time>2024-03-07T15:00:35.032Z</time>
      </trkpt>
      <trkpt lat="43.44054" lon="3.45589">
        <ele>61.4</ele>
        <time>2024-03-07T15:00:38.027Z</time>
      </trkpt>
      <trkpt lat="43.44054" lon="3.45574">
        <ele>63.3</ele>
        <time>2024-03-07T15:00:41.039Z</time>
      </trkpt>
      <trkpt lat="43.44053" lon="3.45561">
        <ele>65.2</ele>
        <time>2024-03-07T15:00:44.028Z</time>
      </trkpt>
      <trkpt lat="43.44051" lon="3.45549">
        <ele>66.5</ele>
        <time>2024-03-07T15:00:47.023Z</time>
      </trkpt>
      <trkpt lat="43.44048" lon="3.45536">
        <ele>67.8</ele>
        <time>2024-03-07T15:00:51.037Z</time>
      </trkpt>
      <trkpt lat="43.44046" lon="3.45522">
        <ele>69.1</ele>
        <time>2024-03-07T15:00:54.027Z</time>
      </trkpt>
      <trkpt lat="43.44045" lon="3.45508">
        <ele>70.2</ele>
        <time>2024-03-07T15:00:57.017Z</time>
      </trkpt>
      <trkpt lat="43.44041" lon="3.45496">
        <ele>70.6</ele>
        <time>2024-03-07T15:01:00.018Z</time>
      </trkpt>
      <trkpt lat="43.44034" lon="3.45483">
        <ele>69.9</ele>
        <time>2024-03-07T15:01:04.035Z</time>
      </trkpt>
      <trkpt lat="43.44025" lon="3.45472">
        <ele>69.6</ele>
        <time>2024-03-07T15:01:07.035Z</time>
      </trkpt>
      <trkpt lat="43.44018" lon="3.45464">
        <ele>66.9</ele>
        <time>2024-03-07T15:01:11.036Z</time>
      </trkpt>
      <trkpt lat="43.44001" lon="3.45453">
        <ele>66.2</ele>
        <time>2024-03-07T15:01:47.034Z</time>
      </trkpt>
      <trkpt lat="43.43994" lon="3.4544">
        <ele>64.3</ele>
        <time>2024-03-07T15:01:50.031Z</time>
      </trkpt>
      <trkpt lat="43.43985" lon="3.45432">
        <ele>62.8</ele>
        <time>2024-03-07T15:01:52.024Z</time>
      </trkpt>
      <trkpt lat="43.43977" lon="3.45418">
        <ele>63.2</ele>
        <time>2024-03-07T15:01:55.034Z</time>
      </trkpt>
      <trkpt lat="43.43975" lon="3.45406">
        <ele>62.2</ele>
        <time>2024-03-07T15:01:58.041Z</time>
      </trkpt>
      <trkpt lat="43.43966" lon="3.45394">
        <ele>61.5</ele>
        <time>2024-03-07T15:02:01.038Z</time>
      </trkpt>
      <trkpt lat="43.43957" lon="3.45386">
        <ele>61</ele>
        <time>2024-03-07T15:02:03.038Z</time>
      </trkpt>
      <trkpt lat="43.43948" lon="3.45378">
        <ele>60.2</ele>
        <time>2024-03-07T15:02:05.028Z</time>
      </trkpt>
      <trkpt lat="43.43935" lon="3.45374">
        <ele>59.2</ele>
        <time>2024-03-07T15:02:08.034Z</time>
      </trkpt>
      <trkpt lat="43.43927" lon="3.45368">
        <ele>58.7</ele>
        <time>2024-03-07T15:02:10.033Z</time>
      </trkpt>
      <trkpt lat="43.43921" lon="3.45355">
        <ele>57.7</ele>
        <time>2024-03-07T15:02:13.039Z</time>
      </trkpt>
      <trkpt lat="43.43912" lon="3.45345">
        <ele>55.9</ele>
        <time>2024-03-07T15:02:16.029Z</time>
      </trkpt>
      <trkpt lat="43.43904" lon="3.45338">
        <ele>55.1</ele>
        <time>2024-03-07T15:02:18.037Z</time>
      </trkpt>
      <trkpt lat="43.43895" lon="3.45332">
        <ele>55.3</ele>
        <time>2024-03-07T15:02:20.018Z</time>
      </trkpt>
      <trkpt lat="43.43887" lon="3.45323">
        <ele>53.9</ele>
        <time>2024-03-07T15:02:22.032Z</time>
      </trkpt>
      <trkpt lat="43.4388" lon="3.45314">
        <ele>52.4</ele>
        <time>2024-03-07T15:02:24.021Z</time>
      </trkpt>
      <trkpt lat="43.43868" lon="3.45307">
        <ele>52.5</ele>
        <time>2024-03-07T15:02:27.037Z</time>
      </trkpt>
      <trkpt lat="43.43855" lon="3.45309">
        <ele>51.5</ele>
        <time>2024-03-07T15:02:30.032Z</time>
      </trkpt>
      <trkpt lat="43.43845" lon="3.45303">
        <ele>50.1</ele>
        <time>2024-03-07T15:02:32.032Z</time>
      </trkpt>
      <trkpt lat="43.43834" lon="3.45296">
        <ele>48.8</ele>
        <time>2024-03-07T15:02:34.015Z</time>
      </trkpt>
      <trkpt lat="43.43824" lon="3.45289">
        <ele>47.4</ele>
        <time>2024-03-07T15:02:36.035Z</time>
      </trkpt>
      <trkpt lat="43.43813" lon="3.4528">
        <ele>46.1</ele>
        <time>2024-03-07T15:02:38.022Z</time>
      </trkpt>
      <trkpt lat="43.43803" lon="3.45273">
        <ele>44.6</ele>
        <time>2024-03-07T15:02:40.023Z</time>
      </trkpt>
      <trkpt lat="43.43797" lon="3.45264">
        <ele>43.8</ele>
        <time>2024-03-07T15:02:42.033Z</time>
      </trkpt>
      <trkpt lat="43.43791" lon="3.45254">
        <ele>43.2</ele>
        <time>2024-03-07T15:02:44.027Z</time>
      </trkpt>
      <trkpt lat="43.43784" lon="3.45243">
        <ele>42</ele>
        <time>2024-03-07T15:02:46.032Z</time>
      </trkpt>
      <trkpt lat="43.43776" lon="3.45237">
        <ele>40.7</ele>
        <time>2024-03-07T15:02:48.026Z</time>
      </trkpt>
      <trkpt lat="43.43765" lon="3.45235">
        <ele>38.5</ele>
        <time>2024-03-07T15:02:50.041Z</time>
      </trkpt>
      <trkpt lat="43.43754" lon="3.45232">
        <ele>36.2</ele>
        <time>2024-03-07T15:02:52.034Z</time>
      </trkpt>
      <trkpt lat="43.43746" lon="3.45224">
        <ele>34.8</ele>
        <time>2024-03-07T15:02:54.018Z</time>
      </trkpt>
      <trkpt lat="43.43747" lon="3.4521">
        <ele>34.4</ele>
        <time>2024-03-07T15:02:57.031Z</time>
      </trkpt>
      <trkpt lat="43.43737" lon="3.45204">
        <ele>34</ele>
        <time>2024-03-07T15:03:01.039Z</time>
      </trkpt>
      <trkpt lat="43.43724" lon="3.45207">
        <ele>33.6</ele>
        <time>2024-03-07T15:03:04.022Z</time>
      </trkpt>
      <trkpt lat="43.43716" lon="3.4521">
        <ele>33.9</ele>
        <time>2024-03-07T15:03:06.040Z</time>
      </trkpt>
      <trkpt lat="43.43706" lon="3.45211">
        <ele>34.7</ele>
        <time>2024-03-07T15:03:10.032Z</time>
      </trkpt>
      <trkpt lat="43.43699" lon="3.45191">
        <ele>34.9</ele>
        <time>2024-03-07T15:03:32.038Z</time>
      </trkpt>
      <trkpt lat="43.43698" lon="3.45178">
        <ele>35.4</ele>
        <time>2024-03-07T15:03:35.035Z</time>
      </trkpt>
      <trkpt lat="43.43694" lon="3.45164">
        <ele>36.3</ele>
        <time>2024-03-07T15:03:38.031Z</time>
      </trkpt>
      <trkpt lat="43.4369" lon="3.45152">
        <ele>37.5</ele>
        <time>2024-03-07T15:03:41.027Z</time>
      </trkpt>
      <trkpt lat="43.43684" lon="3.45141">
        <ele>38.7</ele>
        <time>2024-03-07T15:03:45.033Z</time>
      </trkpt>
      <trkpt lat="43.43678" lon="3.45127">
        <ele>40</ele>
        <time>2024-03-07T15:03:48.030Z</time>
      </trkpt>
      <trkpt lat="43.43671" lon="3.45117">
        <ele>40.7</ele>
        <time>2024-03-07T15:03:50.034Z</time>
      </trkpt>
      <trkpt lat="43.43661" lon="3.4511">
        <ele>41.5</ele>
        <time>2024-03-07T15:03:52.038Z</time>
      </trkpt>
      <trkpt lat="43.43651" lon="3.45107">
        <ele>42.5</ele>
        <time>2024-03-07T15:03:54.032Z</time>
      </trkpt>
      <trkpt lat="43.43639" lon="3.45107">
        <ele>43.3</ele>
        <time>2024-03-07T15:03:56.039Z</time>
      </trkpt>
      <trkpt lat="43.43627" lon="3.45109">
        <ele>44</ele>
        <time>2024-03-07T15:03:58.039Z</time>
      </trkpt>
      <trkpt lat="43.43615" lon="3.45113">
        <ele>44.7</ele>
        <time>2024-03-07T15:04:00.027Z</time>
      </trkpt>
      <trkpt lat="43.43605" lon="3.4511">
        <ele>45.3</ele>
        <time>2024-03-07T15:04:02.039Z</time>
      </trkpt>
      <trkpt lat="43.43599" lon="3.45096">
        <ele>46</ele>
        <time>2024-03-07T15:04:05.030Z</time>
      </trkpt>
      <trkpt lat="43.4359" lon="3.45082">
        <ele>46.7</ele>
        <time>2024-03-07T15:04:08.025Z</time>
      </trkpt>
      <trkpt lat="43.43579" lon="3.4507">
        <ele>45.6</ele>
        <time>2024-03-07T15:04:11.028Z</time>
      </trkpt>
      <trkpt lat="43.4357" lon="3.45061">
        <ele>44.2</ele>
        <time>2024-03-07T15:04:13.027Z</time>
      </trkpt>
      <trkpt lat="43.4356" lon="3.45051">
        <ele>43.2</ele>
        <time>2024-03-07T15:04:15.031Z</time>
      </trkpt>
      <trkpt lat="43.4355" lon="3.45046">
        <ele>42.3</ele>
        <time>2024-03-07T15:04:17.039Z</time>
      </trkpt>
      <trkpt lat="43.43541" lon="3.4504">
        <ele>41.4</ele>
        <time>2024-03-07T15:04:19.033Z</time>
      </trkpt>
      <trkpt lat="43.43532" lon="3.45029">
        <ele>40.3</ele>
        <time>2024-03-07T15:04:21.027Z</time>
      </trkpt>
      <trkpt lat="43.43531" lon="3.45013">
        <ele>39.7</ele>
        <time>2024-03-07T15:04:23.028Z</time>
      </trkpt>
      <trkpt lat="43.43533" lon="3.44998">
        <ele>39.3</ele>
        <time>2024-03-07T15:04:25.040Z</time>
      </trkpt>
      <trkpt lat="43.43534" lon="3.44983">
        <ele>39</ele>
        <time>2024-03-07T15:04:27.029Z</time>
      </trkpt>
      <trkpt lat="43.43534" lon="3.44968">
        <ele>38.6</ele>
        <time>2024-03-07T15:04:29.028Z</time>
      </trkpt>
      <trkpt lat="43.43534" lon="3.44953">
        <ele>38.5</ele>
        <time>2024-03-07T15:04:31.035Z</time>
      </trkpt>
      <trkpt lat="43.43534" lon="3.44935">
        <ele>38.4</ele>
        <time>2024-03-07T15:04:33.034Z</time>
      </trkpt>
      <trkpt lat="43.43535" lon="3.44916">
        <ele>38.5</ele>
        <time>2024-03-07T15:04:35.027Z</time>
      </trkpt>
      <trkpt lat="43.43535" lon="3.44897">
        <ele>38</ele>
        <time>2024-03-07T15:04:37.033Z</time>
      </trkpt>
      <trkpt lat="43.43537" lon="3.44879">
        <ele>37.6</ele>
        <time>2024-03-07T15:04:39.038Z</time>
      </trkpt>
      <trkpt lat="43.43539" lon="3.44864">
        <ele>37.3</ele>
        <time>2024-03-07T15:04:42.031Z</time>
      </trkpt>
      <trkpt lat="43.43542" lon="3.44851">
        <ele>37.2</ele>
        <time>2024-03-07T15:04:46.015Z</time>
      </trkpt>
      <trkpt lat="43.43545" lon="3.44838">
        <ele>37</ele>
        <time>2024-03-07T15:04:50.029Z</time>
      </trkpt>
      <trkpt lat="43.43546" lon="3.44824">
        <ele>36.7</ele>
        <time>2024-03-07T15:04:53.034Z</time>
      </trkpt>
      <trkpt lat="43.43549" lon="3.44809">
        <ele>36.6</ele>
        <time>2024-03-07T15:04:56.043Z</time>
      </trkpt>
      <trkpt lat="43.4355" lon="3.44793">
        <ele>36.5</ele>
        <time>2024-03-07T15:04:59.046Z</time>
      </trkpt>
      <trkpt lat="43.43552" lon="3.4478">
        <ele>36.6</ele>
        <time>2024-03-07T15:05:02.046Z</time>
      </trkpt>
      <trkpt lat="43.43549" lon="3.4477">
        <ele>36</ele>
      </trkpt>
      <trkpt lat="43.43545" lon="3.44758">
        <ele>35.2</ele>
      </trkpt>
      <trkpt lat="43.43542" lon="3.44747">
        <ele>34.4</ele>
        <time>2024-03-07T15:05:31.052Z</time>
      </trkpt>
      <trkpt lat="43.43535" lon="3.44738">
        <ele>33.8</ele>
        <time>2024-03-07T15:05:34.029Z</time>
      </trkpt>
      <trkpt lat="43.43538" lon="3.44719">
        <ele>33.7</ele>
        <time>2024-03-07T15:05:37.019Z</time>
      </trkpt>
      <trkpt lat="43.43541" lon="3.44702">
        <ele>33.9</ele>
        <time>2024-03-07T15:05:39.028Z</time>
      </trkpt>
      <trkpt lat="43.43544" lon="3.44687">
        <ele>33.7</ele>
        <time>2024-03-07T15:05:41.025Z</time>
      </trkpt>
      <trkpt lat="43.43547" lon="3.44673">
        <ele>33</ele>
        <time>2024-03-07T15:05:43.027Z</time>
      </trkpt>
      <trkpt lat="43.4355" lon="3.44661">
        <ele>33</ele>
        <time>2024-03-07T15:05:45.040Z</time>
      </trkpt>
      <trkpt lat="43.43555" lon="3.44645">
        <ele>34.2</ele>
        <time>2024-03-07T15:05:48.021Z</time>
      </trkpt>
      <trkpt lat="43.43559" lon="3.44633">
        <ele>34.8</ele>
        <time>2024-03-07T15:05:50.035Z</time>
      </trkpt>
      <trkpt lat="43.43562" lon="3.4462">
        <ele>34.9</ele>
        <time>2024-03-07T15:05:52.029Z</time>
      </trkpt>
      <trkpt lat="43.43561" lon="3.44608">
        <ele>35.6</ele>
        <time>2024-03-07T15:05:54.038Z</time>
      </trkpt>
      <trkpt lat="43.4356" lon="3.44594">
        <ele>35.9</ele>
        <time>2024-03-07T15:05:56.025Z</time>
      </trkpt>
      <trkpt lat="43.43559" lon="3.44579">
        <ele>35.8</ele>
        <time>2024-03-07T15:05:58.034Z</time>
      </trkpt>
      <trkpt lat="43.43555" lon="3.44566">
        <ele>35.9</ele>
        <time>2024-03-07T15:06:00.036Z</time>
      </trkpt>
      <trkpt lat="43.43551" lon="3.44555">
        <ele>36.2</ele>
        <time>2024-03-07T15:06:02.035Z</time>
      </trkpt>
      <trkpt lat="43.43548" lon="3.44539">
        <ele>34.6</ele>
        <time>2024-03-07T15:06:05.035Z</time>
      </trkpt>
      <trkpt lat="43.4354" lon="3.44525">
        <ele>34.4</ele>
        <time>2024-03-07T15:06:08.025Z</time>
      </trkpt>
      <trkpt lat="43.43531" lon="3.44514">
        <ele>34.3</ele>
        <time>2024-03-07T15:06:10.027Z</time>
      </trkpt>
      <trkpt lat="43.4352" lon="3.44505">
        <ele>33.5</ele>
        <time>2024-03-07T15:06:13.019Z</time>
      </trkpt>
      <trkpt lat="43.43511" lon="3.445">
        <ele>33.2</ele>
        <time>2024-03-07T15:06:16.035Z</time>
      </trkpt>
      <trkpt lat="43.43501" lon="3.44497">
        <ele>33.3</ele>
        <time>2024-03-07T15:06:19.029Z</time>
      </trkpt>
      <trkpt lat="43.43495" lon="3.44488">
        <ele>32.9</ele>
        <time>2024-03-07T15:06:22.027Z</time>
      </trkpt>
      <trkpt lat="43.4349" lon="3.44476">
        <ele>32.8</ele>
        <time>2024-03-07T15:06:24.032Z</time>
      </trkpt>
      <trkpt lat="43.43487" lon="3.44465">
        <ele>32.7</ele>
        <time>2024-03-07T15:06:26.022Z</time>
      </trkpt>
      <trkpt lat="43.43483" lon="3.44452">
        <ele>32.6</ele>
        <time>2024-03-07T15:06:28.024Z</time>
      </trkpt>
      <trkpt lat="43.43479" lon="3.44438">
        <ele>32.2</ele>
        <time>2024-03-07T15:06:30.026Z</time>
      </trkpt>
      <trkpt lat="43.43476" lon="3.44423">
        <ele>31.3</ele>
        <time>2024-03-07T15:06:32.031Z</time>
      </trkpt>
      <trkpt lat="43.43474" lon="3.44411">
        <ele>30.4</ele>
        <time>2024-03-07T15:06:34.023Z</time>
      </trkpt>
      <trkpt lat="43.43472" lon="3.44392">
        <ele>29.3</ele>
        <time>2024-03-07T15:06:37.029Z</time>
      </trkpt>
      <trkpt lat="43.43468" lon="3.4438">
        <ele>28.9</ele>
        <time>2024-03-07T15:06:39.026Z</time>
      </trkpt>
      <trkpt lat="43.43467" lon="3.44367">
        <ele>27.9</ele>
        <time>2024-03-07T15:06:41.034Z</time>
      </trkpt>
      <trkpt lat="43.43467" lon="3.44354">
        <ele>27</ele>
        <time>2024-03-07T15:06:43.023Z</time>
      </trkpt>
      <trkpt lat="43.43462" lon="3.44338">
        <ele>27.1</ele>
        <time>2024-03-07T15:06:46.041Z</time>
      </trkpt>
      <trkpt lat="43.4346" lon="3.44325">
        <ele>26.9</ele>
        <time>2024-03-07T15:06:48.031Z</time>
      </trkpt>
      <trkpt lat="43.4346" lon="3.44307">
        <ele>26.4</ele>
        <time>2024-03-07T15:06:51.034Z</time>
      </trkpt>
      <trkpt lat="43.43458" lon="3.44294">
        <ele>25.7</ele>
        <time>2024-03-07T15:06:53.028Z</time>
      </trkpt>
      <trkpt lat="43.43456" lon="3.4428">
        <ele>24.8</ele>
        <time>2024-03-07T15:06:56.028Z</time>
      </trkpt>
      <trkpt lat="43.43458" lon="3.44267">
        <ele>25.5</ele>
        <time>2024-03-07T15:06:59.017Z</time>
      </trkpt>
      <trkpt lat="43.43461" lon="3.44254">
        <ele>26.8</ele>
        <time>2024-03-07T15:07:01.022Z</time>
      </trkpt>
      <trkpt lat="43.43461" lon="3.44239">
        <ele>28.6</ele>
        <time>2024-03-07T15:07:04.023Z</time>
      </trkpt>
      <trkpt lat="43.43455" lon="3.44227">
        <ele>29.6</ele>
        <time>2024-03-07T15:07:08.025Z</time>
      </trkpt>
      <trkpt lat="43.43442" lon="3.44223">
        <ele>28.8</ele>
        <time>2024-03-07T15:07:11.033Z</time>
      </trkpt>
      <trkpt lat="43.43433" lon="3.44221">
        <ele>28.8</ele>
        <time>2024-03-07T15:07:13.038Z</time>
      </trkpt>
      <trkpt lat="43.43424" lon="3.4422">
        <ele>28.7</ele>
        <time>2024-03-07T15:07:15.028Z</time>
      </trkpt>
      <trkpt lat="43.43414" lon="3.44218">
        <ele>28.9</ele>
        <time>2024-03-07T15:07:17.027Z</time>
      </trkpt>
      <trkpt lat="43.43405" lon="3.44212">
        <ele>30.2</ele>
        <time>2024-03-07T15:07:19.023Z</time>
      </trkpt>
      <trkpt lat="43.43396" lon="3.44204">
        <ele>31.3</ele>
        <time>2024-03-07T15:07:22.034Z</time>
      </trkpt>
      <trkpt lat="43.43384" lon="3.44199">
        <ele>31.8</ele>
        <time>2024-03-07T15:07:25.023Z</time>
      </trkpt>
      <trkpt lat="43.43372" lon="3.44192">
        <ele>32.7</ele>
        <time>2024-03-07T15:07:28.024Z</time>
      </trkpt>
      <trkpt lat="43.43364" lon="3.44177">
        <ele>33.6</ele>
        <time>2024-03-07T15:07:31.036Z</time>
      </trkpt>
      <trkpt lat="43.4336" lon="3.44164">
        <ele>34</ele>
        <time>2024-03-07T15:07:34.021Z</time>
      </trkpt>
      <trkpt lat="43.43352" lon="3.44157">
        <ele>33.9</ele>
        <time>2024-03-07T15:07:39.034Z</time>
      </trkpt>
      <trkpt lat="43.43356" lon="3.44144">
        <ele>33.8</ele>
        <time>2024-03-07T15:07:45.033Z</time>
      </trkpt>
      <trkpt lat="43.43361" lon="3.44133">
        <ele>34</ele>
        <time>2024-03-07T15:07:48.029Z</time>
      </trkpt>
      <trkpt lat="43.43368" lon="3.44119">
        <ele>34.7</ele>
        <time>2024-03-07T15:07:51.052Z</time>
      </trkpt>
      <trkpt lat="43.43373" lon="3.44109">
        <ele>35.3</ele>
        <time>2024-03-07T15:07:54.043Z</time>
      </trkpt>
      <trkpt lat="43.43379" lon="3.44097">
        <ele>36.3</ele>
        <time>2024-03-07T15:07:57.034Z</time>
      </trkpt>
      <trkpt lat="43.43385" lon="3.44083">
        <ele>37.4</ele>
        <time>2024-03-07T15:08:00.024Z</time>
      </trkpt>
      <trkpt lat="43.43392" lon="3.44071">
        <ele>38.3</ele>
        <time>2024-03-07T15:08:03.039Z</time>
      </trkpt>
      <trkpt lat="43.43399" lon="3.44058">
        <ele>39.1</ele>
        <time>2024-03-07T15:08:06.036Z</time>
      </trkpt>
      <trkpt lat="43.43408" lon="3.44061">
        <ele>39.9</ele>
        <time>2024-03-07T15:08:09.012Z</time>
      </trkpt>
      <trkpt lat="43.43418" lon="3.44067">
        <ele>40.7</ele>
        <time>2024-03-07T15:08:13.007Z</time>
      </trkpt>
      <trkpt lat="43.43427" lon="3.44064">
        <ele>41.4</ele>
        <time>2024-03-07T15:08:17.013Z</time>
      </trkpt>
      <trkpt lat="43.43432" lon="3.44062">
        <ele>41.9</ele>
      </trkpt>
      <trkpt lat="43.43437" lon="3.4406">
        <ele>42.3</ele>
        <time>2024-03-07T15:08:23.024Z</time>
      </trkpt>
      <trkpt lat="43.43442" lon="3.44054">
        <ele>42.8</ele>
        <time>2024-03-07T15:14:33.001Z</time>
      </trkpt>
    </trkseg>
  </trk>
</gpx>